<?xml version="1.0" encoding="UTF-8" standalone="no" ?><gpx xmlns="http://www.topografix.com/GPX/1/1" xmlns:gpxx="http://www.garmin.com/xmlschemas/GpxExtensions/v3" xmlns:wptx1="http://www.garmin.com/xmlschemas/WaypointExtension/v1" xmlns:gpxtpx="http://www.garmin.com/xmlschemas/TrackPointExtension/v1" creator="GuideVTT.com" version="1.1" xmlns:xsi="http://www.w3.org/2001/XMLSchema-instance" xsi:schemaLocation="http://www.topografix.com/GPX/1/1 http://www.topografix.com/GPX/1/1/gpx.xsd http://www.garmin.com/xmlschemas/GpxExtensions/v3 http://www8.garmin.com/xmlschemas/GpxExtensionsv3.xsd http://www.garmin.com/xmlschemas/WaypointExtension/v1 http://www8.garmin.com/xmlschemas/WaypointExtensionv1.xsd http://www.garmin.com/xmlschemas/TrackPointExtension/v1 http://www.garmin.com/xmlschemas/TrackPointExtensionv1.xsd">
<metadata><link href="http://www.garmin.com"><text>Garmin International</text></link><time>2013-06-22T15:13:50Z</time></metadata>
<trk><name>rp2025-19.gpx</name><extensions><gpxx:TrackExtension><gpxx:DisplayColor>Cyan</gpxx:DisplayColor></gpxx:TrackExtension></extensions><trkseg>
<trkpt lat="46.1524" lon="7.92867"><ele></ele><time>2025-8-20T10:7:38Z</time></trkpt>
<trkpt lat="46.15237" lon="7.92863"><ele></ele><time>2025-8-20T10:7:41Z</time></trkpt>
<trkpt lat="46.15237" lon="7.92862"><ele></ele><time>2025-8-20T10:7:44Z</time></trkpt>
<trkpt lat="46.15237" lon="7.92862"><ele></ele><time>2025-8-20T10:7:47Z</time></trkpt>
<trkpt lat="46.15237" lon="7.92863"><ele></ele><time>2025-8-20T10:7:50Z</time></trkpt>
<trkpt lat="46.15236" lon="7.92865"><ele></ele><time>2025-8-20T10:7:53Z</time></trkpt>
<trkpt lat="46.15236" lon="7.92865"><ele></ele><time>2025-8-20T10:7:56Z</time></trkpt>
<trkpt lat="46.15237" lon="7.92864"><ele></ele><time>2025-8-20T10:7:59Z</time></trkpt>
<trkpt lat="46.15238" lon="7.92862"><ele></ele><time>2025-8-20T10:8:2Z</time></trkpt>
<trkpt lat="46.15239" lon="7.92862"><ele></ele><time>2025-8-20T10:8:5Z</time></trkpt>
<trkpt lat="46.15238" lon="7.92862"><ele></ele><time>2025-8-20T10:8:8Z</time></trkpt>
<trkpt lat="46.15238" lon="7.92861"><ele></ele><time>2025-8-20T10:8:11Z</time></trkpt>
<trkpt lat="46.15237" lon="7.92861"><ele></ele><time>2025-8-20T10:8:14Z</time></trkpt>
<trkpt lat="46.15237" lon="7.92861"><ele></ele><time>2025-8-20T10:8:17Z</time></trkpt>
<trkpt lat="46.15236" lon="7.92861"><ele></ele><time>2025-8-20T10:8:20Z</time></trkpt>
<trkpt lat="46.15237" lon="7.92862"><ele></ele><time>2025-8-20T10:8:23Z</time></trkpt>
<trkpt lat="46.15239" lon="7.9286"><ele></ele><time>2025-8-20T10:8:26Z</time></trkpt>
<trkpt lat="46.15239" lon="7.9286"><ele></ele><time>2025-8-20T10:8:29Z</time></trkpt>
<trkpt lat="46.15238" lon="7.92859"><ele></ele><time>2025-8-20T10:8:32Z</time></trkpt>
<trkpt lat="46.15237" lon="7.92861"><ele></ele><time>2025-8-20T10:8:35Z</time></trkpt>
<trkpt lat="46.15237" lon="7.92862"><ele></ele><time>2025-8-20T10:8:38Z</time></trkpt>
<trkpt lat="46.15237" lon="7.92862"><ele></ele><time>2025-8-20T10:8:41Z</time></trkpt>
<trkpt lat="46.15237" lon="7.92863"><ele></ele><time>2025-8-20T10:8:44Z</time></trkpt>
<trkpt lat="46.15237" lon="7.92863"><ele></ele><time>2025-8-20T10:8:47Z</time></trkpt>
<trkpt lat="46.15237" lon="7.92863"><ele></ele><time>2025-8-20T10:8:50Z</time></trkpt>
<trkpt lat="46.15237" lon="7.92863"><ele></ele><time>2025-8-20T10:8:53Z</time></trkpt>
<trkpt lat="46.15237" lon="7.92863"><ele></ele><time>2025-8-20T10:8:56Z</time></trkpt>
<trkpt lat="46.15237" lon="7.92863"><ele></ele><time>2025-8-20T10:8:59Z</time></trkpt>
<trkpt lat="46.15237" lon="7.92863"><ele></ele><time>2025-8-20T10:9:2Z</time></trkpt>
<trkpt lat="46.15237" lon="7.92863"><ele></ele><time>2025-8-20T10:9:5Z</time></trkpt>
<trkpt lat="46.15237" lon="7.92863"><ele></ele><time>2025-8-20T10:9:8Z</time></trkpt>
<trkpt lat="46.15237" lon="7.92863"><ele></ele><time>2025-8-20T10:9:11Z</time></trkpt>
<trkpt lat="46.15237" lon="7.92864"><ele></ele><time>2025-8-20T10:9:14Z</time></trkpt>
<trkpt lat="46.15237" lon="7.92865"><ele></ele><time>2025-8-20T10:9:17Z</time></trkpt>
<trkpt lat="46.15239" lon="7.92869"><ele></ele><time>2025-8-20T10:9:20Z</time></trkpt>
<trkpt lat="46.15241" lon="7.92872"><ele></ele><time>2025-8-20T10:9:23Z</time></trkpt>
<trkpt lat="46.15243" lon="7.92873"><ele></ele><time>2025-8-20T10:9:26Z</time></trkpt>
<trkpt lat="46.15248" lon="7.92874"><ele></ele><time>2025-8-20T10:9:29Z</time></trkpt>
<trkpt lat="46.15254" lon="7.92872"><ele></ele><time>2025-8-20T10:9:32Z</time></trkpt>
<trkpt lat="46.15257" lon="7.92872"><ele></ele><time>2025-8-20T10:9:35Z</time></trkpt>
<trkpt lat="46.1526" lon="7.92872"><ele></ele><time>2025-8-20T10:9:38Z</time></trkpt>
<trkpt lat="46.15264" lon="7.92873"><ele></ele><time>2025-8-20T10:9:41Z</time></trkpt>
<trkpt lat="46.1527" lon="7.92875"><ele></ele><time>2025-8-20T10:9:44Z</time></trkpt>
<trkpt lat="46.15271" lon="7.92875"><ele></ele><time>2025-8-20T10:9:47Z</time></trkpt>
<trkpt lat="46.15279" lon="7.92877"><ele></ele><time>2025-8-20T10:9:50Z</time></trkpt>
<trkpt lat="46.15281" lon="7.92876"><ele></ele><time>2025-8-20T10:9:53Z</time></trkpt>
<trkpt lat="46.15285" lon="7.92877"><ele></ele><time>2025-8-20T10:9:56Z</time></trkpt>
<trkpt lat="46.1529" lon="7.92878"><ele></ele><time>2025-8-20T10:9:59Z</time></trkpt>
<trkpt lat="46.15294" lon="7.9288"><ele></ele><time>2025-8-20T10:10:2Z</time></trkpt>
<trkpt lat="46.15302" lon="7.92884"><ele></ele><time>2025-8-20T10:10:5Z</time></trkpt>
<trkpt lat="46.15303" lon="7.92884"><ele></ele><time>2025-8-20T10:10:8Z</time></trkpt>
<trkpt lat="46.15309" lon="7.92886"><ele></ele><time>2025-8-20T10:10:11Z</time></trkpt>
<trkpt lat="46.15313" lon="7.92887"><ele></ele><time>2025-8-20T10:10:14Z</time></trkpt>
<trkpt lat="46.15319" lon="7.92888"><ele></ele><time>2025-8-20T10:10:17Z</time></trkpt>
<trkpt lat="46.15323" lon="7.92888"><ele></ele><time>2025-8-20T10:10:20Z</time></trkpt>
<trkpt lat="46.15331" lon="7.92891"><ele></ele><time>2025-8-20T10:10:23Z</time></trkpt>
<trkpt lat="46.15333" lon="7.92891"><ele></ele><time>2025-8-20T10:10:26Z</time></trkpt>
<trkpt lat="46.15338" lon="7.92892"><ele></ele><time>2025-8-20T10:10:29Z</time></trkpt>
<trkpt lat="46.15342" lon="7.92893"><ele></ele><time>2025-8-20T10:10:32Z</time></trkpt>
<trkpt lat="46.15348" lon="7.92894"><ele></ele><time>2025-8-20T10:10:35Z</time></trkpt>
<trkpt lat="46.1535" lon="7.92894"><ele></ele><time>2025-8-20T10:10:38Z</time></trkpt>
<trkpt lat="46.15356" lon="7.92898"><ele></ele><time>2025-8-20T10:10:41Z</time></trkpt>
<trkpt lat="46.15356" lon="7.92898"><ele></ele><time>2025-8-20T10:10:44Z</time></trkpt>
<trkpt lat="46.15358" lon="7.929"><ele></ele><time>2025-8-20T10:10:47Z</time></trkpt>
<trkpt lat="46.15363" lon="7.92903"><ele></ele><time>2025-8-20T10:10:50Z</time></trkpt>
<trkpt lat="46.15365" lon="7.92904"><ele></ele><time>2025-8-20T10:10:53Z</time></trkpt>
<trkpt lat="46.15369" lon="7.92908"><ele></ele><time>2025-8-20T10:10:56Z</time></trkpt>
<trkpt lat="46.15372" lon="7.92913"><ele></ele><time>2025-8-20T10:10:59Z</time></trkpt>
<trkpt lat="46.15376" lon="7.92918"><ele></ele><time>2025-8-20T10:11:2Z</time></trkpt>
<trkpt lat="46.15378" lon="7.92922"><ele></ele><time>2025-8-20T10:11:5Z</time></trkpt>
<trkpt lat="46.15379" lon="7.92925"><ele></ele><time>2025-8-20T10:11:8Z</time></trkpt>
<trkpt lat="46.1538" lon="7.92926"><ele></ele><time>2025-8-20T10:11:11Z</time></trkpt>
<trkpt lat="46.15386" lon="7.92931"><ele></ele><time>2025-8-20T10:11:14Z</time></trkpt>
<trkpt lat="46.15394" lon="7.92938"><ele></ele><time>2025-8-20T10:11:17Z</time></trkpt>
<trkpt lat="46.15397" lon="7.92938"><ele></ele><time>2025-8-20T10:11:20Z</time></trkpt>
<trkpt lat="46.15405" lon="7.9294"><ele></ele><time>2025-8-20T10:11:23Z</time></trkpt>
<trkpt lat="46.15416" lon="7.92943"><ele></ele><time>2025-8-20T10:11:26Z</time></trkpt>
<trkpt lat="46.15419" lon="7.92946"><ele></ele><time>2025-8-20T10:11:29Z</time></trkpt>
<trkpt lat="46.1543" lon="7.92949"><ele></ele><time>2025-8-20T10:11:32Z</time></trkpt>
<trkpt lat="46.15444" lon="7.92953"><ele></ele><time>2025-8-20T10:11:35Z</time></trkpt>
<trkpt lat="46.15459" lon="7.92955"><ele></ele><time>2025-8-20T10:11:38Z</time></trkpt>
<trkpt lat="46.15473" lon="7.92956"><ele></ele><time>2025-8-20T10:11:41Z</time></trkpt>
<trkpt lat="46.15483" lon="7.92956"><ele></ele><time>2025-8-20T10:11:44Z</time></trkpt>
<trkpt lat="46.15489" lon="7.92958"><ele></ele><time>2025-8-20T10:11:47Z</time></trkpt>
<trkpt lat="46.15499" lon="7.9296"><ele></ele><time>2025-8-20T10:11:50Z</time></trkpt>
<trkpt lat="46.15516" lon="7.92969"><ele></ele><time>2025-8-20T10:11:53Z</time></trkpt>
<trkpt lat="46.15528" lon="7.92974"><ele></ele><time>2025-8-20T10:11:56Z</time></trkpt>
<trkpt lat="46.15536" lon="7.92975"><ele></ele><time>2025-8-20T10:11:59Z</time></trkpt>
<trkpt lat="46.15544" lon="7.92976"><ele></ele><time>2025-8-20T10:12:2Z</time></trkpt>
<trkpt lat="46.15549" lon="7.92979"><ele></ele><time>2025-8-20T10:12:5Z</time></trkpt>
<trkpt lat="46.15555" lon="7.92981"><ele></ele><time>2025-8-20T10:12:8Z</time></trkpt>
<trkpt lat="46.15563" lon="7.92984"><ele></ele><time>2025-8-20T10:12:11Z</time></trkpt>
<trkpt lat="46.15569" lon="7.92986"><ele></ele><time>2025-8-20T10:12:14Z</time></trkpt>
<trkpt lat="46.15574" lon="7.92986"><ele></ele><time>2025-8-20T10:12:17Z</time></trkpt>
<trkpt lat="46.15579" lon="7.92985"><ele></ele><time>2025-8-20T10:12:20Z</time></trkpt>
<trkpt lat="46.15579" lon="7.92985"><ele></ele><time>2025-8-20T10:12:23Z</time></trkpt>
<trkpt lat="46.15579" lon="7.92985"><ele></ele><time>2025-8-20T10:12:26Z</time></trkpt>
<trkpt lat="46.15579" lon="7.92985"><ele></ele><time>2025-8-20T10:12:29Z</time></trkpt>
<trkpt lat="46.15579" lon="7.92985"><ele></ele><time>2025-8-20T10:12:32Z</time></trkpt>
<trkpt lat="46.15579" lon="7.92985"><ele></ele><time>2025-8-20T10:12:35Z</time></trkpt>
<trkpt lat="46.15579" lon="7.92985"><ele></ele><time>2025-8-20T10:12:38Z</time></trkpt>
<trkpt lat="46.15579" lon="7.92985"><ele></ele><time>2025-8-20T10:12:41Z</time></trkpt>
<trkpt lat="46.15579" lon="7.92985"><ele></ele><time>2025-8-20T10:12:44Z</time></trkpt>
<trkpt lat="46.15579" lon="7.92985"><ele></ele><time>2025-8-20T10:12:47Z</time></trkpt>
<trkpt lat="46.15579" lon="7.92986"><ele></ele><time>2025-8-20T10:12:50Z</time></trkpt>
<trkpt lat="46.15581" lon="7.92987"><ele></ele><time>2025-8-20T10:12:53Z</time></trkpt>
<trkpt lat="46.15583" lon="7.92987"><ele></ele><time>2025-8-20T10:12:56Z</time></trkpt>
<trkpt lat="46.15593" lon="7.9299"><ele></ele><time>2025-8-20T10:12:59Z</time></trkpt>
<trkpt lat="46.15598" lon="7.92994"><ele></ele><time>2025-8-20T10:13:2Z</time></trkpt>
<trkpt lat="46.15598" lon="7.92994"><ele></ele><time>2025-8-20T10:13:5Z</time></trkpt>
<trkpt lat="46.15598" lon="7.92994"><ele></ele><time>2025-8-20T10:13:8Z</time></trkpt>
<trkpt lat="46.156" lon="7.92994"><ele></ele><time>2025-8-20T10:13:11Z</time></trkpt>
<trkpt lat="46.15602" lon="7.92994"><ele></ele><time>2025-8-20T10:13:14Z</time></trkpt>
<trkpt lat="46.1561" lon="7.92991"><ele></ele><time>2025-8-20T10:13:17Z</time></trkpt>
<trkpt lat="46.15611" lon="7.92991"><ele></ele><time>2025-8-20T10:13:20Z</time></trkpt>
<trkpt lat="46.15621" lon="7.92987"><ele></ele><time>2025-8-20T10:13:23Z</time></trkpt>
<trkpt lat="46.15622" lon="7.92986"><ele></ele><time>2025-8-20T10:13:26Z</time></trkpt>
<trkpt lat="46.15629" lon="7.92982"><ele></ele><time>2025-8-20T10:13:29Z</time></trkpt>
<trkpt lat="46.15632" lon="7.9298"><ele></ele><time>2025-8-20T10:13:32Z</time></trkpt>
<trkpt lat="46.15637" lon="7.92975"><ele></ele><time>2025-8-20T10:13:35Z</time></trkpt>
<trkpt lat="46.15641" lon="7.9297"><ele></ele><time>2025-8-20T10:13:38Z</time></trkpt>
<trkpt lat="46.15644" lon="7.92967"><ele></ele><time>2025-8-20T10:13:41Z</time></trkpt>
<trkpt lat="46.15652" lon="7.92963"><ele></ele><time>2025-8-20T10:13:44Z</time></trkpt>
<trkpt lat="46.1566" lon="7.92961"><ele></ele><time>2025-8-20T10:13:47Z</time></trkpt>
<trkpt lat="46.15667" lon="7.92959"><ele></ele><time>2025-8-20T10:13:50Z</time></trkpt>
<trkpt lat="46.15671" lon="7.92957"><ele></ele><time>2025-8-20T10:13:53Z</time></trkpt>
<trkpt lat="46.15675" lon="7.92954"><ele></ele><time>2025-8-20T10:13:56Z</time></trkpt>
<trkpt lat="46.15676" lon="7.92954"><ele></ele><time>2025-8-20T10:13:59Z</time></trkpt>
<trkpt lat="46.15681" lon="7.92952"><ele></ele><time>2025-8-20T10:14:2Z</time></trkpt>
<trkpt lat="46.15684" lon="7.92951"><ele></ele><time>2025-8-20T10:14:5Z</time></trkpt>
<trkpt lat="46.15691" lon="7.92949"><ele></ele><time>2025-8-20T10:14:8Z</time></trkpt>
<trkpt lat="46.15694" lon="7.92946"><ele></ele><time>2025-8-20T10:14:11Z</time></trkpt>
<trkpt lat="46.15699" lon="7.92943"><ele></ele><time>2025-8-20T10:14:14Z</time></trkpt>
<trkpt lat="46.15702" lon="7.92942"><ele></ele><time>2025-8-20T10:14:17Z</time></trkpt>
<trkpt lat="46.15708" lon="7.92939"><ele></ele><time>2025-8-20T10:14:20Z</time></trkpt>
<trkpt lat="46.1571" lon="7.92937"><ele></ele><time>2025-8-20T10:14:23Z</time></trkpt>
<trkpt lat="46.15715" lon="7.92937"><ele></ele><time>2025-8-20T10:14:26Z</time></trkpt>
<trkpt lat="46.15718" lon="7.92936"><ele></ele><time>2025-8-20T10:14:29Z</time></trkpt>
<trkpt lat="46.15724" lon="7.92934"><ele></ele><time>2025-8-20T10:14:32Z</time></trkpt>
<trkpt lat="46.15726" lon="7.92933"><ele></ele><time>2025-8-20T10:14:35Z</time></trkpt>
<trkpt lat="46.15732" lon="7.92931"><ele></ele><time>2025-8-20T10:14:38Z</time></trkpt>
<trkpt lat="46.15733" lon="7.9293"><ele></ele><time>2025-8-20T10:14:41Z</time></trkpt>
<trkpt lat="46.15734" lon="7.92929"><ele></ele><time>2025-8-20T10:14:44Z</time></trkpt>
<trkpt lat="46.1574" lon="7.92928"><ele></ele><time>2025-8-20T10:14:47Z</time></trkpt>
<trkpt lat="46.15749" lon="7.92926"><ele></ele><time>2025-8-20T10:14:50Z</time></trkpt>
<trkpt lat="46.1575" lon="7.92926"><ele></ele><time>2025-8-20T10:14:53Z</time></trkpt>
<trkpt lat="46.15755" lon="7.92922"><ele></ele><time>2025-8-20T10:14:56Z</time></trkpt>
<trkpt lat="46.15758" lon="7.92922"><ele></ele><time>2025-8-20T10:14:59Z</time></trkpt>
<trkpt lat="46.1576" lon="7.92922"><ele></ele><time>2025-8-20T10:15:2Z</time></trkpt>
<trkpt lat="46.15762" lon="7.9292"><ele></ele><time>2025-8-20T10:15:5Z</time></trkpt>
<trkpt lat="46.15763" lon="7.92919"><ele></ele><time>2025-8-20T10:15:8Z</time></trkpt>
<trkpt lat="46.15765" lon="7.92919"><ele></ele><time>2025-8-20T10:15:11Z</time></trkpt>
<trkpt lat="46.15766" lon="7.92918"><ele></ele><time>2025-8-20T10:15:14Z</time></trkpt>
<trkpt lat="46.15768" lon="7.92918"><ele></ele><time>2025-8-20T10:15:17Z</time></trkpt>
<trkpt lat="46.15771" lon="7.92915"><ele></ele><time>2025-8-20T10:15:20Z</time></trkpt>
<trkpt lat="46.15776" lon="7.92912"><ele></ele><time>2025-8-20T10:15:23Z</time></trkpt>
<trkpt lat="46.1578" lon="7.92908"><ele></ele><time>2025-8-20T10:15:26Z</time></trkpt>
<trkpt lat="46.15785" lon="7.92905"><ele></ele><time>2025-8-20T10:15:29Z</time></trkpt>
<trkpt lat="46.15788" lon="7.92904"><ele></ele><time>2025-8-20T10:15:32Z</time></trkpt>
<trkpt lat="46.15796" lon="7.92901"><ele></ele><time>2025-8-20T10:15:35Z</time></trkpt>
<trkpt lat="46.15797" lon="7.92901"><ele></ele><time>2025-8-20T10:15:38Z</time></trkpt>
<trkpt lat="46.15804" lon="7.92896"><ele></ele><time>2025-8-20T10:15:41Z</time></trkpt>
<trkpt lat="46.15807" lon="7.92894"><ele></ele><time>2025-8-20T10:15:44Z</time></trkpt>
<trkpt lat="46.15811" lon="7.92893"><ele></ele><time>2025-8-20T10:15:47Z</time></trkpt>
<trkpt lat="46.15817" lon="7.92892"><ele></ele><time>2025-8-20T10:15:50Z</time></trkpt>
<trkpt lat="46.1582" lon="7.92891"><ele></ele><time>2025-8-20T10:15:53Z</time></trkpt>
<trkpt lat="46.15826" lon="7.92889"><ele></ele><time>2025-8-20T10:15:56Z</time></trkpt>
<trkpt lat="46.15827" lon="7.92889"><ele></ele><time>2025-8-20T10:15:59Z</time></trkpt>
<trkpt lat="46.15833" lon="7.92886"><ele></ele><time>2025-8-20T10:16:2Z</time></trkpt>
<trkpt lat="46.15836" lon="7.92885"><ele></ele><time>2025-8-20T10:16:5Z</time></trkpt>
<trkpt lat="46.15842" lon="7.92882"><ele></ele><time>2025-8-20T10:16:8Z</time></trkpt>
<trkpt lat="46.15846" lon="7.92879"><ele></ele><time>2025-8-20T10:16:11Z</time></trkpt>
<trkpt lat="46.1585" lon="7.92877"><ele></ele><time>2025-8-20T10:16:14Z</time></trkpt>
<trkpt lat="46.15855" lon="7.92873"><ele></ele><time>2025-8-20T10:16:17Z</time></trkpt>
<trkpt lat="46.15858" lon="7.92872"><ele></ele><time>2025-8-20T10:16:20Z</time></trkpt>
<trkpt lat="46.15866" lon="7.92868"><ele></ele><time>2025-8-20T10:16:23Z</time></trkpt>
<trkpt lat="46.15867" lon="7.92867"><ele></ele><time>2025-8-20T10:16:26Z</time></trkpt>
<trkpt lat="46.15875" lon="7.92864"><ele></ele><time>2025-8-20T10:16:29Z</time></trkpt>
<trkpt lat="46.15882" lon="7.9286"><ele></ele><time>2025-8-20T10:16:32Z</time></trkpt>
<trkpt lat="46.15883" lon="7.92859"><ele></ele><time>2025-8-20T10:16:35Z</time></trkpt>
<trkpt lat="46.1589" lon="7.92854"><ele></ele><time>2025-8-20T10:16:38Z</time></trkpt>
<trkpt lat="46.15891" lon="7.92853"><ele></ele><time>2025-8-20T10:16:41Z</time></trkpt>
<trkpt lat="46.15898" lon="7.92852"><ele></ele><time>2025-8-20T10:16:44Z</time></trkpt>
<trkpt lat="46.159" lon="7.92851"><ele></ele><time>2025-8-20T10:16:47Z</time></trkpt>
<trkpt lat="46.15905" lon="7.92846"><ele></ele><time>2025-8-20T10:16:50Z</time></trkpt>
<trkpt lat="46.15907" lon="7.92845"><ele></ele><time>2025-8-20T10:16:53Z</time></trkpt>
<trkpt lat="46.15913" lon="7.92841"><ele></ele><time>2025-8-20T10:16:56Z</time></trkpt>
<trkpt lat="46.15921" lon="7.92837"><ele></ele><time>2025-8-20T10:16:59Z</time></trkpt>
<trkpt lat="46.15927" lon="7.92834"><ele></ele><time>2025-8-20T10:17:2Z</time></trkpt>
<trkpt lat="46.1593" lon="7.92833"><ele></ele><time>2025-8-20T10:17:5Z</time></trkpt>
<trkpt lat="46.15931" lon="7.92833"><ele></ele><time>2025-8-20T10:17:8Z</time></trkpt>
<trkpt lat="46.15939" lon="7.92833"><ele></ele><time>2025-8-20T10:17:11Z</time></trkpt>
<trkpt lat="46.15943" lon="7.92832"><ele></ele><time>2025-8-20T10:17:14Z</time></trkpt>
<trkpt lat="46.15947" lon="7.92831"><ele></ele><time>2025-8-20T10:17:17Z</time></trkpt>
<trkpt lat="46.15952" lon="7.92829"><ele></ele><time>2025-8-20T10:17:20Z</time></trkpt>
<trkpt lat="46.15955" lon="7.92828"><ele></ele><time>2025-8-20T10:17:23Z</time></trkpt>
<trkpt lat="46.15958" lon="7.92826"><ele></ele><time>2025-8-20T10:17:26Z</time></trkpt>
<trkpt lat="46.1596" lon="7.92824"><ele></ele><time>2025-8-20T10:17:29Z</time></trkpt>
<trkpt lat="46.15962" lon="7.92824"><ele></ele><time>2025-8-20T10:17:32Z</time></trkpt>
<trkpt lat="46.15966" lon="7.92821"><ele></ele><time>2025-8-20T10:17:35Z</time></trkpt>
<trkpt lat="46.15968" lon="7.92819"><ele></ele><time>2025-8-20T10:17:38Z</time></trkpt>
<trkpt lat="46.15972" lon="7.92812"><ele></ele><time>2025-8-20T10:17:41Z</time></trkpt>
<trkpt lat="46.15973" lon="7.9281"><ele></ele><time>2025-8-20T10:17:44Z</time></trkpt>
<trkpt lat="46.15979" lon="7.92804"><ele></ele><time>2025-8-20T10:17:47Z</time></trkpt>
<trkpt lat="46.15981" lon="7.92802"><ele></ele><time>2025-8-20T10:17:50Z</time></trkpt>
<trkpt lat="46.15984" lon="7.92798"><ele></ele><time>2025-8-20T10:17:53Z</time></trkpt>
<trkpt lat="46.15988" lon="7.92795"><ele></ele><time>2025-8-20T10:17:56Z</time></trkpt>
<trkpt lat="46.15991" lon="7.92792"><ele></ele><time>2025-8-20T10:17:59Z</time></trkpt>
<trkpt lat="46.15995" lon="7.92789"><ele></ele><time>2025-8-20T10:18:2Z</time></trkpt>
<trkpt lat="46.15999" lon="7.92785"><ele></ele><time>2025-8-20T10:18:5Z</time></trkpt>
<trkpt lat="46.16003" lon="7.92783"><ele></ele><time>2025-8-20T10:18:8Z</time></trkpt>
<trkpt lat="46.16009" lon="7.9278"><ele></ele><time>2025-8-20T10:18:11Z</time></trkpt>
<trkpt lat="46.16012" lon="7.92779"><ele></ele><time>2025-8-20T10:18:14Z</time></trkpt>
<trkpt lat="46.16018" lon="7.92775"><ele></ele><time>2025-8-20T10:18:17Z</time></trkpt>
<trkpt lat="46.16019" lon="7.92775"><ele></ele><time>2025-8-20T10:18:20Z</time></trkpt>
<trkpt lat="46.16023" lon="7.92773"><ele></ele><time>2025-8-20T10:18:23Z</time></trkpt>
<trkpt lat="46.16026" lon="7.92773"><ele></ele><time>2025-8-20T10:18:26Z</time></trkpt>
<trkpt lat="46.16027" lon="7.92773"><ele></ele><time>2025-8-20T10:18:29Z</time></trkpt>
<trkpt lat="46.16025" lon="7.92771"><ele></ele><time>2025-8-20T10:18:32Z</time></trkpt>
<trkpt lat="46.1602" lon="7.92773"><ele></ele><time>2025-8-20T10:18:35Z</time></trkpt>
<trkpt lat="46.1602" lon="7.92773"><ele></ele><time>2025-8-20T10:18:38Z</time></trkpt>
<trkpt lat="46.16019" lon="7.92771"><ele></ele><time>2025-8-20T10:18:41Z</time></trkpt>
<trkpt lat="46.16019" lon="7.9277"><ele></ele><time>2025-8-20T10:18:44Z</time></trkpt>
<trkpt lat="46.16019" lon="7.92769"><ele></ele><time>2025-8-20T10:18:47Z</time></trkpt>
<trkpt lat="46.16018" lon="7.92769"><ele></ele><time>2025-8-20T10:18:50Z</time></trkpt>
<trkpt lat="46.16018" lon="7.92768"><ele></ele><time>2025-8-20T10:18:53Z</time></trkpt>
<trkpt lat="46.16018" lon="7.92768"><ele></ele><time>2025-8-20T10:18:56Z</time></trkpt>
<trkpt lat="46.16018" lon="7.92768"><ele></ele><time>2025-8-20T10:18:59Z</time></trkpt>
<trkpt lat="46.1602" lon="7.92771"><ele></ele><time>2025-8-20T10:19:2Z</time></trkpt>
<trkpt lat="46.1602" lon="7.92771"><ele></ele><time>2025-8-20T10:19:5Z</time></trkpt>
<trkpt lat="46.16021" lon="7.92775"><ele></ele><time>2025-8-20T10:19:8Z</time></trkpt>
<trkpt lat="46.16023" lon="7.92777"><ele></ele><time>2025-8-20T10:19:11Z</time></trkpt>
<trkpt lat="46.16023" lon="7.92778"><ele></ele><time>2025-8-20T10:19:14Z</time></trkpt>
<trkpt lat="46.16024" lon="7.92777"><ele></ele><time>2025-8-20T10:19:17Z</time></trkpt>
<trkpt lat="46.16024" lon="7.92776"><ele></ele><time>2025-8-20T10:19:20Z</time></trkpt>
<trkpt lat="46.16024" lon="7.92776"><ele></ele><time>2025-8-20T10:19:23Z</time></trkpt>
<trkpt lat="46.16022" lon="7.92775"><ele></ele><time>2025-8-20T10:19:26Z</time></trkpt>
<trkpt lat="46.16021" lon="7.92773"><ele></ele><time>2025-8-20T10:19:29Z</time></trkpt>
<trkpt lat="46.16022" lon="7.92773"><ele></ele><time>2025-8-20T10:19:32Z</time></trkpt>
<trkpt lat="46.16025" lon="7.92772"><ele></ele><time>2025-8-20T10:19:35Z</time></trkpt>
<trkpt lat="46.16027" lon="7.92771"><ele></ele><time>2025-8-20T10:19:38Z</time></trkpt>
<trkpt lat="46.16034" lon="7.9277"><ele></ele><time>2025-8-20T10:19:41Z</time></trkpt>
<trkpt lat="46.16036" lon="7.9277"><ele></ele><time>2025-8-20T10:19:44Z</time></trkpt>
<trkpt lat="46.16042" lon="7.92771"><ele></ele><time>2025-8-20T10:19:47Z</time></trkpt>
<trkpt lat="46.16045" lon="7.92771"><ele></ele><time>2025-8-20T10:19:50Z</time></trkpt>
<trkpt lat="46.1605" lon="7.9277"><ele></ele><time>2025-8-20T10:19:53Z</time></trkpt>
<trkpt lat="46.16052" lon="7.92771"><ele></ele><time>2025-8-20T10:19:56Z</time></trkpt>
<trkpt lat="46.16057" lon="7.92769"><ele></ele><time>2025-8-20T10:19:59Z</time></trkpt>
<trkpt lat="46.16059" lon="7.92768"><ele></ele><time>2025-8-20T10:20:2Z</time></trkpt>
<trkpt lat="46.1606" lon="7.92768"><ele></ele><time>2025-8-20T10:20:5Z</time></trkpt>
<trkpt lat="46.16061" lon="7.92767"><ele></ele><time>2025-8-20T10:20:8Z</time></trkpt>
<trkpt lat="46.16062" lon="7.92767"><ele></ele><time>2025-8-20T10:20:11Z</time></trkpt>
<trkpt lat="46.16065" lon="7.92768"><ele></ele><time>2025-8-20T10:20:14Z</time></trkpt>
<trkpt lat="46.16068" lon="7.92767"><ele></ele><time>2025-8-20T10:20:17Z</time></trkpt>
<trkpt lat="46.16069" lon="7.92767"><ele></ele><time>2025-8-20T10:20:20Z</time></trkpt>
<trkpt lat="46.16074" lon="7.92767"><ele></ele><time>2025-8-20T10:20:23Z</time></trkpt>
<trkpt lat="46.16078" lon="7.92766"><ele></ele><time>2025-8-20T10:20:26Z</time></trkpt>
<trkpt lat="46.16085" lon="7.92763"><ele></ele><time>2025-8-20T10:20:29Z</time></trkpt>
<trkpt lat="46.16086" lon="7.92762"><ele></ele><time>2025-8-20T10:20:32Z</time></trkpt>
<trkpt lat="46.16094" lon="7.92759"><ele></ele><time>2025-8-20T10:20:35Z</time></trkpt>
<trkpt lat="46.16096" lon="7.92759"><ele></ele><time>2025-8-20T10:20:38Z</time></trkpt>
<trkpt lat="46.16103" lon="7.92756"><ele></ele><time>2025-8-20T10:20:41Z</time></trkpt>
<trkpt lat="46.16106" lon="7.92755"><ele></ele><time>2025-8-20T10:20:44Z</time></trkpt>
<trkpt lat="46.16107" lon="7.92755"><ele></ele><time>2025-8-20T10:20:47Z</time></trkpt>
<trkpt lat="46.16112" lon="7.92755"><ele></ele><time>2025-8-20T10:20:50Z</time></trkpt>
<trkpt lat="46.16114" lon="7.92755"><ele></ele><time>2025-8-20T10:20:53Z</time></trkpt>
<trkpt lat="46.16115" lon="7.92754"><ele></ele><time>2025-8-20T10:20:56Z</time></trkpt>
<trkpt lat="46.16116" lon="7.92755"><ele></ele><time>2025-8-20T10:20:59Z</time></trkpt>
<trkpt lat="46.16119" lon="7.92755"><ele></ele><time>2025-8-20T10:21:2Z</time></trkpt>
<trkpt lat="46.16125" lon="7.92755"><ele></ele><time>2025-8-20T10:21:5Z</time></trkpt>
<trkpt lat="46.16128" lon="7.92754"><ele></ele><time>2025-8-20T10:21:8Z</time></trkpt>
<trkpt lat="46.16133" lon="7.9275"><ele></ele><time>2025-8-20T10:21:11Z</time></trkpt>
<trkpt lat="46.16137" lon="7.92747"><ele></ele><time>2025-8-20T10:21:14Z</time></trkpt>
<trkpt lat="46.1614" lon="7.92745"><ele></ele><time>2025-8-20T10:21:17Z</time></trkpt>
<trkpt lat="46.16144" lon="7.92739"><ele></ele><time>2025-8-20T10:21:20Z</time></trkpt>
<trkpt lat="46.16147" lon="7.92734"><ele></ele><time>2025-8-20T10:21:23Z</time></trkpt>
<trkpt lat="46.16151" lon="7.92728"><ele></ele><time>2025-8-20T10:21:26Z</time></trkpt>
<trkpt lat="46.16152" lon="7.92725"><ele></ele><time>2025-8-20T10:21:29Z</time></trkpt>
<trkpt lat="46.16156" lon="7.92714"><ele></ele><time>2025-8-20T10:21:32Z</time></trkpt>
<trkpt lat="46.16157" lon="7.9271"><ele></ele><time>2025-8-20T10:21:35Z</time></trkpt>
<trkpt lat="46.1616" lon="7.92705"><ele></ele><time>2025-8-20T10:21:38Z</time></trkpt>
<trkpt lat="46.16162" lon="7.92702"><ele></ele><time>2025-8-20T10:21:41Z</time></trkpt>
<trkpt lat="46.16168" lon="7.92697"><ele></ele><time>2025-8-20T10:21:44Z</time></trkpt>
<trkpt lat="46.16172" lon="7.92692"><ele></ele><time>2025-8-20T10:21:47Z</time></trkpt>
<trkpt lat="46.16174" lon="7.9269"><ele></ele><time>2025-8-20T10:21:50Z</time></trkpt>
<trkpt lat="46.16175" lon="7.92689"><ele></ele><time>2025-8-20T10:21:53Z</time></trkpt>
<trkpt lat="46.16176" lon="7.92688"><ele></ele><time>2025-8-20T10:21:56Z</time></trkpt>
<trkpt lat="46.16177" lon="7.92687"><ele></ele><time>2025-8-20T10:21:59Z</time></trkpt>
<trkpt lat="46.16178" lon="7.92686"><ele></ele><time>2025-8-20T10:22:2Z</time></trkpt>
<trkpt lat="46.16179" lon="7.92685"><ele></ele><time>2025-8-20T10:22:5Z</time></trkpt>
<trkpt lat="46.16184" lon="7.92683"><ele></ele><time>2025-8-20T10:22:8Z</time></trkpt>
<trkpt lat="46.16191" lon="7.9268"><ele></ele><time>2025-8-20T10:22:11Z</time></trkpt>
<trkpt lat="46.16193" lon="7.9268"><ele></ele><time>2025-8-20T10:22:14Z</time></trkpt>
<trkpt lat="46.16202" lon="7.92679"><ele></ele><time>2025-8-20T10:22:17Z</time></trkpt>
<trkpt lat="46.16205" lon="7.92678"><ele></ele><time>2025-8-20T10:22:20Z</time></trkpt>
<trkpt lat="46.16206" lon="7.92678"><ele></ele><time>2025-8-20T10:22:23Z</time></trkpt>
<trkpt lat="46.16208" lon="7.92677"><ele></ele><time>2025-8-20T10:22:26Z</time></trkpt>
<trkpt lat="46.16213" lon="7.92676"><ele></ele><time>2025-8-20T10:22:29Z</time></trkpt>
<trkpt lat="46.16214" lon="7.92675"><ele></ele><time>2025-8-20T10:22:32Z</time></trkpt>
<trkpt lat="46.16222" lon="7.92672"><ele></ele><time>2025-8-20T10:22:35Z</time></trkpt>
<trkpt lat="46.16223" lon="7.92672"><ele></ele><time>2025-8-20T10:22:38Z</time></trkpt>
<trkpt lat="46.16231" lon="7.92669"><ele></ele><time>2025-8-20T10:22:41Z</time></trkpt>
<trkpt lat="46.16238" lon="7.92667"><ele></ele><time>2025-8-20T10:22:44Z</time></trkpt>
<trkpt lat="46.1624" lon="7.92666"><ele></ele><time>2025-8-20T10:22:47Z</time></trkpt>
<trkpt lat="46.16251" lon="7.92661"><ele></ele><time>2025-8-20T10:22:50Z</time></trkpt>
<trkpt lat="46.16257" lon="7.92653"><ele></ele><time>2025-8-20T10:22:53Z</time></trkpt>
<trkpt lat="46.16259" lon="7.9265"><ele></ele><time>2025-8-20T10:22:56Z</time></trkpt>
<trkpt lat="46.16259" lon="7.92643"><ele></ele><time>2025-8-20T10:22:59Z</time></trkpt>
<trkpt lat="46.1626" lon="7.92635"><ele></ele><time>2025-8-20T10:23:2Z</time></trkpt>
<trkpt lat="46.16262" lon="7.92624"><ele></ele><time>2025-8-20T10:23:5Z</time></trkpt>
<trkpt lat="46.16263" lon="7.92619"><ele></ele><time>2025-8-20T10:23:8Z</time></trkpt>
<trkpt lat="46.16263" lon="7.92613"><ele></ele><time>2025-8-20T10:23:11Z</time></trkpt>
<trkpt lat="46.16264" lon="7.92609"><ele></ele><time>2025-8-20T10:23:14Z</time></trkpt>
<trkpt lat="46.16264" lon="7.92607"><ele></ele><time>2025-8-20T10:23:17Z</time></trkpt>
<trkpt lat="46.16265" lon="7.92603"><ele></ele><time>2025-8-20T10:23:20Z</time></trkpt>
<trkpt lat="46.16268" lon="7.92595"><ele></ele><time>2025-8-20T10:23:23Z</time></trkpt>
<trkpt lat="46.16271" lon="7.9259"><ele></ele><time>2025-8-20T10:23:26Z</time></trkpt>
<trkpt lat="46.16276" lon="7.92581"><ele></ele><time>2025-8-20T10:23:29Z</time></trkpt>
<trkpt lat="46.16279" lon="7.92575"><ele></ele><time>2025-8-20T10:23:32Z</time></trkpt>
<trkpt lat="46.16283" lon="7.92568"><ele></ele><time>2025-8-20T10:23:35Z</time></trkpt>
<trkpt lat="46.16287" lon="7.92561"><ele></ele><time>2025-8-20T10:23:38Z</time></trkpt>
<trkpt lat="46.16289" lon="7.92558"><ele></ele><time>2025-8-20T10:23:41Z</time></trkpt>
<trkpt lat="46.16294" lon="7.9255"><ele></ele><time>2025-8-20T10:23:44Z</time></trkpt>
<trkpt lat="46.16295" lon="7.92549"><ele></ele><time>2025-8-20T10:23:47Z</time></trkpt>
<trkpt lat="46.16303" lon="7.92544"><ele></ele><time>2025-8-20T10:23:50Z</time></trkpt>
<trkpt lat="46.16307" lon="7.92542"><ele></ele><time>2025-8-20T10:23:53Z</time></trkpt>
<trkpt lat="46.16313" lon="7.9254"><ele></ele><time>2025-8-20T10:23:56Z</time></trkpt>
<trkpt lat="46.16314" lon="7.92539"><ele></ele><time>2025-8-20T10:23:59Z</time></trkpt>
<trkpt lat="46.16314" lon="7.92538"><ele></ele><time>2025-8-20T10:24:2Z</time></trkpt>
<trkpt lat="46.16314" lon="7.92538"><ele></ele><time>2025-8-20T10:24:5Z</time></trkpt>
<trkpt lat="46.16313" lon="7.92538"><ele></ele><time>2025-8-20T10:24:8Z</time></trkpt>
<trkpt lat="46.16313" lon="7.92539"><ele></ele><time>2025-8-20T10:24:11Z</time></trkpt>
<trkpt lat="46.16313" lon="7.92538"><ele></ele><time>2025-8-20T10:24:14Z</time></trkpt>
<trkpt lat="46.16313" lon="7.92538"><ele></ele><time>2025-8-20T10:24:17Z</time></trkpt>
<trkpt lat="46.16313" lon="7.92538"><ele></ele><time>2025-8-20T10:24:20Z</time></trkpt>
<trkpt lat="46.16314" lon="7.92538"><ele></ele><time>2025-8-20T10:24:23Z</time></trkpt>
<trkpt lat="46.16314" lon="7.92537"><ele></ele><time>2025-8-20T10:24:26Z</time></trkpt>
<trkpt lat="46.16314" lon="7.92537"><ele></ele><time>2025-8-20T10:24:29Z</time></trkpt>
<trkpt lat="46.16313" lon="7.92537"><ele></ele><time>2025-8-20T10:24:32Z</time></trkpt>
<trkpt lat="46.16312" lon="7.92537"><ele></ele><time>2025-8-20T10:24:35Z</time></trkpt>
<trkpt lat="46.16313" lon="7.92536"><ele></ele><time>2025-8-20T10:24:38Z</time></trkpt>
<trkpt lat="46.16314" lon="7.92537"><ele></ele><time>2025-8-20T10:24:41Z</time></trkpt>
<trkpt lat="46.16315" lon="7.92537"><ele></ele><time>2025-8-20T10:24:44Z</time></trkpt>
<trkpt lat="46.16316" lon="7.92537"><ele></ele><time>2025-8-20T10:24:47Z</time></trkpt>
<trkpt lat="46.16314" lon="7.92537"><ele></ele><time>2025-8-20T10:24:50Z</time></trkpt>
<trkpt lat="46.16314" lon="7.92537"><ele></ele><time>2025-8-20T10:24:53Z</time></trkpt>
<trkpt lat="46.16314" lon="7.92537"><ele></ele><time>2025-8-20T10:24:56Z</time></trkpt>
<trkpt lat="46.16314" lon="7.92538"><ele></ele><time>2025-8-20T10:24:59Z</time></trkpt>
<trkpt lat="46.16314" lon="7.92537"><ele></ele><time>2025-8-20T10:25:2Z</time></trkpt>
<trkpt lat="46.16314" lon="7.92538"><ele></ele><time>2025-8-20T10:25:5Z</time></trkpt>
<trkpt lat="46.16316" lon="7.92539"><ele></ele><time>2025-8-20T10:25:8Z</time></trkpt>
<trkpt lat="46.16317" lon="7.9254"><ele></ele><time>2025-8-20T10:25:11Z</time></trkpt>
<trkpt lat="46.16316" lon="7.9254"><ele></ele><time>2025-8-20T10:25:14Z</time></trkpt>
<trkpt lat="46.16313" lon="7.92541"><ele></ele><time>2025-8-20T10:25:17Z</time></trkpt>
<trkpt lat="46.16311" lon="7.92539"><ele></ele><time>2025-8-20T10:25:20Z</time></trkpt>
<trkpt lat="46.16311" lon="7.92538"><ele></ele><time>2025-8-20T10:25:23Z</time></trkpt>
<trkpt lat="46.1631" lon="7.92538"><ele></ele><time>2025-8-20T10:25:26Z</time></trkpt>
<trkpt lat="46.1631" lon="7.92538"><ele></ele><time>2025-8-20T10:25:29Z</time></trkpt>
<trkpt lat="46.1631" lon="7.92538"><ele></ele><time>2025-8-20T10:25:32Z</time></trkpt>
<trkpt lat="46.1631" lon="7.92538"><ele></ele><time>2025-8-20T10:25:35Z</time></trkpt>
<trkpt lat="46.16311" lon="7.92538"><ele></ele><time>2025-8-20T10:25:38Z</time></trkpt>
<trkpt lat="46.16312" lon="7.92539"><ele></ele><time>2025-8-20T10:25:41Z</time></trkpt>
<trkpt lat="46.16312" lon="7.92539"><ele></ele><time>2025-8-20T10:25:44Z</time></trkpt>
<trkpt lat="46.16312" lon="7.92537"><ele></ele><time>2025-8-20T10:25:47Z</time></trkpt>
<trkpt lat="46.16313" lon="7.92535"><ele></ele><time>2025-8-20T10:25:50Z</time></trkpt>
<trkpt lat="46.16313" lon="7.92533"><ele></ele><time>2025-8-20T10:25:53Z</time></trkpt>
<trkpt lat="46.16315" lon="7.92532"><ele></ele><time>2025-8-20T10:25:56Z</time></trkpt>
<trkpt lat="46.16318" lon="7.92527"><ele></ele><time>2025-8-20T10:25:59Z</time></trkpt>
<trkpt lat="46.16322" lon="7.9252"><ele></ele><time>2025-8-20T10:26:2Z</time></trkpt>
<trkpt lat="46.16326" lon="7.92516"><ele></ele><time>2025-8-20T10:26:5Z</time></trkpt>
<trkpt lat="46.16327" lon="7.92515"><ele></ele><time>2025-8-20T10:26:8Z</time></trkpt>
<trkpt lat="46.16327" lon="7.92513"><ele></ele><time>2025-8-20T10:26:11Z</time></trkpt>
<trkpt lat="46.16332" lon="7.92505"><ele></ele><time>2025-8-20T10:26:14Z</time></trkpt>
<trkpt lat="46.16333" lon="7.92503"><ele></ele><time>2025-8-20T10:26:17Z</time></trkpt>
<trkpt lat="46.16335" lon="7.92498"><ele></ele><time>2025-8-20T10:26:20Z</time></trkpt>
<trkpt lat="46.16338" lon="7.92495"><ele></ele><time>2025-8-20T10:26:23Z</time></trkpt>
<trkpt lat="46.1634" lon="7.92493"><ele></ele><time>2025-8-20T10:26:26Z</time></trkpt>
<trkpt lat="46.16341" lon="7.92493"><ele></ele><time>2025-8-20T10:26:29Z</time></trkpt>
<trkpt lat="46.16342" lon="7.92492"><ele></ele><time>2025-8-20T10:26:32Z</time></trkpt>
<trkpt lat="46.16346" lon="7.92488"><ele></ele><time>2025-8-20T10:26:35Z</time></trkpt>
<trkpt lat="46.16351" lon="7.92485"><ele></ele><time>2025-8-20T10:26:38Z</time></trkpt>
<trkpt lat="46.16351" lon="7.92484"><ele></ele><time>2025-8-20T10:26:41Z</time></trkpt>
<trkpt lat="46.16354" lon="7.92481"><ele></ele><time>2025-8-20T10:26:44Z</time></trkpt>
<trkpt lat="46.1636" lon="7.92475"><ele></ele><time>2025-8-20T10:26:47Z</time></trkpt>
<trkpt lat="46.16362" lon="7.92473"><ele></ele><time>2025-8-20T10:26:50Z</time></trkpt>
<trkpt lat="46.16366" lon="7.92469"><ele></ele><time>2025-8-20T10:26:53Z</time></trkpt>
<trkpt lat="46.16371" lon="7.92463"><ele></ele><time>2025-8-20T10:26:56Z</time></trkpt>
<trkpt lat="46.16375" lon="7.92459"><ele></ele><time>2025-8-20T10:26:59Z</time></trkpt>
<trkpt lat="46.16382" lon="7.92452"><ele></ele><time>2025-8-20T10:27:2Z</time></trkpt>
<trkpt lat="46.16383" lon="7.92451"><ele></ele><time>2025-8-20T10:27:5Z</time></trkpt>
<trkpt lat="46.16388" lon="7.92446"><ele></ele><time>2025-8-20T10:27:8Z</time></trkpt>
<trkpt lat="46.16393" lon="7.92441"><ele></ele><time>2025-8-20T10:27:11Z</time></trkpt>
<trkpt lat="46.16397" lon="7.92438"><ele></ele><time>2025-8-20T10:27:14Z</time></trkpt>
<trkpt lat="46.16401" lon="7.92435"><ele></ele><time>2025-8-20T10:27:17Z</time></trkpt>
<trkpt lat="46.16405" lon="7.92431"><ele></ele><time>2025-8-20T10:27:20Z</time></trkpt>
<trkpt lat="46.16409" lon="7.92424"><ele></ele><time>2025-8-20T10:27:23Z</time></trkpt>
<trkpt lat="46.1641" lon="7.92423"><ele></ele><time>2025-8-20T10:27:26Z</time></trkpt>
<trkpt lat="46.16417" lon="7.92414"><ele></ele><time>2025-8-20T10:27:29Z</time></trkpt>
<trkpt lat="46.16418" lon="7.92412"><ele></ele><time>2025-8-20T10:27:32Z</time></trkpt>
<trkpt lat="46.16425" lon="7.92407"><ele></ele><time>2025-8-20T10:27:35Z</time></trkpt>
<trkpt lat="46.16426" lon="7.92406"><ele></ele><time>2025-8-20T10:27:38Z</time></trkpt>
<trkpt lat="46.16432" lon="7.924"><ele></ele><time>2025-8-20T10:27:41Z</time></trkpt>
<trkpt lat="46.16435" lon="7.92398"><ele></ele><time>2025-8-20T10:27:44Z</time></trkpt>
<trkpt lat="46.1644" lon="7.92396"><ele></ele><time>2025-8-20T10:27:47Z</time></trkpt>
<trkpt lat="46.16444" lon="7.92393"><ele></ele><time>2025-8-20T10:27:50Z</time></trkpt>
<trkpt lat="46.16449" lon="7.9239"><ele></ele><time>2025-8-20T10:27:53Z</time></trkpt>
<trkpt lat="46.16455" lon="7.92388"><ele></ele><time>2025-8-20T10:27:56Z</time></trkpt>
<trkpt lat="46.16457" lon="7.92387"><ele></ele><time>2025-8-20T10:27:59Z</time></trkpt>
<trkpt lat="46.16462" lon="7.92385"><ele></ele><time>2025-8-20T10:28:2Z</time></trkpt>
<trkpt lat="46.16465" lon="7.92384"><ele></ele><time>2025-8-20T10:28:5Z</time></trkpt>
<trkpt lat="46.16472" lon="7.9238"><ele></ele><time>2025-8-20T10:28:8Z</time></trkpt>
<trkpt lat="46.16473" lon="7.92378"><ele></ele><time>2025-8-20T10:28:11Z</time></trkpt>
<trkpt lat="46.1648" lon="7.92377"><ele></ele><time>2025-8-20T10:28:14Z</time></trkpt>
<trkpt lat="46.16482" lon="7.92378"><ele></ele><time>2025-8-20T10:28:17Z</time></trkpt>
<trkpt lat="46.16487" lon="7.92377"><ele></ele><time>2025-8-20T10:28:20Z</time></trkpt>
<trkpt lat="46.16492" lon="7.92376"><ele></ele><time>2025-8-20T10:28:23Z</time></trkpt>
<trkpt lat="46.16496" lon="7.92376"><ele></ele><time>2025-8-20T10:28:26Z</time></trkpt>
<trkpt lat="46.16501" lon="7.92375"><ele></ele><time>2025-8-20T10:28:29Z</time></trkpt>
<trkpt lat="46.16505" lon="7.92374"><ele></ele><time>2025-8-20T10:28:32Z</time></trkpt>
<trkpt lat="46.1651" lon="7.92374"><ele></ele><time>2025-8-20T10:28:35Z</time></trkpt>
<trkpt lat="46.16516" lon="7.92373"><ele></ele><time>2025-8-20T10:28:38Z</time></trkpt>
<trkpt lat="46.16519" lon="7.92371"><ele></ele><time>2025-8-20T10:28:41Z</time></trkpt>
<trkpt lat="46.16527" lon="7.92368"><ele></ele><time>2025-8-20T10:28:44Z</time></trkpt>
<trkpt lat="46.16528" lon="7.92368"><ele></ele><time>2025-8-20T10:28:47Z</time></trkpt>
<trkpt lat="46.16536" lon="7.92362"><ele></ele><time>2025-8-20T10:28:50Z</time></trkpt>
<trkpt lat="46.16542" lon="7.92355"><ele></ele><time>2025-8-20T10:28:53Z</time></trkpt>
<trkpt lat="46.16543" lon="7.92354"><ele></ele><time>2025-8-20T10:28:56Z</time></trkpt>
<trkpt lat="46.16552" lon="7.92347"><ele></ele><time>2025-8-20T10:28:59Z</time></trkpt>
<trkpt lat="46.16553" lon="7.92346"><ele></ele><time>2025-8-20T10:29:2Z</time></trkpt>
<trkpt lat="46.1656" lon="7.92339"><ele></ele><time>2025-8-20T10:29:5Z</time></trkpt>
<trkpt lat="46.16562" lon="7.92338"><ele></ele><time>2025-8-20T10:29:8Z</time></trkpt>
<trkpt lat="46.16567" lon="7.92334"><ele></ele><time>2025-8-20T10:29:11Z</time></trkpt>
<trkpt lat="46.16572" lon="7.92331"><ele></ele><time>2025-8-20T10:29:14Z</time></trkpt>
<trkpt lat="46.16574" lon="7.9233"><ele></ele><time>2025-8-20T10:29:17Z</time></trkpt>
<trkpt lat="46.16581" lon="7.92325"><ele></ele><time>2025-8-20T10:29:20Z</time></trkpt>
<trkpt lat="46.16582" lon="7.92324"><ele></ele><time>2025-8-20T10:29:23Z</time></trkpt>
<trkpt lat="46.16589" lon="7.92321"><ele></ele><time>2025-8-20T10:29:26Z</time></trkpt>
<trkpt lat="46.16591" lon="7.92321"><ele></ele><time>2025-8-20T10:29:29Z</time></trkpt>
<trkpt lat="46.16597" lon="7.92321"><ele></ele><time>2025-8-20T10:29:32Z</time></trkpt>
<trkpt lat="46.166" lon="7.92321"><ele></ele><time>2025-8-20T10:29:35Z</time></trkpt>
<trkpt lat="46.16608" lon="7.92322"><ele></ele><time>2025-8-20T10:29:38Z</time></trkpt>
<trkpt lat="46.16612" lon="7.92323"><ele></ele><time>2025-8-20T10:29:41Z</time></trkpt>
<trkpt lat="46.16619" lon="7.92321"><ele></ele><time>2025-8-20T10:29:44Z</time></trkpt>
<trkpt lat="46.16621" lon="7.9232"><ele></ele><time>2025-8-20T10:29:47Z</time></trkpt>
<trkpt lat="46.16626" lon="7.92312"><ele></ele><time>2025-8-20T10:29:50Z</time></trkpt>
<trkpt lat="46.16629" lon="7.92309"><ele></ele><time>2025-8-20T10:29:53Z</time></trkpt>
<trkpt lat="46.16633" lon="7.92305"><ele></ele><time>2025-8-20T10:29:56Z</time></trkpt>
<trkpt lat="46.16636" lon="7.923"><ele></ele><time>2025-8-20T10:29:59Z</time></trkpt>
<trkpt lat="46.16637" lon="7.92297"><ele></ele><time>2025-8-20T10:30:2Z</time></trkpt>
<trkpt lat="46.16643" lon="7.9229"><ele></ele><time>2025-8-20T10:30:5Z</time></trkpt>
<trkpt lat="46.16649" lon="7.92286"><ele></ele><time>2025-8-20T10:30:8Z</time></trkpt>
<trkpt lat="46.16652" lon="7.92282"><ele></ele><time>2025-8-20T10:30:11Z</time></trkpt>
<trkpt lat="46.16658" lon="7.92279"><ele></ele><time>2025-8-20T10:30:14Z</time></trkpt>
<trkpt lat="46.16661" lon="7.92276"><ele></ele><time>2025-8-20T10:30:17Z</time></trkpt>
<trkpt lat="46.16664" lon="7.92275"><ele></ele><time>2025-8-20T10:30:20Z</time></trkpt>
<trkpt lat="46.16664" lon="7.92275"><ele></ele><time>2025-8-20T10:30:23Z</time></trkpt>
<trkpt lat="46.16665" lon="7.92273"><ele></ele><time>2025-8-20T10:30:26Z</time></trkpt>
<trkpt lat="46.16667" lon="7.92269"><ele></ele><time>2025-8-20T10:30:29Z</time></trkpt>
<trkpt lat="46.16668" lon="7.92268"><ele></ele><time>2025-8-20T10:30:32Z</time></trkpt>
<trkpt lat="46.16672" lon="7.92265"><ele></ele><time>2025-8-20T10:30:35Z</time></trkpt>
<trkpt lat="46.16674" lon="7.92264"><ele></ele><time>2025-8-20T10:30:38Z</time></trkpt>
<trkpt lat="46.16676" lon="7.92263"><ele></ele><time>2025-8-20T10:30:41Z</time></trkpt>
<trkpt lat="46.16681" lon="7.92259"><ele></ele><time>2025-8-20T10:30:44Z</time></trkpt>
<trkpt lat="46.16683" lon="7.92257"><ele></ele><time>2025-8-20T10:30:47Z</time></trkpt>
<trkpt lat="46.16687" lon="7.92254"><ele></ele><time>2025-8-20T10:30:50Z</time></trkpt>
<trkpt lat="46.16688" lon="7.92253"><ele></ele><time>2025-8-20T10:30:53Z</time></trkpt>
<trkpt lat="46.16693" lon="7.92251"><ele></ele><time>2025-8-20T10:30:56Z</time></trkpt>
<trkpt lat="46.16699" lon="7.92249"><ele></ele><time>2025-8-20T10:30:59Z</time></trkpt>
<trkpt lat="46.167" lon="7.92248"><ele></ele><time>2025-8-20T10:31:2Z</time></trkpt>
<trkpt lat="46.16705" lon="7.92244"><ele></ele><time>2025-8-20T10:31:5Z</time></trkpt>
<trkpt lat="46.16709" lon="7.92244"><ele></ele><time>2025-8-20T10:31:8Z</time></trkpt>
<trkpt lat="46.16714" lon="7.92242"><ele></ele><time>2025-8-20T10:31:11Z</time></trkpt>
<trkpt lat="46.16718" lon="7.92241"><ele></ele><time>2025-8-20T10:31:14Z</time></trkpt>
<trkpt lat="46.16721" lon="7.9224"><ele></ele><time>2025-8-20T10:31:17Z</time></trkpt>
<trkpt lat="46.16725" lon="7.92237"><ele></ele><time>2025-8-20T10:31:20Z</time></trkpt>
<trkpt lat="46.16727" lon="7.92235"><ele></ele><time>2025-8-20T10:31:23Z</time></trkpt>
<trkpt lat="46.16734" lon="7.92233"><ele></ele><time>2025-8-20T10:31:26Z</time></trkpt>
<trkpt lat="46.16735" lon="7.92233"><ele></ele><time>2025-8-20T10:31:29Z</time></trkpt>
<trkpt lat="46.16744" lon="7.9223"><ele></ele><time>2025-8-20T10:31:32Z</time></trkpt>
<trkpt lat="46.16745" lon="7.9223"><ele></ele><time>2025-8-20T10:31:35Z</time></trkpt>
<trkpt lat="46.16753" lon="7.92226"><ele></ele><time>2025-8-20T10:31:38Z</time></trkpt>
<trkpt lat="46.16754" lon="7.92226"><ele></ele><time>2025-8-20T10:31:41Z</time></trkpt>
<trkpt lat="46.16762" lon="7.92221"><ele></ele><time>2025-8-20T10:31:44Z</time></trkpt>
<trkpt lat="46.16764" lon="7.92218"><ele></ele><time>2025-8-20T10:31:47Z</time></trkpt>
<trkpt lat="46.1677" lon="7.92213"><ele></ele><time>2025-8-20T10:31:50Z</time></trkpt>
<trkpt lat="46.16771" lon="7.92212"><ele></ele><time>2025-8-20T10:31:53Z</time></trkpt>
<trkpt lat="46.16777" lon="7.92207"><ele></ele><time>2025-8-20T10:31:56Z</time></trkpt>
<trkpt lat="46.1678" lon="7.92203"><ele></ele><time>2025-8-20T10:31:59Z</time></trkpt>
<trkpt lat="46.16783" lon="7.92201"><ele></ele><time>2025-8-20T10:32:2Z</time></trkpt>
<trkpt lat="46.16787" lon="7.92196"><ele></ele><time>2025-8-20T10:32:5Z</time></trkpt>
<trkpt lat="46.1679" lon="7.92193"><ele></ele><time>2025-8-20T10:32:8Z</time></trkpt>
<trkpt lat="46.16795" lon="7.92188"><ele></ele><time>2025-8-20T10:32:11Z</time></trkpt>
<trkpt lat="46.16798" lon="7.92187"><ele></ele><time>2025-8-20T10:32:14Z</time></trkpt>
<trkpt lat="46.16801" lon="7.92186"><ele></ele><time>2025-8-20T10:32:17Z</time></trkpt>
<trkpt lat="46.16802" lon="7.92186"><ele></ele><time>2025-8-20T10:32:20Z</time></trkpt>
<trkpt lat="46.16803" lon="7.92185"><ele></ele><time>2025-8-20T10:32:23Z</time></trkpt>
<trkpt lat="46.16806" lon="7.92184"><ele></ele><time>2025-8-20T10:32:26Z</time></trkpt>
<trkpt lat="46.16813" lon="7.9218"><ele></ele><time>2025-8-20T10:32:29Z</time></trkpt>
<trkpt lat="46.16819" lon="7.92178"><ele></ele><time>2025-8-20T10:32:32Z</time></trkpt>
<trkpt lat="46.16823" lon="7.92181"><ele></ele><time>2025-8-20T10:32:35Z</time></trkpt>
<trkpt lat="46.16823" lon="7.92183"><ele></ele><time>2025-8-20T10:32:38Z</time></trkpt>
<trkpt lat="46.16823" lon="7.92185"><ele></ele><time>2025-8-20T10:32:41Z</time></trkpt>
<trkpt lat="46.16821" lon="7.92189"><ele></ele><time>2025-8-20T10:32:44Z</time></trkpt>
<trkpt lat="46.16816" lon="7.92192"><ele></ele><time>2025-8-20T10:32:47Z</time></trkpt>
<trkpt lat="46.1681" lon="7.92195"><ele></ele><time>2025-8-20T10:32:50Z</time></trkpt>
<trkpt lat="46.16807" lon="7.92198"><ele></ele><time>2025-8-20T10:32:53Z</time></trkpt>
<trkpt lat="46.16799" lon="7.92202"><ele></ele><time>2025-8-20T10:32:56Z</time></trkpt>
<trkpt lat="46.16794" lon="7.9221"><ele></ele><time>2025-8-20T10:32:59Z</time></trkpt>
<trkpt lat="46.16788" lon="7.92215"><ele></ele><time>2025-8-20T10:33:2Z</time></trkpt>
<trkpt lat="46.16785" lon="7.92219"><ele></ele><time>2025-8-20T10:33:5Z</time></trkpt>
<trkpt lat="46.16783" lon="7.92223"><ele></ele><time>2025-8-20T10:33:8Z</time></trkpt>
<trkpt lat="46.16779" lon="7.92232"><ele></ele><time>2025-8-20T10:33:11Z</time></trkpt>
<trkpt lat="46.16776" lon="7.92233"><ele></ele><time>2025-8-20T10:33:14Z</time></trkpt>
<trkpt lat="46.16772" lon="7.9224"><ele></ele><time>2025-8-20T10:33:17Z</time></trkpt>
<trkpt lat="46.16771" lon="7.92241"><ele></ele><time>2025-8-20T10:33:20Z</time></trkpt>
<trkpt lat="46.16768" lon="7.92253"><ele></ele><time>2025-8-20T10:33:23Z</time></trkpt>
<trkpt lat="46.16767" lon="7.92255"><ele></ele><time>2025-8-20T10:33:26Z</time></trkpt>
<trkpt lat="46.16762" lon="7.92261"><ele></ele><time>2025-8-20T10:33:29Z</time></trkpt>
<trkpt lat="46.16761" lon="7.92264"><ele></ele><time>2025-8-20T10:33:32Z</time></trkpt>
<trkpt lat="46.16757" lon="7.9227"><ele></ele><time>2025-8-20T10:33:35Z</time></trkpt>
<trkpt lat="46.16755" lon="7.92272"><ele></ele><time>2025-8-20T10:33:38Z</time></trkpt>
<trkpt lat="46.16751" lon="7.92279"><ele></ele><time>2025-8-20T10:33:41Z</time></trkpt>
<trkpt lat="46.16749" lon="7.92282"><ele></ele><time>2025-8-20T10:33:44Z</time></trkpt>
<trkpt lat="46.16748" lon="7.92283"><ele></ele><time>2025-8-20T10:33:47Z</time></trkpt>
<trkpt lat="46.16744" lon="7.92287"><ele></ele><time>2025-8-20T10:33:50Z</time></trkpt>
<trkpt lat="46.16742" lon="7.92288"><ele></ele><time>2025-8-20T10:33:53Z</time></trkpt>
<trkpt lat="46.16739" lon="7.92291"><ele></ele><time>2025-8-20T10:33:56Z</time></trkpt>
<trkpt lat="46.16734" lon="7.92296"><ele></ele><time>2025-8-20T10:33:59Z</time></trkpt>
<trkpt lat="46.16733" lon="7.92296"><ele></ele><time>2025-8-20T10:34:2Z</time></trkpt>
<trkpt lat="46.16729" lon="7.92302"><ele></ele><time>2025-8-20T10:34:5Z</time></trkpt>
<trkpt lat="46.16725" lon="7.92306"><ele></ele><time>2025-8-20T10:34:8Z</time></trkpt>
<trkpt lat="46.16724" lon="7.92307"><ele></ele><time>2025-8-20T10:34:11Z</time></trkpt>
<trkpt lat="46.1672" lon="7.92313"><ele></ele><time>2025-8-20T10:34:14Z</time></trkpt>
<trkpt lat="46.1672" lon="7.92315"><ele></ele><time>2025-8-20T10:34:17Z</time></trkpt>
<trkpt lat="46.16716" lon="7.92322"><ele></ele><time>2025-8-20T10:34:20Z</time></trkpt>
<trkpt lat="46.16716" lon="7.92323"><ele></ele><time>2025-8-20T10:34:23Z</time></trkpt>
<trkpt lat="46.16713" lon="7.9233"><ele></ele><time>2025-8-20T10:34:26Z</time></trkpt>
<trkpt lat="46.16711" lon="7.92334"><ele></ele><time>2025-8-20T10:34:29Z</time></trkpt>
<trkpt lat="46.16708" lon="7.92341"><ele></ele><time>2025-8-20T10:34:32Z</time></trkpt>
<trkpt lat="46.16707" lon="7.92344"><ele></ele><time>2025-8-20T10:34:35Z</time></trkpt>
<trkpt lat="46.16703" lon="7.92349"><ele></ele><time>2025-8-20T10:34:38Z</time></trkpt>
<trkpt lat="46.16699" lon="7.92352"><ele></ele><time>2025-8-20T10:34:41Z</time></trkpt>
<trkpt lat="46.16699" lon="7.92353"><ele></ele><time>2025-8-20T10:34:44Z</time></trkpt>
<trkpt lat="46.16693" lon="7.9236"><ele></ele><time>2025-8-20T10:34:47Z</time></trkpt>
<trkpt lat="46.16687" lon="7.92368"><ele></ele><time>2025-8-20T10:34:50Z</time></trkpt>
<trkpt lat="46.16686" lon="7.92369"><ele></ele><time>2025-8-20T10:34:53Z</time></trkpt>
<trkpt lat="46.16682" lon="7.92374"><ele></ele><time>2025-8-20T10:34:56Z</time></trkpt>
<trkpt lat="46.16681" lon="7.92375"><ele></ele><time>2025-8-20T10:34:59Z</time></trkpt>
<trkpt lat="46.16675" lon="7.92383"><ele></ele><time>2025-8-20T10:35:2Z</time></trkpt>
<trkpt lat="46.16673" lon="7.92385"><ele></ele><time>2025-8-20T10:35:5Z</time></trkpt>
<trkpt lat="46.16667" lon="7.92393"><ele></ele><time>2025-8-20T10:35:8Z</time></trkpt>
<trkpt lat="46.16667" lon="7.92395"><ele></ele><time>2025-8-20T10:35:11Z</time></trkpt>
<trkpt lat="46.16662" lon="7.92404"><ele></ele><time>2025-8-20T10:35:14Z</time></trkpt>
<trkpt lat="46.1666" lon="7.92408"><ele></ele><time>2025-8-20T10:35:17Z</time></trkpt>
<trkpt lat="46.16657" lon="7.92413"><ele></ele><time>2025-8-20T10:35:20Z</time></trkpt>
<trkpt lat="46.16652" lon="7.9242"><ele></ele><time>2025-8-20T10:35:23Z</time></trkpt>
<trkpt lat="46.1665" lon="7.92423"><ele></ele><time>2025-8-20T10:35:26Z</time></trkpt>
<trkpt lat="46.16646" lon="7.92428"><ele></ele><time>2025-8-20T10:35:29Z</time></trkpt>
<trkpt lat="46.16645" lon="7.9243"><ele></ele><time>2025-8-20T10:35:32Z</time></trkpt>
<trkpt lat="46.16641" lon="7.92433"><ele></ele><time>2025-8-20T10:35:35Z</time></trkpt>
<trkpt lat="46.16637" lon="7.92435"><ele></ele><time>2025-8-20T10:35:38Z</time></trkpt>
<trkpt lat="46.16632" lon="7.92439"><ele></ele><time>2025-8-20T10:35:41Z</time></trkpt>
<trkpt lat="46.16631" lon="7.9244"><ele></ele><time>2025-8-20T10:35:44Z</time></trkpt>
<trkpt lat="46.16627" lon="7.92445"><ele></ele><time>2025-8-20T10:35:47Z</time></trkpt>
<trkpt lat="46.16627" lon="7.92446"><ele></ele><time>2025-8-20T10:35:50Z</time></trkpt>
<trkpt lat="46.16621" lon="7.92457"><ele></ele><time>2025-8-20T10:35:53Z</time></trkpt>
<trkpt lat="46.16616" lon="7.92467"><ele></ele><time>2025-8-20T10:35:56Z</time></trkpt>
<trkpt lat="46.16615" lon="7.9247"><ele></ele><time>2025-8-20T10:35:59Z</time></trkpt>
<trkpt lat="46.16613" lon="7.92474"><ele></ele><time>2025-8-20T10:36:2Z</time></trkpt>
<trkpt lat="46.1661" lon="7.9248"><ele></ele><time>2025-8-20T10:36:5Z</time></trkpt>
<trkpt lat="46.16608" lon="7.92483"><ele></ele><time>2025-8-20T10:36:8Z</time></trkpt>
<trkpt lat="46.16604" lon="7.92488"><ele></ele><time>2025-8-20T10:36:11Z</time></trkpt>
<trkpt lat="46.16603" lon="7.92491"><ele></ele><time>2025-8-20T10:36:14Z</time></trkpt>
<trkpt lat="46.16601" lon="7.92499"><ele></ele><time>2025-8-20T10:36:17Z</time></trkpt>
<trkpt lat="46.16601" lon="7.92501"><ele></ele><time>2025-8-20T10:36:20Z</time></trkpt>
<trkpt lat="46.16601" lon="7.9251"><ele></ele><time>2025-8-20T10:36:23Z</time></trkpt>
<trkpt lat="46.16602" lon="7.92511"><ele></ele><time>2025-8-20T10:36:26Z</time></trkpt>
<trkpt lat="46.16605" lon="7.92521"><ele></ele><time>2025-8-20T10:36:29Z</time></trkpt>
<trkpt lat="46.16608" lon="7.9253"><ele></ele><time>2025-8-20T10:36:32Z</time></trkpt>
<trkpt lat="46.16609" lon="7.92534"><ele></ele><time>2025-8-20T10:36:35Z</time></trkpt>
<trkpt lat="46.1661" lon="7.9254"><ele></ele><time>2025-8-20T10:36:38Z</time></trkpt>
<trkpt lat="46.16612" lon="7.92545"><ele></ele><time>2025-8-20T10:36:41Z</time></trkpt>
<trkpt lat="46.16613" lon="7.92552"><ele></ele><time>2025-8-20T10:36:44Z</time></trkpt>
<trkpt lat="46.16613" lon="7.92556"><ele></ele><time>2025-8-20T10:36:47Z</time></trkpt>
<trkpt lat="46.16613" lon="7.92563"><ele></ele><time>2025-8-20T10:36:50Z</time></trkpt>
<trkpt lat="46.16612" lon="7.92569"><ele></ele><time>2025-8-20T10:36:53Z</time></trkpt>
<trkpt lat="46.16611" lon="7.92574"><ele></ele><time>2025-8-20T10:36:56Z</time></trkpt>
<trkpt lat="46.16606" lon="7.9258"><ele></ele><time>2025-8-20T10:36:59Z</time></trkpt>
<trkpt lat="46.16601" lon="7.92587"><ele></ele><time>2025-8-20T10:37:2Z</time></trkpt>
<trkpt lat="46.16599" lon="7.92589"><ele></ele><time>2025-8-20T10:37:5Z</time></trkpt>
<trkpt lat="46.16595" lon="7.92592"><ele></ele><time>2025-8-20T10:37:8Z</time></trkpt>
<trkpt lat="46.16591" lon="7.92597"><ele></ele><time>2025-8-20T10:37:11Z</time></trkpt>
<trkpt lat="46.16586" lon="7.92602"><ele></ele><time>2025-8-20T10:37:14Z</time></trkpt>
<trkpt lat="46.16584" lon="7.92605"><ele></ele><time>2025-8-20T10:37:17Z</time></trkpt>
<trkpt lat="46.1658" lon="7.9261"><ele></ele><time>2025-8-20T10:37:20Z</time></trkpt>
<trkpt lat="46.16576" lon="7.92614"><ele></ele><time>2025-8-20T10:37:23Z</time></trkpt>
<trkpt lat="46.16575" lon="7.92614"><ele></ele><time>2025-8-20T10:37:26Z</time></trkpt>
<trkpt lat="46.16567" lon="7.92622"><ele></ele><time>2025-8-20T10:37:29Z</time></trkpt>
<trkpt lat="46.16566" lon="7.92623"><ele></ele><time>2025-8-20T10:37:32Z</time></trkpt>
<trkpt lat="46.16565" lon="7.92624"><ele></ele><time>2025-8-20T10:37:35Z</time></trkpt>
<trkpt lat="46.16561" lon="7.92627"><ele></ele><time>2025-8-20T10:37:38Z</time></trkpt>
<trkpt lat="46.16555" lon="7.92633"><ele></ele><time>2025-8-20T10:37:41Z</time></trkpt>
<trkpt lat="46.16555" lon="7.92633"><ele></ele><time>2025-8-20T10:37:44Z</time></trkpt>
<trkpt lat="46.16548" lon="7.92638"><ele></ele><time>2025-8-20T10:37:47Z</time></trkpt>
<trkpt lat="46.16544" lon="7.9264"><ele></ele><time>2025-8-20T10:37:50Z</time></trkpt>
<trkpt lat="46.1654" lon="7.92643"><ele></ele><time>2025-8-20T10:37:53Z</time></trkpt>
<trkpt lat="46.16535" lon="7.92645"><ele></ele><time>2025-8-20T10:37:56Z</time></trkpt>
<trkpt lat="46.16532" lon="7.92646"><ele></ele><time>2025-8-20T10:37:59Z</time></trkpt>
<trkpt lat="46.16528" lon="7.92648"><ele></ele><time>2025-8-20T10:38:2Z</time></trkpt>
<trkpt lat="46.16523" lon="7.92649"><ele></ele><time>2025-8-20T10:38:5Z</time></trkpt>
<trkpt lat="46.16519" lon="7.92651"><ele></ele><time>2025-8-20T10:38:8Z</time></trkpt>
<trkpt lat="46.16515" lon="7.92654"><ele></ele><time>2025-8-20T10:38:11Z</time></trkpt>
<trkpt lat="46.16511" lon="7.92655"><ele></ele><time>2025-8-20T10:38:14Z</time></trkpt>
<trkpt lat="46.16507" lon="7.92657"><ele></ele><time>2025-8-20T10:38:17Z</time></trkpt>
<trkpt lat="46.16504" lon="7.92659"><ele></ele><time>2025-8-20T10:38:20Z</time></trkpt>
<trkpt lat="46.165" lon="7.92662"><ele></ele><time>2025-8-20T10:38:23Z</time></trkpt>
<trkpt lat="46.16498" lon="7.92664"><ele></ele><time>2025-8-20T10:38:26Z</time></trkpt>
<trkpt lat="46.16493" lon="7.92671"><ele></ele><time>2025-8-20T10:38:29Z</time></trkpt>
<trkpt lat="46.16487" lon="7.92675"><ele></ele><time>2025-8-20T10:38:32Z</time></trkpt>
<trkpt lat="46.16486" lon="7.92676"><ele></ele><time>2025-8-20T10:38:35Z</time></trkpt>
<trkpt lat="46.1648" lon="7.92684"><ele></ele><time>2025-8-20T10:38:38Z</time></trkpt>
<trkpt lat="46.16479" lon="7.92686"><ele></ele><time>2025-8-20T10:38:41Z</time></trkpt>
<trkpt lat="46.16474" lon="7.92693"><ele></ele><time>2025-8-20T10:38:44Z</time></trkpt>
<trkpt lat="46.16469" lon="7.92702"><ele></ele><time>2025-8-20T10:38:47Z</time></trkpt>
<trkpt lat="46.16468" lon="7.92704"><ele></ele><time>2025-8-20T10:38:50Z</time></trkpt>
<trkpt lat="46.16463" lon="7.9271"><ele></ele><time>2025-8-20T10:38:53Z</time></trkpt>
<trkpt lat="46.16457" lon="7.92717"><ele></ele><time>2025-8-20T10:38:56Z</time></trkpt>
<trkpt lat="46.16454" lon="7.92721"><ele></ele><time>2025-8-20T10:38:59Z</time></trkpt>
<trkpt lat="46.16451" lon="7.92728"><ele></ele><time>2025-8-20T10:39:2Z</time></trkpt>
<trkpt lat="46.16448" lon="7.92733"><ele></ele><time>2025-8-20T10:39:5Z</time></trkpt>
<trkpt lat="46.16444" lon="7.9274"><ele></ele><time>2025-8-20T10:39:8Z</time></trkpt>
<trkpt lat="46.16441" lon="7.92744"><ele></ele><time>2025-8-20T10:39:11Z</time></trkpt>
<trkpt lat="46.16434" lon="7.92755"><ele></ele><time>2025-8-20T10:39:14Z</time></trkpt>
<trkpt lat="46.16428" lon="7.92768"><ele></ele><time>2025-8-20T10:39:17Z</time></trkpt>
<trkpt lat="46.16429" lon="7.92771"><ele></ele><time>2025-8-20T10:39:20Z</time></trkpt>
<trkpt lat="46.1643" lon="7.92772"><ele></ele><time>2025-8-20T10:39:23Z</time></trkpt>
<trkpt lat="46.16432" lon="7.92771"><ele></ele><time>2025-8-20T10:39:26Z</time></trkpt>
<trkpt lat="46.16436" lon="7.92765"><ele></ele><time>2025-8-20T10:39:29Z</time></trkpt>
<trkpt lat="46.16439" lon="7.9276"><ele></ele><time>2025-8-20T10:39:32Z</time></trkpt>
<trkpt lat="46.16445" lon="7.92754"><ele></ele><time>2025-8-20T10:39:35Z</time></trkpt>
<trkpt lat="46.1645" lon="7.92751"><ele></ele><time>2025-8-20T10:39:38Z</time></trkpt>
<trkpt lat="46.16452" lon="7.92748"><ele></ele><time>2025-8-20T10:39:41Z</time></trkpt>
<trkpt lat="46.16455" lon="7.92745"><ele></ele><time>2025-8-20T10:39:44Z</time></trkpt>
<trkpt lat="46.16458" lon="7.92742"><ele></ele><time>2025-8-20T10:39:47Z</time></trkpt>
<trkpt lat="46.16459" lon="7.92742"><ele></ele><time>2025-8-20T10:39:50Z</time></trkpt>
<trkpt lat="46.16459" lon="7.92741"><ele></ele><time>2025-8-20T10:39:53Z</time></trkpt>
<trkpt lat="46.16463" lon="7.92734"><ele></ele><time>2025-8-20T10:39:56Z</time></trkpt>
<trkpt lat="46.16466" lon="7.92732"><ele></ele><time>2025-8-20T10:39:59Z</time></trkpt>
<trkpt lat="46.1647" lon="7.92731"><ele></ele><time>2025-8-20T10:40:2Z</time></trkpt>
<trkpt lat="46.16473" lon="7.9273"><ele></ele><time>2025-8-20T10:40:5Z</time></trkpt>
<trkpt lat="46.16476" lon="7.92728"><ele></ele><time>2025-8-20T10:40:8Z</time></trkpt>
<trkpt lat="46.16481" lon="7.92726"><ele></ele><time>2025-8-20T10:40:11Z</time></trkpt>
<trkpt lat="46.16484" lon="7.92725"><ele></ele><time>2025-8-20T10:40:14Z</time></trkpt>
<trkpt lat="46.16488" lon="7.92724"><ele></ele><time>2025-8-20T10:40:17Z</time></trkpt>
<trkpt lat="46.16489" lon="7.92722"><ele></ele><time>2025-8-20T10:40:20Z</time></trkpt>
<trkpt lat="46.16496" lon="7.92716"><ele></ele><time>2025-8-20T10:40:23Z</time></trkpt>
<trkpt lat="46.16497" lon="7.92716"><ele></ele><time>2025-8-20T10:40:26Z</time></trkpt>
<trkpt lat="46.16504" lon="7.92712"><ele></ele><time>2025-8-20T10:40:29Z</time></trkpt>
<trkpt lat="46.16505" lon="7.92712"><ele></ele><time>2025-8-20T10:40:32Z</time></trkpt>
<trkpt lat="46.1651" lon="7.92708"><ele></ele><time>2025-8-20T10:40:35Z</time></trkpt>
<trkpt lat="46.16512" lon="7.92707"><ele></ele><time>2025-8-20T10:40:38Z</time></trkpt>
<trkpt lat="46.16517" lon="7.92706"><ele></ele><time>2025-8-20T10:40:41Z</time></trkpt>
<trkpt lat="46.16521" lon="7.92706"><ele></ele><time>2025-8-20T10:40:44Z</time></trkpt>
<trkpt lat="46.16525" lon="7.92705"><ele></ele><time>2025-8-20T10:40:47Z</time></trkpt>
<trkpt lat="46.16529" lon="7.92706"><ele></ele><time>2025-8-20T10:40:50Z</time></trkpt>
<trkpt lat="46.16534" lon="7.92705"><ele></ele><time>2025-8-20T10:40:53Z</time></trkpt>
<trkpt lat="46.16537" lon="7.92705"><ele></ele><time>2025-8-20T10:40:56Z</time></trkpt>
<trkpt lat="46.1654" lon="7.92705"><ele></ele><time>2025-8-20T10:40:59Z</time></trkpt>
<trkpt lat="46.16543" lon="7.92704"><ele></ele><time>2025-8-20T10:41:2Z</time></trkpt>
<trkpt lat="46.16548" lon="7.92705"><ele></ele><time>2025-8-20T10:41:5Z</time></trkpt>
<trkpt lat="46.16552" lon="7.92705"><ele></ele><time>2025-8-20T10:41:8Z</time></trkpt>
<trkpt lat="46.16556" lon="7.92706"><ele></ele><time>2025-8-20T10:41:11Z</time></trkpt>
<trkpt lat="46.16561" lon="7.92706"><ele></ele><time>2025-8-20T10:41:14Z</time></trkpt>
<trkpt lat="46.16567" lon="7.92707"><ele></ele><time>2025-8-20T10:41:17Z</time></trkpt>
<trkpt lat="46.16569" lon="7.92707"><ele></ele><time>2025-8-20T10:41:20Z</time></trkpt>
<trkpt lat="46.16575" lon="7.92708"><ele></ele><time>2025-8-20T10:41:23Z</time></trkpt>
<trkpt lat="46.16577" lon="7.92708"><ele></ele><time>2025-8-20T10:41:26Z</time></trkpt>
<trkpt lat="46.16583" lon="7.92708"><ele></ele><time>2025-8-20T10:41:29Z</time></trkpt>
<trkpt lat="46.16586" lon="7.92708"><ele></ele><time>2025-8-20T10:41:32Z</time></trkpt>
<trkpt lat="46.1659" lon="7.92707"><ele></ele><time>2025-8-20T10:41:35Z</time></trkpt>
<trkpt lat="46.16594" lon="7.92705"><ele></ele><time>2025-8-20T10:41:38Z</time></trkpt>
<trkpt lat="46.16597" lon="7.92705"><ele></ele><time>2025-8-20T10:41:41Z</time></trkpt>
<trkpt lat="46.16603" lon="7.92701"><ele></ele><time>2025-8-20T10:41:44Z</time></trkpt>
<trkpt lat="46.16605" lon="7.92701"><ele></ele><time>2025-8-20T10:41:47Z</time></trkpt>
<trkpt lat="46.16609" lon="7.927"><ele></ele><time>2025-8-20T10:41:50Z</time></trkpt>
<trkpt lat="46.16611" lon="7.92699"><ele></ele><time>2025-8-20T10:41:53Z</time></trkpt>
<trkpt lat="46.16613" lon="7.92698"><ele></ele><time>2025-8-20T10:41:56Z</time></trkpt>
<trkpt lat="46.16617" lon="7.92696"><ele></ele><time>2025-8-20T10:41:59Z</time></trkpt>
<trkpt lat="46.16618" lon="7.92696"><ele></ele><time>2025-8-20T10:42:2Z</time></trkpt>
<trkpt lat="46.16624" lon="7.92694"><ele></ele><time>2025-8-20T10:42:5Z</time></trkpt>
<trkpt lat="46.16629" lon="7.92691"><ele></ele><time>2025-8-20T10:42:8Z</time></trkpt>
<trkpt lat="46.16632" lon="7.92689"><ele></ele><time>2025-8-20T10:42:11Z</time></trkpt>
<trkpt lat="46.16637" lon="7.92688"><ele></ele><time>2025-8-20T10:42:14Z</time></trkpt>
<trkpt lat="46.16642" lon="7.92683"><ele></ele><time>2025-8-20T10:42:17Z</time></trkpt>
<trkpt lat="46.16644" lon="7.9268"><ele></ele><time>2025-8-20T10:42:20Z</time></trkpt>
<trkpt lat="46.16651" lon="7.92675"><ele></ele><time>2025-8-20T10:42:23Z</time></trkpt>
<trkpt lat="46.16652" lon="7.92674"><ele></ele><time>2025-8-20T10:42:26Z</time></trkpt>
<trkpt lat="46.16659" lon="7.92666"><ele></ele><time>2025-8-20T10:42:29Z</time></trkpt>
<trkpt lat="46.16661" lon="7.92664"><ele></ele><time>2025-8-20T10:42:32Z</time></trkpt>
<trkpt lat="46.16667" lon="7.92661"><ele></ele><time>2025-8-20T10:42:35Z</time></trkpt>
<trkpt lat="46.16669" lon="7.92658"><ele></ele><time>2025-8-20T10:42:38Z</time></trkpt>
<trkpt lat="46.16674" lon="7.92654"><ele></ele><time>2025-8-20T10:42:41Z</time></trkpt>
<trkpt lat="46.16678" lon="7.92653"><ele></ele><time>2025-8-20T10:42:44Z</time></trkpt>
<trkpt lat="46.16685" lon="7.9265"><ele></ele><time>2025-8-20T10:42:47Z</time></trkpt>
<trkpt lat="46.16691" lon="7.92648"><ele></ele><time>2025-8-20T10:42:50Z</time></trkpt>
<trkpt lat="46.16692" lon="7.92648"><ele></ele><time>2025-8-20T10:42:53Z</time></trkpt>
<trkpt lat="46.16699" lon="7.92648"><ele></ele><time>2025-8-20T10:42:56Z</time></trkpt>
<trkpt lat="46.167" lon="7.92647"><ele></ele><time>2025-8-20T10:42:59Z</time></trkpt>
<trkpt lat="46.16703" lon="7.92646"><ele></ele><time>2025-8-20T10:43:2Z</time></trkpt>
<trkpt lat="46.16705" lon="7.92646"><ele></ele><time>2025-8-20T10:43:5Z</time></trkpt>
<trkpt lat="46.16706" lon="7.92645"><ele></ele><time>2025-8-20T10:43:8Z</time></trkpt>
<trkpt lat="46.16709" lon="7.92644"><ele></ele><time>2025-8-20T10:43:11Z</time></trkpt>
<trkpt lat="46.16715" lon="7.92644"><ele></ele><time>2025-8-20T10:43:14Z</time></trkpt>
<trkpt lat="46.16717" lon="7.92642"><ele></ele><time>2025-8-20T10:43:17Z</time></trkpt>
<trkpt lat="46.16722" lon="7.92636"><ele></ele><time>2025-8-20T10:43:20Z</time></trkpt>
<trkpt lat="46.16723" lon="7.92636"><ele></ele><time>2025-8-20T10:43:23Z</time></trkpt>
<trkpt lat="46.1673" lon="7.92632"><ele></ele><time>2025-8-20T10:43:26Z</time></trkpt>
<trkpt lat="46.16731" lon="7.92632"><ele></ele><time>2025-8-20T10:43:29Z</time></trkpt>
<trkpt lat="46.16732" lon="7.92633"><ele></ele><time>2025-8-20T10:43:32Z</time></trkpt>
<trkpt lat="46.16736" lon="7.92632"><ele></ele><time>2025-8-20T10:43:35Z</time></trkpt>
<trkpt lat="46.16737" lon="7.92631"><ele></ele><time>2025-8-20T10:43:38Z</time></trkpt>
<trkpt lat="46.1674" lon="7.92629"><ele></ele><time>2025-8-20T10:43:41Z</time></trkpt>
<trkpt lat="46.16747" lon="7.9263"><ele></ele><time>2025-8-20T10:43:44Z</time></trkpt>
<trkpt lat="46.16756" lon="7.92631"><ele></ele><time>2025-8-20T10:43:47Z</time></trkpt>
<trkpt lat="46.16757" lon="7.92631"><ele></ele><time>2025-8-20T10:43:50Z</time></trkpt>
<trkpt lat="46.16765" lon="7.92632"><ele></ele><time>2025-8-20T10:43:53Z</time></trkpt>
<trkpt lat="46.16772" lon="7.92634"><ele></ele><time>2025-8-20T10:43:56Z</time></trkpt>
<trkpt lat="46.16773" lon="7.92636"><ele></ele><time>2025-8-20T10:43:59Z</time></trkpt>
<trkpt lat="46.16779" lon="7.92639"><ele></ele><time>2025-8-20T10:44:2Z</time></trkpt>
<trkpt lat="46.16784" lon="7.92631"><ele></ele><time>2025-8-20T10:44:5Z</time></trkpt>
<trkpt lat="46.16785" lon="7.92629"><ele></ele><time>2025-8-20T10:44:8Z</time></trkpt>
<trkpt lat="46.1679" lon="7.92621"><ele></ele><time>2025-8-20T10:44:11Z</time></trkpt>
<trkpt lat="46.16793" lon="7.92618"><ele></ele><time>2025-8-20T10:44:14Z</time></trkpt>
<trkpt lat="46.16797" lon="7.92614"><ele></ele><time>2025-8-20T10:44:17Z</time></trkpt>
<trkpt lat="46.16799" lon="7.92612"><ele></ele><time>2025-8-20T10:44:20Z</time></trkpt>
<trkpt lat="46.16805" lon="7.92607"><ele></ele><time>2025-8-20T10:44:23Z</time></trkpt>
<trkpt lat="46.16809" lon="7.92604"><ele></ele><time>2025-8-20T10:44:26Z</time></trkpt>
<trkpt lat="46.16812" lon="7.92601"><ele></ele><time>2025-8-20T10:44:29Z</time></trkpt>
<trkpt lat="46.16819" lon="7.92593"><ele></ele><time>2025-8-20T10:44:32Z</time></trkpt>
<trkpt lat="46.16822" lon="7.92591"><ele></ele><time>2025-8-20T10:44:35Z</time></trkpt>
<trkpt lat="46.16827" lon="7.92587"><ele></ele><time>2025-8-20T10:44:38Z</time></trkpt>
<trkpt lat="46.1683" lon="7.92583"><ele></ele><time>2025-8-20T10:44:41Z</time></trkpt>
<trkpt lat="46.16833" lon="7.92579"><ele></ele><time>2025-8-20T10:44:44Z</time></trkpt>
<trkpt lat="46.16837" lon="7.92572"><ele></ele><time>2025-8-20T10:44:47Z</time></trkpt>
<trkpt lat="46.1684" lon="7.92568"><ele></ele><time>2025-8-20T10:44:50Z</time></trkpt>
<trkpt lat="46.16844" lon="7.92561"><ele></ele><time>2025-8-20T10:44:53Z</time></trkpt>
<trkpt lat="46.16845" lon="7.9256"><ele></ele><time>2025-8-20T10:44:56Z</time></trkpt>
<trkpt lat="46.1685" lon="7.92548"><ele></ele><time>2025-8-20T10:44:59Z</time></trkpt>
<trkpt lat="46.16851" lon="7.92545"><ele></ele><time>2025-8-20T10:45:2Z</time></trkpt>
<trkpt lat="46.16856" lon="7.92536"><ele></ele><time>2025-8-20T10:45:5Z</time></trkpt>
<trkpt lat="46.16858" lon="7.92533"><ele></ele><time>2025-8-20T10:45:8Z</time></trkpt>
<trkpt lat="46.16863" lon="7.92524"><ele></ele><time>2025-8-20T10:45:11Z</time></trkpt>
<trkpt lat="46.16864" lon="7.92523"><ele></ele><time>2025-8-20T10:45:14Z</time></trkpt>
<trkpt lat="46.16868" lon="7.92515"><ele></ele><time>2025-8-20T10:45:17Z</time></trkpt>
<trkpt lat="46.1687" lon="7.9251"><ele></ele><time>2025-8-20T10:45:20Z</time></trkpt>
<trkpt lat="46.16875" lon="7.92502"><ele></ele><time>2025-8-20T10:45:23Z</time></trkpt>
<trkpt lat="46.16877" lon="7.92498"><ele></ele><time>2025-8-20T10:45:26Z</time></trkpt>
<trkpt lat="46.16881" lon="7.92496"><ele></ele><time>2025-8-20T10:45:29Z</time></trkpt>
<trkpt lat="46.16885" lon="7.92491"><ele></ele><time>2025-8-20T10:45:32Z</time></trkpt>
<trkpt lat="46.16886" lon="7.9249"><ele></ele><time>2025-8-20T10:45:35Z</time></trkpt>
<trkpt lat="46.16892" lon="7.92486"><ele></ele><time>2025-8-20T10:45:38Z</time></trkpt>
<trkpt lat="46.169" lon="7.92481"><ele></ele><time>2025-8-20T10:45:41Z</time></trkpt>
<trkpt lat="46.16901" lon="7.9248"><ele></ele><time>2025-8-20T10:45:44Z</time></trkpt>
<trkpt lat="46.16904" lon="7.92476"><ele></ele><time>2025-8-20T10:45:47Z</time></trkpt>
<trkpt lat="46.16907" lon="7.92472"><ele></ele><time>2025-8-20T10:45:50Z</time></trkpt>
<trkpt lat="46.16908" lon="7.92472"><ele></ele><time>2025-8-20T10:45:53Z</time></trkpt>
<trkpt lat="46.16911" lon="7.92469"><ele></ele><time>2025-8-20T10:45:56Z</time></trkpt>
<trkpt lat="46.16913" lon="7.92467"><ele></ele><time>2025-8-20T10:45:59Z</time></trkpt>
<trkpt lat="46.16915" lon="7.92465"><ele></ele><time>2025-8-20T10:46:2Z</time></trkpt>
<trkpt lat="46.16918" lon="7.92463"><ele></ele><time>2025-8-20T10:46:5Z</time></trkpt>
<trkpt lat="46.16922" lon="7.92461"><ele></ele><time>2025-8-20T10:46:8Z</time></trkpt>
<trkpt lat="46.16923" lon="7.92461"><ele></ele><time>2025-8-20T10:46:11Z</time></trkpt>
<trkpt lat="46.16924" lon="7.9246"><ele></ele><time>2025-8-20T10:46:14Z</time></trkpt>
<trkpt lat="46.1693" lon="7.92455"><ele></ele><time>2025-8-20T10:46:17Z</time></trkpt>
<trkpt lat="46.16931" lon="7.92454"><ele></ele><time>2025-8-20T10:46:20Z</time></trkpt>
<trkpt lat="46.16936" lon="7.92451"><ele></ele><time>2025-8-20T10:46:23Z</time></trkpt>
<trkpt lat="46.16937" lon="7.9245"><ele></ele><time>2025-8-20T10:46:26Z</time></trkpt>
<trkpt lat="46.16943" lon="7.92446"><ele></ele><time>2025-8-20T10:46:29Z</time></trkpt>
<trkpt lat="46.16945" lon="7.92445"><ele></ele><time>2025-8-20T10:46:32Z</time></trkpt>
<trkpt lat="46.1695" lon="7.92443"><ele></ele><time>2025-8-20T10:46:35Z</time></trkpt>
<trkpt lat="46.16953" lon="7.92442"><ele></ele><time>2025-8-20T10:46:38Z</time></trkpt>
<trkpt lat="46.16955" lon="7.92441"><ele></ele><time>2025-8-20T10:46:41Z</time></trkpt>
<trkpt lat="46.16962" lon="7.92441"><ele></ele><time>2025-8-20T10:46:44Z</time></trkpt>
<trkpt lat="46.16963" lon="7.92442"><ele></ele><time>2025-8-20T10:46:47Z</time></trkpt>
<trkpt lat="46.16964" lon="7.92442"><ele></ele><time>2025-8-20T10:46:50Z</time></trkpt>
<trkpt lat="46.16968" lon="7.92441"><ele></ele><time>2025-8-20T10:46:53Z</time></trkpt>
<trkpt lat="46.16971" lon="7.92442"><ele></ele><time>2025-8-20T10:46:56Z</time></trkpt>
<trkpt lat="46.16973" lon="7.92442"><ele></ele><time>2025-8-20T10:46:59Z</time></trkpt>
<trkpt lat="46.16974" lon="7.92442"><ele></ele><time>2025-8-20T10:47:2Z</time></trkpt>
<trkpt lat="46.16979" lon="7.92442"><ele></ele><time>2025-8-20T10:47:5Z</time></trkpt>
<trkpt lat="46.16981" lon="7.92442"><ele></ele><time>2025-8-20T10:47:8Z</time></trkpt>
<trkpt lat="46.16987" lon="7.92441"><ele></ele><time>2025-8-20T10:47:11Z</time></trkpt>
<trkpt lat="46.16987" lon="7.92441"><ele></ele><time>2025-8-20T10:47:14Z</time></trkpt>
<trkpt lat="46.16988" lon="7.9244"><ele></ele><time>2025-8-20T10:47:17Z</time></trkpt>
<trkpt lat="46.16991" lon="7.92438"><ele></ele><time>2025-8-20T10:47:20Z</time></trkpt>
<trkpt lat="46.16994" lon="7.92435"><ele></ele><time>2025-8-20T10:47:23Z</time></trkpt>
<trkpt lat="46.16997" lon="7.92432"><ele></ele><time>2025-8-20T10:47:26Z</time></trkpt>
<trkpt lat="46.16998" lon="7.9243"><ele></ele><time>2025-8-20T10:47:29Z</time></trkpt>
<trkpt lat="46.17001" lon="7.92425"><ele></ele><time>2025-8-20T10:47:32Z</time></trkpt>
<trkpt lat="46.17002" lon="7.92423"><ele></ele><time>2025-8-20T10:47:35Z</time></trkpt>
<trkpt lat="46.17008" lon="7.92414"><ele></ele><time>2025-8-20T10:47:38Z</time></trkpt>
<trkpt lat="46.17012" lon="7.92408"><ele></ele><time>2025-8-20T10:47:41Z</time></trkpt>
<trkpt lat="46.17014" lon="7.92408"><ele></ele><time>2025-8-20T10:47:44Z</time></trkpt>
<trkpt lat="46.17015" lon="7.92408"><ele></ele><time>2025-8-20T10:47:47Z</time></trkpt>
<trkpt lat="46.17018" lon="7.92411"><ele></ele><time>2025-8-20T10:47:50Z</time></trkpt>
<trkpt lat="46.17018" lon="7.92414"><ele></ele><time>2025-8-20T10:47:53Z</time></trkpt>
<trkpt lat="46.17017" lon="7.92417"><ele></ele><time>2025-8-20T10:47:56Z</time></trkpt>
<trkpt lat="46.17014" lon="7.92426"><ele></ele><time>2025-8-20T10:47:59Z</time></trkpt>
<trkpt lat="46.17009" lon="7.92436"><ele></ele><time>2025-8-20T10:48:2Z</time></trkpt>
<trkpt lat="46.17008" lon="7.92442"><ele></ele><time>2025-8-20T10:48:5Z</time></trkpt>
<trkpt lat="46.17005" lon="7.9245"><ele></ele><time>2025-8-20T10:48:8Z</time></trkpt>
<trkpt lat="46.17003" lon="7.92455"><ele></ele><time>2025-8-20T10:48:11Z</time></trkpt>
<trkpt lat="46.16995" lon="7.92461"><ele></ele><time>2025-8-20T10:48:14Z</time></trkpt>
<trkpt lat="46.16992" lon="7.92464"><ele></ele><time>2025-8-20T10:48:17Z</time></trkpt>
<trkpt lat="46.1699" lon="7.92466"><ele></ele><time>2025-8-20T10:48:20Z</time></trkpt>
<trkpt lat="46.16987" lon="7.92467"><ele></ele><time>2025-8-20T10:48:23Z</time></trkpt>
<trkpt lat="46.16985" lon="7.92468"><ele></ele><time>2025-8-20T10:48:26Z</time></trkpt>
<trkpt lat="46.16981" lon="7.92471"><ele></ele><time>2025-8-20T10:48:29Z</time></trkpt>
<trkpt lat="46.16977" lon="7.92473"><ele></ele><time>2025-8-20T10:48:32Z</time></trkpt>
<trkpt lat="46.16972" lon="7.92476"><ele></ele><time>2025-8-20T10:48:35Z</time></trkpt>
<trkpt lat="46.16969" lon="7.92479"><ele></ele><time>2025-8-20T10:48:38Z</time></trkpt>
<trkpt lat="46.16965" lon="7.92483"><ele></ele><time>2025-8-20T10:48:41Z</time></trkpt>
<trkpt lat="46.16963" lon="7.92485"><ele></ele><time>2025-8-20T10:48:44Z</time></trkpt>
<trkpt lat="46.16961" lon="7.92493"><ele></ele><time>2025-8-20T10:48:47Z</time></trkpt>
<trkpt lat="46.16955" lon="7.92503"><ele></ele><time>2025-8-20T10:48:50Z</time></trkpt>
<trkpt lat="46.16949" lon="7.92512"><ele></ele><time>2025-8-20T10:48:53Z</time></trkpt>
<trkpt lat="46.16949" lon="7.92513"><ele></ele><time>2025-8-20T10:48:56Z</time></trkpt>
<trkpt lat="46.16943" lon="7.9252"><ele></ele><time>2025-8-20T10:48:59Z</time></trkpt>
<trkpt lat="46.16943" lon="7.92521"><ele></ele><time>2025-8-20T10:49:2Z</time></trkpt>
<trkpt lat="46.16939" lon="7.92528"><ele></ele><time>2025-8-20T10:49:5Z</time></trkpt>
<trkpt lat="46.16938" lon="7.92532"><ele></ele><time>2025-8-20T10:49:8Z</time></trkpt>
<trkpt lat="46.16935" lon="7.92538"><ele></ele><time>2025-8-20T10:49:11Z</time></trkpt>
<trkpt lat="46.16933" lon="7.92541"><ele></ele><time>2025-8-20T10:49:14Z</time></trkpt>
<trkpt lat="46.1693" lon="7.92547"><ele></ele><time>2025-8-20T10:49:17Z</time></trkpt>
<trkpt lat="46.16927" lon="7.92552"><ele></ele><time>2025-8-20T10:49:20Z</time></trkpt>
<trkpt lat="46.16925" lon="7.92556"><ele></ele><time>2025-8-20T10:49:23Z</time></trkpt>
<trkpt lat="46.16923" lon="7.92563"><ele></ele><time>2025-8-20T10:49:26Z</time></trkpt>
<trkpt lat="46.16923" lon="7.92566"><ele></ele><time>2025-8-20T10:49:29Z</time></trkpt>
<trkpt lat="46.16922" lon="7.92577"><ele></ele><time>2025-8-20T10:49:32Z</time></trkpt>
<trkpt lat="46.16922" lon="7.92579"><ele></ele><time>2025-8-20T10:49:35Z</time></trkpt>
<trkpt lat="46.1692" lon="7.92589"><ele></ele><time>2025-8-20T10:49:38Z</time></trkpt>
<trkpt lat="46.1692" lon="7.92596"><ele></ele><time>2025-8-20T10:49:41Z</time></trkpt>
<trkpt lat="46.16919" lon="7.92601"><ele></ele><time>2025-8-20T10:49:44Z</time></trkpt>
<trkpt lat="46.16919" lon="7.92608"><ele></ele><time>2025-8-20T10:49:47Z</time></trkpt>
<trkpt lat="46.16917" lon="7.92612"><ele></ele><time>2025-8-20T10:49:50Z</time></trkpt>
<trkpt lat="46.16916" lon="7.92617"><ele></ele><time>2025-8-20T10:49:53Z</time></trkpt>
<trkpt lat="46.16916" lon="7.92626"><ele></ele><time>2025-8-20T10:49:56Z</time></trkpt>
<trkpt lat="46.16914" lon="7.92632"><ele></ele><time>2025-8-20T10:49:59Z</time></trkpt>
<trkpt lat="46.16912" lon="7.92639"><ele></ele><time>2025-8-20T10:50:2Z</time></trkpt>
<trkpt lat="46.16911" lon="7.92642"><ele></ele><time>2025-8-20T10:50:5Z</time></trkpt>
<trkpt lat="46.16911" lon="7.92644"><ele></ele><time>2025-8-20T10:50:8Z</time></trkpt>
<trkpt lat="46.1691" lon="7.92652"><ele></ele><time>2025-8-20T10:50:11Z</time></trkpt>
<trkpt lat="46.16908" lon="7.9266"><ele></ele><time>2025-8-20T10:50:14Z</time></trkpt>
<trkpt lat="46.16906" lon="7.92667"><ele></ele><time>2025-8-20T10:50:17Z</time></trkpt>
<trkpt lat="46.16904" lon="7.92675"><ele></ele><time>2025-8-20T10:50:20Z</time></trkpt>
<trkpt lat="46.16903" lon="7.92681"><ele></ele><time>2025-8-20T10:50:23Z</time></trkpt>
<trkpt lat="46.16902" lon="7.92684"><ele></ele><time>2025-8-20T10:50:26Z</time></trkpt>
<trkpt lat="46.16901" lon="7.92691"><ele></ele><time>2025-8-20T10:50:29Z</time></trkpt>
<trkpt lat="46.169" lon="7.92697"><ele></ele><time>2025-8-20T10:50:32Z</time></trkpt>
<trkpt lat="46.16896" lon="7.92704"><ele></ele><time>2025-8-20T10:50:35Z</time></trkpt>
<trkpt lat="46.16893" lon="7.92707"><ele></ele><time>2025-8-20T10:50:38Z</time></trkpt>
<trkpt lat="46.16888" lon="7.92714"><ele></ele><time>2025-8-20T10:50:41Z</time></trkpt>
<trkpt lat="46.16887" lon="7.92717"><ele></ele><time>2025-8-20T10:50:44Z</time></trkpt>
<trkpt lat="46.16882" lon="7.92721"><ele></ele><time>2025-8-20T10:50:47Z</time></trkpt>
<trkpt lat="46.16879" lon="7.92722"><ele></ele><time>2025-8-20T10:50:50Z</time></trkpt>
<trkpt lat="46.16873" lon="7.92726"><ele></ele><time>2025-8-20T10:50:53Z</time></trkpt>
<trkpt lat="46.16869" lon="7.9273"><ele></ele><time>2025-8-20T10:50:56Z</time></trkpt>
<trkpt lat="46.16864" lon="7.92734"><ele></ele><time>2025-8-20T10:50:59Z</time></trkpt>
<trkpt lat="46.16859" lon="7.9274"><ele></ele><time>2025-8-20T10:51:2Z</time></trkpt>
<trkpt lat="46.16857" lon="7.92745"><ele></ele><time>2025-8-20T10:51:5Z</time></trkpt>
<trkpt lat="46.16856" lon="7.92748"><ele></ele><time>2025-8-20T10:51:8Z</time></trkpt>
<trkpt lat="46.1685" lon="7.92753"><ele></ele><time>2025-8-20T10:51:11Z</time></trkpt>
<trkpt lat="46.16841" lon="7.92756"><ele></ele><time>2025-8-20T10:51:14Z</time></trkpt>
<trkpt lat="46.16839" lon="7.92755"><ele></ele><time>2025-8-20T10:51:17Z</time></trkpt>
<trkpt lat="46.16829" lon="7.92757"><ele></ele><time>2025-8-20T10:51:20Z</time></trkpt>
<trkpt lat="46.16822" lon="7.92757"><ele></ele><time>2025-8-20T10:51:23Z</time></trkpt>
<trkpt lat="46.16816" lon="7.92758"><ele></ele><time>2025-8-20T10:51:26Z</time></trkpt>
<trkpt lat="46.1681" lon="7.92759"><ele></ele><time>2025-8-20T10:51:29Z</time></trkpt>
<trkpt lat="46.16809" lon="7.92758"><ele></ele><time>2025-8-20T10:51:32Z</time></trkpt>
<trkpt lat="46.16806" lon="7.92757"><ele></ele><time>2025-8-20T10:51:35Z</time></trkpt>
<trkpt lat="46.168" lon="7.92755"><ele></ele><time>2025-8-20T10:51:38Z</time></trkpt>
<trkpt lat="46.16796" lon="7.92755"><ele></ele><time>2025-8-20T10:51:41Z</time></trkpt>
<trkpt lat="46.16793" lon="7.92756"><ele></ele><time>2025-8-20T10:51:44Z</time></trkpt>
<trkpt lat="46.16789" lon="7.92759"><ele></ele><time>2025-8-20T10:51:47Z</time></trkpt>
<trkpt lat="46.16785" lon="7.92766"><ele></ele><time>2025-8-20T10:51:50Z</time></trkpt>
<trkpt lat="46.16784" lon="7.92767"><ele></ele><time>2025-8-20T10:51:53Z</time></trkpt>
<trkpt lat="46.16778" lon="7.92775"><ele></ele><time>2025-8-20T10:51:56Z</time></trkpt>
<trkpt lat="46.16777" lon="7.92776"><ele></ele><time>2025-8-20T10:51:59Z</time></trkpt>
<trkpt lat="46.16771" lon="7.9278"><ele></ele><time>2025-8-20T10:52:2Z</time></trkpt>
<trkpt lat="46.1677" lon="7.92781"><ele></ele><time>2025-8-20T10:52:5Z</time></trkpt>
<trkpt lat="46.16765" lon="7.92783"><ele></ele><time>2025-8-20T10:52:8Z</time></trkpt>
<trkpt lat="46.16763" lon="7.92784"><ele></ele><time>2025-8-20T10:52:11Z</time></trkpt>
<trkpt lat="46.16758" lon="7.92785"><ele></ele><time>2025-8-20T10:52:14Z</time></trkpt>
<trkpt lat="46.16756" lon="7.92786"><ele></ele><time>2025-8-20T10:52:17Z</time></trkpt>
<trkpt lat="46.16752" lon="7.92788"><ele></ele><time>2025-8-20T10:52:20Z</time></trkpt>
<trkpt lat="46.1675" lon="7.92789"><ele></ele><time>2025-8-20T10:52:23Z</time></trkpt>
<trkpt lat="46.16745" lon="7.92789"><ele></ele><time>2025-8-20T10:52:26Z</time></trkpt>
<trkpt lat="46.16739" lon="7.92796"><ele></ele><time>2025-8-20T10:52:29Z</time></trkpt>
<trkpt lat="46.16731" lon="7.92803"><ele></ele><time>2025-8-20T10:52:32Z</time></trkpt>
<trkpt lat="46.1673" lon="7.92804"><ele></ele><time>2025-8-20T10:52:35Z</time></trkpt>
<trkpt lat="46.16724" lon="7.92811"><ele></ele><time>2025-8-20T10:52:38Z</time></trkpt>
<trkpt lat="46.16722" lon="7.92813"><ele></ele><time>2025-8-20T10:52:41Z</time></trkpt>
<trkpt lat="46.16715" lon="7.92818"><ele></ele><time>2025-8-20T10:52:44Z</time></trkpt>
<trkpt lat="46.16711" lon="7.92822"><ele></ele><time>2025-8-20T10:52:47Z</time></trkpt>
<trkpt lat="46.16706" lon="7.92827"><ele></ele><time>2025-8-20T10:52:50Z</time></trkpt>
<trkpt lat="46.16701" lon="7.92832"><ele></ele><time>2025-8-20T10:52:53Z</time></trkpt>
<trkpt lat="46.16695" lon="7.9284"><ele></ele><time>2025-8-20T10:52:56Z</time></trkpt>
<trkpt lat="46.16691" lon="7.92845"><ele></ele><time>2025-8-20T10:52:59Z</time></trkpt>
<trkpt lat="46.16686" lon="7.92853"><ele></ele><time>2025-8-20T10:53:2Z</time></trkpt>
<trkpt lat="46.16684" lon="7.92854"><ele></ele><time>2025-8-20T10:53:5Z</time></trkpt>
<trkpt lat="46.16675" lon="7.9286"><ele></ele><time>2025-8-20T10:53:8Z</time></trkpt>
<trkpt lat="46.16665" lon="7.92865"><ele></ele><time>2025-8-20T10:53:11Z</time></trkpt>
<trkpt lat="46.16663" lon="7.92866"><ele></ele><time>2025-8-20T10:53:14Z</time></trkpt>
<trkpt lat="46.16654" lon="7.92868"><ele></ele><time>2025-8-20T10:53:17Z</time></trkpt>
<trkpt lat="46.16653" lon="7.92869"><ele></ele><time>2025-8-20T10:53:20Z</time></trkpt>
<trkpt lat="46.16645" lon="7.92871"><ele></ele><time>2025-8-20T10:53:23Z</time></trkpt>
<trkpt lat="46.16635" lon="7.92876"><ele></ele><time>2025-8-20T10:53:26Z</time></trkpt>
<trkpt lat="46.16634" lon="7.92877"><ele></ele><time>2025-8-20T10:53:29Z</time></trkpt>
<trkpt lat="46.16627" lon="7.92883"><ele></ele><time>2025-8-20T10:53:32Z</time></trkpt>
<trkpt lat="46.16626" lon="7.92883"><ele></ele><time>2025-8-20T10:53:35Z</time></trkpt>
<trkpt lat="46.16622" lon="7.92887"><ele></ele><time>2025-8-20T10:53:38Z</time></trkpt>
<trkpt lat="46.16616" lon="7.92891"><ele></ele><time>2025-8-20T10:53:41Z</time></trkpt>
<trkpt lat="46.16615" lon="7.92892"><ele></ele><time>2025-8-20T10:53:44Z</time></trkpt>
<trkpt lat="46.1661" lon="7.92898"><ele></ele><time>2025-8-20T10:53:47Z</time></trkpt>
<trkpt lat="46.16607" lon="7.92901"><ele></ele><time>2025-8-20T10:53:50Z</time></trkpt>
<trkpt lat="46.16603" lon="7.92907"><ele></ele><time>2025-8-20T10:53:53Z</time></trkpt>
<trkpt lat="46.16597" lon="7.92914"><ele></ele><time>2025-8-20T10:53:56Z</time></trkpt>
<trkpt lat="46.16588" lon="7.92922"><ele></ele><time>2025-8-20T10:53:59Z</time></trkpt>
<trkpt lat="46.16577" lon="7.92927"><ele></ele><time>2025-8-20T10:54:2Z</time></trkpt>
<trkpt lat="46.16563" lon="7.92935"><ele></ele><time>2025-8-20T10:54:5Z</time></trkpt>
<trkpt lat="46.16547" lon="7.92948"><ele></ele><time>2025-8-20T10:54:8Z</time></trkpt>
<trkpt lat="46.16535" lon="7.92958"><ele></ele><time>2025-8-20T10:54:11Z</time></trkpt>
<trkpt lat="46.16526" lon="7.92964"><ele></ele><time>2025-8-20T10:54:14Z</time></trkpt>
<trkpt lat="46.16522" lon="7.92968"><ele></ele><time>2025-8-20T10:54:17Z</time></trkpt>
<trkpt lat="46.16517" lon="7.92974"><ele></ele><time>2025-8-20T10:54:20Z</time></trkpt>
<trkpt lat="46.16508" lon="7.92989"><ele></ele><time>2025-8-20T10:54:23Z</time></trkpt>
<trkpt lat="46.16496" lon="7.93004"><ele></ele><time>2025-8-20T10:54:26Z</time></trkpt>
<trkpt lat="46.16485" lon="7.93021"><ele></ele><time>2025-8-20T10:54:29Z</time></trkpt>
<trkpt lat="46.16467" lon="7.93045"><ele></ele><time>2025-8-20T10:54:32Z</time></trkpt>
<trkpt lat="46.16458" lon="7.93049"><ele></ele><time>2025-8-20T10:54:35Z</time></trkpt>
<trkpt lat="46.1645" lon="7.93051"><ele></ele><time>2025-8-20T10:54:38Z</time></trkpt>
<trkpt lat="46.16442" lon="7.93054"><ele></ele><time>2025-8-20T10:54:41Z</time></trkpt>
<trkpt lat="46.16434" lon="7.9306"><ele></ele><time>2025-8-20T10:54:44Z</time></trkpt>
<trkpt lat="46.1642" lon="7.93069"><ele></ele><time>2025-8-20T10:54:47Z</time></trkpt>
<trkpt lat="46.16407" lon="7.93082"><ele></ele><time>2025-8-20T10:54:50Z</time></trkpt>
<trkpt lat="46.16405" lon="7.93092"><ele></ele><time>2025-8-20T10:54:53Z</time></trkpt>
<trkpt lat="46.16404" lon="7.931"><ele></ele><time>2025-8-20T10:54:56Z</time></trkpt>
<trkpt lat="46.16403" lon="7.93109"><ele></ele><time>2025-8-20T10:54:59Z</time></trkpt>
<trkpt lat="46.16394" lon="7.93126"><ele></ele><time>2025-8-20T10:55:2Z</time></trkpt>
<trkpt lat="46.16381" lon="7.93135"><ele></ele><time>2025-8-20T10:55:5Z</time></trkpt>
<trkpt lat="46.16367" lon="7.93148"><ele></ele><time>2025-8-20T10:55:8Z</time></trkpt>
<trkpt lat="46.16362" lon="7.93154"><ele></ele><time>2025-8-20T10:55:11Z</time></trkpt>
<trkpt lat="46.16343" lon="7.93167"><ele></ele><time>2025-8-20T10:55:14Z</time></trkpt>
<trkpt lat="46.16317" lon="7.93176"><ele></ele><time>2025-8-20T10:55:17Z</time></trkpt>
<trkpt lat="46.16305" lon="7.93182"><ele></ele><time>2025-8-20T10:55:20Z</time></trkpt>
<trkpt lat="46.16301" lon="7.93186"><ele></ele><time>2025-8-20T10:55:23Z</time></trkpt>
<trkpt lat="46.16296" lon="7.93193"><ele></ele><time>2025-8-20T10:55:26Z</time></trkpt>
<trkpt lat="46.16295" lon="7.93194"><ele></ele><time>2025-8-20T10:55:29Z</time></trkpt>
<trkpt lat="46.16287" lon="7.93205"><ele></ele><time>2025-8-20T10:55:32Z</time></trkpt>
<trkpt lat="46.16286" lon="7.93206"><ele></ele><time>2025-8-20T10:55:35Z</time></trkpt>
<trkpt lat="46.16282" lon="7.93215"><ele></ele><time>2025-8-20T10:55:38Z</time></trkpt>
<trkpt lat="46.16277" lon="7.93224"><ele></ele><time>2025-8-20T10:55:41Z</time></trkpt>
<trkpt lat="46.16275" lon="7.93227"><ele></ele><time>2025-8-20T10:55:44Z</time></trkpt>
<trkpt lat="46.16271" lon="7.93232"><ele></ele><time>2025-8-20T10:55:47Z</time></trkpt>
<trkpt lat="46.16267" lon="7.93234"><ele></ele><time>2025-8-20T10:55:50Z</time></trkpt>
<trkpt lat="46.16265" lon="7.93236"><ele></ele><time>2025-8-20T10:55:53Z</time></trkpt>
<trkpt lat="46.16262" lon="7.93241"><ele></ele><time>2025-8-20T10:55:56Z</time></trkpt>
<trkpt lat="46.16264" lon="7.93244"><ele></ele><time>2025-8-20T10:55:59Z</time></trkpt>
<trkpt lat="46.16267" lon="7.93243"><ele></ele><time>2025-8-20T10:56:2Z</time></trkpt>
<trkpt lat="46.16271" lon="7.93241"><ele></ele><time>2025-8-20T10:56:5Z</time></trkpt>
<trkpt lat="46.16272" lon="7.93241"><ele></ele><time>2025-8-20T10:56:8Z</time></trkpt>
<trkpt lat="46.16278" lon="7.93237"><ele></ele><time>2025-8-20T10:56:11Z</time></trkpt>
<trkpt lat="46.16279" lon="7.93235"><ele></ele><time>2025-8-20T10:56:14Z</time></trkpt>
<trkpt lat="46.16282" lon="7.93232"><ele></ele><time>2025-8-20T10:56:17Z</time></trkpt>
<trkpt lat="46.16283" lon="7.93229"><ele></ele><time>2025-8-20T10:56:20Z</time></trkpt>
<trkpt lat="46.16287" lon="7.93226"><ele></ele><time>2025-8-20T10:56:23Z</time></trkpt>
<trkpt lat="46.16288" lon="7.93224"><ele></ele><time>2025-8-20T10:56:26Z</time></trkpt>
<trkpt lat="46.16291" lon="7.9322"><ele></ele><time>2025-8-20T10:56:29Z</time></trkpt>
<trkpt lat="46.16295" lon="7.93218"><ele></ele><time>2025-8-20T10:56:32Z</time></trkpt>
<trkpt lat="46.16297" lon="7.93219"><ele></ele><time>2025-8-20T10:56:35Z</time></trkpt>
<trkpt lat="46.16303" lon="7.93217"><ele></ele><time>2025-8-20T10:56:38Z</time></trkpt>
<trkpt lat="46.16304" lon="7.93216"><ele></ele><time>2025-8-20T10:56:41Z</time></trkpt>
<trkpt lat="46.1631" lon="7.93215"><ele></ele><time>2025-8-20T10:56:44Z</time></trkpt>
<trkpt lat="46.16312" lon="7.93215"><ele></ele><time>2025-8-20T10:56:47Z</time></trkpt>
<trkpt lat="46.16314" lon="7.93214"><ele></ele><time>2025-8-20T10:56:50Z</time></trkpt>
<trkpt lat="46.16318" lon="7.93209"><ele></ele><time>2025-8-20T10:56:53Z</time></trkpt>
<trkpt lat="46.16324" lon="7.93208"><ele></ele><time>2025-8-20T10:56:56Z</time></trkpt>
<trkpt lat="46.16326" lon="7.93209"><ele></ele><time>2025-8-20T10:56:59Z</time></trkpt>
<trkpt lat="46.16326" lon="7.93211"><ele></ele><time>2025-8-20T10:57:2Z</time></trkpt>
<trkpt lat="46.16325" lon="7.93214"><ele></ele><time>2025-8-20T10:57:5Z</time></trkpt>
<trkpt lat="46.16324" lon="7.93215"><ele></ele><time>2025-8-20T10:57:8Z</time></trkpt>
<trkpt lat="46.16319" lon="7.93219"><ele></ele><time>2025-8-20T10:57:11Z</time></trkpt>
<trkpt lat="46.16318" lon="7.9322"><ele></ele><time>2025-8-20T10:57:14Z</time></trkpt>
<trkpt lat="46.16316" lon="7.93224"><ele></ele><time>2025-8-20T10:57:17Z</time></trkpt>
<trkpt lat="46.16314" lon="7.93226"><ele></ele><time>2025-8-20T10:57:20Z</time></trkpt>
<trkpt lat="46.16314" lon="7.93227"><ele></ele><time>2025-8-20T10:57:23Z</time></trkpt>
<trkpt lat="46.16313" lon="7.93228"><ele></ele><time>2025-8-20T10:57:26Z</time></trkpt>
<trkpt lat="46.1631" lon="7.93231"><ele></ele><time>2025-8-20T10:57:29Z</time></trkpt>
<trkpt lat="46.16308" lon="7.93232"><ele></ele><time>2025-8-20T10:57:32Z</time></trkpt>
<trkpt lat="46.16306" lon="7.93234"><ele></ele><time>2025-8-20T10:57:35Z</time></trkpt>
<trkpt lat="46.16305" lon="7.93234"><ele></ele><time>2025-8-20T10:57:38Z</time></trkpt>
<trkpt lat="46.16304" lon="7.93234"><ele></ele><time>2025-8-20T10:57:41Z</time></trkpt>
<trkpt lat="46.16301" lon="7.93237"><ele></ele><time>2025-8-20T10:57:44Z</time></trkpt>
<trkpt lat="46.163" lon="7.93242"><ele></ele><time>2025-8-20T10:57:47Z</time></trkpt>
<trkpt lat="46.16299" lon="7.93243"><ele></ele><time>2025-8-20T10:57:50Z</time></trkpt>
<trkpt lat="46.16298" lon="7.93246"><ele></ele><time>2025-8-20T10:57:53Z</time></trkpt>
<trkpt lat="46.16296" lon="7.93249"><ele></ele><time>2025-8-20T10:57:56Z</time></trkpt>
<trkpt lat="46.16294" lon="7.93251"><ele></ele><time>2025-8-20T10:57:59Z</time></trkpt>
<trkpt lat="46.16294" lon="7.93253"><ele></ele><time>2025-8-20T10:58:2Z</time></trkpt>
<trkpt lat="46.16294" lon="7.93254"><ele></ele><time>2025-8-20T10:58:5Z</time></trkpt>
<trkpt lat="46.16293" lon="7.93255"><ele></ele><time>2025-8-20T10:58:8Z</time></trkpt>
<trkpt lat="46.16292" lon="7.93258"><ele></ele><time>2025-8-20T10:58:11Z</time></trkpt>
<trkpt lat="46.1629" lon="7.93264"><ele></ele><time>2025-8-20T10:58:14Z</time></trkpt>
<trkpt lat="46.16289" lon="7.93265"><ele></ele><time>2025-8-20T10:58:17Z</time></trkpt>
<trkpt lat="46.16283" lon="7.93267"><ele></ele><time>2025-8-20T10:58:20Z</time></trkpt>
<trkpt lat="46.1628" lon="7.93271"><ele></ele><time>2025-8-20T10:58:23Z</time></trkpt>
<trkpt lat="46.16279" lon="7.93272"><ele></ele><time>2025-8-20T10:58:26Z</time></trkpt>
<trkpt lat="46.16277" lon="7.93274"><ele></ele><time>2025-8-20T10:58:29Z</time></trkpt>
<trkpt lat="46.16274" lon="7.93274"><ele></ele><time>2025-8-20T10:58:32Z</time></trkpt>
<trkpt lat="46.16273" lon="7.93277"><ele></ele><time>2025-8-20T10:58:35Z</time></trkpt>
<trkpt lat="46.1627" lon="7.9328"><ele></ele><time>2025-8-20T10:58:38Z</time></trkpt>
<trkpt lat="46.1627" lon="7.9328"><ele></ele><time>2025-8-20T10:58:41Z</time></trkpt>
<trkpt lat="46.16268" lon="7.93281"><ele></ele><time>2025-8-20T10:58:44Z</time></trkpt>
<trkpt lat="46.16265" lon="7.93284"><ele></ele><time>2025-8-20T10:58:47Z</time></trkpt>
<trkpt lat="46.16263" lon="7.93287"><ele></ele><time>2025-8-20T10:58:50Z</time></trkpt>
<trkpt lat="46.16261" lon="7.93287"><ele></ele><time>2025-8-20T10:58:53Z</time></trkpt>
<trkpt lat="46.16258" lon="7.93288"><ele></ele><time>2025-8-20T10:58:56Z</time></trkpt>
<trkpt lat="46.16258" lon="7.93289"><ele></ele><time>2025-8-20T10:58:59Z</time></trkpt>
<trkpt lat="46.16257" lon="7.9329"><ele></ele><time>2025-8-20T10:59:2Z</time></trkpt>
<trkpt lat="46.16255" lon="7.93295"><ele></ele><time>2025-8-20T10:59:5Z</time></trkpt>
<trkpt lat="46.16253" lon="7.93295"><ele></ele><time>2025-8-20T10:59:8Z</time></trkpt>
<trkpt lat="46.16252" lon="7.93297"><ele></ele><time>2025-8-20T10:59:11Z</time></trkpt>
<trkpt lat="46.1625" lon="7.93298"><ele></ele><time>2025-8-20T10:59:14Z</time></trkpt>
<trkpt lat="46.16247" lon="7.93299"><ele></ele><time>2025-8-20T10:59:17Z</time></trkpt>
<trkpt lat="46.16245" lon="7.93302"><ele></ele><time>2025-8-20T10:59:20Z</time></trkpt>
<trkpt lat="46.16242" lon="7.93304"><ele></ele><time>2025-8-20T10:59:23Z</time></trkpt>
<trkpt lat="46.1624" lon="7.93306"><ele></ele><time>2025-8-20T10:59:26Z</time></trkpt>
<trkpt lat="46.16238" lon="7.93307"><ele></ele><time>2025-8-20T10:59:29Z</time></trkpt>
<trkpt lat="46.16237" lon="7.93309"><ele></ele><time>2025-8-20T10:59:32Z</time></trkpt>
<trkpt lat="46.16236" lon="7.93309"><ele></ele><time>2025-8-20T10:59:35Z</time></trkpt>
<trkpt lat="46.16234" lon="7.9331"><ele></ele><time>2025-8-20T10:59:38Z</time></trkpt>
<trkpt lat="46.16233" lon="7.93311"><ele></ele><time>2025-8-20T10:59:41Z</time></trkpt>
<trkpt lat="46.1623" lon="7.93314"><ele></ele><time>2025-8-20T10:59:44Z</time></trkpt>
<trkpt lat="46.16229" lon="7.93314"><ele></ele><time>2025-8-20T10:59:47Z</time></trkpt>
<trkpt lat="46.16228" lon="7.93314"><ele></ele><time>2025-8-20T10:59:50Z</time></trkpt>
<trkpt lat="46.16223" lon="7.93316"><ele></ele><time>2025-8-20T10:59:53Z</time></trkpt>
<trkpt lat="46.16223" lon="7.93316"><ele></ele><time>2025-8-20T10:59:56Z</time></trkpt>
<trkpt lat="46.16217" lon="7.93318"><ele></ele><time>2025-8-20T10:59:59Z</time></trkpt>
<trkpt lat="46.16217" lon="7.93318"><ele></ele><time>2025-8-20T11:0:2Z</time></trkpt>
<trkpt lat="46.16216" lon="7.93318"><ele></ele><time>2025-8-20T11:0:5Z</time></trkpt>
<trkpt lat="46.16213" lon="7.93319"><ele></ele><time>2025-8-20T11:0:8Z</time></trkpt>
<trkpt lat="46.16209" lon="7.9332"><ele></ele><time>2025-8-20T11:0:11Z</time></trkpt>
<trkpt lat="46.16206" lon="7.9332"><ele></ele><time>2025-8-20T11:0:14Z</time></trkpt>
<trkpt lat="46.162" lon="7.93323"><ele></ele><time>2025-8-20T11:0:17Z</time></trkpt>
<trkpt lat="46.16194" lon="7.93329"><ele></ele><time>2025-8-20T11:0:20Z</time></trkpt>
<trkpt lat="46.16194" lon="7.9333"><ele></ele><time>2025-8-20T11:0:23Z</time></trkpt>
<trkpt lat="46.16189" lon="7.93332"><ele></ele><time>2025-8-20T11:0:26Z</time></trkpt>
<trkpt lat="46.16185" lon="7.93334"><ele></ele><time>2025-8-20T11:0:29Z</time></trkpt>
<trkpt lat="46.16183" lon="7.93335"><ele></ele><time>2025-8-20T11:0:32Z</time></trkpt>
<trkpt lat="46.16178" lon="7.93339"><ele></ele><time>2025-8-20T11:0:35Z</time></trkpt>
<trkpt lat="46.16177" lon="7.93339"><ele></ele><time>2025-8-20T11:0:38Z</time></trkpt>
<trkpt lat="46.16174" lon="7.93342"><ele></ele><time>2025-8-20T11:0:41Z</time></trkpt>
<trkpt lat="46.1617" lon="7.93347"><ele></ele><time>2025-8-20T11:0:44Z</time></trkpt>
<trkpt lat="46.16167" lon="7.93348"><ele></ele><time>2025-8-20T11:0:47Z</time></trkpt>
<trkpt lat="46.1616" lon="7.93353"><ele></ele><time>2025-8-20T11:0:50Z</time></trkpt>
<trkpt lat="46.16158" lon="7.93355"><ele></ele><time>2025-8-20T11:0:53Z</time></trkpt>
<trkpt lat="46.16151" lon="7.93362"><ele></ele><time>2025-8-20T11:0:56Z</time></trkpt>
<trkpt lat="46.16151" lon="7.93363"><ele></ele><time>2025-8-20T11:0:59Z</time></trkpt>
<trkpt lat="46.16145" lon="7.9337"><ele></ele><time>2025-8-20T11:1:2Z</time></trkpt>
<trkpt lat="46.16143" lon="7.93374"><ele></ele><time>2025-8-20T11:1:5Z</time></trkpt>
<trkpt lat="46.16138" lon="7.93382"><ele></ele><time>2025-8-20T11:1:8Z</time></trkpt>
<trkpt lat="46.16137" lon="7.93382"><ele></ele><time>2025-8-20T11:1:11Z</time></trkpt>
<trkpt lat="46.16132" lon="7.93388"><ele></ele><time>2025-8-20T11:1:14Z</time></trkpt>
<trkpt lat="46.16131" lon="7.93388"><ele></ele><time>2025-8-20T11:1:17Z</time></trkpt>
<trkpt lat="46.16128" lon="7.93392"><ele></ele><time>2025-8-20T11:1:20Z</time></trkpt>
<trkpt lat="46.16125" lon="7.93396"><ele></ele><time>2025-8-20T11:1:23Z</time></trkpt>
<trkpt lat="46.16119" lon="7.93402"><ele></ele><time>2025-8-20T11:1:26Z</time></trkpt>
<trkpt lat="46.16117" lon="7.93404"><ele></ele><time>2025-8-20T11:1:29Z</time></trkpt>
<trkpt lat="46.16112" lon="7.93408"><ele></ele><time>2025-8-20T11:1:32Z</time></trkpt>
<trkpt lat="46.16108" lon="7.93411"><ele></ele><time>2025-8-20T11:1:35Z</time></trkpt>
<trkpt lat="46.16102" lon="7.93415"><ele></ele><time>2025-8-20T11:1:38Z</time></trkpt>
<trkpt lat="46.16097" lon="7.9342"><ele></ele><time>2025-8-20T11:1:41Z</time></trkpt>
<trkpt lat="46.16093" lon="7.93425"><ele></ele><time>2025-8-20T11:1:44Z</time></trkpt>
<trkpt lat="46.1608" lon="7.93436"><ele></ele><time>2025-8-20T11:1:47Z</time></trkpt>
<trkpt lat="46.16079" lon="7.93437"><ele></ele><time>2025-8-20T11:1:50Z</time></trkpt>
<trkpt lat="46.16072" lon="7.93444"><ele></ele><time>2025-8-20T11:1:53Z</time></trkpt>
<trkpt lat="46.16072" lon="7.93448"><ele></ele><time>2025-8-20T11:1:56Z</time></trkpt>
<trkpt lat="46.16076" lon="7.9345"><ele></ele><time>2025-8-20T11:1:59Z</time></trkpt>
<trkpt lat="46.1608" lon="7.93447"><ele></ele><time>2025-8-20T11:2:2Z</time></trkpt>
<trkpt lat="46.16081" lon="7.93444"><ele></ele><time>2025-8-20T11:2:5Z</time></trkpt>
<trkpt lat="46.16086" lon="7.93441"><ele></ele><time>2025-8-20T11:2:8Z</time></trkpt>
<trkpt lat="46.16089" lon="7.93439"><ele></ele><time>2025-8-20T11:2:11Z</time></trkpt>
<trkpt lat="46.16095" lon="7.93435"><ele></ele><time>2025-8-20T11:2:14Z</time></trkpt>
<trkpt lat="46.16098" lon="7.93434"><ele></ele><time>2025-8-20T11:2:17Z</time></trkpt>
<trkpt lat="46.16102" lon="7.93431"><ele></ele><time>2025-8-20T11:2:20Z</time></trkpt>
<trkpt lat="46.16106" lon="7.93429"><ele></ele><time>2025-8-20T11:2:23Z</time></trkpt>
<trkpt lat="46.16112" lon="7.93427"><ele></ele><time>2025-8-20T11:2:26Z</time></trkpt>
<trkpt lat="46.16114" lon="7.93427"><ele></ele><time>2025-8-20T11:2:29Z</time></trkpt>
<trkpt lat="46.16121" lon="7.93424"><ele></ele><time>2025-8-20T11:2:32Z</time></trkpt>
<trkpt lat="46.16123" lon="7.93423"><ele></ele><time>2025-8-20T11:2:35Z</time></trkpt>
<trkpt lat="46.1613" lon="7.9342"><ele></ele><time>2025-8-20T11:2:38Z</time></trkpt>
<trkpt lat="46.16133" lon="7.93418"><ele></ele><time>2025-8-20T11:2:41Z</time></trkpt>
<trkpt lat="46.16139" lon="7.93416"><ele></ele><time>2025-8-20T11:2:44Z</time></trkpt>
<trkpt lat="46.1614" lon="7.93415"><ele></ele><time>2025-8-20T11:2:47Z</time></trkpt>
<trkpt lat="46.16146" lon="7.93412"><ele></ele><time>2025-8-20T11:2:50Z</time></trkpt>
<trkpt lat="46.16155" lon="7.93411"><ele></ele><time>2025-8-20T11:2:53Z</time></trkpt>
<trkpt lat="46.16163" lon="7.9341"><ele></ele><time>2025-8-20T11:2:56Z</time></trkpt>
<trkpt lat="46.16164" lon="7.9341"><ele></ele><time>2025-8-20T11:2:59Z</time></trkpt>
<trkpt lat="46.16171" lon="7.93409"><ele></ele><time>2025-8-20T11:3:2Z</time></trkpt>
<trkpt lat="46.16175" lon="7.93408"><ele></ele><time>2025-8-20T11:3:5Z</time></trkpt>
<trkpt lat="46.1618" lon="7.93408"><ele></ele><time>2025-8-20T11:3:8Z</time></trkpt>
<trkpt lat="46.16186" lon="7.93406"><ele></ele><time>2025-8-20T11:3:11Z</time></trkpt>
<trkpt lat="46.16188" lon="7.93406"><ele></ele><time>2025-8-20T11:3:14Z</time></trkpt>
<trkpt lat="46.16195" lon="7.93405"><ele></ele><time>2025-8-20T11:3:17Z</time></trkpt>
<trkpt lat="46.16196" lon="7.93405"><ele></ele><time>2025-8-20T11:3:20Z</time></trkpt>
<trkpt lat="46.16202" lon="7.93404"><ele></ele><time>2025-8-20T11:3:23Z</time></trkpt>
<trkpt lat="46.1621" lon="7.93403"><ele></ele><time>2025-8-20T11:3:26Z</time></trkpt>
<trkpt lat="46.16211" lon="7.93403"><ele></ele><time>2025-8-20T11:3:29Z</time></trkpt>
<trkpt lat="46.16215" lon="7.93405"><ele></ele><time>2025-8-20T11:3:32Z</time></trkpt>
<trkpt lat="46.16217" lon="7.93405"><ele></ele><time>2025-8-20T11:3:35Z</time></trkpt>
<trkpt lat="46.1622" lon="7.93405"><ele></ele><time>2025-8-20T11:3:38Z</time></trkpt>
<trkpt lat="46.16223" lon="7.93407"><ele></ele><time>2025-8-20T11:3:41Z</time></trkpt>
<trkpt lat="46.16225" lon="7.93407"><ele></ele><time>2025-8-20T11:3:44Z</time></trkpt>
<trkpt lat="46.16228" lon="7.93407"><ele></ele><time>2025-8-20T11:3:47Z</time></trkpt>
<trkpt lat="46.16231" lon="7.93405"><ele></ele><time>2025-8-20T11:3:50Z</time></trkpt>
<trkpt lat="46.16232" lon="7.93405"><ele></ele><time>2025-8-20T11:3:53Z</time></trkpt>
<trkpt lat="46.16238" lon="7.93405"><ele></ele><time>2025-8-20T11:3:56Z</time></trkpt>
<trkpt lat="46.16239" lon="7.93403"><ele></ele><time>2025-8-20T11:3:59Z</time></trkpt>
<trkpt lat="46.16243" lon="7.93401"><ele></ele><time>2025-8-20T11:4:2Z</time></trkpt>
<trkpt lat="46.16245" lon="7.93399"><ele></ele><time>2025-8-20T11:4:5Z</time></trkpt>
<trkpt lat="46.16248" lon="7.93398"><ele></ele><time>2025-8-20T11:4:8Z</time></trkpt>
<trkpt lat="46.16251" lon="7.93397"><ele></ele><time>2025-8-20T11:4:11Z</time></trkpt>
<trkpt lat="46.16254" lon="7.93395"><ele></ele><time>2025-8-20T11:4:14Z</time></trkpt>
<trkpt lat="46.16258" lon="7.93392"><ele></ele><time>2025-8-20T11:4:17Z</time></trkpt>
<trkpt lat="46.1626" lon="7.93391"><ele></ele><time>2025-8-20T11:4:20Z</time></trkpt>
<trkpt lat="46.16263" lon="7.9339"><ele></ele><time>2025-8-20T11:4:23Z</time></trkpt>
<trkpt lat="46.16265" lon="7.93387"><ele></ele><time>2025-8-20T11:4:26Z</time></trkpt>
<trkpt lat="46.16271" lon="7.93385"><ele></ele><time>2025-8-20T11:4:29Z</time></trkpt>
<trkpt lat="46.16273" lon="7.93385"><ele></ele><time>2025-8-20T11:4:32Z</time></trkpt>
<trkpt lat="46.16277" lon="7.93385"><ele></ele><time>2025-8-20T11:4:35Z</time></trkpt>
<trkpt lat="46.16281" lon="7.93384"><ele></ele><time>2025-8-20T11:4:38Z</time></trkpt>
<trkpt lat="46.16285" lon="7.93382"><ele></ele><time>2025-8-20T11:4:41Z</time></trkpt>
<trkpt lat="46.16288" lon="7.93381"><ele></ele><time>2025-8-20T11:4:44Z</time></trkpt>
<trkpt lat="46.16288" lon="7.93382"><ele></ele><time>2025-8-20T11:4:47Z</time></trkpt>
<trkpt lat="46.16292" lon="7.93382"><ele></ele><time>2025-8-20T11:4:50Z</time></trkpt>
<trkpt lat="46.16295" lon="7.93381"><ele></ele><time>2025-8-20T11:4:53Z</time></trkpt>
<trkpt lat="46.16298" lon="7.9338"><ele></ele><time>2025-8-20T11:4:56Z</time></trkpt>
<trkpt lat="46.16301" lon="7.93378"><ele></ele><time>2025-8-20T11:4:59Z</time></trkpt>
<trkpt lat="46.16305" lon="7.93377"><ele></ele><time>2025-8-20T11:5:2Z</time></trkpt>
<trkpt lat="46.16307" lon="7.93376"><ele></ele><time>2025-8-20T11:5:5Z</time></trkpt>
<trkpt lat="46.1631" lon="7.93376"><ele></ele><time>2025-8-20T11:5:8Z</time></trkpt>
<trkpt lat="46.16315" lon="7.93376"><ele></ele><time>2025-8-20T11:5:11Z</time></trkpt>
<trkpt lat="46.16321" lon="7.93376"><ele></ele><time>2025-8-20T11:5:14Z</time></trkpt>
<trkpt lat="46.16326" lon="7.93374"><ele></ele><time>2025-8-20T11:5:17Z</time></trkpt>
<trkpt lat="46.16327" lon="7.93374"><ele></ele><time>2025-8-20T11:5:20Z</time></trkpt>
<trkpt lat="46.16332" lon="7.9337"><ele></ele><time>2025-8-20T11:5:23Z</time></trkpt>
<trkpt lat="46.16333" lon="7.93369"><ele></ele><time>2025-8-20T11:5:26Z</time></trkpt>
<trkpt lat="46.16339" lon="7.93363"><ele></ele><time>2025-8-20T11:5:29Z</time></trkpt>
<trkpt lat="46.16345" lon="7.9336"><ele></ele><time>2025-8-20T11:5:32Z</time></trkpt>
<trkpt lat="46.16346" lon="7.9336"><ele></ele><time>2025-8-20T11:5:35Z</time></trkpt>
<trkpt lat="46.16354" lon="7.93357"><ele></ele><time>2025-8-20T11:5:38Z</time></trkpt>
<trkpt lat="46.16358" lon="7.93355"><ele></ele><time>2025-8-20T11:5:41Z</time></trkpt>
<trkpt lat="46.16359" lon="7.93353"><ele></ele><time>2025-8-20T11:5:44Z</time></trkpt>
<trkpt lat="46.16361" lon="7.93353"><ele></ele><time>2025-8-20T11:5:47Z</time></trkpt>
<trkpt lat="46.16364" lon="7.93353"><ele></ele><time>2025-8-20T11:5:50Z</time></trkpt>
<trkpt lat="46.16372" lon="7.93353"><ele></ele><time>2025-8-20T11:5:53Z</time></trkpt>
<trkpt lat="46.16374" lon="7.93353"><ele></ele><time>2025-8-20T11:5:56Z</time></trkpt>
<trkpt lat="46.16385" lon="7.93354"><ele></ele><time>2025-8-20T11:5:59Z</time></trkpt>
<trkpt lat="46.16389" lon="7.93353"><ele></ele><time>2025-8-20T11:6:2Z</time></trkpt>
<trkpt lat="46.16391" lon="7.93352"><ele></ele><time>2025-8-20T11:6:5Z</time></trkpt>
<trkpt lat="46.16393" lon="7.9335"><ele></ele><time>2025-8-20T11:6:8Z</time></trkpt>
<trkpt lat="46.16396" lon="7.93348"><ele></ele><time>2025-8-20T11:6:11Z</time></trkpt>
<trkpt lat="46.16399" lon="7.93346"><ele></ele><time>2025-8-20T11:6:14Z</time></trkpt>
<trkpt lat="46.16408" lon="7.93337"><ele></ele><time>2025-8-20T11:6:17Z</time></trkpt>
<trkpt lat="46.16412" lon="7.93333"><ele></ele><time>2025-8-20T11:6:20Z</time></trkpt>
<trkpt lat="46.16415" lon="7.93331"><ele></ele><time>2025-8-20T11:6:23Z</time></trkpt>
<trkpt lat="46.16423" lon="7.93328"><ele></ele><time>2025-8-20T11:6:26Z</time></trkpt>
<trkpt lat="46.16424" lon="7.93327"><ele></ele><time>2025-8-20T11:6:29Z</time></trkpt>
<trkpt lat="46.16432" lon="7.93322"><ele></ele><time>2025-8-20T11:6:32Z</time></trkpt>
<trkpt lat="46.16433" lon="7.93321"><ele></ele><time>2025-8-20T11:6:35Z</time></trkpt>
<trkpt lat="46.16436" lon="7.93316"><ele></ele><time>2025-8-20T11:6:38Z</time></trkpt>
<trkpt lat="46.16439" lon="7.93313"><ele></ele><time>2025-8-20T11:6:41Z</time></trkpt>
<trkpt lat="46.16442" lon="7.9331"><ele></ele><time>2025-8-20T11:6:44Z</time></trkpt>
<trkpt lat="46.16449" lon="7.93305"><ele></ele><time>2025-8-20T11:6:47Z</time></trkpt>
<trkpt lat="46.1645" lon="7.93304"><ele></ele><time>2025-8-20T11:6:50Z</time></trkpt>
<trkpt lat="46.16458" lon="7.93302"><ele></ele><time>2025-8-20T11:6:53Z</time></trkpt>
<trkpt lat="46.1646" lon="7.93301"><ele></ele><time>2025-8-20T11:6:56Z</time></trkpt>
<trkpt lat="46.16465" lon="7.93297"><ele></ele><time>2025-8-20T11:6:59Z</time></trkpt>
<trkpt lat="46.16469" lon="7.93293"><ele></ele><time>2025-8-20T11:7:2Z</time></trkpt>
<trkpt lat="46.16471" lon="7.93291"><ele></ele><time>2025-8-20T11:7:5Z</time></trkpt>
<trkpt lat="46.16476" lon="7.93287"><ele></ele><time>2025-8-20T11:7:8Z</time></trkpt>
<trkpt lat="46.16478" lon="7.93285"><ele></ele><time>2025-8-20T11:7:11Z</time></trkpt>
<trkpt lat="46.16483" lon="7.93279"><ele></ele><time>2025-8-20T11:7:14Z</time></trkpt>
<trkpt lat="46.16484" lon="7.93277"><ele></ele><time>2025-8-20T11:7:17Z</time></trkpt>
<trkpt lat="46.16492" lon="7.93268"><ele></ele><time>2025-8-20T11:7:20Z</time></trkpt>
<trkpt lat="46.16499" lon="7.93258"><ele></ele><time>2025-8-20T11:7:23Z</time></trkpt>
<trkpt lat="46.16508" lon="7.93255"><ele></ele><time>2025-8-20T11:7:26Z</time></trkpt>
<trkpt lat="46.16509" lon="7.93255"><ele></ele><time>2025-8-20T11:7:29Z</time></trkpt>
<trkpt lat="46.16516" lon="7.93251"><ele></ele><time>2025-8-20T11:7:32Z</time></trkpt>
<trkpt lat="46.16519" lon="7.93251"><ele></ele><time>2025-8-20T11:7:35Z</time></trkpt>
<trkpt lat="46.1652" lon="7.93251"><ele></ele><time>2025-8-20T11:7:38Z</time></trkpt>
<trkpt lat="46.16521" lon="7.93253"><ele></ele><time>2025-8-20T11:7:41Z</time></trkpt>
<trkpt lat="46.16522" lon="7.93255"><ele></ele><time>2025-8-20T11:7:44Z</time></trkpt>
<trkpt lat="46.16521" lon="7.9326"><ele></ele><time>2025-8-20T11:7:47Z</time></trkpt>
<trkpt lat="46.16518" lon="7.93262"><ele></ele><time>2025-8-20T11:7:50Z</time></trkpt>
<trkpt lat="46.16517" lon="7.93262"><ele></ele><time>2025-8-20T11:7:53Z</time></trkpt>
<trkpt lat="46.16515" lon="7.93262"><ele></ele><time>2025-8-20T11:7:56Z</time></trkpt>
<trkpt lat="46.16509" lon="7.93265"><ele></ele><time>2025-8-20T11:7:59Z</time></trkpt>
<trkpt lat="46.16508" lon="7.93266"><ele></ele><time>2025-8-20T11:8:2Z</time></trkpt>
<trkpt lat="46.16504" lon="7.93274"><ele></ele><time>2025-8-20T11:8:5Z</time></trkpt>
<trkpt lat="46.16502" lon="7.93277"><ele></ele><time>2025-8-20T11:8:8Z</time></trkpt>
<trkpt lat="46.16499" lon="7.93285"><ele></ele><time>2025-8-20T11:8:11Z</time></trkpt>
<trkpt lat="46.16497" lon="7.93287"><ele></ele><time>2025-8-20T11:8:14Z</time></trkpt>
<trkpt lat="46.16495" lon="7.93293"><ele></ele><time>2025-8-20T11:8:17Z</time></trkpt>
<trkpt lat="46.16495" lon="7.93295"><ele></ele><time>2025-8-20T11:8:20Z</time></trkpt>
<trkpt lat="46.16491" lon="7.93301"><ele></ele><time>2025-8-20T11:8:23Z</time></trkpt>
<trkpt lat="46.16488" lon="7.93309"><ele></ele><time>2025-8-20T11:8:26Z</time></trkpt>
<trkpt lat="46.16481" lon="7.9332"><ele></ele><time>2025-8-20T11:8:29Z</time></trkpt>
<trkpt lat="46.16479" lon="7.93323"><ele></ele><time>2025-8-20T11:8:32Z</time></trkpt>
<trkpt lat="46.16474" lon="7.93327"><ele></ele><time>2025-8-20T11:8:35Z</time></trkpt>
<trkpt lat="46.16469" lon="7.93331"><ele></ele><time>2025-8-20T11:8:38Z</time></trkpt>
<trkpt lat="46.16465" lon="7.93336"><ele></ele><time>2025-8-20T11:8:41Z</time></trkpt>
<trkpt lat="46.16459" lon="7.93343"><ele></ele><time>2025-8-20T11:8:44Z</time></trkpt>
<trkpt lat="46.16458" lon="7.93346"><ele></ele><time>2025-8-20T11:8:47Z</time></trkpt>
<trkpt lat="46.16449" lon="7.93361"><ele></ele><time>2025-8-20T11:8:50Z</time></trkpt>
<trkpt lat="46.16442" lon="7.93368"><ele></ele><time>2025-8-20T11:8:53Z</time></trkpt>
<trkpt lat="46.16441" lon="7.93369"><ele></ele><time>2025-8-20T11:8:56Z</time></trkpt>
<trkpt lat="46.1643" lon="7.93376"><ele></ele><time>2025-8-20T11:8:59Z</time></trkpt>
<trkpt lat="46.16426" lon="7.93381"><ele></ele><time>2025-8-20T11:9:2Z</time></trkpt>
<trkpt lat="46.16421" lon="7.93387"><ele></ele><time>2025-8-20T11:9:5Z</time></trkpt>
<trkpt lat="46.16413" lon="7.93401"><ele></ele><time>2025-8-20T11:9:8Z</time></trkpt>
<trkpt lat="46.16411" lon="7.93404"><ele></ele><time>2025-8-20T11:9:11Z</time></trkpt>
<trkpt lat="46.16402" lon="7.93411"><ele></ele><time>2025-8-20T11:9:14Z</time></trkpt>
<trkpt lat="46.16383" lon="7.93419"><ele></ele><time>2025-8-20T11:9:17Z</time></trkpt>
<trkpt lat="46.1637" lon="7.93428"><ele></ele><time>2025-8-20T11:9:20Z</time></trkpt>
<trkpt lat="46.16366" lon="7.93431"><ele></ele><time>2025-8-20T11:9:23Z</time></trkpt>
<trkpt lat="46.16362" lon="7.93439"><ele></ele><time>2025-8-20T11:9:26Z</time></trkpt>
<trkpt lat="46.16356" lon="7.93447"><ele></ele><time>2025-8-20T11:9:29Z</time></trkpt>
<trkpt lat="46.16354" lon="7.9345"><ele></ele><time>2025-8-20T11:9:32Z</time></trkpt>
<trkpt lat="46.16349" lon="7.93456"><ele></ele><time>2025-8-20T11:9:35Z</time></trkpt>
<trkpt lat="46.16348" lon="7.93458"><ele></ele><time>2025-8-20T11:9:38Z</time></trkpt>
<trkpt lat="46.16345" lon="7.93461"><ele></ele><time>2025-8-20T11:9:41Z</time></trkpt>
<trkpt lat="46.16342" lon="7.93463"><ele></ele><time>2025-8-20T11:9:44Z</time></trkpt>
<trkpt lat="46.16334" lon="7.93469"><ele></ele><time>2025-8-20T11:9:47Z</time></trkpt>
<trkpt lat="46.16331" lon="7.93472"><ele></ele><time>2025-8-20T11:9:50Z</time></trkpt>
<trkpt lat="46.16326" lon="7.93474"><ele></ele><time>2025-8-20T11:9:53Z</time></trkpt>
<trkpt lat="46.16321" lon="7.93478"><ele></ele><time>2025-8-20T11:9:56Z</time></trkpt>
<trkpt lat="46.1632" lon="7.93479"><ele></ele><time>2025-8-20T11:9:59Z</time></trkpt>
<trkpt lat="46.16314" lon="7.93483"><ele></ele><time>2025-8-20T11:10:2Z</time></trkpt>
<trkpt lat="46.16313" lon="7.93483"><ele></ele><time>2025-8-20T11:10:5Z</time></trkpt>
<trkpt lat="46.1631" lon="7.93484"><ele></ele><time>2025-8-20T11:10:8Z</time></trkpt>
<trkpt lat="46.16305" lon="7.93486"><ele></ele><time>2025-8-20T11:10:11Z</time></trkpt>
<trkpt lat="46.16304" lon="7.93487"><ele></ele><time>2025-8-20T11:10:14Z</time></trkpt>
<trkpt lat="46.16298" lon="7.93493"><ele></ele><time>2025-8-20T11:10:17Z</time></trkpt>
<trkpt lat="46.16295" lon="7.93495"><ele></ele><time>2025-8-20T11:10:20Z</time></trkpt>
<trkpt lat="46.16293" lon="7.93498"><ele></ele><time>2025-8-20T11:10:23Z</time></trkpt>
<trkpt lat="46.16289" lon="7.93501"><ele></ele><time>2025-8-20T11:10:26Z</time></trkpt>
<trkpt lat="46.16288" lon="7.93502"><ele></ele><time>2025-8-20T11:10:29Z</time></trkpt>
<trkpt lat="46.16285" lon="7.93504"><ele></ele><time>2025-8-20T11:10:32Z</time></trkpt>
<trkpt lat="46.16282" lon="7.93506"><ele></ele><time>2025-8-20T11:10:35Z</time></trkpt>
<trkpt lat="46.16281" lon="7.93506"><ele></ele><time>2025-8-20T11:10:38Z</time></trkpt>
<trkpt lat="46.16278" lon="7.9351"><ele></ele><time>2025-8-20T11:10:41Z</time></trkpt>
<trkpt lat="46.16277" lon="7.93511"><ele></ele><time>2025-8-20T11:10:44Z</time></trkpt>
<trkpt lat="46.16275" lon="7.93514"><ele></ele><time>2025-8-20T11:10:47Z</time></trkpt>
<trkpt lat="46.16271" lon="7.9352"><ele></ele><time>2025-8-20T11:10:50Z</time></trkpt>
<trkpt lat="46.1627" lon="7.93521"><ele></ele><time>2025-8-20T11:10:53Z</time></trkpt>
<trkpt lat="46.16267" lon="7.93525"><ele></ele><time>2025-8-20T11:10:56Z</time></trkpt>
<trkpt lat="46.16263" lon="7.93531"><ele></ele><time>2025-8-20T11:10:59Z</time></trkpt>
<trkpt lat="46.16263" lon="7.93533"><ele></ele><time>2025-8-20T11:11:2Z</time></trkpt>
<trkpt lat="46.16257" lon="7.93537"><ele></ele><time>2025-8-20T11:11:5Z</time></trkpt>
<trkpt lat="46.1625" lon="7.93544"><ele></ele><time>2025-8-20T11:11:8Z</time></trkpt>
<trkpt lat="46.16243" lon="7.9355"><ele></ele><time>2025-8-20T11:11:11Z</time></trkpt>
<trkpt lat="46.16239" lon="7.93552"><ele></ele><time>2025-8-20T11:11:14Z</time></trkpt>
<trkpt lat="46.16236" lon="7.93555"><ele></ele><time>2025-8-20T11:11:17Z</time></trkpt>
<trkpt lat="46.16235" lon="7.93555"><ele></ele><time>2025-8-20T11:11:20Z</time></trkpt>
<trkpt lat="46.16232" lon="7.93557"><ele></ele><time>2025-8-20T11:11:23Z</time></trkpt>
<trkpt lat="46.16229" lon="7.93558"><ele></ele><time>2025-8-20T11:11:26Z</time></trkpt>
<trkpt lat="46.16224" lon="7.93563"><ele></ele><time>2025-8-20T11:11:29Z</time></trkpt>
<trkpt lat="46.16224" lon="7.93563"><ele></ele><time>2025-8-20T11:11:32Z</time></trkpt>
<trkpt lat="46.16218" lon="7.93569"><ele></ele><time>2025-8-20T11:11:35Z</time></trkpt>
<trkpt lat="46.16213" lon="7.93572"><ele></ele><time>2025-8-20T11:11:38Z</time></trkpt>
<trkpt lat="46.16211" lon="7.93573"><ele></ele><time>2025-8-20T11:11:41Z</time></trkpt>
<trkpt lat="46.16206" lon="7.93577"><ele></ele><time>2025-8-20T11:11:44Z</time></trkpt>
<trkpt lat="46.16205" lon="7.93579"><ele></ele><time>2025-8-20T11:11:47Z</time></trkpt>
<trkpt lat="46.162" lon="7.93584"><ele></ele><time>2025-8-20T11:11:50Z</time></trkpt>
<trkpt lat="46.16197" lon="7.93586"><ele></ele><time>2025-8-20T11:11:53Z</time></trkpt>
<trkpt lat="46.16193" lon="7.9359"><ele></ele><time>2025-8-20T11:11:56Z</time></trkpt>
<trkpt lat="46.1619" lon="7.93595"><ele></ele><time>2025-8-20T11:11:59Z</time></trkpt>
<trkpt lat="46.16188" lon="7.93598"><ele></ele><time>2025-8-20T11:12:2Z</time></trkpt>
<trkpt lat="46.16184" lon="7.93603"><ele></ele><time>2025-8-20T11:12:5Z</time></trkpt>
<trkpt lat="46.16181" lon="7.93606"><ele></ele><time>2025-8-20T11:12:8Z</time></trkpt>
<trkpt lat="46.16177" lon="7.93609"><ele></ele><time>2025-8-20T11:12:11Z</time></trkpt>
<trkpt lat="46.16171" lon="7.93612"><ele></ele><time>2025-8-20T11:12:14Z</time></trkpt>
<trkpt lat="46.16162" lon="7.93615"><ele></ele><time>2025-8-20T11:12:17Z</time></trkpt>
<trkpt lat="46.1616" lon="7.93615"><ele></ele><time>2025-8-20T11:12:20Z</time></trkpt>
<trkpt lat="46.16151" lon="7.93618"><ele></ele><time>2025-8-20T11:12:23Z</time></trkpt>
<trkpt lat="46.16149" lon="7.93619"><ele></ele><time>2025-8-20T11:12:26Z</time></trkpt>
<trkpt lat="46.16143" lon="7.93624"><ele></ele><time>2025-8-20T11:12:29Z</time></trkpt>
<trkpt lat="46.16143" lon="7.93626"><ele></ele><time>2025-8-20T11:12:32Z</time></trkpt>
<trkpt lat="46.16145" lon="7.93628"><ele></ele><time>2025-8-20T11:12:35Z</time></trkpt>
<trkpt lat="46.16147" lon="7.93629"><ele></ele><time>2025-8-20T11:12:38Z</time></trkpt>
<trkpt lat="46.16149" lon="7.93628"><ele></ele><time>2025-8-20T11:12:41Z</time></trkpt>
<trkpt lat="46.16155" lon="7.93627"><ele></ele><time>2025-8-20T11:12:44Z</time></trkpt>
<trkpt lat="46.1616" lon="7.93624"><ele></ele><time>2025-8-20T11:12:47Z</time></trkpt>
<trkpt lat="46.16167" lon="7.93624"><ele></ele><time>2025-8-20T11:12:50Z</time></trkpt>
<trkpt lat="46.16169" lon="7.93623"><ele></ele><time>2025-8-20T11:12:53Z</time></trkpt>
<trkpt lat="46.16179" lon="7.93622"><ele></ele><time>2025-8-20T11:12:56Z</time></trkpt>
<trkpt lat="46.16181" lon="7.93622"><ele></ele><time>2025-8-20T11:12:59Z</time></trkpt>
<trkpt lat="46.16188" lon="7.93619"><ele></ele><time>2025-8-20T11:13:2Z</time></trkpt>
<trkpt lat="46.1619" lon="7.93618"><ele></ele><time>2025-8-20T11:13:5Z</time></trkpt>
<trkpt lat="46.16198" lon="7.93615"><ele></ele><time>2025-8-20T11:13:8Z</time></trkpt>
<trkpt lat="46.16206" lon="7.93611"><ele></ele><time>2025-8-20T11:13:11Z</time></trkpt>
<trkpt lat="46.16211" lon="7.93609"><ele></ele><time>2025-8-20T11:13:14Z</time></trkpt>
<trkpt lat="46.16217" lon="7.93607"><ele></ele><time>2025-8-20T11:13:17Z</time></trkpt>
<trkpt lat="46.1622" lon="7.93606"><ele></ele><time>2025-8-20T11:13:20Z</time></trkpt>
<trkpt lat="46.16223" lon="7.93605"><ele></ele><time>2025-8-20T11:13:23Z</time></trkpt>
<trkpt lat="46.16231" lon="7.93605"><ele></ele><time>2025-8-20T11:13:26Z</time></trkpt>
<trkpt lat="46.16234" lon="7.93604"><ele></ele><time>2025-8-20T11:13:29Z</time></trkpt>
<trkpt lat="46.16244" lon="7.93602"><ele></ele><time>2025-8-20T11:13:32Z</time></trkpt>
<trkpt lat="46.16251" lon="7.936"><ele></ele><time>2025-8-20T11:13:35Z</time></trkpt>
<trkpt lat="46.16256" lon="7.93597"><ele></ele><time>2025-8-20T11:13:38Z</time></trkpt>
<trkpt lat="46.16259" lon="7.93596"><ele></ele><time>2025-8-20T11:13:41Z</time></trkpt>
<trkpt lat="46.16267" lon="7.93595"><ele></ele><time>2025-8-20T11:13:44Z</time></trkpt>
<trkpt lat="46.16268" lon="7.93594"><ele></ele><time>2025-8-20T11:13:47Z</time></trkpt>
<trkpt lat="46.16273" lon="7.9359"><ele></ele><time>2025-8-20T11:13:50Z</time></trkpt>
<trkpt lat="46.16275" lon="7.93591"><ele></ele><time>2025-8-20T11:13:53Z</time></trkpt>
<trkpt lat="46.16275" lon="7.93591"><ele></ele><time>2025-8-20T11:13:56Z</time></trkpt>
<trkpt lat="46.16275" lon="7.93591"><ele></ele><time>2025-8-20T11:13:59Z</time></trkpt>
<trkpt lat="46.16275" lon="7.93591"><ele></ele><time>2025-8-20T11:14:2Z</time></trkpt>
<trkpt lat="46.16275" lon="7.93591"><ele></ele><time>2025-8-20T11:14:5Z</time></trkpt>
<trkpt lat="46.16275" lon="7.93591"><ele></ele><time>2025-8-20T11:14:8Z</time></trkpt>
<trkpt lat="46.16275" lon="7.93591"><ele></ele><time>2025-8-20T11:14:11Z</time></trkpt>
<trkpt lat="46.16275" lon="7.93591"><ele></ele><time>2025-8-20T11:14:14Z</time></trkpt>
<trkpt lat="46.16275" lon="7.93591"><ele></ele><time>2025-8-20T11:14:17Z</time></trkpt>
<trkpt lat="46.16275" lon="7.93591"><ele></ele><time>2025-8-20T11:14:20Z</time></trkpt>
<trkpt lat="46.16275" lon="7.93591"><ele></ele><time>2025-8-20T11:14:23Z</time></trkpt>
<trkpt lat="46.16278" lon="7.93591"><ele></ele><time>2025-8-20T11:14:26Z</time></trkpt>
<trkpt lat="46.16282" lon="7.93591"><ele></ele><time>2025-8-20T11:14:29Z</time></trkpt>
<trkpt lat="46.16288" lon="7.93592"><ele></ele><time>2025-8-20T11:14:32Z</time></trkpt>
<trkpt lat="46.16291" lon="7.93591"><ele></ele><time>2025-8-20T11:14:35Z</time></trkpt>
<trkpt lat="46.16294" lon="7.9359"><ele></ele><time>2025-8-20T11:14:38Z</time></trkpt>
<trkpt lat="46.16296" lon="7.9359"><ele></ele><time>2025-8-20T11:14:41Z</time></trkpt>
<trkpt lat="46.16299" lon="7.93592"><ele></ele><time>2025-8-20T11:14:44Z</time></trkpt>
<trkpt lat="46.16304" lon="7.93594"><ele></ele><time>2025-8-20T11:14:47Z</time></trkpt>
<trkpt lat="46.1631" lon="7.93595"><ele></ele><time>2025-8-20T11:14:50Z</time></trkpt>
<trkpt lat="46.16314" lon="7.93595"><ele></ele><time>2025-8-20T11:14:53Z</time></trkpt>
<trkpt lat="46.16316" lon="7.93595"><ele></ele><time>2025-8-20T11:14:56Z</time></trkpt>
<trkpt lat="46.1632" lon="7.93595"><ele></ele><time>2025-8-20T11:14:59Z</time></trkpt>
<trkpt lat="46.16325" lon="7.93594"><ele></ele><time>2025-8-20T11:15:2Z</time></trkpt>
<trkpt lat="46.16326" lon="7.93594"><ele></ele><time>2025-8-20T11:15:5Z</time></trkpt>
<trkpt lat="46.16332" lon="7.93592"><ele></ele><time>2025-8-20T11:15:8Z</time></trkpt>
<trkpt lat="46.16336" lon="7.9359"><ele></ele><time>2025-8-20T11:15:11Z</time></trkpt>
<trkpt lat="46.16337" lon="7.93589"><ele></ele><time>2025-8-20T11:15:14Z</time></trkpt>
<trkpt lat="46.16346" lon="7.93586"><ele></ele><time>2025-8-20T11:15:17Z</time></trkpt>
<trkpt lat="46.16347" lon="7.93586"><ele></ele><time>2025-8-20T11:15:20Z</time></trkpt>
<trkpt lat="46.16348" lon="7.93585"><ele></ele><time>2025-8-20T11:15:23Z</time></trkpt>
<trkpt lat="46.16354" lon="7.93581"><ele></ele><time>2025-8-20T11:15:26Z</time></trkpt>
<trkpt lat="46.16356" lon="7.9358"><ele></ele><time>2025-8-20T11:15:29Z</time></trkpt>
<trkpt lat="46.16362" lon="7.93576"><ele></ele><time>2025-8-20T11:15:32Z</time></trkpt>
<trkpt lat="46.16367" lon="7.93574"><ele></ele><time>2025-8-20T11:15:35Z</time></trkpt>
<trkpt lat="46.1637" lon="7.93573"><ele></ele><time>2025-8-20T11:15:38Z</time></trkpt>
<trkpt lat="46.16377" lon="7.93566"><ele></ele><time>2025-8-20T11:15:41Z</time></trkpt>
<trkpt lat="46.16379" lon="7.93564"><ele></ele><time>2025-8-20T11:15:44Z</time></trkpt>
<trkpt lat="46.1638" lon="7.93564"><ele></ele><time>2025-8-20T11:15:47Z</time></trkpt>
<trkpt lat="46.16381" lon="7.93562"><ele></ele><time>2025-8-20T11:15:50Z</time></trkpt>
<trkpt lat="46.16386" lon="7.9356"><ele></ele><time>2025-8-20T11:15:53Z</time></trkpt>
<trkpt lat="46.16387" lon="7.93558"><ele></ele><time>2025-8-20T11:15:56Z</time></trkpt>
<trkpt lat="46.16388" lon="7.93557"><ele></ele><time>2025-8-20T11:15:59Z</time></trkpt>
<trkpt lat="46.16396" lon="7.93552"><ele></ele><time>2025-8-20T11:16:2Z</time></trkpt>
<trkpt lat="46.16397" lon="7.93552"><ele></ele><time>2025-8-20T11:16:5Z</time></trkpt>
<trkpt lat="46.16404" lon="7.93547"><ele></ele><time>2025-8-20T11:16:8Z</time></trkpt>
<trkpt lat="46.16406" lon="7.93545"><ele></ele><time>2025-8-20T11:16:11Z</time></trkpt>
<trkpt lat="46.16411" lon="7.93541"><ele></ele><time>2025-8-20T11:16:14Z</time></trkpt>
<trkpt lat="46.16415" lon="7.93536"><ele></ele><time>2025-8-20T11:16:17Z</time></trkpt>
<trkpt lat="46.16418" lon="7.93535"><ele></ele><time>2025-8-20T11:16:20Z</time></trkpt>
<trkpt lat="46.16423" lon="7.93532"><ele></ele><time>2025-8-20T11:16:23Z</time></trkpt>
<trkpt lat="46.16427" lon="7.9353"><ele></ele><time>2025-8-20T11:16:26Z</time></trkpt>
<trkpt lat="46.1643" lon="7.93528"><ele></ele><time>2025-8-20T11:16:29Z</time></trkpt>
<trkpt lat="46.16435" lon="7.93527"><ele></ele><time>2025-8-20T11:16:32Z</time></trkpt>
<trkpt lat="46.16437" lon="7.93526"><ele></ele><time>2025-8-20T11:16:35Z</time></trkpt>
<trkpt lat="46.16438" lon="7.93525"><ele></ele><time>2025-8-20T11:16:38Z</time></trkpt>
<trkpt lat="46.1644" lon="7.93524"><ele></ele><time>2025-8-20T11:16:41Z</time></trkpt>
<trkpt lat="46.16444" lon="7.93523"><ele></ele><time>2025-8-20T11:16:44Z</time></trkpt>
<trkpt lat="46.16446" lon="7.93522"><ele></ele><time>2025-8-20T11:16:47Z</time></trkpt>
<trkpt lat="46.1645" lon="7.93519"><ele></ele><time>2025-8-20T11:16:50Z</time></trkpt>
<trkpt lat="46.16451" lon="7.93518"><ele></ele><time>2025-8-20T11:16:53Z</time></trkpt>
<trkpt lat="46.16456" lon="7.93514"><ele></ele><time>2025-8-20T11:16:56Z</time></trkpt>
<trkpt lat="46.16457" lon="7.93513"><ele></ele><time>2025-8-20T11:16:59Z</time></trkpt>
<trkpt lat="46.16461" lon="7.93509"><ele></ele><time>2025-8-20T11:17:2Z</time></trkpt>
<trkpt lat="46.16463" lon="7.93507"><ele></ele><time>2025-8-20T11:17:5Z</time></trkpt>
<trkpt lat="46.16465" lon="7.93506"><ele></ele><time>2025-8-20T11:17:8Z</time></trkpt>
<trkpt lat="46.16469" lon="7.93501"><ele></ele><time>2025-8-20T11:17:11Z</time></trkpt>
<trkpt lat="46.1647" lon="7.93501"><ele></ele><time>2025-8-20T11:17:14Z</time></trkpt>
<trkpt lat="46.16475" lon="7.93497"><ele></ele><time>2025-8-20T11:17:17Z</time></trkpt>
<trkpt lat="46.16477" lon="7.93497"><ele></ele><time>2025-8-20T11:17:20Z</time></trkpt>
<trkpt lat="46.16479" lon="7.93493"><ele></ele><time>2025-8-20T11:17:23Z</time></trkpt>
<trkpt lat="46.16482" lon="7.9349"><ele></ele><time>2025-8-20T11:17:26Z</time></trkpt>
<trkpt lat="46.16485" lon="7.93489"><ele></ele><time>2025-8-20T11:17:29Z</time></trkpt>
<trkpt lat="46.16489" lon="7.93493"><ele></ele><time>2025-8-20T11:17:32Z</time></trkpt>
<trkpt lat="46.16489" lon="7.93495"><ele></ele><time>2025-8-20T11:17:35Z</time></trkpt>
<trkpt lat="46.16486" lon="7.93503"><ele></ele><time>2025-8-20T11:17:38Z</time></trkpt>
<trkpt lat="46.16485" lon="7.93504"><ele></ele><time>2025-8-20T11:17:41Z</time></trkpt>
<trkpt lat="46.16481" lon="7.93507"><ele></ele><time>2025-8-20T11:17:44Z</time></trkpt>
<trkpt lat="46.16477" lon="7.93512"><ele></ele><time>2025-8-20T11:17:47Z</time></trkpt>
<trkpt lat="46.16475" lon="7.93515"><ele></ele><time>2025-8-20T11:17:50Z</time></trkpt>
<trkpt lat="46.16473" lon="7.93519"><ele></ele><time>2025-8-20T11:17:53Z</time></trkpt>
<trkpt lat="46.16471" lon="7.93524"><ele></ele><time>2025-8-20T11:17:56Z</time></trkpt>
<trkpt lat="46.1647" lon="7.93525"><ele></ele><time>2025-8-20T11:17:59Z</time></trkpt>
<trkpt lat="46.16467" lon="7.93534"><ele></ele><time>2025-8-20T11:18:2Z</time></trkpt>
<trkpt lat="46.16464" lon="7.93541"><ele></ele><time>2025-8-20T11:18:5Z</time></trkpt>
<trkpt lat="46.16464" lon="7.93543"><ele></ele><time>2025-8-20T11:18:8Z</time></trkpt>
<trkpt lat="46.16461" lon="7.9355"><ele></ele><time>2025-8-20T11:18:11Z</time></trkpt>
<trkpt lat="46.16458" lon="7.93556"><ele></ele><time>2025-8-20T11:18:14Z</time></trkpt>
<trkpt lat="46.16457" lon="7.9356"><ele></ele><time>2025-8-20T11:18:17Z</time></trkpt>
<trkpt lat="46.16456" lon="7.93563"><ele></ele><time>2025-8-20T11:18:20Z</time></trkpt>
<trkpt lat="46.16453" lon="7.93567"><ele></ele><time>2025-8-20T11:18:23Z</time></trkpt>
<trkpt lat="46.16453" lon="7.93569"><ele></ele><time>2025-8-20T11:18:26Z</time></trkpt>
<trkpt lat="46.16448" lon="7.93575"><ele></ele><time>2025-8-20T11:18:29Z</time></trkpt>
<trkpt lat="46.16448" lon="7.93576"><ele></ele><time>2025-8-20T11:18:32Z</time></trkpt>
<trkpt lat="46.16446" lon="7.9358"><ele></ele><time>2025-8-20T11:18:35Z</time></trkpt>
<trkpt lat="46.16446" lon="7.9358"><ele></ele><time>2025-8-20T11:18:38Z</time></trkpt>
<trkpt lat="46.16445" lon="7.93582"><ele></ele><time>2025-8-20T11:18:41Z</time></trkpt>
<trkpt lat="46.16442" lon="7.93585"><ele></ele><time>2025-8-20T11:18:44Z</time></trkpt>
<trkpt lat="46.16439" lon="7.93587"><ele></ele><time>2025-8-20T11:18:47Z</time></trkpt>
<trkpt lat="46.16437" lon="7.93589"><ele></ele><time>2025-8-20T11:18:50Z</time></trkpt>
<trkpt lat="46.16435" lon="7.93593"><ele></ele><time>2025-8-20T11:18:53Z</time></trkpt>
<trkpt lat="46.16433" lon="7.93594"><ele></ele><time>2025-8-20T11:18:56Z</time></trkpt>
<trkpt lat="46.16429" lon="7.93597"><ele></ele><time>2025-8-20T11:18:59Z</time></trkpt>
<trkpt lat="46.16428" lon="7.93598"><ele></ele><time>2025-8-20T11:19:2Z</time></trkpt>
<trkpt lat="46.16428" lon="7.93604"><ele></ele><time>2025-8-20T11:19:5Z</time></trkpt>
<trkpt lat="46.1643" lon="7.93604"><ele></ele><time>2025-8-20T11:19:8Z</time></trkpt>
<trkpt lat="46.16433" lon="7.93603"><ele></ele><time>2025-8-20T11:19:11Z</time></trkpt>
<trkpt lat="46.16438" lon="7.93601"><ele></ele><time>2025-8-20T11:19:14Z</time></trkpt>
<trkpt lat="46.16438" lon="7.93601"><ele></ele><time>2025-8-20T11:19:17Z</time></trkpt>
<trkpt lat="46.16442" lon="7.93598"><ele></ele><time>2025-8-20T11:19:20Z</time></trkpt>
<trkpt lat="46.16448" lon="7.93595"><ele></ele><time>2025-8-20T11:19:23Z</time></trkpt>
<trkpt lat="46.16449" lon="7.93594"><ele></ele><time>2025-8-20T11:19:26Z</time></trkpt>
<trkpt lat="46.16452" lon="7.93592"><ele></ele><time>2025-8-20T11:19:29Z</time></trkpt>
<trkpt lat="46.16453" lon="7.93592"><ele></ele><time>2025-8-20T11:19:32Z</time></trkpt>
<trkpt lat="46.16457" lon="7.93589"><ele></ele><time>2025-8-20T11:19:35Z</time></trkpt>
<trkpt lat="46.16459" lon="7.93588"><ele></ele><time>2025-8-20T11:19:38Z</time></trkpt>
<trkpt lat="46.1646" lon="7.93587"><ele></ele><time>2025-8-20T11:19:41Z</time></trkpt>
<trkpt lat="46.16463" lon="7.93585"><ele></ele><time>2025-8-20T11:19:44Z</time></trkpt>
<trkpt lat="46.16465" lon="7.93584"><ele></ele><time>2025-8-20T11:19:47Z</time></trkpt>
<trkpt lat="46.16466" lon="7.93582"><ele></ele><time>2025-8-20T11:19:50Z</time></trkpt>
<trkpt lat="46.16471" lon="7.93579"><ele></ele><time>2025-8-20T11:19:53Z</time></trkpt>
<trkpt lat="46.16472" lon="7.93578"><ele></ele><time>2025-8-20T11:19:56Z</time></trkpt>
<trkpt lat="46.16476" lon="7.9357"><ele></ele><time>2025-8-20T11:19:59Z</time></trkpt>
<trkpt lat="46.16479" lon="7.93568"><ele></ele><time>2025-8-20T11:20:2Z</time></trkpt>
<trkpt lat="46.16485" lon="7.93563"><ele></ele><time>2025-8-20T11:20:5Z</time></trkpt>
<trkpt lat="46.16491" lon="7.93556"><ele></ele><time>2025-8-20T11:20:8Z</time></trkpt>
<trkpt lat="46.16496" lon="7.93552"><ele></ele><time>2025-8-20T11:20:11Z</time></trkpt>
<trkpt lat="46.16497" lon="7.9355"><ele></ele><time>2025-8-20T11:20:14Z</time></trkpt>
<trkpt lat="46.16499" lon="7.93546"><ele></ele><time>2025-8-20T11:20:17Z</time></trkpt>
<trkpt lat="46.16502" lon="7.93544"><ele></ele><time>2025-8-20T11:20:20Z</time></trkpt>
<trkpt lat="46.16505" lon="7.9354"><ele></ele><time>2025-8-20T11:20:23Z</time></trkpt>
<trkpt lat="46.16509" lon="7.93537"><ele></ele><time>2025-8-20T11:20:26Z</time></trkpt>
<trkpt lat="46.16513" lon="7.93536"><ele></ele><time>2025-8-20T11:20:29Z</time></trkpt>
<trkpt lat="46.16516" lon="7.93535"><ele></ele><time>2025-8-20T11:20:32Z</time></trkpt>
<trkpt lat="46.1652" lon="7.93531"><ele></ele><time>2025-8-20T11:20:35Z</time></trkpt>
<trkpt lat="46.16521" lon="7.93531"><ele></ele><time>2025-8-20T11:20:38Z</time></trkpt>
<trkpt lat="46.16527" lon="7.93528"><ele></ele><time>2025-8-20T11:20:41Z</time></trkpt>
<trkpt lat="46.16527" lon="7.93528"><ele></ele><time>2025-8-20T11:20:44Z</time></trkpt>
<trkpt lat="46.16536" lon="7.93528"><ele></ele><time>2025-8-20T11:20:47Z</time></trkpt>
<trkpt lat="46.16536" lon="7.93528"><ele></ele><time>2025-8-20T11:20:50Z</time></trkpt>
<trkpt lat="46.1654" lon="7.93527"><ele></ele><time>2025-8-20T11:20:53Z</time></trkpt>
<trkpt lat="46.16541" lon="7.93527"><ele></ele><time>2025-8-20T11:20:56Z</time></trkpt>
<trkpt lat="46.16547" lon="7.93524"><ele></ele><time>2025-8-20T11:20:59Z</time></trkpt>
<trkpt lat="46.16549" lon="7.93524"><ele></ele><time>2025-8-20T11:21:2Z</time></trkpt>
<trkpt lat="46.16552" lon="7.93522"><ele></ele><time>2025-8-20T11:21:5Z</time></trkpt>
<trkpt lat="46.16556" lon="7.93522"><ele></ele><time>2025-8-20T11:21:8Z</time></trkpt>
<trkpt lat="46.16558" lon="7.93522"><ele></ele><time>2025-8-20T11:21:11Z</time></trkpt>
<trkpt lat="46.16565" lon="7.93524"><ele></ele><time>2025-8-20T11:21:14Z</time></trkpt>
<trkpt lat="46.16566" lon="7.93524"><ele></ele><time>2025-8-20T11:21:17Z</time></trkpt>
<trkpt lat="46.1657" lon="7.93523"><ele></ele><time>2025-8-20T11:21:20Z</time></trkpt>
<trkpt lat="46.16574" lon="7.93522"><ele></ele><time>2025-8-20T11:21:23Z</time></trkpt>
<trkpt lat="46.16577" lon="7.93521"><ele></ele><time>2025-8-20T11:21:26Z</time></trkpt>
<trkpt lat="46.16583" lon="7.93519"><ele></ele><time>2025-8-20T11:21:29Z</time></trkpt>
<trkpt lat="46.16583" lon="7.93518"><ele></ele><time>2025-8-20T11:21:32Z</time></trkpt>
<trkpt lat="46.16588" lon="7.93515"><ele></ele><time>2025-8-20T11:21:35Z</time></trkpt>
<trkpt lat="46.16589" lon="7.93513"><ele></ele><time>2025-8-20T11:21:38Z</time></trkpt>
<trkpt lat="46.16591" lon="7.93511"><ele></ele><time>2025-8-20T11:21:41Z</time></trkpt>
<trkpt lat="46.16595" lon="7.93507"><ele></ele><time>2025-8-20T11:21:44Z</time></trkpt>
<trkpt lat="46.16597" lon="7.93505"><ele></ele><time>2025-8-20T11:21:47Z</time></trkpt>
<trkpt lat="46.16601" lon="7.935"><ele></ele><time>2025-8-20T11:21:50Z</time></trkpt>
<trkpt lat="46.16605" lon="7.93496"><ele></ele><time>2025-8-20T11:21:53Z</time></trkpt>
<trkpt lat="46.16608" lon="7.93491"><ele></ele><time>2025-8-20T11:21:56Z</time></trkpt>
<trkpt lat="46.16614" lon="7.93485"><ele></ele><time>2025-8-20T11:21:59Z</time></trkpt>
<trkpt lat="46.16618" lon="7.93481"><ele></ele><time>2025-8-20T11:22:2Z</time></trkpt>
<trkpt lat="46.16623" lon="7.93474"><ele></ele><time>2025-8-20T11:22:5Z</time></trkpt>
<trkpt lat="46.16625" lon="7.9347"><ele></ele><time>2025-8-20T11:22:8Z</time></trkpt>
<trkpt lat="46.16633" lon="7.93456"><ele></ele><time>2025-8-20T11:22:11Z</time></trkpt>
<trkpt lat="46.16639" lon="7.93444"><ele></ele><time>2025-8-20T11:22:14Z</time></trkpt>
<trkpt lat="46.1664" lon="7.93442"><ele></ele><time>2025-8-20T11:22:17Z</time></trkpt>
<trkpt lat="46.16649" lon="7.9343"><ele></ele><time>2025-8-20T11:22:20Z</time></trkpt>
<trkpt lat="46.1665" lon="7.93429"><ele></ele><time>2025-8-20T11:22:23Z</time></trkpt>
<trkpt lat="46.16657" lon="7.93422"><ele></ele><time>2025-8-20T11:22:26Z</time></trkpt>
<trkpt lat="46.16662" lon="7.93414"><ele></ele><time>2025-8-20T11:22:29Z</time></trkpt>
<trkpt lat="46.16665" lon="7.93406"><ele></ele><time>2025-8-20T11:22:32Z</time></trkpt>
<trkpt lat="46.1667" lon="7.93399"><ele></ele><time>2025-8-20T11:22:35Z</time></trkpt>
<trkpt lat="46.16671" lon="7.93398"><ele></ele><time>2025-8-20T11:22:38Z</time></trkpt>
<trkpt lat="46.16672" lon="7.93397"><ele></ele><time>2025-8-20T11:22:41Z</time></trkpt>
<trkpt lat="46.16677" lon="7.93393"><ele></ele><time>2025-8-20T11:22:44Z</time></trkpt>
<trkpt lat="46.16679" lon="7.93392"><ele></ele><time>2025-8-20T11:22:47Z</time></trkpt>
<trkpt lat="46.16683" lon="7.9339"><ele></ele><time>2025-8-20T11:22:50Z</time></trkpt>
<trkpt lat="46.16688" lon="7.93388"><ele></ele><time>2025-8-20T11:22:53Z</time></trkpt>
<trkpt lat="46.16695" lon="7.93382"><ele></ele><time>2025-8-20T11:22:56Z</time></trkpt>
<trkpt lat="46.16696" lon="7.93381"><ele></ele><time>2025-8-20T11:22:59Z</time></trkpt>
<trkpt lat="46.16702" lon="7.93374"><ele></ele><time>2025-8-20T11:23:2Z</time></trkpt>
<trkpt lat="46.16704" lon="7.93372"><ele></ele><time>2025-8-20T11:23:5Z</time></trkpt>
<trkpt lat="46.16707" lon="7.93369"><ele></ele><time>2025-8-20T11:23:8Z</time></trkpt>
<trkpt lat="46.16712" lon="7.93365"><ele></ele><time>2025-8-20T11:23:11Z</time></trkpt>
<trkpt lat="46.16713" lon="7.93364"><ele></ele><time>2025-8-20T11:23:14Z</time></trkpt>
<trkpt lat="46.16719" lon="7.93354"><ele></ele><time>2025-8-20T11:23:17Z</time></trkpt>
<trkpt lat="46.16719" lon="7.93352"><ele></ele><time>2025-8-20T11:23:20Z</time></trkpt>
<trkpt lat="46.16724" lon="7.93345"><ele></ele><time>2025-8-20T11:23:23Z</time></trkpt>
<trkpt lat="46.16725" lon="7.93344"><ele></ele><time>2025-8-20T11:23:26Z</time></trkpt>
<trkpt lat="46.16728" lon="7.93338"><ele></ele><time>2025-8-20T11:23:29Z</time></trkpt>
<trkpt lat="46.16728" lon="7.93334"><ele></ele><time>2025-8-20T11:23:32Z</time></trkpt>
<trkpt lat="46.16729" lon="7.9333"><ele></ele><time>2025-8-20T11:23:35Z</time></trkpt>
<trkpt lat="46.16734" lon="7.93324"><ele></ele><time>2025-8-20T11:23:38Z</time></trkpt>
<trkpt lat="46.16735" lon="7.93324"><ele></ele><time>2025-8-20T11:23:41Z</time></trkpt>
<trkpt lat="46.16742" lon="7.93322"><ele></ele><time>2025-8-20T11:23:44Z</time></trkpt>
<trkpt lat="46.16749" lon="7.93317"><ele></ele><time>2025-8-20T11:23:47Z</time></trkpt>
<trkpt lat="46.16756" lon="7.93315"><ele></ele><time>2025-8-20T11:23:50Z</time></trkpt>
<trkpt lat="46.16758" lon="7.93315"><ele></ele><time>2025-8-20T11:23:53Z</time></trkpt>
<trkpt lat="46.16761" lon="7.93313"><ele></ele><time>2025-8-20T11:23:56Z</time></trkpt>
<trkpt lat="46.16765" lon="7.93314"><ele></ele><time>2025-8-20T11:23:59Z</time></trkpt>
<trkpt lat="46.16767" lon="7.93313"><ele></ele><time>2025-8-20T11:24:2Z</time></trkpt>
<trkpt lat="46.16772" lon="7.93312"><ele></ele><time>2025-8-20T11:24:5Z</time></trkpt>
<trkpt lat="46.16775" lon="7.9331"><ele></ele><time>2025-8-20T11:24:8Z</time></trkpt>
<trkpt lat="46.16777" lon="7.93309"><ele></ele><time>2025-8-20T11:24:11Z</time></trkpt>
<trkpt lat="46.16781" lon="7.93307"><ele></ele><time>2025-8-20T11:24:14Z</time></trkpt>
<trkpt lat="46.16784" lon="7.93307"><ele></ele><time>2025-8-20T11:24:17Z</time></trkpt>
<trkpt lat="46.16787" lon="7.93307"><ele></ele><time>2025-8-20T11:24:20Z</time></trkpt>
<trkpt lat="46.16788" lon="7.93306"><ele></ele><time>2025-8-20T11:24:23Z</time></trkpt>
<trkpt lat="46.16792" lon="7.93304"><ele></ele><time>2025-8-20T11:24:26Z</time></trkpt>
<trkpt lat="46.16793" lon="7.93304"><ele></ele><time>2025-8-20T11:24:29Z</time></trkpt>
<trkpt lat="46.16799" lon="7.93302"><ele></ele><time>2025-8-20T11:24:32Z</time></trkpt>
<trkpt lat="46.168" lon="7.93301"><ele></ele><time>2025-8-20T11:24:35Z</time></trkpt>
<trkpt lat="46.16805" lon="7.933"><ele></ele><time>2025-8-20T11:24:38Z</time></trkpt>
<trkpt lat="46.16809" lon="7.93299"><ele></ele><time>2025-8-20T11:24:41Z</time></trkpt>
<trkpt lat="46.16814" lon="7.93298"><ele></ele><time>2025-8-20T11:24:44Z</time></trkpt>
<trkpt lat="46.16817" lon="7.93297"><ele></ele><time>2025-8-20T11:24:47Z</time></trkpt>
<trkpt lat="46.16822" lon="7.93296"><ele></ele><time>2025-8-20T11:24:50Z</time></trkpt>
<trkpt lat="46.16825" lon="7.93296"><ele></ele><time>2025-8-20T11:24:53Z</time></trkpt>
<trkpt lat="46.1683" lon="7.93295"><ele></ele><time>2025-8-20T11:24:56Z</time></trkpt>
<trkpt lat="46.16833" lon="7.93292"><ele></ele><time>2025-8-20T11:24:59Z</time></trkpt>
<trkpt lat="46.16835" lon="7.93293"><ele></ele><time>2025-8-20T11:25:2Z</time></trkpt>
<trkpt lat="46.16837" lon="7.93293"><ele></ele><time>2025-8-20T11:25:5Z</time></trkpt>
<trkpt lat="46.16843" lon="7.93292"><ele></ele><time>2025-8-20T11:25:8Z</time></trkpt>
<trkpt lat="46.16844" lon="7.93291"><ele></ele><time>2025-8-20T11:25:11Z</time></trkpt>
<trkpt lat="46.16848" lon="7.9329"><ele></ele><time>2025-8-20T11:25:14Z</time></trkpt>
<trkpt lat="46.16849" lon="7.93291"><ele></ele><time>2025-8-20T11:25:17Z</time></trkpt>
<trkpt lat="46.16854" lon="7.93292"><ele></ele><time>2025-8-20T11:25:20Z</time></trkpt>
<trkpt lat="46.16855" lon="7.93292"><ele></ele><time>2025-8-20T11:25:23Z</time></trkpt>
<trkpt lat="46.16861" lon="7.93295"><ele></ele><time>2025-8-20T11:25:26Z</time></trkpt>
<trkpt lat="46.16862" lon="7.93296"><ele></ele><time>2025-8-20T11:25:29Z</time></trkpt>
<trkpt lat="46.16867" lon="7.93297"><ele></ele><time>2025-8-20T11:25:32Z</time></trkpt>
<trkpt lat="46.1687" lon="7.93298"><ele></ele><time>2025-8-20T11:25:35Z</time></trkpt>
<trkpt lat="46.16871" lon="7.93299"><ele></ele><time>2025-8-20T11:25:38Z</time></trkpt>
<trkpt lat="46.16872" lon="7.93298"><ele></ele><time>2025-8-20T11:25:41Z</time></trkpt>
<trkpt lat="46.16875" lon="7.93299"><ele></ele><time>2025-8-20T11:25:44Z</time></trkpt>
<trkpt lat="46.16875" lon="7.933"><ele></ele><time>2025-8-20T11:25:47Z</time></trkpt>
<trkpt lat="46.16876" lon="7.93301"><ele></ele><time>2025-8-20T11:25:50Z</time></trkpt>
<trkpt lat="46.16877" lon="7.93309"><ele></ele><time>2025-8-20T11:25:53Z</time></trkpt>
<trkpt lat="46.16876" lon="7.9331"><ele></ele><time>2025-8-20T11:25:56Z</time></trkpt>
<trkpt lat="46.16872" lon="7.93313"><ele></ele><time>2025-8-20T11:25:59Z</time></trkpt>
<trkpt lat="46.16867" lon="7.93313"><ele></ele><time>2025-8-20T11:26:2Z</time></trkpt>
<trkpt lat="46.16866" lon="7.93313"><ele></ele><time>2025-8-20T11:26:5Z</time></trkpt>
<trkpt lat="46.16857" lon="7.93315"><ele></ele><time>2025-8-20T11:26:8Z</time></trkpt>
<trkpt lat="46.16856" lon="7.93315"><ele></ele><time>2025-8-20T11:26:11Z</time></trkpt>
<trkpt lat="46.16853" lon="7.93316"><ele></ele><time>2025-8-20T11:26:14Z</time></trkpt>
<trkpt lat="46.16851" lon="7.93318"><ele></ele><time>2025-8-20T11:26:17Z</time></trkpt>
<trkpt lat="46.16848" lon="7.93321"><ele></ele><time>2025-8-20T11:26:20Z</time></trkpt>
<trkpt lat="46.16844" lon="7.93322"><ele></ele><time>2025-8-20T11:26:23Z</time></trkpt>
<trkpt lat="46.16839" lon="7.93326"><ele></ele><time>2025-8-20T11:26:26Z</time></trkpt>
<trkpt lat="46.16839" lon="7.93327"><ele></ele><time>2025-8-20T11:26:29Z</time></trkpt>
<trkpt lat="46.16836" lon="7.9333"><ele></ele><time>2025-8-20T11:26:32Z</time></trkpt>
<trkpt lat="46.16835" lon="7.93332"><ele></ele><time>2025-8-20T11:26:35Z</time></trkpt>
<trkpt lat="46.16833" lon="7.93333"><ele></ele><time>2025-8-20T11:26:38Z</time></trkpt>
<trkpt lat="46.1683" lon="7.93339"><ele></ele><time>2025-8-20T11:26:41Z</time></trkpt>
<trkpt lat="46.16827" lon="7.93344"><ele></ele><time>2025-8-20T11:26:44Z</time></trkpt>
<trkpt lat="46.16826" lon="7.93346"><ele></ele><time>2025-8-20T11:26:47Z</time></trkpt>
<trkpt lat="46.16821" lon="7.93352"><ele></ele><time>2025-8-20T11:26:50Z</time></trkpt>
<trkpt lat="46.1682" lon="7.93355"><ele></ele><time>2025-8-20T11:26:53Z</time></trkpt>
<trkpt lat="46.16818" lon="7.93359"><ele></ele><time>2025-8-20T11:26:56Z</time></trkpt>
<trkpt lat="46.16816" lon="7.93361"><ele></ele><time>2025-8-20T11:26:59Z</time></trkpt>
<trkpt lat="46.16813" lon="7.93364"><ele></ele><time>2025-8-20T11:27:2Z</time></trkpt>
<trkpt lat="46.16808" lon="7.9337"><ele></ele><time>2025-8-20T11:27:5Z</time></trkpt>
<trkpt lat="46.16807" lon="7.93372"><ele></ele><time>2025-8-20T11:27:8Z</time></trkpt>
<trkpt lat="46.16803" lon="7.9338"><ele></ele><time>2025-8-20T11:27:11Z</time></trkpt>
<trkpt lat="46.16798" lon="7.93385"><ele></ele><time>2025-8-20T11:27:14Z</time></trkpt>
<trkpt lat="46.16797" lon="7.93386"><ele></ele><time>2025-8-20T11:27:17Z</time></trkpt>
<trkpt lat="46.16796" lon="7.93388"><ele></ele><time>2025-8-20T11:27:20Z</time></trkpt>
<trkpt lat="46.16793" lon="7.93393"><ele></ele><time>2025-8-20T11:27:23Z</time></trkpt>
<trkpt lat="46.1679" lon="7.93398"><ele></ele><time>2025-8-20T11:27:26Z</time></trkpt>
<trkpt lat="46.16789" lon="7.93399"><ele></ele><time>2025-8-20T11:27:29Z</time></trkpt>
<trkpt lat="46.16789" lon="7.934"><ele></ele><time>2025-8-20T11:27:32Z</time></trkpt>
<trkpt lat="46.16783" lon="7.93412"><ele></ele><time>2025-8-20T11:27:35Z</time></trkpt>
<trkpt lat="46.16781" lon="7.93416"><ele></ele><time>2025-8-20T11:27:38Z</time></trkpt>
<trkpt lat="46.16777" lon="7.93422"><ele></ele><time>2025-8-20T11:27:41Z</time></trkpt>
<trkpt lat="46.16773" lon="7.9343"><ele></ele><time>2025-8-20T11:27:44Z</time></trkpt>
<trkpt lat="46.16769" lon="7.93441"><ele></ele><time>2025-8-20T11:27:47Z</time></trkpt>
<trkpt lat="46.16767" lon="7.93444"><ele></ele><time>2025-8-20T11:27:50Z</time></trkpt>
<trkpt lat="46.16765" lon="7.93448"><ele></ele><time>2025-8-20T11:27:53Z</time></trkpt>
<trkpt lat="46.16761" lon="7.93453"><ele></ele><time>2025-8-20T11:27:56Z</time></trkpt>
<trkpt lat="46.1676" lon="7.93456"><ele></ele><time>2025-8-20T11:27:59Z</time></trkpt>
<trkpt lat="46.16758" lon="7.93465"><ele></ele><time>2025-8-20T11:28:2Z</time></trkpt>
<trkpt lat="46.16757" lon="7.93467"><ele></ele><time>2025-8-20T11:28:5Z</time></trkpt>
<trkpt lat="46.16756" lon="7.9347"><ele></ele><time>2025-8-20T11:28:8Z</time></trkpt>
<trkpt lat="46.16755" lon="7.93475"><ele></ele><time>2025-8-20T11:28:11Z</time></trkpt>
<trkpt lat="46.16752" lon="7.9348"><ele></ele><time>2025-8-20T11:28:14Z</time></trkpt>
<trkpt lat="46.1675" lon="7.93484"><ele></ele><time>2025-8-20T11:28:17Z</time></trkpt>
<trkpt lat="46.16745" lon="7.93496"><ele></ele><time>2025-8-20T11:28:20Z</time></trkpt>
<trkpt lat="46.16744" lon="7.93497"><ele></ele><time>2025-8-20T11:28:23Z</time></trkpt>
<trkpt lat="46.1674" lon="7.93504"><ele></ele><time>2025-8-20T11:28:26Z</time></trkpt>
<trkpt lat="46.16735" lon="7.93508"><ele></ele><time>2025-8-20T11:28:29Z</time></trkpt>
<trkpt lat="46.16734" lon="7.93509"><ele></ele><time>2025-8-20T11:28:32Z</time></trkpt>
<trkpt lat="46.16732" lon="7.93511"><ele></ele><time>2025-8-20T11:28:35Z</time></trkpt>
<trkpt lat="46.1673" lon="7.93515"><ele></ele><time>2025-8-20T11:28:38Z</time></trkpt>
<trkpt lat="46.16723" lon="7.93527"><ele></ele><time>2025-8-20T11:28:41Z</time></trkpt>
<trkpt lat="46.16722" lon="7.93531"><ele></ele><time>2025-8-20T11:28:44Z</time></trkpt>
<trkpt lat="46.16721" lon="7.93542"><ele></ele><time>2025-8-20T11:28:47Z</time></trkpt>
<trkpt lat="46.16718" lon="7.9355"><ele></ele><time>2025-8-20T11:28:50Z</time></trkpt>
<trkpt lat="46.16717" lon="7.93555"><ele></ele><time>2025-8-20T11:28:53Z</time></trkpt>
<trkpt lat="46.16713" lon="7.93565"><ele></ele><time>2025-8-20T11:28:56Z</time></trkpt>
<trkpt lat="46.16712" lon="7.93566"><ele></ele><time>2025-8-20T11:28:59Z</time></trkpt>
<trkpt lat="46.1671" lon="7.93571"><ele></ele><time>2025-8-20T11:29:2Z</time></trkpt>
<trkpt lat="46.16709" lon="7.93576"><ele></ele><time>2025-8-20T11:29:5Z</time></trkpt>
<trkpt lat="46.16708" lon="7.9358"><ele></ele><time>2025-8-20T11:29:8Z</time></trkpt>
<trkpt lat="46.16701" lon="7.9359"><ele></ele><time>2025-8-20T11:29:11Z</time></trkpt>
<trkpt lat="46.16698" lon="7.93597"><ele></ele><time>2025-8-20T11:29:14Z</time></trkpt>
<trkpt lat="46.16697" lon="7.93601"><ele></ele><time>2025-8-20T11:29:17Z</time></trkpt>
<trkpt lat="46.16696" lon="7.93602"><ele></ele><time>2025-8-20T11:29:20Z</time></trkpt>
<trkpt lat="46.16692" lon="7.93612"><ele></ele><time>2025-8-20T11:29:23Z</time></trkpt>
<trkpt lat="46.16692" lon="7.93614"><ele></ele><time>2025-8-20T11:29:26Z</time></trkpt>
<trkpt lat="46.16689" lon="7.93622"><ele></ele><time>2025-8-20T11:29:29Z</time></trkpt>
<trkpt lat="46.16687" lon="7.93624"><ele></ele><time>2025-8-20T11:29:32Z</time></trkpt>
<trkpt lat="46.16683" lon="7.9363"><ele></ele><time>2025-8-20T11:29:35Z</time></trkpt>
<trkpt lat="46.16681" lon="7.93635"><ele></ele><time>2025-8-20T11:29:38Z</time></trkpt>
<trkpt lat="46.16678" lon="7.93639"><ele></ele><time>2025-8-20T11:29:41Z</time></trkpt>
<trkpt lat="46.16676" lon="7.93646"><ele></ele><time>2025-8-20T11:29:44Z</time></trkpt>
<trkpt lat="46.16675" lon="7.93649"><ele></ele><time>2025-8-20T11:29:47Z</time></trkpt>
<trkpt lat="46.16671" lon="7.93656"><ele></ele><time>2025-8-20T11:29:50Z</time></trkpt>
<trkpt lat="46.16671" lon="7.93658"><ele></ele><time>2025-8-20T11:29:53Z</time></trkpt>
<trkpt lat="46.16668" lon="7.93665"><ele></ele><time>2025-8-20T11:29:56Z</time></trkpt>
<trkpt lat="46.16666" lon="7.93669"><ele></ele><time>2025-8-20T11:29:59Z</time></trkpt>
<trkpt lat="46.16665" lon="7.93672"><ele></ele><time>2025-8-20T11:30:2Z</time></trkpt>
<trkpt lat="46.1666" lon="7.93679"><ele></ele><time>2025-8-20T11:30:5Z</time></trkpt>
<trkpt lat="46.16656" lon="7.93682"><ele></ele><time>2025-8-20T11:30:8Z</time></trkpt>
<trkpt lat="46.16654" lon="7.93682"><ele></ele><time>2025-8-20T11:30:11Z</time></trkpt>
<trkpt lat="46.16653" lon="7.93683"><ele></ele><time>2025-8-20T11:30:14Z</time></trkpt>
<trkpt lat="46.16651" lon="7.9369"><ele></ele><time>2025-8-20T11:30:17Z</time></trkpt>
<trkpt lat="46.16644" lon="7.93699"><ele></ele><time>2025-8-20T11:30:20Z</time></trkpt>
<trkpt lat="46.1664" lon="7.93703"><ele></ele><time>2025-8-20T11:30:23Z</time></trkpt>
<trkpt lat="46.16639" lon="7.93705"><ele></ele><time>2025-8-20T11:30:26Z</time></trkpt>
<trkpt lat="46.16636" lon="7.93709"><ele></ele><time>2025-8-20T11:30:29Z</time></trkpt>
<trkpt lat="46.16632" lon="7.93714"><ele></ele><time>2025-8-20T11:30:32Z</time></trkpt>
<trkpt lat="46.16629" lon="7.93719"><ele></ele><time>2025-8-20T11:30:35Z</time></trkpt>
<trkpt lat="46.16627" lon="7.93722"><ele></ele><time>2025-8-20T11:30:38Z</time></trkpt>
<trkpt lat="46.16622" lon="7.93729"><ele></ele><time>2025-8-20T11:30:41Z</time></trkpt>
<trkpt lat="46.16616" lon="7.93736"><ele></ele><time>2025-8-20T11:30:44Z</time></trkpt>
<trkpt lat="46.16616" lon="7.93737"><ele></ele><time>2025-8-20T11:30:47Z</time></trkpt>
<trkpt lat="46.16609" lon="7.93743"><ele></ele><time>2025-8-20T11:30:50Z</time></trkpt>
<trkpt lat="46.16609" lon="7.93745"><ele></ele><time>2025-8-20T11:30:53Z</time></trkpt>
<trkpt lat="46.16605" lon="7.9375"><ele></ele><time>2025-8-20T11:30:56Z</time></trkpt>
<trkpt lat="46.16602" lon="7.93753"><ele></ele><time>2025-8-20T11:30:59Z</time></trkpt>
<trkpt lat="46.16599" lon="7.93756"><ele></ele><time>2025-8-20T11:31:2Z</time></trkpt>
<trkpt lat="46.16594" lon="7.93761"><ele></ele><time>2025-8-20T11:31:5Z</time></trkpt>
<trkpt lat="46.16589" lon="7.93768"><ele></ele><time>2025-8-20T11:31:8Z</time></trkpt>
<trkpt lat="46.16583" lon="7.93774"><ele></ele><time>2025-8-20T11:31:11Z</time></trkpt>
<trkpt lat="46.16582" lon="7.93776"><ele></ele><time>2025-8-20T11:31:14Z</time></trkpt>
<trkpt lat="46.1658" lon="7.93778"><ele></ele><time>2025-8-20T11:31:17Z</time></trkpt>
<trkpt lat="46.16577" lon="7.93778"><ele></ele><time>2025-8-20T11:31:20Z</time></trkpt>
<trkpt lat="46.16573" lon="7.93779"><ele></ele><time>2025-8-20T11:31:23Z</time></trkpt>
<trkpt lat="46.16567" lon="7.93786"><ele></ele><time>2025-8-20T11:31:26Z</time></trkpt>
<trkpt lat="46.16566" lon="7.93788"><ele></ele><time>2025-8-20T11:31:29Z</time></trkpt>
<trkpt lat="46.16558" lon="7.93795"><ele></ele><time>2025-8-20T11:31:32Z</time></trkpt>
<trkpt lat="46.16555" lon="7.93797"><ele></ele><time>2025-8-20T11:31:35Z</time></trkpt>
<trkpt lat="46.16551" lon="7.938"><ele></ele><time>2025-8-20T11:31:38Z</time></trkpt>
<trkpt lat="46.16544" lon="7.93804"><ele></ele><time>2025-8-20T11:31:41Z</time></trkpt>
<trkpt lat="46.1654" lon="7.93806"><ele></ele><time>2025-8-20T11:31:44Z</time></trkpt>
<trkpt lat="46.16533" lon="7.93811"><ele></ele><time>2025-8-20T11:31:47Z</time></trkpt>
<trkpt lat="46.16531" lon="7.93813"><ele></ele><time>2025-8-20T11:31:50Z</time></trkpt>
<trkpt lat="46.16523" lon="7.93816"><ele></ele><time>2025-8-20T11:31:53Z</time></trkpt>
<trkpt lat="46.16519" lon="7.93817"><ele></ele><time>2025-8-20T11:31:56Z</time></trkpt>
<trkpt lat="46.16514" lon="7.93818"><ele></ele><time>2025-8-20T11:31:59Z</time></trkpt>
<trkpt lat="46.16512" lon="7.93818"><ele></ele><time>2025-8-20T11:32:2Z</time></trkpt>
<trkpt lat="46.16504" lon="7.93819"><ele></ele><time>2025-8-20T11:32:5Z</time></trkpt>
<trkpt lat="46.16499" lon="7.93821"><ele></ele><time>2025-8-20T11:32:8Z</time></trkpt>
<trkpt lat="46.16496" lon="7.93822"><ele></ele><time>2025-8-20T11:32:11Z</time></trkpt>
<trkpt lat="46.16488" lon="7.93824"><ele></ele><time>2025-8-20T11:32:14Z</time></trkpt>
<trkpt lat="46.16487" lon="7.93825"><ele></ele><time>2025-8-20T11:32:17Z</time></trkpt>
<trkpt lat="46.16481" lon="7.93828"><ele></ele><time>2025-8-20T11:32:20Z</time></trkpt>
<trkpt lat="46.16476" lon="7.93829"><ele></ele><time>2025-8-20T11:32:23Z</time></trkpt>
<trkpt lat="46.16474" lon="7.9383"><ele></ele><time>2025-8-20T11:32:26Z</time></trkpt>
<trkpt lat="46.1647" lon="7.93832"><ele></ele><time>2025-8-20T11:32:29Z</time></trkpt>
<trkpt lat="46.16468" lon="7.93835"><ele></ele><time>2025-8-20T11:32:32Z</time></trkpt>
<trkpt lat="46.16466" lon="7.93838"><ele></ele><time>2025-8-20T11:32:35Z</time></trkpt>
<trkpt lat="46.16461" lon="7.93843"><ele></ele><time>2025-8-20T11:32:38Z</time></trkpt>
<trkpt lat="46.1646" lon="7.93844"><ele></ele><time>2025-8-20T11:32:41Z</time></trkpt>
<trkpt lat="46.16456" lon="7.93854"><ele></ele><time>2025-8-20T11:32:44Z</time></trkpt>
<trkpt lat="46.16455" lon="7.93856"><ele></ele><time>2025-8-20T11:32:47Z</time></trkpt>
<trkpt lat="46.1645" lon="7.93866"><ele></ele><time>2025-8-20T11:32:50Z</time></trkpt>
<trkpt lat="46.16448" lon="7.9387"><ele></ele><time>2025-8-20T11:32:53Z</time></trkpt>
<trkpt lat="46.16445" lon="7.93877"><ele></ele><time>2025-8-20T11:32:56Z</time></trkpt>
<trkpt lat="46.16441" lon="7.93887"><ele></ele><time>2025-8-20T11:32:59Z</time></trkpt>
<trkpt lat="46.1644" lon="7.93889"><ele></ele><time>2025-8-20T11:33:2Z</time></trkpt>
<trkpt lat="46.16435" lon="7.939"><ele></ele><time>2025-8-20T11:33:5Z</time></trkpt>
<trkpt lat="46.16428" lon="7.93915"><ele></ele><time>2025-8-20T11:33:8Z</time></trkpt>
<trkpt lat="46.16425" lon="7.93921"><ele></ele><time>2025-8-20T11:33:11Z</time></trkpt>
<trkpt lat="46.16423" lon="7.93923"><ele></ele><time>2025-8-20T11:33:14Z</time></trkpt>
<trkpt lat="46.16424" lon="7.93924"><ele></ele><time>2025-8-20T11:33:17Z</time></trkpt>
<trkpt lat="46.16424" lon="7.93924"><ele></ele><time>2025-8-20T11:33:20Z</time></trkpt>
<trkpt lat="46.16423" lon="7.93924"><ele></ele><time>2025-8-20T11:33:23Z</time></trkpt>
<trkpt lat="46.16422" lon="7.93924"><ele></ele><time>2025-8-20T11:33:26Z</time></trkpt>
<trkpt lat="46.16421" lon="7.93924"><ele></ele><time>2025-8-20T11:33:29Z</time></trkpt>
<trkpt lat="46.1642" lon="7.93923"><ele></ele><time>2025-8-20T11:33:32Z</time></trkpt>
<trkpt lat="46.16419" lon="7.93922"><ele></ele><time>2025-8-20T11:33:35Z</time></trkpt>
<trkpt lat="46.16421" lon="7.93916"><ele></ele><time>2025-8-20T11:33:38Z</time></trkpt>
<trkpt lat="46.16421" lon="7.93917"><ele></ele><time>2025-8-20T11:33:41Z</time></trkpt>
<trkpt lat="46.16421" lon="7.93917"><ele></ele><time>2025-8-20T11:33:44Z</time></trkpt>
<trkpt lat="46.16421" lon="7.93917"><ele></ele><time>2025-8-20T11:33:47Z</time></trkpt>
<trkpt lat="46.16421" lon="7.93916"><ele></ele><time>2025-8-20T11:33:50Z</time></trkpt>
<trkpt lat="46.16421" lon="7.93916"><ele></ele><time>2025-8-20T11:33:53Z</time></trkpt>
<trkpt lat="46.16421" lon="7.93917"><ele></ele><time>2025-8-20T11:33:56Z</time></trkpt>
<trkpt lat="46.16421" lon="7.93917"><ele></ele><time>2025-8-20T11:33:59Z</time></trkpt>
<trkpt lat="46.16421" lon="7.93917"><ele></ele><time>2025-8-20T11:34:2Z</time></trkpt>
<trkpt lat="46.16421" lon="7.93917"><ele></ele><time>2025-8-20T11:34:5Z</time></trkpt>
<trkpt lat="46.16421" lon="7.93918"><ele></ele><time>2025-8-20T11:34:8Z</time></trkpt>
<trkpt lat="46.16422" lon="7.93922"><ele></ele><time>2025-8-20T11:34:11Z</time></trkpt>
<trkpt lat="46.16423" lon="7.93923"><ele></ele><time>2025-8-20T11:34:14Z</time></trkpt>
<trkpt lat="46.16424" lon="7.93924"><ele></ele><time>2025-8-20T11:34:17Z</time></trkpt>
<trkpt lat="46.16424" lon="7.93924"><ele></ele><time>2025-8-20T11:34:20Z</time></trkpt>
<trkpt lat="46.16422" lon="7.93923"><ele></ele><time>2025-8-20T11:34:23Z</time></trkpt>
<trkpt lat="46.16419" lon="7.9392"><ele></ele><time>2025-8-20T11:34:26Z</time></trkpt>
<trkpt lat="46.16421" lon="7.93914"><ele></ele><time>2025-8-20T11:34:29Z</time></trkpt>
<trkpt lat="46.16422" lon="7.93916"><ele></ele><time>2025-8-20T11:34:32Z</time></trkpt>
<trkpt lat="46.16422" lon="7.93916"><ele></ele><time>2025-8-20T11:34:35Z</time></trkpt>
<trkpt lat="46.16422" lon="7.93916"><ele></ele><time>2025-8-20T11:34:38Z</time></trkpt>
<trkpt lat="46.16422" lon="7.93916"><ele></ele><time>2025-8-20T11:34:41Z</time></trkpt>
<trkpt lat="46.16422" lon="7.93916"><ele></ele><time>2025-8-20T11:34:44Z</time></trkpt>
<trkpt lat="46.16422" lon="7.93916"><ele></ele><time>2025-8-20T11:34:47Z</time></trkpt>
<trkpt lat="46.16422" lon="7.93916"><ele></ele><time>2025-8-20T11:34:50Z</time></trkpt>
<trkpt lat="46.16422" lon="7.93916"><ele></ele><time>2025-8-20T11:34:53Z</time></trkpt>
<trkpt lat="46.16422" lon="7.93916"><ele></ele><time>2025-8-20T11:34:56Z</time></trkpt>
<trkpt lat="46.16421" lon="7.93917"><ele></ele><time>2025-8-20T11:34:59Z</time></trkpt>
<trkpt lat="46.16422" lon="7.93916"><ele></ele><time>2025-8-20T11:35:2Z</time></trkpt>
<trkpt lat="46.16422" lon="7.93916"><ele></ele><time>2025-8-20T11:35:5Z</time></trkpt>
<trkpt lat="46.16422" lon="7.93918"><ele></ele><time>2025-8-20T11:35:8Z</time></trkpt>
<trkpt lat="46.16422" lon="7.93917"><ele></ele><time>2025-8-20T11:35:11Z</time></trkpt>
<trkpt lat="46.16422" lon="7.93916"><ele></ele><time>2025-8-20T11:35:14Z</time></trkpt>
<trkpt lat="46.16422" lon="7.93916"><ele></ele><time>2025-8-20T11:35:17Z</time></trkpt>
<trkpt lat="46.16422" lon="7.93916"><ele></ele><time>2025-8-20T11:35:20Z</time></trkpt>
<trkpt lat="46.16422" lon="7.93916"><ele></ele><time>2025-8-20T11:35:23Z</time></trkpt>
<trkpt lat="46.16421" lon="7.93916"><ele></ele><time>2025-8-20T11:35:26Z</time></trkpt>
<trkpt lat="46.16422" lon="7.93916"><ele></ele><time>2025-8-20T11:35:29Z</time></trkpt>
<trkpt lat="46.16422" lon="7.93916"><ele></ele><time>2025-8-20T11:35:32Z</time></trkpt>
<trkpt lat="46.16422" lon="7.93917"><ele></ele><time>2025-8-20T11:35:35Z</time></trkpt>
<trkpt lat="46.16422" lon="7.93917"><ele></ele><time>2025-8-20T11:35:38Z</time></trkpt>
<trkpt lat="46.16422" lon="7.93917"><ele></ele><time>2025-8-20T11:35:41Z</time></trkpt>
<trkpt lat="46.16422" lon="7.93916"><ele></ele><time>2025-8-20T11:35:44Z</time></trkpt>
<trkpt lat="46.16422" lon="7.93916"><ele></ele><time>2025-8-20T11:35:47Z</time></trkpt>
<trkpt lat="46.16422" lon="7.93916"><ele></ele><time>2025-8-20T11:35:50Z</time></trkpt>
<trkpt lat="46.16422" lon="7.93916"><ele></ele><time>2025-8-20T11:35:53Z</time></trkpt>
<trkpt lat="46.16422" lon="7.93916"><ele></ele><time>2025-8-20T11:35:56Z</time></trkpt>
<trkpt lat="46.16422" lon="7.93916"><ele></ele><time>2025-8-20T11:35:59Z</time></trkpt>
<trkpt lat="46.16422" lon="7.93916"><ele></ele><time>2025-8-20T11:36:2Z</time></trkpt>
<trkpt lat="46.16422" lon="7.93916"><ele></ele><time>2025-8-20T11:36:5Z</time></trkpt>
<trkpt lat="46.16422" lon="7.93916"><ele></ele><time>2025-8-20T11:36:8Z</time></trkpt>
<trkpt lat="46.16422" lon="7.93916"><ele></ele><time>2025-8-20T11:36:11Z</time></trkpt>
<trkpt lat="46.16421" lon="7.93917"><ele></ele><time>2025-8-20T11:36:14Z</time></trkpt>
<trkpt lat="46.1642" lon="7.93916"><ele></ele><time>2025-8-20T11:36:17Z</time></trkpt>
<trkpt lat="46.16422" lon="7.93916"><ele></ele><time>2025-8-20T11:36:20Z</time></trkpt>
<trkpt lat="46.16422" lon="7.93916"><ele></ele><time>2025-8-20T11:36:23Z</time></trkpt>
<trkpt lat="46.16422" lon="7.93916"><ele></ele><time>2025-8-20T11:36:26Z</time></trkpt>
<trkpt lat="46.16422" lon="7.93916"><ele></ele><time>2025-8-20T11:36:29Z</time></trkpt>
<trkpt lat="46.16422" lon="7.93916"><ele></ele><time>2025-8-20T11:36:32Z</time></trkpt>
<trkpt lat="46.16421" lon="7.93916"><ele></ele><time>2025-8-20T11:36:35Z</time></trkpt>
<trkpt lat="46.16422" lon="7.93916"><ele></ele><time>2025-8-20T11:36:38Z</time></trkpt>
<trkpt lat="46.16422" lon="7.93916"><ele></ele><time>2025-8-20T11:36:41Z</time></trkpt>
<trkpt lat="46.16422" lon="7.93916"><ele></ele><time>2025-8-20T11:36:44Z</time></trkpt>
<trkpt lat="46.16422" lon="7.93916"><ele></ele><time>2025-8-20T11:36:47Z</time></trkpt>
<trkpt lat="46.16421" lon="7.93916"><ele></ele><time>2025-8-20T11:36:50Z</time></trkpt>
<trkpt lat="46.16421" lon="7.93916"><ele></ele><time>2025-8-20T11:36:53Z</time></trkpt>
<trkpt lat="46.16422" lon="7.93916"><ele></ele><time>2025-8-20T11:36:56Z</time></trkpt>
<trkpt lat="46.16422" lon="7.93916"><ele></ele><time>2025-8-20T11:36:59Z</time></trkpt>
<trkpt lat="46.16422" lon="7.93916"><ele></ele><time>2025-8-20T11:37:2Z</time></trkpt>
<trkpt lat="46.16422" lon="7.93916"><ele></ele><time>2025-8-20T11:37:5Z</time></trkpt>
<trkpt lat="46.16422" lon="7.93916"><ele></ele><time>2025-8-20T11:37:8Z</time></trkpt>
<trkpt lat="46.16422" lon="7.93916"><ele></ele><time>2025-8-20T11:37:11Z</time></trkpt>
<trkpt lat="46.16422" lon="7.93916"><ele></ele><time>2025-8-20T11:37:14Z</time></trkpt>
<trkpt lat="46.16422" lon="7.93916"><ele></ele><time>2025-8-20T11:37:17Z</time></trkpt>
<trkpt lat="46.16422" lon="7.93916"><ele></ele><time>2025-8-20T11:37:20Z</time></trkpt>
<trkpt lat="46.16422" lon="7.93916"><ele></ele><time>2025-8-20T11:37:23Z</time></trkpt>
<trkpt lat="46.16421" lon="7.93916"><ele></ele><time>2025-8-20T11:37:26Z</time></trkpt>
<trkpt lat="46.16422" lon="7.93916"><ele></ele><time>2025-8-20T11:37:29Z</time></trkpt>
<trkpt lat="46.16422" lon="7.93916"><ele></ele><time>2025-8-20T11:37:32Z</time></trkpt>
<trkpt lat="46.16422" lon="7.93916"><ele></ele><time>2025-8-20T11:37:35Z</time></trkpt>
<trkpt lat="46.16422" lon="7.93916"><ele></ele><time>2025-8-20T11:37:38Z</time></trkpt>
<trkpt lat="46.16422" lon="7.93916"><ele></ele><time>2025-8-20T11:37:41Z</time></trkpt>
<trkpt lat="46.16422" lon="7.93916"><ele></ele><time>2025-8-20T11:37:44Z</time></trkpt>
<trkpt lat="46.16422" lon="7.93916"><ele></ele><time>2025-8-20T11:37:47Z</time></trkpt>
<trkpt lat="46.16422" lon="7.93916"><ele></ele><time>2025-8-20T11:37:50Z</time></trkpt>
<trkpt lat="46.16422" lon="7.93916"><ele></ele><time>2025-8-20T11:37:53Z</time></trkpt>
<trkpt lat="46.16422" lon="7.93916"><ele></ele><time>2025-8-20T11:37:56Z</time></trkpt>
<trkpt lat="46.16422" lon="7.93916"><ele></ele><time>2025-8-20T11:37:59Z</time></trkpt>
<trkpt lat="46.16422" lon="7.93916"><ele></ele><time>2025-8-20T11:38:2Z</time></trkpt>
<trkpt lat="46.16422" lon="7.93916"><ele></ele><time>2025-8-20T11:38:5Z</time></trkpt>
<trkpt lat="46.16422" lon="7.93916"><ele></ele><time>2025-8-20T11:38:8Z</time></trkpt>
<trkpt lat="46.16422" lon="7.93916"><ele></ele><time>2025-8-20T11:38:11Z</time></trkpt>
<trkpt lat="46.16422" lon="7.93916"><ele></ele><time>2025-8-20T11:38:14Z</time></trkpt>
<trkpt lat="46.16423" lon="7.93917"><ele></ele><time>2025-8-20T11:38:17Z</time></trkpt>
<trkpt lat="46.16423" lon="7.93915"><ele></ele><time>2025-8-20T11:38:20Z</time></trkpt>
<trkpt lat="46.16423" lon="7.93914"><ele></ele><time>2025-8-20T11:38:23Z</time></trkpt>
<trkpt lat="46.16423" lon="7.93913"><ele></ele><time>2025-8-20T11:38:26Z</time></trkpt>
<trkpt lat="46.16422" lon="7.93913"><ele></ele><time>2025-8-20T11:38:29Z</time></trkpt>
<trkpt lat="46.16422" lon="7.93915"><ele></ele><time>2025-8-20T11:38:32Z</time></trkpt>
<trkpt lat="46.16422" lon="7.93916"><ele></ele><time>2025-8-20T11:38:35Z</time></trkpt>
<trkpt lat="46.16422" lon="7.93916"><ele></ele><time>2025-8-20T11:38:38Z</time></trkpt>
<trkpt lat="46.16422" lon="7.93916"><ele></ele><time>2025-8-20T11:38:41Z</time></trkpt>
<trkpt lat="46.16422" lon="7.93916"><ele></ele><time>2025-8-20T11:38:44Z</time></trkpt>
<trkpt lat="46.16422" lon="7.93916"><ele></ele><time>2025-8-20T11:38:47Z</time></trkpt>
<trkpt lat="46.16422" lon="7.93916"><ele></ele><time>2025-8-20T11:38:50Z</time></trkpt>
<trkpt lat="46.16422" lon="7.93917"><ele></ele><time>2025-8-20T11:38:53Z</time></trkpt>
<trkpt lat="46.16422" lon="7.93918"><ele></ele><time>2025-8-20T11:38:56Z</time></trkpt>
<trkpt lat="46.16422" lon="7.93916"><ele></ele><time>2025-8-20T11:38:59Z</time></trkpt>
<trkpt lat="46.16422" lon="7.93916"><ele></ele><time>2025-8-20T11:39:2Z</time></trkpt>
<trkpt lat="46.16422" lon="7.93916"><ele></ele><time>2025-8-20T11:39:5Z</time></trkpt>
<trkpt lat="46.16422" lon="7.93916"><ele></ele><time>2025-8-20T11:39:8Z</time></trkpt>
<trkpt lat="46.16422" lon="7.93916"><ele></ele><time>2025-8-20T11:39:11Z</time></trkpt>
<trkpt lat="46.16422" lon="7.93916"><ele></ele><time>2025-8-20T11:39:14Z</time></trkpt>
<trkpt lat="46.16422" lon="7.93916"><ele></ele><time>2025-8-20T11:39:17Z</time></trkpt>
<trkpt lat="46.16421" lon="7.93919"><ele></ele><time>2025-8-20T11:39:20Z</time></trkpt>
<trkpt lat="46.16421" lon="7.93919"><ele></ele><time>2025-8-20T11:39:23Z</time></trkpt>
<trkpt lat="46.16421" lon="7.93919"><ele></ele><time>2025-8-20T11:39:26Z</time></trkpt>
<trkpt lat="46.16421" lon="7.93919"><ele></ele><time>2025-8-20T11:39:29Z</time></trkpt>
<trkpt lat="46.16421" lon="7.93919"><ele></ele><time>2025-8-20T11:39:32Z</time></trkpt>
<trkpt lat="46.16421" lon="7.93919"><ele></ele><time>2025-8-20T11:39:35Z</time></trkpt>
<trkpt lat="46.16421" lon="7.93919"><ele></ele><time>2025-8-20T11:39:38Z</time></trkpt>
<trkpt lat="46.16421" lon="7.93919"><ele></ele><time>2025-8-20T11:39:41Z</time></trkpt>
<trkpt lat="46.16421" lon="7.93919"><ele></ele><time>2025-8-20T11:39:44Z</time></trkpt>
<trkpt lat="46.16421" lon="7.93919"><ele></ele><time>2025-8-20T11:39:47Z</time></trkpt>
<trkpt lat="46.16421" lon="7.93919"><ele></ele><time>2025-8-20T11:39:50Z</time></trkpt>
<trkpt lat="46.16421" lon="7.93919"><ele></ele><time>2025-8-20T11:39:53Z</time></trkpt>
<trkpt lat="46.16421" lon="7.93918"><ele></ele><time>2025-8-20T11:39:56Z</time></trkpt>
<trkpt lat="46.16421" lon="7.93919"><ele></ele><time>2025-8-20T11:39:59Z</time></trkpt>
<trkpt lat="46.16421" lon="7.93918"><ele></ele><time>2025-8-20T11:40:2Z</time></trkpt>
<trkpt lat="46.16421" lon="7.93917"><ele></ele><time>2025-8-20T11:40:5Z</time></trkpt>
<trkpt lat="46.16421" lon="7.93919"><ele></ele><time>2025-8-20T11:40:8Z</time></trkpt>
<trkpt lat="46.16421" lon="7.93919"><ele></ele><time>2025-8-20T11:40:11Z</time></trkpt>
<trkpt lat="46.16421" lon="7.93919"><ele></ele><time>2025-8-20T11:40:14Z</time></trkpt>
<trkpt lat="46.16421" lon="7.93919"><ele></ele><time>2025-8-20T11:40:17Z</time></trkpt>
<trkpt lat="46.1642" lon="7.93916"><ele></ele><time>2025-8-20T11:40:20Z</time></trkpt>
<trkpt lat="46.1642" lon="7.93916"><ele></ele><time>2025-8-20T11:40:23Z</time></trkpt>
<trkpt lat="46.1642" lon="7.93916"><ele></ele><time>2025-8-20T11:40:26Z</time></trkpt>
<trkpt lat="46.1642" lon="7.93916"><ele></ele><time>2025-8-20T11:40:29Z</time></trkpt>
<trkpt lat="46.1642" lon="7.93916"><ele></ele><time>2025-8-20T11:40:32Z</time></trkpt>
<trkpt lat="46.1642" lon="7.93916"><ele></ele><time>2025-8-20T11:40:35Z</time></trkpt>
<trkpt lat="46.16421" lon="7.93916"><ele></ele><time>2025-8-20T11:40:38Z</time></trkpt>
<trkpt lat="46.16422" lon="7.93916"><ele></ele><time>2025-8-20T11:40:41Z</time></trkpt>
<trkpt lat="46.16422" lon="7.93916"><ele></ele><time>2025-8-20T11:40:44Z</time></trkpt>
<trkpt lat="46.16422" lon="7.93916"><ele></ele><time>2025-8-20T11:40:47Z</time></trkpt>
<trkpt lat="46.16422" lon="7.93916"><ele></ele><time>2025-8-20T11:40:50Z</time></trkpt>
<trkpt lat="46.16422" lon="7.93916"><ele></ele><time>2025-8-20T11:40:53Z</time></trkpt>
<trkpt lat="46.16422" lon="7.93916"><ele></ele><time>2025-8-20T11:40:56Z</time></trkpt>
<trkpt lat="46.16422" lon="7.93916"><ele></ele><time>2025-8-20T11:40:59Z</time></trkpt>
<trkpt lat="46.16422" lon="7.93916"><ele></ele><time>2025-8-20T11:41:2Z</time></trkpt>
<trkpt lat="46.16422" lon="7.93916"><ele></ele><time>2025-8-20T11:41:5Z</time></trkpt>
<trkpt lat="46.16422" lon="7.93916"><ele></ele><time>2025-8-20T11:41:8Z</time></trkpt>
<trkpt lat="46.16422" lon="7.93916"><ele></ele><time>2025-8-20T11:41:11Z</time></trkpt>
<trkpt lat="46.16422" lon="7.93916"><ele></ele><time>2025-8-20T11:41:14Z</time></trkpt>
<trkpt lat="46.16422" lon="7.93916"><ele></ele><time>2025-8-20T11:41:17Z</time></trkpt>
<trkpt lat="46.16422" lon="7.93916"><ele></ele><time>2025-8-20T11:41:20Z</time></trkpt>
<trkpt lat="46.16422" lon="7.93916"><ele></ele><time>2025-8-20T11:41:23Z</time></trkpt>
<trkpt lat="46.16421" lon="7.93916"><ele></ele><time>2025-8-20T11:41:26Z</time></trkpt>
<trkpt lat="46.16421" lon="7.93916"><ele></ele><time>2025-8-20T11:41:29Z</time></trkpt>
<trkpt lat="46.16421" lon="7.93916"><ele></ele><time>2025-8-20T11:41:32Z</time></trkpt>
<trkpt lat="46.16421" lon="7.93916"><ele></ele><time>2025-8-20T11:41:35Z</time></trkpt>
<trkpt lat="46.16421" lon="7.93916"><ele></ele><time>2025-8-20T11:41:38Z</time></trkpt>
<trkpt lat="46.16421" lon="7.93916"><ele></ele><time>2025-8-20T11:41:41Z</time></trkpt>
<trkpt lat="46.16421" lon="7.93916"><ele></ele><time>2025-8-20T11:41:44Z</time></trkpt>
<trkpt lat="46.16421" lon="7.93918"><ele></ele><time>2025-8-20T11:41:47Z</time></trkpt>
<trkpt lat="46.16421" lon="7.93918"><ele></ele><time>2025-8-20T11:41:50Z</time></trkpt>
<trkpt lat="46.16421" lon="7.93918"><ele></ele><time>2025-8-20T11:41:53Z</time></trkpt>
<trkpt lat="46.16421" lon="7.93918"><ele></ele><time>2025-8-20T11:41:56Z</time></trkpt>
<trkpt lat="46.16421" lon="7.93918"><ele></ele><time>2025-8-20T11:41:59Z</time></trkpt>
<trkpt lat="46.16421" lon="7.93918"><ele></ele><time>2025-8-20T11:42:2Z</time></trkpt>
<trkpt lat="46.16421" lon="7.93918"><ele></ele><time>2025-8-20T11:42:5Z</time></trkpt>
<trkpt lat="46.16421" lon="7.93918"><ele></ele><time>2025-8-20T11:42:8Z</time></trkpt>
<trkpt lat="46.16421" lon="7.93919"><ele></ele><time>2025-8-20T11:42:11Z</time></trkpt>
<trkpt lat="46.16421" lon="7.93918"><ele></ele><time>2025-8-20T11:42:14Z</time></trkpt>
<trkpt lat="46.16421" lon="7.93918"><ele></ele><time>2025-8-20T11:42:17Z</time></trkpt>
<trkpt lat="46.16421" lon="7.93918"><ele></ele><time>2025-8-20T11:42:20Z</time></trkpt>
<trkpt lat="46.16421" lon="7.93918"><ele></ele><time>2025-8-20T11:42:23Z</time></trkpt>
<trkpt lat="46.16421" lon="7.93918"><ele></ele><time>2025-8-20T11:42:26Z</time></trkpt>
<trkpt lat="46.16421" lon="7.93918"><ele></ele><time>2025-8-20T11:42:29Z</time></trkpt>
<trkpt lat="46.16421" lon="7.93918"><ele></ele><time>2025-8-20T11:42:32Z</time></trkpt>
<trkpt lat="46.16421" lon="7.93918"><ele></ele><time>2025-8-20T11:42:35Z</time></trkpt>
<trkpt lat="46.16421" lon="7.93918"><ele></ele><time>2025-8-20T11:42:38Z</time></trkpt>
<trkpt lat="46.16421" lon="7.93919"><ele></ele><time>2025-8-20T11:42:41Z</time></trkpt>
<trkpt lat="46.16421" lon="7.93919"><ele></ele><time>2025-8-20T11:42:44Z</time></trkpt>
<trkpt lat="46.1642" lon="7.93918"><ele></ele><time>2025-8-20T11:42:47Z</time></trkpt>
<trkpt lat="46.16421" lon="7.93918"><ele></ele><time>2025-8-20T11:42:50Z</time></trkpt>
<trkpt lat="46.16421" lon="7.93918"><ele></ele><time>2025-8-20T11:42:53Z</time></trkpt>
<trkpt lat="46.1642" lon="7.93919"><ele></ele><time>2025-8-20T11:42:56Z</time></trkpt>
<trkpt lat="46.16421" lon="7.93919"><ele></ele><time>2025-8-20T11:42:59Z</time></trkpt>
<trkpt lat="46.16421" lon="7.93923"><ele></ele><time>2025-8-20T11:43:2Z</time></trkpt>
<trkpt lat="46.16422" lon="7.93925"><ele></ele><time>2025-8-20T11:43:5Z</time></trkpt>
<trkpt lat="46.16423" lon="7.93925"><ele></ele><time>2025-8-20T11:43:8Z</time></trkpt>
<trkpt lat="46.16425" lon="7.93926"><ele></ele><time>2025-8-20T11:43:11Z</time></trkpt>
<trkpt lat="46.16424" lon="7.93926"><ele></ele><time>2025-8-20T11:43:14Z</time></trkpt>
<trkpt lat="46.16422" lon="7.93925"><ele></ele><time>2025-8-20T11:43:17Z</time></trkpt>
<trkpt lat="46.16422" lon="7.93925"><ele></ele><time>2025-8-20T11:43:20Z</time></trkpt>
<trkpt lat="46.16422" lon="7.93925"><ele></ele><time>2025-8-20T11:43:23Z</time></trkpt>
<trkpt lat="46.16422" lon="7.93925"><ele></ele><time>2025-8-20T11:43:26Z</time></trkpt>
<trkpt lat="46.16422" lon="7.93925"><ele></ele><time>2025-8-20T11:43:29Z</time></trkpt>
<trkpt lat="46.16422" lon="7.93925"><ele></ele><time>2025-8-20T11:43:32Z</time></trkpt>
<trkpt lat="46.16422" lon="7.93924"><ele></ele><time>2025-8-20T11:43:35Z</time></trkpt>
<trkpt lat="46.16422" lon="7.93924"><ele></ele><time>2025-8-20T11:43:38Z</time></trkpt>
<trkpt lat="46.16422" lon="7.93925"><ele></ele><time>2025-8-20T11:43:41Z</time></trkpt>
<trkpt lat="46.16422" lon="7.93925"><ele></ele><time>2025-8-20T11:43:44Z</time></trkpt>
<trkpt lat="46.16422" lon="7.93925"><ele></ele><time>2025-8-20T11:43:47Z</time></trkpt>
<trkpt lat="46.16422" lon="7.93925"><ele></ele><time>2025-8-20T11:43:50Z</time></trkpt>
<trkpt lat="46.16423" lon="7.93927"><ele></ele><time>2025-8-20T11:43:53Z</time></trkpt>
<trkpt lat="46.16423" lon="7.93928"><ele></ele><time>2025-8-20T11:43:56Z</time></trkpt>
<trkpt lat="46.16423" lon="7.93929"><ele></ele><time>2025-8-20T11:43:59Z</time></trkpt>
<trkpt lat="46.16423" lon="7.93929"><ele></ele><time>2025-8-20T11:44:2Z</time></trkpt>
<trkpt lat="46.16423" lon="7.93929"><ele></ele><time>2025-8-20T11:44:5Z</time></trkpt>
<trkpt lat="46.16423" lon="7.9393"><ele></ele><time>2025-8-20T11:44:8Z</time></trkpt>
<trkpt lat="46.16423" lon="7.9393"><ele></ele><time>2025-8-20T11:44:11Z</time></trkpt>
<trkpt lat="46.16424" lon="7.9393"><ele></ele><time>2025-8-20T11:44:14Z</time></trkpt>
<trkpt lat="46.16425" lon="7.93932"><ele></ele><time>2025-8-20T11:44:17Z</time></trkpt>
<trkpt lat="46.16424" lon="7.93931"><ele></ele><time>2025-8-20T11:44:20Z</time></trkpt>
<trkpt lat="46.16425" lon="7.93931"><ele></ele><time>2025-8-20T11:44:23Z</time></trkpt>
<trkpt lat="46.16424" lon="7.93931"><ele></ele><time>2025-8-20T11:44:26Z</time></trkpt>
<trkpt lat="46.16423" lon="7.93932"><ele></ele><time>2025-8-20T11:44:29Z</time></trkpt>
<trkpt lat="46.16422" lon="7.93933"><ele></ele><time>2025-8-20T11:44:32Z</time></trkpt>
<trkpt lat="46.16421" lon="7.93933"><ele></ele><time>2025-8-20T11:44:35Z</time></trkpt>
<trkpt lat="46.16421" lon="7.93933"><ele></ele><time>2025-8-20T11:44:38Z</time></trkpt>
<trkpt lat="46.16421" lon="7.93933"><ele></ele><time>2025-8-20T11:44:41Z</time></trkpt>
<trkpt lat="46.16421" lon="7.93933"><ele></ele><time>2025-8-20T11:44:44Z</time></trkpt>
<trkpt lat="46.16421" lon="7.93933"><ele></ele><time>2025-8-20T11:44:47Z</time></trkpt>
<trkpt lat="46.16421" lon="7.93933"><ele></ele><time>2025-8-20T11:44:50Z</time></trkpt>
<trkpt lat="46.16423" lon="7.93932"><ele></ele><time>2025-8-20T11:44:53Z</time></trkpt>
<trkpt lat="46.16423" lon="7.93932"><ele></ele><time>2025-8-20T11:44:56Z</time></trkpt>
<trkpt lat="46.16423" lon="7.93931"><ele></ele><time>2025-8-20T11:44:59Z</time></trkpt>
<trkpt lat="46.16423" lon="7.93933"><ele></ele><time>2025-8-20T11:45:2Z</time></trkpt>
<trkpt lat="46.16421" lon="7.93933"><ele></ele><time>2025-8-20T11:45:5Z</time></trkpt>
<trkpt lat="46.16422" lon="7.93933"><ele></ele><time>2025-8-20T11:45:8Z</time></trkpt>
<trkpt lat="46.16421" lon="7.93933"><ele></ele><time>2025-8-20T11:45:11Z</time></trkpt>
<trkpt lat="46.16421" lon="7.93933"><ele></ele><time>2025-8-20T11:45:14Z</time></trkpt>
<trkpt lat="46.16421" lon="7.93933"><ele></ele><time>2025-8-20T11:45:17Z</time></trkpt>
<trkpt lat="46.16421" lon="7.93933"><ele></ele><time>2025-8-20T11:45:20Z</time></trkpt>
<trkpt lat="46.16421" lon="7.93933"><ele></ele><time>2025-8-20T11:45:23Z</time></trkpt>
<trkpt lat="46.16421" lon="7.93933"><ele></ele><time>2025-8-20T11:45:26Z</time></trkpt>
<trkpt lat="46.16421" lon="7.93933"><ele></ele><time>2025-8-20T11:45:29Z</time></trkpt>
<trkpt lat="46.16421" lon="7.93933"><ele></ele><time>2025-8-20T11:45:32Z</time></trkpt>
<trkpt lat="46.16422" lon="7.93931"><ele></ele><time>2025-8-20T11:45:35Z</time></trkpt>
<trkpt lat="46.16422" lon="7.93933"><ele></ele><time>2025-8-20T11:45:38Z</time></trkpt>
<trkpt lat="46.16421" lon="7.93933"><ele></ele><time>2025-8-20T11:45:41Z</time></trkpt>
<trkpt lat="46.16422" lon="7.93932"><ele></ele><time>2025-8-20T11:45:44Z</time></trkpt>
<trkpt lat="46.16421" lon="7.93932"><ele></ele><time>2025-8-20T11:45:47Z</time></trkpt>
<trkpt lat="46.16421" lon="7.93932"><ele></ele><time>2025-8-20T11:45:50Z</time></trkpt>
<trkpt lat="46.16421" lon="7.93932"><ele></ele><time>2025-8-20T11:45:53Z</time></trkpt>
<trkpt lat="46.16421" lon="7.93932"><ele></ele><time>2025-8-20T11:45:56Z</time></trkpt>
<trkpt lat="46.16421" lon="7.93932"><ele></ele><time>2025-8-20T11:45:59Z</time></trkpt>
<trkpt lat="46.16421" lon="7.93933"><ele></ele><time>2025-8-20T11:46:2Z</time></trkpt>
<trkpt lat="46.16421" lon="7.93934"><ele></ele><time>2025-8-20T11:46:5Z</time></trkpt>
<trkpt lat="46.16421" lon="7.93933"><ele></ele><time>2025-8-20T11:46:8Z</time></trkpt>
<trkpt lat="46.16421" lon="7.93933"><ele></ele><time>2025-8-20T11:46:11Z</time></trkpt>
<trkpt lat="46.16421" lon="7.93934"><ele></ele><time>2025-8-20T11:46:14Z</time></trkpt>
<trkpt lat="46.16422" lon="7.93935"><ele></ele><time>2025-8-20T11:46:17Z</time></trkpt>
<trkpt lat="46.16422" lon="7.93934"><ele></ele><time>2025-8-20T11:46:20Z</time></trkpt>
<trkpt lat="46.16423" lon="7.93935"><ele></ele><time>2025-8-20T11:46:23Z</time></trkpt>
<trkpt lat="46.16422" lon="7.93934"><ele></ele><time>2025-8-20T11:46:26Z</time></trkpt>
<trkpt lat="46.16421" lon="7.93934"><ele></ele><time>2025-8-20T11:46:29Z</time></trkpt>
<trkpt lat="46.16421" lon="7.93933"><ele></ele><time>2025-8-20T11:46:32Z</time></trkpt>
<trkpt lat="46.16422" lon="7.93934"><ele></ele><time>2025-8-20T11:46:35Z</time></trkpt>
<trkpt lat="46.16421" lon="7.93933"><ele></ele><time>2025-8-20T11:46:38Z</time></trkpt>
<trkpt lat="46.16421" lon="7.93933"><ele></ele><time>2025-8-20T11:46:41Z</time></trkpt>
<trkpt lat="46.16422" lon="7.93934"><ele></ele><time>2025-8-20T11:46:44Z</time></trkpt>
<trkpt lat="46.16421" lon="7.93933"><ele></ele><time>2025-8-20T11:46:47Z</time></trkpt>
<trkpt lat="46.16421" lon="7.93933"><ele></ele><time>2025-8-20T11:46:50Z</time></trkpt>
<trkpt lat="46.16421" lon="7.93933"><ele></ele><time>2025-8-20T11:46:53Z</time></trkpt>
<trkpt lat="46.16421" lon="7.93933"><ele></ele><time>2025-8-20T11:46:56Z</time></trkpt>
<trkpt lat="46.16421" lon="7.93934"><ele></ele><time>2025-8-20T11:46:59Z</time></trkpt>
<trkpt lat="46.16421" lon="7.93935"><ele></ele><time>2025-8-20T11:47:2Z</time></trkpt>
<trkpt lat="46.16421" lon="7.93935"><ele></ele><time>2025-8-20T11:47:5Z</time></trkpt>
<trkpt lat="46.16418" lon="7.93936"><ele></ele><time>2025-8-20T11:47:8Z</time></trkpt>
<trkpt lat="46.16417" lon="7.93939"><ele></ele><time>2025-8-20T11:47:11Z</time></trkpt>
<trkpt lat="46.16415" lon="7.93945"><ele></ele><time>2025-8-20T11:47:14Z</time></trkpt>
<trkpt lat="46.16412" lon="7.93951"><ele></ele><time>2025-8-20T11:47:17Z</time></trkpt>
<trkpt lat="46.16411" lon="7.93954"><ele></ele><time>2025-8-20T11:47:20Z</time></trkpt>
<trkpt lat="46.16409" lon="7.93958"><ele></ele><time>2025-8-20T11:47:23Z</time></trkpt>
<trkpt lat="46.16408" lon="7.93961"><ele></ele><time>2025-8-20T11:47:26Z</time></trkpt>
<trkpt lat="46.16404" lon="7.9397"><ele></ele><time>2025-8-20T11:47:29Z</time></trkpt>
<trkpt lat="46.16402" lon="7.93973"><ele></ele><time>2025-8-20T11:47:32Z</time></trkpt>
<trkpt lat="46.164" lon="7.93974"><ele></ele><time>2025-8-20T11:47:35Z</time></trkpt>
<trkpt lat="46.16393" lon="7.93979"><ele></ele><time>2025-8-20T11:47:38Z</time></trkpt>
<trkpt lat="46.16392" lon="7.93979"><ele></ele><time>2025-8-20T11:47:41Z</time></trkpt>
<trkpt lat="46.16389" lon="7.93981"><ele></ele><time>2025-8-20T11:47:44Z</time></trkpt>
<trkpt lat="46.16386" lon="7.93982"><ele></ele><time>2025-8-20T11:47:47Z</time></trkpt>
<trkpt lat="46.16385" lon="7.93983"><ele></ele><time>2025-8-20T11:47:50Z</time></trkpt>
<trkpt lat="46.16381" lon="7.93986"><ele></ele><time>2025-8-20T11:47:53Z</time></trkpt>
<trkpt lat="46.1638" lon="7.93987"><ele></ele><time>2025-8-20T11:47:56Z</time></trkpt>
<trkpt lat="46.16378" lon="7.93988"><ele></ele><time>2025-8-20T11:47:59Z</time></trkpt>
<trkpt lat="46.16375" lon="7.93992"><ele></ele><time>2025-8-20T11:48:2Z</time></trkpt>
<trkpt lat="46.16374" lon="7.93993"><ele></ele><time>2025-8-20T11:48:5Z</time></trkpt>
<trkpt lat="46.16373" lon="7.93994"><ele></ele><time>2025-8-20T11:48:8Z</time></trkpt>
<trkpt lat="46.16372" lon="7.93994"><ele></ele><time>2025-8-20T11:48:11Z</time></trkpt>
<trkpt lat="46.16368" lon="7.93998"><ele></ele><time>2025-8-20T11:48:14Z</time></trkpt>
<trkpt lat="46.16364" lon="7.94001"><ele></ele><time>2025-8-20T11:48:17Z</time></trkpt>
<trkpt lat="46.16363" lon="7.94002"><ele></ele><time>2025-8-20T11:48:20Z</time></trkpt>
<trkpt lat="46.16358" lon="7.94007"><ele></ele><time>2025-8-20T11:48:23Z</time></trkpt>
<trkpt lat="46.16358" lon="7.94008"><ele></ele><time>2025-8-20T11:48:26Z</time></trkpt>
<trkpt lat="46.16356" lon="7.94011"><ele></ele><time>2025-8-20T11:48:29Z</time></trkpt>
<trkpt lat="46.16353" lon="7.94014"><ele></ele><time>2025-8-20T11:48:32Z</time></trkpt>
<trkpt lat="46.1635" lon="7.94019"><ele></ele><time>2025-8-20T11:48:35Z</time></trkpt>
<trkpt lat="46.16347" lon="7.94024"><ele></ele><time>2025-8-20T11:48:38Z</time></trkpt>
<trkpt lat="46.16344" lon="7.94029"><ele></ele><time>2025-8-20T11:48:41Z</time></trkpt>
<trkpt lat="46.16343" lon="7.94032"><ele></ele><time>2025-8-20T11:48:44Z</time></trkpt>
<trkpt lat="46.1634" lon="7.94038"><ele></ele><time>2025-8-20T11:48:47Z</time></trkpt>
<trkpt lat="46.16337" lon="7.94047"><ele></ele><time>2025-8-20T11:48:50Z</time></trkpt>
<trkpt lat="46.16331" lon="7.94058"><ele></ele><time>2025-8-20T11:48:53Z</time></trkpt>
<trkpt lat="46.16325" lon="7.94063"><ele></ele><time>2025-8-20T11:48:56Z</time></trkpt>
<trkpt lat="46.16323" lon="7.94066"><ele></ele><time>2025-8-20T11:48:59Z</time></trkpt>
<trkpt lat="46.16319" lon="7.94071"><ele></ele><time>2025-8-20T11:49:2Z</time></trkpt>
<trkpt lat="46.16317" lon="7.94073"><ele></ele><time>2025-8-20T11:49:5Z</time></trkpt>
<trkpt lat="46.16312" lon="7.9408"><ele></ele><time>2025-8-20T11:49:8Z</time></trkpt>
<trkpt lat="46.16311" lon="7.94081"><ele></ele><time>2025-8-20T11:49:11Z</time></trkpt>
<trkpt lat="46.16302" lon="7.94088"><ele></ele><time>2025-8-20T11:49:14Z</time></trkpt>
<trkpt lat="46.163" lon="7.9409"><ele></ele><time>2025-8-20T11:49:17Z</time></trkpt>
<trkpt lat="46.16292" lon="7.94095"><ele></ele><time>2025-8-20T11:49:20Z</time></trkpt>
<trkpt lat="46.16285" lon="7.941"><ele></ele><time>2025-8-20T11:49:23Z</time></trkpt>
<trkpt lat="46.16283" lon="7.94102"><ele></ele><time>2025-8-20T11:49:26Z</time></trkpt>
<trkpt lat="46.16279" lon="7.94107"><ele></ele><time>2025-8-20T11:49:29Z</time></trkpt>
<trkpt lat="46.16278" lon="7.94108"><ele></ele><time>2025-8-20T11:49:32Z</time></trkpt>
<trkpt lat="46.16274" lon="7.94112"><ele></ele><time>2025-8-20T11:49:35Z</time></trkpt>
<trkpt lat="46.16272" lon="7.94115"><ele></ele><time>2025-8-20T11:49:38Z</time></trkpt>
<trkpt lat="46.16268" lon="7.94122"><ele></ele><time>2025-8-20T11:49:41Z</time></trkpt>
<trkpt lat="46.16267" lon="7.94123"><ele></ele><time>2025-8-20T11:49:44Z</time></trkpt>
<trkpt lat="46.16262" lon="7.94133"><ele></ele><time>2025-8-20T11:49:47Z</time></trkpt>
<trkpt lat="46.16258" lon="7.94143"><ele></ele><time>2025-8-20T11:49:50Z</time></trkpt>
<trkpt lat="46.16256" lon="7.94148"><ele></ele><time>2025-8-20T11:49:53Z</time></trkpt>
<trkpt lat="46.16253" lon="7.94157"><ele></ele><time>2025-8-20T11:49:56Z</time></trkpt>
<trkpt lat="46.16252" lon="7.94163"><ele></ele><time>2025-8-20T11:49:59Z</time></trkpt>
<trkpt lat="46.16251" lon="7.94167"><ele></ele><time>2025-8-20T11:50:2Z</time></trkpt>
<trkpt lat="46.1625" lon="7.9418"><ele></ele><time>2025-8-20T11:50:5Z</time></trkpt>
<trkpt lat="46.1625" lon="7.94182"><ele></ele><time>2025-8-20T11:50:8Z</time></trkpt>
<trkpt lat="46.16247" lon="7.94193"><ele></ele><time>2025-8-20T11:50:11Z</time></trkpt>
<trkpt lat="46.16247" lon="7.94202"><ele></ele><time>2025-8-20T11:50:14Z</time></trkpt>
<trkpt lat="46.16248" lon="7.94207"><ele></ele><time>2025-8-20T11:50:17Z</time></trkpt>
<trkpt lat="46.16247" lon="7.94214"><ele></ele><time>2025-8-20T11:50:20Z</time></trkpt>
<trkpt lat="46.16247" lon="7.94219"><ele></ele><time>2025-8-20T11:50:23Z</time></trkpt>
<trkpt lat="46.16248" lon="7.94229"><ele></ele><time>2025-8-20T11:50:26Z</time></trkpt>
<trkpt lat="46.16249" lon="7.94232"><ele></ele><time>2025-8-20T11:50:29Z</time></trkpt>
<trkpt lat="46.16249" lon="7.9424"><ele></ele><time>2025-8-20T11:50:32Z</time></trkpt>
<trkpt lat="46.16249" lon="7.94247"><ele></ele><time>2025-8-20T11:50:35Z</time></trkpt>
<trkpt lat="46.16252" lon="7.94258"><ele></ele><time>2025-8-20T11:50:38Z</time></trkpt>
<trkpt lat="46.16252" lon="7.94259"><ele></ele><time>2025-8-20T11:50:41Z</time></trkpt>
<trkpt lat="46.16257" lon="7.94268"><ele></ele><time>2025-8-20T11:50:44Z</time></trkpt>
<trkpt lat="46.16259" lon="7.94271"><ele></ele><time>2025-8-20T11:50:47Z</time></trkpt>
<trkpt lat="46.16263" lon="7.94278"><ele></ele><time>2025-8-20T11:50:50Z</time></trkpt>
<trkpt lat="46.16267" lon="7.94285"><ele></ele><time>2025-8-20T11:50:53Z</time></trkpt>
<trkpt lat="46.16268" lon="7.94288"><ele></ele><time>2025-8-20T11:50:56Z</time></trkpt>
<trkpt lat="46.16271" lon="7.94297"><ele></ele><time>2025-8-20T11:50:59Z</time></trkpt>
<trkpt lat="46.16271" lon="7.94297"><ele></ele><time>2025-8-20T11:51:2Z</time></trkpt>
<trkpt lat="46.16271" lon="7.94297"><ele></ele><time>2025-8-20T11:51:5Z</time></trkpt>
<trkpt lat="46.1627" lon="7.94298"><ele></ele><time>2025-8-20T11:51:8Z</time></trkpt>
<trkpt lat="46.16272" lon="7.94298"><ele></ele><time>2025-8-20T11:51:11Z</time></trkpt>
<trkpt lat="46.16274" lon="7.94307"><ele></ele><time>2025-8-20T11:51:14Z</time></trkpt>
<trkpt lat="46.16275" lon="7.94311"><ele></ele><time>2025-8-20T11:51:17Z</time></trkpt>
<trkpt lat="46.16276" lon="7.94318"><ele></ele><time>2025-8-20T11:51:20Z</time></trkpt>
<trkpt lat="46.16276" lon="7.94324"><ele></ele><time>2025-8-20T11:51:23Z</time></trkpt>
<trkpt lat="46.16276" lon="7.94331"><ele></ele><time>2025-8-20T11:51:26Z</time></trkpt>
<trkpt lat="46.16276" lon="7.94333"><ele></ele><time>2025-8-20T11:51:29Z</time></trkpt>
<trkpt lat="46.16277" lon="7.94343"><ele></ele><time>2025-8-20T11:51:32Z</time></trkpt>
<trkpt lat="46.16276" lon="7.94352"><ele></ele><time>2025-8-20T11:51:35Z</time></trkpt>
<trkpt lat="46.16276" lon="7.94355"><ele></ele><time>2025-8-20T11:51:38Z</time></trkpt>
<trkpt lat="46.16276" lon="7.94363"><ele></ele><time>2025-8-20T11:51:41Z</time></trkpt>
<trkpt lat="46.16275" lon="7.9437"><ele></ele><time>2025-8-20T11:51:44Z</time></trkpt>
<trkpt lat="46.16275" lon="7.94372"><ele></ele><time>2025-8-20T11:51:47Z</time></trkpt>
<trkpt lat="46.16272" lon="7.94381"><ele></ele><time>2025-8-20T11:51:50Z</time></trkpt>
<trkpt lat="46.1627" lon="7.94383"><ele></ele><time>2025-8-20T11:51:53Z</time></trkpt>
<trkpt lat="46.16264" lon="7.94386"><ele></ele><time>2025-8-20T11:51:56Z</time></trkpt>
<trkpt lat="46.16263" lon="7.94386"><ele></ele><time>2025-8-20T11:51:59Z</time></trkpt>
<trkpt lat="46.16257" lon="7.94384"><ele></ele><time>2025-8-20T11:52:2Z</time></trkpt>
<trkpt lat="46.16256" lon="7.94384"><ele></ele><time>2025-8-20T11:52:5Z</time></trkpt>
<trkpt lat="46.16251" lon="7.94383"><ele></ele><time>2025-8-20T11:52:8Z</time></trkpt>
<trkpt lat="46.16249" lon="7.94383"><ele></ele><time>2025-8-20T11:52:11Z</time></trkpt>
<trkpt lat="46.16244" lon="7.9438"><ele></ele><time>2025-8-20T11:52:14Z</time></trkpt>
<trkpt lat="46.16242" lon="7.9438"><ele></ele><time>2025-8-20T11:52:17Z</time></trkpt>
<trkpt lat="46.16239" lon="7.94384"><ele></ele><time>2025-8-20T11:52:20Z</time></trkpt>
<trkpt lat="46.16233" lon="7.94392"><ele></ele><time>2025-8-20T11:52:23Z</time></trkpt>
<trkpt lat="46.16232" lon="7.944"><ele></ele><time>2025-8-20T11:52:26Z</time></trkpt>
<trkpt lat="46.16231" lon="7.94404"><ele></ele><time>2025-8-20T11:52:29Z</time></trkpt>
<trkpt lat="46.16231" lon="7.94409"><ele></ele><time>2025-8-20T11:52:32Z</time></trkpt>
<trkpt lat="46.16231" lon="7.94412"><ele></ele><time>2025-8-20T11:52:35Z</time></trkpt>
<trkpt lat="46.1623" lon="7.94416"><ele></ele><time>2025-8-20T11:52:38Z</time></trkpt>
<trkpt lat="46.16228" lon="7.94422"><ele></ele><time>2025-8-20T11:52:41Z</time></trkpt>
<trkpt lat="46.16226" lon="7.94429"><ele></ele><time>2025-8-20T11:52:44Z</time></trkpt>
<trkpt lat="46.16225" lon="7.94433"><ele></ele><time>2025-8-20T11:52:47Z</time></trkpt>
<trkpt lat="46.16224" lon="7.94439"><ele></ele><time>2025-8-20T11:52:50Z</time></trkpt>
<trkpt lat="46.16224" lon="7.9444"><ele></ele><time>2025-8-20T11:52:53Z</time></trkpt>
<trkpt lat="46.16223" lon="7.94448"><ele></ele><time>2025-8-20T11:52:56Z</time></trkpt>
<trkpt lat="46.16223" lon="7.9445"><ele></ele><time>2025-8-20T11:52:59Z</time></trkpt>
<trkpt lat="46.16223" lon="7.94458"><ele></ele><time>2025-8-20T11:53:2Z</time></trkpt>
<trkpt lat="46.16223" lon="7.94458"><ele></ele><time>2025-8-20T11:53:5Z</time></trkpt>
<trkpt lat="46.16223" lon="7.94467"><ele></ele><time>2025-8-20T11:53:8Z</time></trkpt>
<trkpt lat="46.16223" lon="7.94476"><ele></ele><time>2025-8-20T11:53:11Z</time></trkpt>
<trkpt lat="46.16223" lon="7.94483"><ele></ele><time>2025-8-20T11:53:14Z</time></trkpt>
<trkpt lat="46.16222" lon="7.94488"><ele></ele><time>2025-8-20T11:53:17Z</time></trkpt>
<trkpt lat="46.16221" lon="7.94493"><ele></ele><time>2025-8-20T11:53:20Z</time></trkpt>
<trkpt lat="46.16215" lon="7.94504"><ele></ele><time>2025-8-20T11:53:23Z</time></trkpt>
<trkpt lat="46.16214" lon="7.94506"><ele></ele><time>2025-8-20T11:53:26Z</time></trkpt>
<trkpt lat="46.16207" lon="7.94515"><ele></ele><time>2025-8-20T11:53:29Z</time></trkpt>
<trkpt lat="46.16205" lon="7.94519"><ele></ele><time>2025-8-20T11:53:32Z</time></trkpt>
<trkpt lat="46.16201" lon="7.94529"><ele></ele><time>2025-8-20T11:53:35Z</time></trkpt>
<trkpt lat="46.162" lon="7.94534"><ele></ele><time>2025-8-20T11:53:38Z</time></trkpt>
<trkpt lat="46.16199" lon="7.94539"><ele></ele><time>2025-8-20T11:53:41Z</time></trkpt>
<trkpt lat="46.16197" lon="7.94549"><ele></ele><time>2025-8-20T11:53:44Z</time></trkpt>
<trkpt lat="46.16196" lon="7.94553"><ele></ele><time>2025-8-20T11:53:47Z</time></trkpt>
<trkpt lat="46.16196" lon="7.94561"><ele></ele><time>2025-8-20T11:53:50Z</time></trkpt>
<trkpt lat="46.16196" lon="7.94563"><ele></ele><time>2025-8-20T11:53:53Z</time></trkpt>
<trkpt lat="46.16198" lon="7.9457"><ele></ele><time>2025-8-20T11:53:56Z</time></trkpt>
<trkpt lat="46.16199" lon="7.94571"><ele></ele><time>2025-8-20T11:53:59Z</time></trkpt>
<trkpt lat="46.16204" lon="7.94574"><ele></ele><time>2025-8-20T11:54:2Z</time></trkpt>
<trkpt lat="46.16205" lon="7.94575"><ele></ele><time>2025-8-20T11:54:5Z</time></trkpt>
<trkpt lat="46.1621" lon="7.94577"><ele></ele><time>2025-8-20T11:54:8Z</time></trkpt>
<trkpt lat="46.16211" lon="7.94577"><ele></ele><time>2025-8-20T11:54:11Z</time></trkpt>
<trkpt lat="46.16214" lon="7.94578"><ele></ele><time>2025-8-20T11:54:14Z</time></trkpt>
<trkpt lat="46.16215" lon="7.94578"><ele></ele><time>2025-8-20T11:54:17Z</time></trkpt>
<trkpt lat="46.16219" lon="7.94578"><ele></ele><time>2025-8-20T11:54:20Z</time></trkpt>
<trkpt lat="46.16221" lon="7.94579"><ele></ele><time>2025-8-20T11:54:23Z</time></trkpt>
<trkpt lat="46.16223" lon="7.94579"><ele></ele><time>2025-8-20T11:54:26Z</time></trkpt>
<trkpt lat="46.16226" lon="7.94578"><ele></ele><time>2025-8-20T11:54:29Z</time></trkpt>
<trkpt lat="46.16228" lon="7.94578"><ele></ele><time>2025-8-20T11:54:32Z</time></trkpt>
<trkpt lat="46.16229" lon="7.9458"><ele></ele><time>2025-8-20T11:54:35Z</time></trkpt>
<trkpt lat="46.16232" lon="7.94588"><ele></ele><time>2025-8-20T11:54:38Z</time></trkpt>
<trkpt lat="46.16232" lon="7.9459"><ele></ele><time>2025-8-20T11:54:41Z</time></trkpt>
<trkpt lat="46.16232" lon="7.94597"><ele></ele><time>2025-8-20T11:54:44Z</time></trkpt>
<trkpt lat="46.16232" lon="7.94599"><ele></ele><time>2025-8-20T11:54:47Z</time></trkpt>
<trkpt lat="46.16231" lon="7.94605"><ele></ele><time>2025-8-20T11:54:50Z</time></trkpt>
<trkpt lat="46.16231" lon="7.94609"><ele></ele><time>2025-8-20T11:54:53Z</time></trkpt>
<trkpt lat="46.16229" lon="7.94615"><ele></ele><time>2025-8-20T11:54:56Z</time></trkpt>
<trkpt lat="46.16229" lon="7.94618"><ele></ele><time>2025-8-20T11:54:59Z</time></trkpt>
<trkpt lat="46.1623" lon="7.94621"><ele></ele><time>2025-8-20T11:55:2Z</time></trkpt>
<trkpt lat="46.16232" lon="7.94625"><ele></ele><time>2025-8-20T11:55:5Z</time></trkpt>
<trkpt lat="46.16234" lon="7.94629"><ele></ele><time>2025-8-20T11:55:8Z</time></trkpt>
<trkpt lat="46.16237" lon="7.94629"><ele></ele><time>2025-8-20T11:55:11Z</time></trkpt>
<trkpt lat="46.16238" lon="7.94629"><ele></ele><time>2025-8-20T11:55:14Z</time></trkpt>
<trkpt lat="46.16242" lon="7.94624"><ele></ele><time>2025-8-20T11:55:17Z</time></trkpt>
<trkpt lat="46.16244" lon="7.9462"><ele></ele><time>2025-8-20T11:55:20Z</time></trkpt>
<trkpt lat="46.16245" lon="7.94617"><ele></ele><time>2025-8-20T11:55:23Z</time></trkpt>
<trkpt lat="46.16246" lon="7.94613"><ele></ele><time>2025-8-20T11:55:26Z</time></trkpt>
<trkpt lat="46.16246" lon="7.94612"><ele></ele><time>2025-8-20T11:55:29Z</time></trkpt>
<trkpt lat="46.16249" lon="7.94608"><ele></ele><time>2025-8-20T11:55:32Z</time></trkpt>
<trkpt lat="46.1625" lon="7.94607"><ele></ele><time>2025-8-20T11:55:35Z</time></trkpt>
<trkpt lat="46.16257" lon="7.94603"><ele></ele><time>2025-8-20T11:55:38Z</time></trkpt>
<trkpt lat="46.16258" lon="7.94602"><ele></ele><time>2025-8-20T11:55:41Z</time></trkpt>
<trkpt lat="46.16263" lon="7.94608"><ele></ele><time>2025-8-20T11:55:44Z</time></trkpt>
<trkpt lat="46.16265" lon="7.94614"><ele></ele><time>2025-8-20T11:55:47Z</time></trkpt>
<trkpt lat="46.16264" lon="7.94617"><ele></ele><time>2025-8-20T11:55:50Z</time></trkpt>
<trkpt lat="46.16264" lon="7.94619"><ele></ele><time>2025-8-20T11:55:53Z</time></trkpt>
<trkpt lat="46.16261" lon="7.94624"><ele></ele><time>2025-8-20T11:55:56Z</time></trkpt>
<trkpt lat="46.1626" lon="7.94627"><ele></ele><time>2025-8-20T11:55:59Z</time></trkpt>
<trkpt lat="46.16257" lon="7.94638"><ele></ele><time>2025-8-20T11:56:2Z</time></trkpt>
<trkpt lat="46.16253" lon="7.94655"><ele></ele><time>2025-8-20T11:56:5Z</time></trkpt>
<trkpt lat="46.1625" lon="7.94682"><ele></ele><time>2025-8-20T11:56:8Z</time></trkpt>
<trkpt lat="46.16242" lon="7.94692"><ele></ele><time>2025-8-20T11:56:11Z</time></trkpt>
<trkpt lat="46.16229" lon="7.94705"><ele></ele><time>2025-8-20T11:56:14Z</time></trkpt>
<trkpt lat="46.16221" lon="7.94713"><ele></ele><time>2025-8-20T11:56:17Z</time></trkpt>
<trkpt lat="46.16214" lon="7.94718"><ele></ele><time>2025-8-20T11:56:20Z</time></trkpt>
<trkpt lat="46.16211" lon="7.94719"><ele></ele><time>2025-8-20T11:56:23Z</time></trkpt>
<trkpt lat="46.1621" lon="7.9472"><ele></ele><time>2025-8-20T11:56:26Z</time></trkpt>
<trkpt lat="46.1621" lon="7.9472"><ele></ele><time>2025-8-20T11:56:29Z</time></trkpt>
<trkpt lat="46.1621" lon="7.9472"><ele></ele><time>2025-8-20T11:56:32Z</time></trkpt>
<trkpt lat="46.1621" lon="7.9472"><ele></ele><time>2025-8-20T11:56:35Z</time></trkpt>
<trkpt lat="46.16213" lon="7.94718"><ele></ele><time>2025-8-20T11:56:38Z</time></trkpt>
<trkpt lat="46.16214" lon="7.94716"><ele></ele><time>2025-8-20T11:56:41Z</time></trkpt>
<trkpt lat="46.16216" lon="7.94715"><ele></ele><time>2025-8-20T11:56:44Z</time></trkpt>
<trkpt lat="46.16227" lon="7.94706"><ele></ele><time>2025-8-20T11:56:47Z</time></trkpt>
<trkpt lat="46.16238" lon="7.94697"><ele></ele><time>2025-8-20T11:56:50Z</time></trkpt>
<trkpt lat="46.16244" lon="7.94693"><ele></ele><time>2025-8-20T11:56:53Z</time></trkpt>
<trkpt lat="46.16249" lon="7.94678"><ele></ele><time>2025-8-20T11:56:56Z</time></trkpt>
<trkpt lat="46.16249" lon="7.94668"><ele></ele><time>2025-8-20T11:56:59Z</time></trkpt>
<trkpt lat="46.16249" lon="7.94663"><ele></ele><time>2025-8-20T11:57:2Z</time></trkpt>
<trkpt lat="46.16252" lon="7.94646"><ele></ele><time>2025-8-20T11:57:5Z</time></trkpt>
<trkpt lat="46.16257" lon="7.94635"><ele></ele><time>2025-8-20T11:57:8Z</time></trkpt>
<trkpt lat="46.16262" lon="7.94616"><ele></ele><time>2025-8-20T11:57:11Z</time></trkpt>
<trkpt lat="46.16261" lon="7.94608"><ele></ele><time>2025-8-20T11:57:14Z</time></trkpt>
<trkpt lat="46.1626" lon="7.94604"><ele></ele><time>2025-8-20T11:57:17Z</time></trkpt>
<trkpt lat="46.16259" lon="7.94598"><ele></ele><time>2025-8-20T11:57:20Z</time></trkpt>
<trkpt lat="46.16259" lon="7.94595"><ele></ele><time>2025-8-20T11:57:23Z</time></trkpt>
<trkpt lat="46.16264" lon="7.94589"><ele></ele><time>2025-8-20T11:57:26Z</time></trkpt>
<trkpt lat="46.1627" lon="7.94583"><ele></ele><time>2025-8-20T11:57:29Z</time></trkpt>
<trkpt lat="46.16276" lon="7.94578"><ele></ele><time>2025-8-20T11:57:32Z</time></trkpt>
<trkpt lat="46.16276" lon="7.94577"><ele></ele><time>2025-8-20T11:57:35Z</time></trkpt>
<trkpt lat="46.16276" lon="7.94577"><ele></ele><time>2025-8-20T11:57:38Z</time></trkpt>
<trkpt lat="46.16277" lon="7.94575"><ele></ele><time>2025-8-20T11:57:41Z</time></trkpt>
<trkpt lat="46.16277" lon="7.94573"><ele></ele><time>2025-8-20T11:57:44Z</time></trkpt>
<trkpt lat="46.16278" lon="7.94569"><ele></ele><time>2025-8-20T11:57:47Z</time></trkpt>
<trkpt lat="46.16277" lon="7.94569"><ele></ele><time>2025-8-20T11:57:50Z</time></trkpt>
<trkpt lat="46.16279" lon="7.94568"><ele></ele><time>2025-8-20T11:57:53Z</time></trkpt>
<trkpt lat="46.16279" lon="7.94566"><ele></ele><time>2025-8-20T11:57:56Z</time></trkpt>
<trkpt lat="46.1628" lon="7.94564"><ele></ele><time>2025-8-20T11:57:59Z</time></trkpt>
<trkpt lat="46.16283" lon="7.94561"><ele></ele><time>2025-8-20T11:58:2Z</time></trkpt>
<trkpt lat="46.16286" lon="7.94558"><ele></ele><time>2025-8-20T11:58:5Z</time></trkpt>
<trkpt lat="46.16289" lon="7.94552"><ele></ele><time>2025-8-20T11:58:8Z</time></trkpt>
<trkpt lat="46.16289" lon="7.94551"><ele></ele><time>2025-8-20T11:58:11Z</time></trkpt>
<trkpt lat="46.16293" lon="7.94547"><ele></ele><time>2025-8-20T11:58:14Z</time></trkpt>
<trkpt lat="46.16294" lon="7.94545"><ele></ele><time>2025-8-20T11:58:17Z</time></trkpt>
<trkpt lat="46.16295" lon="7.94543"><ele></ele><time>2025-8-20T11:58:20Z</time></trkpt>
<trkpt lat="46.16298" lon="7.94542"><ele></ele><time>2025-8-20T11:58:23Z</time></trkpt>
<trkpt lat="46.16299" lon="7.94542"><ele></ele><time>2025-8-20T11:58:26Z</time></trkpt>
<trkpt lat="46.163" lon="7.94541"><ele></ele><time>2025-8-20T11:58:29Z</time></trkpt>
<trkpt lat="46.16304" lon="7.94538"><ele></ele><time>2025-8-20T11:58:32Z</time></trkpt>
<trkpt lat="46.16305" lon="7.94538"><ele></ele><time>2025-8-20T11:58:35Z</time></trkpt>
<trkpt lat="46.16308" lon="7.94537"><ele></ele><time>2025-8-20T11:58:38Z</time></trkpt>
<trkpt lat="46.16311" lon="7.94535"><ele></ele><time>2025-8-20T11:58:41Z</time></trkpt>
<trkpt lat="46.16313" lon="7.94535"><ele></ele><time>2025-8-20T11:58:44Z</time></trkpt>
<trkpt lat="46.16318" lon="7.94538"><ele></ele><time>2025-8-20T11:58:47Z</time></trkpt>
<trkpt lat="46.16319" lon="7.94539"><ele></ele><time>2025-8-20T11:58:50Z</time></trkpt>
<trkpt lat="46.16322" lon="7.94544"><ele></ele><time>2025-8-20T11:58:53Z</time></trkpt>
<trkpt lat="46.16323" lon="7.94547"><ele></ele><time>2025-8-20T11:58:56Z</time></trkpt>
<trkpt lat="46.16325" lon="7.94555"><ele></ele><time>2025-8-20T11:58:59Z</time></trkpt>
<trkpt lat="46.16325" lon="7.94561"><ele></ele><time>2025-8-20T11:59:2Z</time></trkpt>
<trkpt lat="46.16326" lon="7.94564"><ele></ele><time>2025-8-20T11:59:5Z</time></trkpt>
<trkpt lat="46.16327" lon="7.94573"><ele></ele><time>2025-8-20T11:59:8Z</time></trkpt>
<trkpt lat="46.16327" lon="7.9458"><ele></ele><time>2025-8-20T11:59:11Z</time></trkpt>
<trkpt lat="46.16328" lon="7.94584"><ele></ele><time>2025-8-20T11:59:14Z</time></trkpt>
<trkpt lat="46.16328" lon="7.94588"><ele></ele><time>2025-8-20T11:59:17Z</time></trkpt>
<trkpt lat="46.16329" lon="7.94595"><ele></ele><time>2025-8-20T11:59:20Z</time></trkpt>
<trkpt lat="46.16329" lon="7.94601"><ele></ele><time>2025-8-20T11:59:23Z</time></trkpt>
<trkpt lat="46.16329" lon="7.94606"><ele></ele><time>2025-8-20T11:59:26Z</time></trkpt>
<trkpt lat="46.16328" lon="7.94613"><ele></ele><time>2025-8-20T11:59:29Z</time></trkpt>
<trkpt lat="46.16327" lon="7.94616"><ele></ele><time>2025-8-20T11:59:32Z</time></trkpt>
<trkpt lat="46.16325" lon="7.94624"><ele></ele><time>2025-8-20T11:59:35Z</time></trkpt>
<trkpt lat="46.16324" lon="7.94627"><ele></ele><time>2025-8-20T11:59:38Z</time></trkpt>
<trkpt lat="46.16323" lon="7.94632"><ele></ele><time>2025-8-20T11:59:41Z</time></trkpt>
<trkpt lat="46.16322" lon="7.94635"><ele></ele><time>2025-8-20T11:59:44Z</time></trkpt>
<trkpt lat="46.16322" lon="7.94636"><ele></ele><time>2025-8-20T11:59:47Z</time></trkpt>
<trkpt lat="46.1632" lon="7.94642"><ele></ele><time>2025-8-20T11:59:50Z</time></trkpt>
<trkpt lat="46.1632" lon="7.94645"><ele></ele><time>2025-8-20T11:59:53Z</time></trkpt>
<trkpt lat="46.16318" lon="7.94651"><ele></ele><time>2025-8-20T11:59:56Z</time></trkpt>
<trkpt lat="46.16318" lon="7.94651"><ele></ele><time>2025-8-20T11:59:59Z</time></trkpt>
<trkpt lat="46.16318" lon="7.94652"><ele></ele><time>2025-8-20T12:0:2Z</time></trkpt>
<trkpt lat="46.16318" lon="7.94651"><ele></ele><time>2025-8-20T12:0:5Z</time></trkpt>
<trkpt lat="46.16319" lon="7.94651"><ele></ele><time>2025-8-20T12:0:8Z</time></trkpt>
<trkpt lat="46.16318" lon="7.94652"><ele></ele><time>2025-8-20T12:0:11Z</time></trkpt>
<trkpt lat="46.16318" lon="7.94652"><ele></ele><time>2025-8-20T12:0:14Z</time></trkpt>
<trkpt lat="46.16318" lon="7.94652"><ele></ele><time>2025-8-20T12:0:17Z</time></trkpt>
<trkpt lat="46.16318" lon="7.94652"><ele></ele><time>2025-8-20T12:0:20Z</time></trkpt>
<trkpt lat="46.16318" lon="7.94652"><ele></ele><time>2025-8-20T12:0:23Z</time></trkpt>
<trkpt lat="46.16318" lon="7.94652"><ele></ele><time>2025-8-20T12:0:26Z</time></trkpt>
<trkpt lat="46.16318" lon="7.94652"><ele></ele><time>2025-8-20T12:0:29Z</time></trkpt>
<trkpt lat="46.16318" lon="7.94652"><ele></ele><time>2025-8-20T12:0:32Z</time></trkpt>
<trkpt lat="46.16318" lon="7.94652"><ele></ele><time>2025-8-20T12:0:35Z</time></trkpt>
<trkpt lat="46.16318" lon="7.94652"><ele></ele><time>2025-8-20T12:0:38Z</time></trkpt>
<trkpt lat="46.16318" lon="7.94652"><ele></ele><time>2025-8-20T12:0:41Z</time></trkpt>
<trkpt lat="46.16318" lon="7.94651"><ele></ele><time>2025-8-20T12:0:44Z</time></trkpt>
<trkpt lat="46.16318" lon="7.94651"><ele></ele><time>2025-8-20T12:0:47Z</time></trkpt>
<trkpt lat="46.16318" lon="7.94652"><ele></ele><time>2025-8-20T12:0:50Z</time></trkpt>
<trkpt lat="46.16318" lon="7.94652"><ele></ele><time>2025-8-20T12:0:53Z</time></trkpt>
<trkpt lat="46.16318" lon="7.94652"><ele></ele><time>2025-8-20T12:0:56Z</time></trkpt>
<trkpt lat="46.16318" lon="7.94651"><ele></ele><time>2025-8-20T12:0:59Z</time></trkpt>
<trkpt lat="46.16316" lon="7.94652"><ele></ele><time>2025-8-20T12:1:2Z</time></trkpt>
<trkpt lat="46.16318" lon="7.94652"><ele></ele><time>2025-8-20T12:1:5Z</time></trkpt>
<trkpt lat="46.16318" lon="7.94652"><ele></ele><time>2025-8-20T12:1:8Z</time></trkpt>
<trkpt lat="46.16318" lon="7.94652"><ele></ele><time>2025-8-20T12:1:11Z</time></trkpt>
<trkpt lat="46.16318" lon="7.94652"><ele></ele><time>2025-8-20T12:1:14Z</time></trkpt>
<trkpt lat="46.16317" lon="7.94656"><ele></ele><time>2025-8-20T12:1:17Z</time></trkpt>
<trkpt lat="46.16318" lon="7.94656"><ele></ele><time>2025-8-20T12:1:20Z</time></trkpt>
<trkpt lat="46.16319" lon="7.94655"><ele></ele><time>2025-8-20T12:1:23Z</time></trkpt>
<trkpt lat="46.16319" lon="7.94655"><ele></ele><time>2025-8-20T12:1:26Z</time></trkpt>
<trkpt lat="46.16319" lon="7.94655"><ele></ele><time>2025-8-20T12:1:29Z</time></trkpt>
<trkpt lat="46.16319" lon="7.94655"><ele></ele><time>2025-8-20T12:1:32Z</time></trkpt>
<trkpt lat="46.16319" lon="7.94655"><ele></ele><time>2025-8-20T12:1:35Z</time></trkpt>
<trkpt lat="46.16319" lon="7.94655"><ele></ele><time>2025-8-20T12:1:38Z</time></trkpt>
<trkpt lat="46.16319" lon="7.94655"><ele></ele><time>2025-8-20T12:1:41Z</time></trkpt>
<trkpt lat="46.16316" lon="7.94656"><ele></ele><time>2025-8-20T12:1:44Z</time></trkpt>
<trkpt lat="46.16315" lon="7.94655"><ele></ele><time>2025-8-20T12:1:47Z</time></trkpt>
<trkpt lat="46.1632" lon="7.94643"><ele></ele><time>2025-8-20T12:1:50Z</time></trkpt>
<trkpt lat="46.16321" lon="7.94637"><ele></ele><time>2025-8-20T12:1:53Z</time></trkpt>
<trkpt lat="46.16322" lon="7.94639"><ele></ele><time>2025-8-20T12:1:56Z</time></trkpt>
<trkpt lat="46.16319" lon="7.94651"><ele></ele><time>2025-8-20T12:1:59Z</time></trkpt>
<trkpt lat="46.16318" lon="7.94653"><ele></ele><time>2025-8-20T12:2:2Z</time></trkpt>
<trkpt lat="46.16312" lon="7.94669"><ele></ele><time>2025-8-20T12:2:5Z</time></trkpt>
<trkpt lat="46.16306" lon="7.94687"><ele></ele><time>2025-8-20T12:2:8Z</time></trkpt>
<trkpt lat="46.16307" lon="7.94687"><ele></ele><time>2025-8-20T12:2:11Z</time></trkpt>
<trkpt lat="46.16309" lon="7.94674"><ele></ele><time>2025-8-20T12:2:14Z</time></trkpt>
<trkpt lat="46.16317" lon="7.94655"><ele></ele><time>2025-8-20T12:2:17Z</time></trkpt>
<trkpt lat="46.16318" lon="7.94652"><ele></ele><time>2025-8-20T12:2:20Z</time></trkpt>
<trkpt lat="46.16319" lon="7.94653"><ele></ele><time>2025-8-20T12:2:23Z</time></trkpt>
<trkpt lat="46.16319" lon="7.94656"><ele></ele><time>2025-8-20T12:2:26Z</time></trkpt>
<trkpt lat="46.16319" lon="7.94656"><ele></ele><time>2025-8-20T12:2:29Z</time></trkpt>
<trkpt lat="46.16319" lon="7.94656"><ele></ele><time>2025-8-20T12:2:32Z</time></trkpt>
<trkpt lat="46.16319" lon="7.94655"><ele></ele><time>2025-8-20T12:2:35Z</time></trkpt>
<trkpt lat="46.16319" lon="7.94656"><ele></ele><time>2025-8-20T12:2:38Z</time></trkpt>
<trkpt lat="46.16318" lon="7.94656"><ele></ele><time>2025-8-20T12:2:41Z</time></trkpt>
<trkpt lat="46.16319" lon="7.94655"><ele></ele><time>2025-8-20T12:2:44Z</time></trkpt>
<trkpt lat="46.16319" lon="7.94655"><ele></ele><time>2025-8-20T12:2:47Z</time></trkpt>
<trkpt lat="46.16317" lon="7.94656"><ele></ele><time>2025-8-20T12:2:50Z</time></trkpt>
<trkpt lat="46.16316" lon="7.94657"><ele></ele><time>2025-8-20T12:2:53Z</time></trkpt>
<trkpt lat="46.16312" lon="7.94669"><ele></ele><time>2025-8-20T12:2:56Z</time></trkpt>
<trkpt lat="46.16308" lon="7.94675"><ele></ele><time>2025-8-20T12:2:59Z</time></trkpt>
<trkpt lat="46.16307" lon="7.94677"><ele></ele><time>2025-8-20T12:3:2Z</time></trkpt>
<trkpt lat="46.16306" lon="7.94691"><ele></ele><time>2025-8-20T12:3:5Z</time></trkpt>
<trkpt lat="46.16306" lon="7.94694"><ele></ele><time>2025-8-20T12:3:8Z</time></trkpt>
<trkpt lat="46.16309" lon="7.94706"><ele></ele><time>2025-8-20T12:3:11Z</time></trkpt>
<trkpt lat="46.16312" lon="7.94711"><ele></ele><time>2025-8-20T12:3:14Z</time></trkpt>
<trkpt lat="46.16314" lon="7.9472"><ele></ele><time>2025-8-20T12:3:17Z</time></trkpt>
<trkpt lat="46.16315" lon="7.9473"><ele></ele><time>2025-8-20T12:3:20Z</time></trkpt>
<trkpt lat="46.16316" lon="7.94733"><ele></ele><time>2025-8-20T12:3:23Z</time></trkpt>
<trkpt lat="46.16324" lon="7.94754"><ele></ele><time>2025-8-20T12:3:26Z</time></trkpt>
<trkpt lat="46.16324" lon="7.94762"><ele></ele><time>2025-8-20T12:3:29Z</time></trkpt>
<trkpt lat="46.16323" lon="7.94777"><ele></ele><time>2025-8-20T12:3:32Z</time></trkpt>
<trkpt lat="46.16323" lon="7.9478"><ele></ele><time>2025-8-20T12:3:35Z</time></trkpt>
<trkpt lat="46.16324" lon="7.94783"><ele></ele><time>2025-8-20T12:3:38Z</time></trkpt>
<trkpt lat="46.16324" lon="7.94783"><ele></ele><time>2025-8-20T12:3:41Z</time></trkpt>
<trkpt lat="46.16324" lon="7.94783"><ele></ele><time>2025-8-20T12:3:44Z</time></trkpt>
<trkpt lat="46.16324" lon="7.94785"><ele></ele><time>2025-8-20T12:3:47Z</time></trkpt>
<trkpt lat="46.16327" lon="7.94793"><ele></ele><time>2025-8-20T12:3:50Z</time></trkpt>
<trkpt lat="46.16327" lon="7.948"><ele></ele><time>2025-8-20T12:3:53Z</time></trkpt>
<trkpt lat="46.16328" lon="7.94806"><ele></ele><time>2025-8-20T12:3:56Z</time></trkpt>
<trkpt lat="46.1633" lon="7.94809"><ele></ele><time>2025-8-20T12:3:59Z</time></trkpt>
<trkpt lat="46.16332" lon="7.94815"><ele></ele><time>2025-8-20T12:4:2Z</time></trkpt>
<trkpt lat="46.16332" lon="7.94816"><ele></ele><time>2025-8-20T12:4:5Z</time></trkpt>
<trkpt lat="46.16332" lon="7.94819"><ele></ele><time>2025-8-20T12:4:8Z</time></trkpt>
<trkpt lat="46.16332" lon="7.94824"><ele></ele><time>2025-8-20T12:4:11Z</time></trkpt>
<trkpt lat="46.16333" lon="7.94825"><ele></ele><time>2025-8-20T12:4:14Z</time></trkpt>
<trkpt lat="46.16338" lon="7.94836"><ele></ele><time>2025-8-20T12:4:17Z</time></trkpt>
<trkpt lat="46.16338" lon="7.94838"><ele></ele><time>2025-8-20T12:4:20Z</time></trkpt>
<trkpt lat="46.16338" lon="7.94838"><ele></ele><time>2025-8-20T12:4:23Z</time></trkpt>
<trkpt lat="46.16338" lon="7.94839"><ele></ele><time>2025-8-20T12:4:26Z</time></trkpt>
<trkpt lat="46.16338" lon="7.94837"><ele></ele><time>2025-8-20T12:4:29Z</time></trkpt>
<trkpt lat="46.16338" lon="7.94838"><ele></ele><time>2025-8-20T12:4:32Z</time></trkpt>
<trkpt lat="46.16339" lon="7.94837"><ele></ele><time>2025-8-20T12:4:35Z</time></trkpt>
<trkpt lat="46.16339" lon="7.94837"><ele></ele><time>2025-8-20T12:4:38Z</time></trkpt>
<trkpt lat="46.16338" lon="7.94838"><ele></ele><time>2025-8-20T12:4:41Z</time></trkpt>
<trkpt lat="46.16338" lon="7.94838"><ele></ele><time>2025-8-20T12:4:44Z</time></trkpt>
<trkpt lat="46.16338" lon="7.94838"><ele></ele><time>2025-8-20T12:4:47Z</time></trkpt>
<trkpt lat="46.16338" lon="7.94836"><ele></ele><time>2025-8-20T12:4:50Z</time></trkpt>
<trkpt lat="46.16339" lon="7.94834"><ele></ele><time>2025-8-20T12:4:53Z</time></trkpt>
<trkpt lat="46.16339" lon="7.94834"><ele></ele><time>2025-8-20T12:4:56Z</time></trkpt>
<trkpt lat="46.16338" lon="7.94835"><ele></ele><time>2025-8-20T12:4:59Z</time></trkpt>
<trkpt lat="46.16339" lon="7.94834"><ele></ele><time>2025-8-20T12:5:2Z</time></trkpt>
<trkpt lat="46.16339" lon="7.94837"><ele></ele><time>2025-8-20T12:5:5Z</time></trkpt>
<trkpt lat="46.16339" lon="7.94837"><ele></ele><time>2025-8-20T12:5:8Z</time></trkpt>
<trkpt lat="46.16339" lon="7.94837"><ele></ele><time>2025-8-20T12:5:11Z</time></trkpt>
<trkpt lat="46.16339" lon="7.94836"><ele></ele><time>2025-8-20T12:5:14Z</time></trkpt>
<trkpt lat="46.16339" lon="7.94836"><ele></ele><time>2025-8-20T12:5:17Z</time></trkpt>
<trkpt lat="46.16339" lon="7.94836"><ele></ele><time>2025-8-20T12:5:20Z</time></trkpt>
<trkpt lat="46.16338" lon="7.94838"><ele></ele><time>2025-8-20T12:5:23Z</time></trkpt>
<trkpt lat="46.1634" lon="7.94846"><ele></ele><time>2025-8-20T12:5:26Z</time></trkpt>
<trkpt lat="46.16343" lon="7.94857"><ele></ele><time>2025-8-20T12:5:29Z</time></trkpt>
<trkpt lat="46.16343" lon="7.9486"><ele></ele><time>2025-8-20T12:5:32Z</time></trkpt>
<trkpt lat="46.16344" lon="7.94865"><ele></ele><time>2025-8-20T12:5:35Z</time></trkpt>
<trkpt lat="46.16345" lon="7.9487"><ele></ele><time>2025-8-20T12:5:38Z</time></trkpt>
<trkpt lat="46.16346" lon="7.94873"><ele></ele><time>2025-8-20T12:5:41Z</time></trkpt>
<trkpt lat="46.16347" lon="7.94878"><ele></ele><time>2025-8-20T12:5:44Z</time></trkpt>
<trkpt lat="46.16348" lon="7.94883"><ele></ele><time>2025-8-20T12:5:47Z</time></trkpt>
<trkpt lat="46.16348" lon="7.94885"><ele></ele><time>2025-8-20T12:5:50Z</time></trkpt>
<trkpt lat="46.16349" lon="7.94894"><ele></ele><time>2025-8-20T12:5:53Z</time></trkpt>
<trkpt lat="46.16349" lon="7.94899"><ele></ele><time>2025-8-20T12:5:56Z</time></trkpt>
<trkpt lat="46.16349" lon="7.949"><ele></ele><time>2025-8-20T12:5:59Z</time></trkpt>
<trkpt lat="46.16349" lon="7.94904"><ele></ele><time>2025-8-20T12:6:2Z</time></trkpt>
<trkpt lat="46.16349" lon="7.94907"><ele></ele><time>2025-8-20T12:6:5Z</time></trkpt>
<trkpt lat="46.16349" lon="7.94908"><ele></ele><time>2025-8-20T12:6:8Z</time></trkpt>
<trkpt lat="46.16351" lon="7.94916"><ele></ele><time>2025-8-20T12:6:11Z</time></trkpt>
<trkpt lat="46.16353" lon="7.94917"><ele></ele><time>2025-8-20T12:6:14Z</time></trkpt>
<trkpt lat="46.16354" lon="7.94915"><ele></ele><time>2025-8-20T12:6:17Z</time></trkpt>
<trkpt lat="46.16355" lon="7.94914"><ele></ele><time>2025-8-20T12:6:20Z</time></trkpt>
<trkpt lat="46.16356" lon="7.94912"><ele></ele><time>2025-8-20T12:6:23Z</time></trkpt>
<trkpt lat="46.16358" lon="7.94905"><ele></ele><time>2025-8-20T12:6:26Z</time></trkpt>
<trkpt lat="46.16359" lon="7.94901"><ele></ele><time>2025-8-20T12:6:29Z</time></trkpt>
<trkpt lat="46.16361" lon="7.94893"><ele></ele><time>2025-8-20T12:6:32Z</time></trkpt>
<trkpt lat="46.16363" lon="7.94886"><ele></ele><time>2025-8-20T12:6:35Z</time></trkpt>
<trkpt lat="46.16365" lon="7.94881"><ele></ele><time>2025-8-20T12:6:38Z</time></trkpt>
<trkpt lat="46.16367" lon="7.94874"><ele></ele><time>2025-8-20T12:6:41Z</time></trkpt>
<trkpt lat="46.16367" lon="7.94873"><ele></ele><time>2025-8-20T12:6:44Z</time></trkpt>
<trkpt lat="46.16369" lon="7.94865"><ele></ele><time>2025-8-20T12:6:47Z</time></trkpt>
<trkpt lat="46.16369" lon="7.94864"><ele></ele><time>2025-8-20T12:6:50Z</time></trkpt>
<trkpt lat="46.16371" lon="7.94855"><ele></ele><time>2025-8-20T12:6:53Z</time></trkpt>
<trkpt lat="46.16372" lon="7.94849"><ele></ele><time>2025-8-20T12:6:56Z</time></trkpt>
<trkpt lat="46.16373" lon="7.94844"><ele></ele><time>2025-8-20T12:6:59Z</time></trkpt>
<trkpt lat="46.16374" lon="7.94842"><ele></ele><time>2025-8-20T12:7:2Z</time></trkpt>
<trkpt lat="46.16376" lon="7.94837"><ele></ele><time>2025-8-20T12:7:5Z</time></trkpt>
<trkpt lat="46.16377" lon="7.94834"><ele></ele><time>2025-8-20T12:7:8Z</time></trkpt>
<trkpt lat="46.16377" lon="7.94828"><ele></ele><time>2025-8-20T12:7:11Z</time></trkpt>
<trkpt lat="46.16378" lon="7.94825"><ele></ele><time>2025-8-20T12:7:14Z</time></trkpt>
<trkpt lat="46.16381" lon="7.94819"><ele></ele><time>2025-8-20T12:7:17Z</time></trkpt>
<trkpt lat="46.16382" lon="7.94814"><ele></ele><time>2025-8-20T12:7:20Z</time></trkpt>
<trkpt lat="46.16384" lon="7.9481"><ele></ele><time>2025-8-20T12:7:23Z</time></trkpt>
<trkpt lat="46.16388" lon="7.94806"><ele></ele><time>2025-8-20T12:7:26Z</time></trkpt>
<trkpt lat="46.16391" lon="7.94809"><ele></ele><time>2025-8-20T12:7:29Z</time></trkpt>
<trkpt lat="46.16391" lon="7.94811"><ele></ele><time>2025-8-20T12:7:32Z</time></trkpt>
<trkpt lat="46.16391" lon="7.94816"><ele></ele><time>2025-8-20T12:7:35Z</time></trkpt>
<trkpt lat="46.16388" lon="7.9482"><ele></ele><time>2025-8-20T12:7:38Z</time></trkpt>
<trkpt lat="46.16386" lon="7.94824"><ele></ele><time>2025-8-20T12:7:41Z</time></trkpt>
<trkpt lat="46.16386" lon="7.94827"><ele></ele><time>2025-8-20T12:7:44Z</time></trkpt>
<trkpt lat="46.16386" lon="7.94832"><ele></ele><time>2025-8-20T12:7:47Z</time></trkpt>
<trkpt lat="46.16386" lon="7.94837"><ele></ele><time>2025-8-20T12:7:50Z</time></trkpt>
<trkpt lat="46.16386" lon="7.94841"><ele></ele><time>2025-8-20T12:7:53Z</time></trkpt>
<trkpt lat="46.16386" lon="7.94846"><ele></ele><time>2025-8-20T12:7:56Z</time></trkpt>
<trkpt lat="46.16386" lon="7.9485"><ele></ele><time>2025-8-20T12:7:59Z</time></trkpt>
<trkpt lat="46.16386" lon="7.94854"><ele></ele><time>2025-8-20T12:8:2Z</time></trkpt>
<trkpt lat="46.16386" lon="7.9486"><ele></ele><time>2025-8-20T12:8:5Z</time></trkpt>
<trkpt lat="46.16386" lon="7.94869"><ele></ele><time>2025-8-20T12:8:8Z</time></trkpt>
<trkpt lat="46.16386" lon="7.94879"><ele></ele><time>2025-8-20T12:8:11Z</time></trkpt>
<trkpt lat="46.16386" lon="7.94886"><ele></ele><time>2025-8-20T12:8:14Z</time></trkpt>
<trkpt lat="46.16386" lon="7.9489"><ele></ele><time>2025-8-20T12:8:17Z</time></trkpt>
<trkpt lat="46.16386" lon="7.94896"><ele></ele><time>2025-8-20T12:8:20Z</time></trkpt>
<trkpt lat="46.16386" lon="7.94901"><ele></ele><time>2025-8-20T12:8:23Z</time></trkpt>
<trkpt lat="46.16386" lon="7.94904"><ele></ele><time>2025-8-20T12:8:26Z</time></trkpt>
<trkpt lat="46.16386" lon="7.94912"><ele></ele><time>2025-8-20T12:8:29Z</time></trkpt>
<trkpt lat="46.16386" lon="7.94914"><ele></ele><time>2025-8-20T12:8:32Z</time></trkpt>
<trkpt lat="46.16386" lon="7.94925"><ele></ele><time>2025-8-20T12:8:35Z</time></trkpt>
<trkpt lat="46.16386" lon="7.94931"><ele></ele><time>2025-8-20T12:8:38Z</time></trkpt>
<trkpt lat="46.16386" lon="7.94935"><ele></ele><time>2025-8-20T12:8:41Z</time></trkpt>
<trkpt lat="46.16386" lon="7.94948"><ele></ele><time>2025-8-20T12:8:44Z</time></trkpt>
<trkpt lat="46.16388" lon="7.94958"><ele></ele><time>2025-8-20T12:8:47Z</time></trkpt>
<trkpt lat="46.16388" lon="7.94963"><ele></ele><time>2025-8-20T12:8:50Z</time></trkpt>
<trkpt lat="46.16388" lon="7.94968"><ele></ele><time>2025-8-20T12:8:53Z</time></trkpt>
<trkpt lat="46.1639" lon="7.9498"><ele></ele><time>2025-8-20T12:8:56Z</time></trkpt>
<trkpt lat="46.16391" lon="7.9499"><ele></ele><time>2025-8-20T12:8:59Z</time></trkpt>
<trkpt lat="46.16392" lon="7.94998"><ele></ele><time>2025-8-20T12:9:2Z</time></trkpt>
<trkpt lat="46.16392" lon="7.95003"><ele></ele><time>2025-8-20T12:9:5Z</time></trkpt>
<trkpt lat="46.16391" lon="7.9501"><ele></ele><time>2025-8-20T12:9:8Z</time></trkpt>
<trkpt lat="46.16391" lon="7.95015"><ele></ele><time>2025-8-20T12:9:11Z</time></trkpt>
<trkpt lat="46.1639" lon="7.95019"><ele></ele><time>2025-8-20T12:9:14Z</time></trkpt>
<trkpt lat="46.1639" lon="7.95021"><ele></ele><time>2025-8-20T12:9:17Z</time></trkpt>
<trkpt lat="46.1639" lon="7.95026"><ele></ele><time>2025-8-20T12:9:20Z</time></trkpt>
<trkpt lat="46.16392" lon="7.95031"><ele></ele><time>2025-8-20T12:9:23Z</time></trkpt>
<trkpt lat="46.16395" lon="7.95029"><ele></ele><time>2025-8-20T12:9:26Z</time></trkpt>
<trkpt lat="46.16395" lon="7.95026"><ele></ele><time>2025-8-20T12:9:29Z</time></trkpt>
<trkpt lat="46.16395" lon="7.95019"><ele></ele><time>2025-8-20T12:9:32Z</time></trkpt>
<trkpt lat="46.16398" lon="7.95005"><ele></ele><time>2025-8-20T12:9:35Z</time></trkpt>
<trkpt lat="46.16398" lon="7.95003"><ele></ele><time>2025-8-20T12:9:38Z</time></trkpt>
<trkpt lat="46.16399" lon="7.9499"><ele></ele><time>2025-8-20T12:9:41Z</time></trkpt>
<trkpt lat="46.164" lon="7.94979"><ele></ele><time>2025-8-20T12:9:44Z</time></trkpt>
<trkpt lat="46.164" lon="7.94978"><ele></ele><time>2025-8-20T12:9:47Z</time></trkpt>
<trkpt lat="46.16401" lon="7.94967"><ele></ele><time>2025-8-20T12:9:50Z</time></trkpt>
<trkpt lat="46.16401" lon="7.94963"><ele></ele><time>2025-8-20T12:9:53Z</time></trkpt>
<trkpt lat="46.16402" lon="7.94957"><ele></ele><time>2025-8-20T12:9:56Z</time></trkpt>
<trkpt lat="46.16403" lon="7.94949"><ele></ele><time>2025-8-20T12:9:59Z</time></trkpt>
<trkpt lat="46.16403" lon="7.94944"><ele></ele><time>2025-8-20T12:10:2Z</time></trkpt>
<trkpt lat="46.16405" lon="7.94936"><ele></ele><time>2025-8-20T12:10:5Z</time></trkpt>
<trkpt lat="46.16405" lon="7.94934"><ele></ele><time>2025-8-20T12:10:8Z</time></trkpt>
<trkpt lat="46.16405" lon="7.94926"><ele></ele><time>2025-8-20T12:10:11Z</time></trkpt>
<trkpt lat="46.16405" lon="7.94924"><ele></ele><time>2025-8-20T12:10:14Z</time></trkpt>
<trkpt lat="46.16407" lon="7.9492"><ele></ele><time>2025-8-20T12:10:17Z</time></trkpt>
<trkpt lat="46.16409" lon="7.94912"><ele></ele><time>2025-8-20T12:10:20Z</time></trkpt>
<trkpt lat="46.16412" lon="7.94906"><ele></ele><time>2025-8-20T12:10:23Z</time></trkpt>
<trkpt lat="46.16413" lon="7.94904"><ele></ele><time>2025-8-20T12:10:26Z</time></trkpt>
<trkpt lat="46.16417" lon="7.94897"><ele></ele><time>2025-8-20T12:10:29Z</time></trkpt>
<trkpt lat="46.16419" lon="7.94895"><ele></ele><time>2025-8-20T12:10:32Z</time></trkpt>
<trkpt lat="46.16425" lon="7.94889"><ele></ele><time>2025-8-20T12:10:35Z</time></trkpt>
<trkpt lat="46.16431" lon="7.94885"><ele></ele><time>2025-8-20T12:10:38Z</time></trkpt>
<trkpt lat="46.16438" lon="7.9488"><ele></ele><time>2025-8-20T12:10:41Z</time></trkpt>
<trkpt lat="46.16439" lon="7.94879"><ele></ele><time>2025-8-20T12:10:44Z</time></trkpt>
<trkpt lat="46.16442" lon="7.94879"><ele></ele><time>2025-8-20T12:10:47Z</time></trkpt>
<trkpt lat="46.16443" lon="7.94879"><ele></ele><time>2025-8-20T12:10:50Z</time></trkpt>
<trkpt lat="46.16444" lon="7.94879"><ele></ele><time>2025-8-20T12:10:53Z</time></trkpt>
<trkpt lat="46.16446" lon="7.94879"><ele></ele><time>2025-8-20T12:10:56Z</time></trkpt>
<trkpt lat="46.16448" lon="7.94879"><ele></ele><time>2025-8-20T12:10:59Z</time></trkpt>
<trkpt lat="46.16455" lon="7.94877"><ele></ele><time>2025-8-20T12:11:2Z</time></trkpt>
<trkpt lat="46.1646" lon="7.94878"><ele></ele><time>2025-8-20T12:11:5Z</time></trkpt>
<trkpt lat="46.16464" lon="7.94877"><ele></ele><time>2025-8-20T12:11:8Z</time></trkpt>
<trkpt lat="46.16473" lon="7.94875"><ele></ele><time>2025-8-20T12:11:11Z</time></trkpt>
<trkpt lat="46.16481" lon="7.9487"><ele></ele><time>2025-8-20T12:11:14Z</time></trkpt>
<trkpt lat="46.16487" lon="7.94862"><ele></ele><time>2025-8-20T12:11:17Z</time></trkpt>
<trkpt lat="46.16488" lon="7.94861"><ele></ele><time>2025-8-20T12:11:20Z</time></trkpt>
<trkpt lat="46.16496" lon="7.94853"><ele></ele><time>2025-8-20T12:11:23Z</time></trkpt>
<trkpt lat="46.16502" lon="7.94848"><ele></ele><time>2025-8-20T12:11:26Z</time></trkpt>
<trkpt lat="46.16504" lon="7.94846"><ele></ele><time>2025-8-20T12:11:29Z</time></trkpt>
<trkpt lat="46.16509" lon="7.94842"><ele></ele><time>2025-8-20T12:11:32Z</time></trkpt>
<trkpt lat="46.1651" lon="7.94841"><ele></ele><time>2025-8-20T12:11:35Z</time></trkpt>
<trkpt lat="46.16514" lon="7.94839"><ele></ele><time>2025-8-20T12:11:38Z</time></trkpt>
<trkpt lat="46.16516" lon="7.94838"><ele></ele><time>2025-8-20T12:11:41Z</time></trkpt>
<trkpt lat="46.16517" lon="7.94838"><ele></ele><time>2025-8-20T12:11:44Z</time></trkpt>
<trkpt lat="46.16522" lon="7.94836"><ele></ele><time>2025-8-20T12:11:47Z</time></trkpt>
<trkpt lat="46.16526" lon="7.94834"><ele></ele><time>2025-8-20T12:11:50Z</time></trkpt>
<trkpt lat="46.16528" lon="7.94833"><ele></ele><time>2025-8-20T12:11:53Z</time></trkpt>
<trkpt lat="46.1653" lon="7.94832"><ele></ele><time>2025-8-20T12:11:56Z</time></trkpt>
<trkpt lat="46.16533" lon="7.94828"><ele></ele><time>2025-8-20T12:11:59Z</time></trkpt>
<trkpt lat="46.16534" lon="7.94828"><ele></ele><time>2025-8-20T12:12:2Z</time></trkpt>
<trkpt lat="46.16537" lon="7.94826"><ele></ele><time>2025-8-20T12:12:5Z</time></trkpt>
<trkpt lat="46.16542" lon="7.94827"><ele></ele><time>2025-8-20T12:12:8Z</time></trkpt>
<trkpt lat="46.16543" lon="7.94826"><ele></ele><time>2025-8-20T12:12:11Z</time></trkpt>
<trkpt lat="46.16548" lon="7.94826"><ele></ele><time>2025-8-20T12:12:14Z</time></trkpt>
<trkpt lat="46.16553" lon="7.94826"><ele></ele><time>2025-8-20T12:12:17Z</time></trkpt>
<trkpt lat="46.16555" lon="7.94825"><ele></ele><time>2025-8-20T12:12:20Z</time></trkpt>
<trkpt lat="46.1656" lon="7.94822"><ele></ele><time>2025-8-20T12:12:23Z</time></trkpt>
<trkpt lat="46.16562" lon="7.94822"><ele></ele><time>2025-8-20T12:12:26Z</time></trkpt>
<trkpt lat="46.16564" lon="7.94817"><ele></ele><time>2025-8-20T12:12:29Z</time></trkpt>
<trkpt lat="46.16568" lon="7.94812"><ele></ele><time>2025-8-20T12:12:32Z</time></trkpt>
<trkpt lat="46.16569" lon="7.94812"><ele></ele><time>2025-8-20T12:12:35Z</time></trkpt>
<trkpt lat="46.16571" lon="7.94812"><ele></ele><time>2025-8-20T12:12:38Z</time></trkpt>
<trkpt lat="46.16573" lon="7.94815"><ele></ele><time>2025-8-20T12:12:41Z</time></trkpt>
<trkpt lat="46.16573" lon="7.94817"><ele></ele><time>2025-8-20T12:12:44Z</time></trkpt>
<trkpt lat="46.16573" lon="7.94821"><ele></ele><time>2025-8-20T12:12:47Z</time></trkpt>
<trkpt lat="46.16572" lon="7.94822"><ele></ele><time>2025-8-20T12:12:50Z</time></trkpt>
<trkpt lat="46.16568" lon="7.9483"><ele></ele><time>2025-8-20T12:12:53Z</time></trkpt>
<trkpt lat="46.16564" lon="7.94834"><ele></ele><time>2025-8-20T12:12:56Z</time></trkpt>
<trkpt lat="46.16561" lon="7.94838"><ele></ele><time>2025-8-20T12:12:59Z</time></trkpt>
<trkpt lat="46.16559" lon="7.94839"><ele></ele><time>2025-8-20T12:13:2Z</time></trkpt>
<trkpt lat="46.16553" lon="7.94842"><ele></ele><time>2025-8-20T12:13:5Z</time></trkpt>
<trkpt lat="46.16553" lon="7.94842"><ele></ele><time>2025-8-20T12:13:8Z</time></trkpt>
<trkpt lat="46.16549" lon="7.94845"><ele></ele><time>2025-8-20T12:13:11Z</time></trkpt>
<trkpt lat="46.16546" lon="7.94847"><ele></ele><time>2025-8-20T12:13:14Z</time></trkpt>
<trkpt lat="46.16544" lon="7.9485"><ele></ele><time>2025-8-20T12:13:17Z</time></trkpt>
<trkpt lat="46.16541" lon="7.94851"><ele></ele><time>2025-8-20T12:13:20Z</time></trkpt>
<trkpt lat="46.16533" lon="7.94859"><ele></ele><time>2025-8-20T12:13:23Z</time></trkpt>
<trkpt lat="46.16531" lon="7.94863"><ele></ele><time>2025-8-20T12:13:26Z</time></trkpt>
<trkpt lat="46.16527" lon="7.94867"><ele></ele><time>2025-8-20T12:13:29Z</time></trkpt>
<trkpt lat="46.16524" lon="7.94869"><ele></ele><time>2025-8-20T12:13:32Z</time></trkpt>
<trkpt lat="46.16521" lon="7.94872"><ele></ele><time>2025-8-20T12:13:35Z</time></trkpt>
<trkpt lat="46.16518" lon="7.94876"><ele></ele><time>2025-8-20T12:13:38Z</time></trkpt>
<trkpt lat="46.16516" lon="7.94882"><ele></ele><time>2025-8-20T12:13:41Z</time></trkpt>
<trkpt lat="46.16514" lon="7.94891"><ele></ele><time>2025-8-20T12:13:44Z</time></trkpt>
<trkpt lat="46.16512" lon="7.94894"><ele></ele><time>2025-8-20T12:13:47Z</time></trkpt>
<trkpt lat="46.1651" lon="7.94902"><ele></ele><time>2025-8-20T12:13:50Z</time></trkpt>
<trkpt lat="46.16509" lon="7.94905"><ele></ele><time>2025-8-20T12:13:53Z</time></trkpt>
<trkpt lat="46.16508" lon="7.94909"><ele></ele><time>2025-8-20T12:13:56Z</time></trkpt>
<trkpt lat="46.16507" lon="7.94912"><ele></ele><time>2025-8-20T12:13:59Z</time></trkpt>
<trkpt lat="46.16505" lon="7.94917"><ele></ele><time>2025-8-20T12:14:2Z</time></trkpt>
<trkpt lat="46.16504" lon="7.94921"><ele></ele><time>2025-8-20T12:14:5Z</time></trkpt>
<trkpt lat="46.16503" lon="7.94928"><ele></ele><time>2025-8-20T12:14:8Z</time></trkpt>
<trkpt lat="46.16499" lon="7.94934"><ele></ele><time>2025-8-20T12:14:11Z</time></trkpt>
<trkpt lat="46.16497" lon="7.94937"><ele></ele><time>2025-8-20T12:14:14Z</time></trkpt>
<trkpt lat="46.16491" lon="7.9494"><ele></ele><time>2025-8-20T12:14:17Z</time></trkpt>
<trkpt lat="46.16489" lon="7.94941"><ele></ele><time>2025-8-20T12:14:20Z</time></trkpt>
<trkpt lat="46.16485" lon="7.94943"><ele></ele><time>2025-8-20T12:14:23Z</time></trkpt>
<trkpt lat="46.16481" lon="7.94944"><ele></ele><time>2025-8-20T12:14:26Z</time></trkpt>
<trkpt lat="46.16477" lon="7.94947"><ele></ele><time>2025-8-20T12:14:29Z</time></trkpt>
<trkpt lat="46.16471" lon="7.9495"><ele></ele><time>2025-8-20T12:14:32Z</time></trkpt>
<trkpt lat="46.16469" lon="7.9495"><ele></ele><time>2025-8-20T12:14:35Z</time></trkpt>
<trkpt lat="46.16463" lon="7.94954"><ele></ele><time>2025-8-20T12:14:38Z</time></trkpt>
<trkpt lat="46.1646" lon="7.94959"><ele></ele><time>2025-8-20T12:14:41Z</time></trkpt>
<trkpt lat="46.1646" lon="7.9496"><ele></ele><time>2025-8-20T12:14:44Z</time></trkpt>
<trkpt lat="46.16461" lon="7.94961"><ele></ele><time>2025-8-20T12:14:47Z</time></trkpt>
<trkpt lat="46.16462" lon="7.94962"><ele></ele><time>2025-8-20T12:14:50Z</time></trkpt>
<trkpt lat="46.16466" lon="7.9496"><ele></ele><time>2025-8-20T12:14:53Z</time></trkpt>
<trkpt lat="46.16472" lon="7.94958"><ele></ele><time>2025-8-20T12:14:56Z</time></trkpt>
<trkpt lat="46.16473" lon="7.94958"><ele></ele><time>2025-8-20T12:14:59Z</time></trkpt>
<trkpt lat="46.16479" lon="7.94956"><ele></ele><time>2025-8-20T12:15:2Z</time></trkpt>
<trkpt lat="46.16483" lon="7.94955"><ele></ele><time>2025-8-20T12:15:5Z</time></trkpt>
<trkpt lat="46.16488" lon="7.94958"><ele></ele><time>2025-8-20T12:15:8Z</time></trkpt>
<trkpt lat="46.16489" lon="7.94958"><ele></ele><time>2025-8-20T12:15:11Z</time></trkpt>
<trkpt lat="46.16493" lon="7.94957"><ele></ele><time>2025-8-20T12:15:14Z</time></trkpt>
<trkpt lat="46.16498" lon="7.94958"><ele></ele><time>2025-8-20T12:15:17Z</time></trkpt>
<trkpt lat="46.16499" lon="7.94958"><ele></ele><time>2025-8-20T12:15:20Z</time></trkpt>
<trkpt lat="46.165" lon="7.94956"><ele></ele><time>2025-8-20T12:15:23Z</time></trkpt>
<trkpt lat="46.16503" lon="7.94954"><ele></ele><time>2025-8-20T12:15:26Z</time></trkpt>
<trkpt lat="46.16505" lon="7.94953"><ele></ele><time>2025-8-20T12:15:29Z</time></trkpt>
<trkpt lat="46.16509" lon="7.94952"><ele></ele><time>2025-8-20T12:15:32Z</time></trkpt>
<trkpt lat="46.16511" lon="7.94948"><ele></ele><time>2025-8-20T12:15:35Z</time></trkpt>
<trkpt lat="46.16513" lon="7.94946"><ele></ele><time>2025-8-20T12:15:38Z</time></trkpt>
<trkpt lat="46.16515" lon="7.94942"><ele></ele><time>2025-8-20T12:15:41Z</time></trkpt>
<trkpt lat="46.16518" lon="7.94938"><ele></ele><time>2025-8-20T12:15:44Z</time></trkpt>
<trkpt lat="46.16521" lon="7.94932"><ele></ele><time>2025-8-20T12:15:47Z</time></trkpt>
<trkpt lat="46.16523" lon="7.9493"><ele></ele><time>2025-8-20T12:15:50Z</time></trkpt>
<trkpt lat="46.16534" lon="7.94926"><ele></ele><time>2025-8-20T12:15:53Z</time></trkpt>
<trkpt lat="46.16539" lon="7.94927"><ele></ele><time>2025-8-20T12:15:56Z</time></trkpt>
<trkpt lat="46.1654" lon="7.94927"><ele></ele><time>2025-8-20T12:15:59Z</time></trkpt>
<trkpt lat="46.16545" lon="7.94923"><ele></ele><time>2025-8-20T12:16:2Z</time></trkpt>
<trkpt lat="46.16547" lon="7.94922"><ele></ele><time>2025-8-20T12:16:5Z</time></trkpt>
<trkpt lat="46.16548" lon="7.94921"><ele></ele><time>2025-8-20T12:16:8Z</time></trkpt>
<trkpt lat="46.16549" lon="7.94921"><ele></ele><time>2025-8-20T12:16:11Z</time></trkpt>
<trkpt lat="46.16558" lon="7.94918"><ele></ele><time>2025-8-20T12:16:14Z</time></trkpt>
<trkpt lat="46.1656" lon="7.94917"><ele></ele><time>2025-8-20T12:16:17Z</time></trkpt>
<trkpt lat="46.16565" lon="7.94915"><ele></ele><time>2025-8-20T12:16:20Z</time></trkpt>
<trkpt lat="46.16567" lon="7.94913"><ele></ele><time>2025-8-20T12:16:23Z</time></trkpt>
<trkpt lat="46.16572" lon="7.94911"><ele></ele><time>2025-8-20T12:16:26Z</time></trkpt>
<trkpt lat="46.1658" lon="7.94909"><ele></ele><time>2025-8-20T12:16:29Z</time></trkpt>
<trkpt lat="46.16582" lon="7.94909"><ele></ele><time>2025-8-20T12:16:32Z</time></trkpt>
<trkpt lat="46.16587" lon="7.94908"><ele></ele><time>2025-8-20T12:16:35Z</time></trkpt>
<trkpt lat="46.1659" lon="7.94908"><ele></ele><time>2025-8-20T12:16:38Z</time></trkpt>
<trkpt lat="46.16596" lon="7.94907"><ele></ele><time>2025-8-20T12:16:41Z</time></trkpt>
<trkpt lat="46.16599" lon="7.94905"><ele></ele><time>2025-8-20T12:16:44Z</time></trkpt>
<trkpt lat="46.16602" lon="7.94905"><ele></ele><time>2025-8-20T12:16:47Z</time></trkpt>
<trkpt lat="46.16603" lon="7.94905"><ele></ele><time>2025-8-20T12:16:50Z</time></trkpt>
<trkpt lat="46.16605" lon="7.94905"><ele></ele><time>2025-8-20T12:16:53Z</time></trkpt>
<trkpt lat="46.16609" lon="7.94912"><ele></ele><time>2025-8-20T12:16:56Z</time></trkpt>
<trkpt lat="46.16607" lon="7.9492"><ele></ele><time>2025-8-20T12:16:59Z</time></trkpt>
<trkpt lat="46.16602" lon="7.94921"><ele></ele><time>2025-8-20T12:17:2Z</time></trkpt>
<trkpt lat="46.166" lon="7.94924"><ele></ele><time>2025-8-20T12:17:5Z</time></trkpt>
<trkpt lat="46.16598" lon="7.94925"><ele></ele><time>2025-8-20T12:17:8Z</time></trkpt>
<trkpt lat="46.16596" lon="7.94929"><ele></ele><time>2025-8-20T12:17:11Z</time></trkpt>
<trkpt lat="46.16595" lon="7.94931"><ele></ele><time>2025-8-20T12:17:14Z</time></trkpt>
<trkpt lat="46.1659" lon="7.9494"><ele></ele><time>2025-8-20T12:17:17Z</time></trkpt>
<trkpt lat="46.1659" lon="7.94941"><ele></ele><time>2025-8-20T12:17:20Z</time></trkpt>
<trkpt lat="46.16589" lon="7.94948"><ele></ele><time>2025-8-20T12:17:23Z</time></trkpt>
<trkpt lat="46.16589" lon="7.94952"><ele></ele><time>2025-8-20T12:17:26Z</time></trkpt>
<trkpt lat="46.16587" lon="7.9496"><ele></ele><time>2025-8-20T12:17:29Z</time></trkpt>
<trkpt lat="46.16584" lon="7.94969"><ele></ele><time>2025-8-20T12:17:32Z</time></trkpt>
<trkpt lat="46.16584" lon="7.9497"><ele></ele><time>2025-8-20T12:17:35Z</time></trkpt>
<trkpt lat="46.16583" lon="7.94978"><ele></ele><time>2025-8-20T12:17:38Z</time></trkpt>
<trkpt lat="46.1658" lon="7.94987"><ele></ele><time>2025-8-20T12:17:41Z</time></trkpt>
<trkpt lat="46.1658" lon="7.94988"><ele></ele><time>2025-8-20T12:17:44Z</time></trkpt>
<trkpt lat="46.16575" lon="7.94996"><ele></ele><time>2025-8-20T12:17:47Z</time></trkpt>
<trkpt lat="46.16573" lon="7.94999"><ele></ele><time>2025-8-20T12:17:50Z</time></trkpt>
<trkpt lat="46.16572" lon="7.95001"><ele></ele><time>2025-8-20T12:17:53Z</time></trkpt>
<trkpt lat="46.16566" lon="7.95006"><ele></ele><time>2025-8-20T12:17:56Z</time></trkpt>
<trkpt lat="46.16565" lon="7.95007"><ele></ele><time>2025-8-20T12:17:59Z</time></trkpt>
<trkpt lat="46.16562" lon="7.95009"><ele></ele><time>2025-8-20T12:18:2Z</time></trkpt>
<trkpt lat="46.16559" lon="7.95011"><ele></ele><time>2025-8-20T12:18:5Z</time></trkpt>
<trkpt lat="46.16558" lon="7.95013"><ele></ele><time>2025-8-20T12:18:8Z</time></trkpt>
<trkpt lat="46.16556" lon="7.95014"><ele></ele><time>2025-8-20T12:18:11Z</time></trkpt>
<trkpt lat="46.16553" lon="7.95015"><ele></ele><time>2025-8-20T12:18:14Z</time></trkpt>
<trkpt lat="46.16552" lon="7.95015"><ele></ele><time>2025-8-20T12:18:17Z</time></trkpt>
<trkpt lat="46.1655" lon="7.95014"><ele></ele><time>2025-8-20T12:18:20Z</time></trkpt>
<trkpt lat="46.16547" lon="7.95015"><ele></ele><time>2025-8-20T12:18:23Z</time></trkpt>
<trkpt lat="46.16545" lon="7.95015"><ele></ele><time>2025-8-20T12:18:26Z</time></trkpt>
<trkpt lat="46.1654" lon="7.95017"><ele></ele><time>2025-8-20T12:18:29Z</time></trkpt>
<trkpt lat="46.16538" lon="7.95021"><ele></ele><time>2025-8-20T12:18:32Z</time></trkpt>
<trkpt lat="46.16538" lon="7.95026"><ele></ele><time>2025-8-20T12:18:35Z</time></trkpt>
<trkpt lat="46.1654" lon="7.9503"><ele></ele><time>2025-8-20T12:18:38Z</time></trkpt>
<trkpt lat="46.1654" lon="7.9503"><ele></ele><time>2025-8-20T12:18:41Z</time></trkpt>
<trkpt lat="46.16544" lon="7.95035"><ele></ele><time>2025-8-20T12:18:44Z</time></trkpt>
<trkpt lat="46.16544" lon="7.95035"><ele></ele><time>2025-8-20T12:18:47Z</time></trkpt>
<trkpt lat="46.16544" lon="7.95035"><ele></ele><time>2025-8-20T12:18:50Z</time></trkpt>
<trkpt lat="46.16544" lon="7.95035"><ele></ele><time>2025-8-20T12:18:53Z</time></trkpt>
<trkpt lat="46.16544" lon="7.95037"><ele></ele><time>2025-8-20T12:18:56Z</time></trkpt>
<trkpt lat="46.16545" lon="7.95038"><ele></ele><time>2025-8-20T12:18:59Z</time></trkpt>
<trkpt lat="46.16546" lon="7.95039"><ele></ele><time>2025-8-20T12:19:2Z</time></trkpt>
<trkpt lat="46.16547" lon="7.9504"><ele></ele><time>2025-8-20T12:19:5Z</time></trkpt>
<trkpt lat="46.1655" lon="7.95042"><ele></ele><time>2025-8-20T12:19:8Z</time></trkpt>
<trkpt lat="46.16553" lon="7.95045"><ele></ele><time>2025-8-20T12:19:11Z</time></trkpt>
<trkpt lat="46.16557" lon="7.95049"><ele></ele><time>2025-8-20T12:19:14Z</time></trkpt>
<trkpt lat="46.16559" lon="7.95056"><ele></ele><time>2025-8-20T12:19:17Z</time></trkpt>
<trkpt lat="46.16559" lon="7.95058"><ele></ele><time>2025-8-20T12:19:20Z</time></trkpt>
<trkpt lat="46.16558" lon="7.9506"><ele></ele><time>2025-8-20T12:19:23Z</time></trkpt>
<trkpt lat="46.16554" lon="7.95067"><ele></ele><time>2025-8-20T12:19:26Z</time></trkpt>
<trkpt lat="46.16552" lon="7.95069"><ele></ele><time>2025-8-20T12:19:29Z</time></trkpt>
<trkpt lat="46.16551" lon="7.95073"><ele></ele><time>2025-8-20T12:19:32Z</time></trkpt>
<trkpt lat="46.16549" lon="7.95076"><ele></ele><time>2025-8-20T12:19:35Z</time></trkpt>
<trkpt lat="46.16548" lon="7.95081"><ele></ele><time>2025-8-20T12:19:38Z</time></trkpt>
<trkpt lat="46.16548" lon="7.95083"><ele></ele><time>2025-8-20T12:19:41Z</time></trkpt>
<trkpt lat="46.16549" lon="7.95088"><ele></ele><time>2025-8-20T12:19:44Z</time></trkpt>
<trkpt lat="46.1655" lon="7.95096"><ele></ele><time>2025-8-20T12:19:47Z</time></trkpt>
<trkpt lat="46.16551" lon="7.95105"><ele></ele><time>2025-8-20T12:19:50Z</time></trkpt>
<trkpt lat="46.16552" lon="7.95109"><ele></ele><time>2025-8-20T12:19:53Z</time></trkpt>
<trkpt lat="46.16552" lon="7.95115"><ele></ele><time>2025-8-20T12:19:56Z</time></trkpt>
<trkpt lat="46.16551" lon="7.95122"><ele></ele><time>2025-8-20T12:19:59Z</time></trkpt>
<trkpt lat="46.16551" lon="7.95126"><ele></ele><time>2025-8-20T12:20:2Z</time></trkpt>
<trkpt lat="46.1655" lon="7.95139"><ele></ele><time>2025-8-20T12:20:5Z</time></trkpt>
<trkpt lat="46.1655" lon="7.95141"><ele></ele><time>2025-8-20T12:20:8Z</time></trkpt>
<trkpt lat="46.16549" lon="7.95146"><ele></ele><time>2025-8-20T12:20:11Z</time></trkpt>
<trkpt lat="46.16549" lon="7.95152"><ele></ele><time>2025-8-20T12:20:14Z</time></trkpt>
<trkpt lat="46.16549" lon="7.95158"><ele></ele><time>2025-8-20T12:20:17Z</time></trkpt>
<trkpt lat="46.16549" lon="7.95161"><ele></ele><time>2025-8-20T12:20:20Z</time></trkpt>
<trkpt lat="46.16549" lon="7.95166"><ele></ele><time>2025-8-20T12:20:23Z</time></trkpt>
<trkpt lat="46.1655" lon="7.95172"><ele></ele><time>2025-8-20T12:20:26Z</time></trkpt>
<trkpt lat="46.16552" lon="7.9518"><ele></ele><time>2025-8-20T12:20:29Z</time></trkpt>
<trkpt lat="46.16555" lon="7.95187"><ele></ele><time>2025-8-20T12:20:32Z</time></trkpt>
<trkpt lat="46.16557" lon="7.95196"><ele></ele><time>2025-8-20T12:20:35Z</time></trkpt>
<trkpt lat="46.16558" lon="7.95203"><ele></ele><time>2025-8-20T12:20:38Z</time></trkpt>
<trkpt lat="46.16558" lon="7.95204"><ele></ele><time>2025-8-20T12:20:41Z</time></trkpt>
<trkpt lat="46.16558" lon="7.95211"><ele></ele><time>2025-8-20T12:20:44Z</time></trkpt>
<trkpt lat="46.16558" lon="7.95213"><ele></ele><time>2025-8-20T12:20:47Z</time></trkpt>
<trkpt lat="46.16558" lon="7.95218"><ele></ele><time>2025-8-20T12:20:50Z</time></trkpt>
<trkpt lat="46.16556" lon="7.95223"><ele></ele><time>2025-8-20T12:20:53Z</time></trkpt>
<trkpt lat="46.16555" lon="7.95227"><ele></ele><time>2025-8-20T12:20:56Z</time></trkpt>
<trkpt lat="46.16553" lon="7.95231"><ele></ele><time>2025-8-20T12:20:59Z</time></trkpt>
<trkpt lat="46.16554" lon="7.95233"><ele></ele><time>2025-8-20T12:21:2Z</time></trkpt>
<trkpt lat="46.16556" lon="7.95233"><ele></ele><time>2025-8-20T12:21:5Z</time></trkpt>
<trkpt lat="46.16558" lon="7.9523"><ele></ele><time>2025-8-20T12:21:8Z</time></trkpt>
<trkpt lat="46.16559" lon="7.95227"><ele></ele><time>2025-8-20T12:21:11Z</time></trkpt>
<trkpt lat="46.16561" lon="7.95219"><ele></ele><time>2025-8-20T12:21:14Z</time></trkpt>
<trkpt lat="46.16564" lon="7.95208"><ele></ele><time>2025-8-20T12:21:17Z</time></trkpt>
<trkpt lat="46.16566" lon="7.952"><ele></ele><time>2025-8-20T12:21:20Z</time></trkpt>
<trkpt lat="46.16566" lon="7.95197"><ele></ele><time>2025-8-20T12:21:23Z</time></trkpt>
<trkpt lat="46.16566" lon="7.95192"><ele></ele><time>2025-8-20T12:21:26Z</time></trkpt>
<trkpt lat="46.16567" lon="7.95186"><ele></ele><time>2025-8-20T12:21:29Z</time></trkpt>
<trkpt lat="46.16569" lon="7.95176"><ele></ele><time>2025-8-20T12:21:32Z</time></trkpt>
<trkpt lat="46.16569" lon="7.95174"><ele></ele><time>2025-8-20T12:21:35Z</time></trkpt>
<trkpt lat="46.16572" lon="7.95164"><ele></ele><time>2025-8-20T12:21:38Z</time></trkpt>
<trkpt lat="46.16573" lon="7.95159"><ele></ele><time>2025-8-20T12:21:41Z</time></trkpt>
<trkpt lat="46.16576" lon="7.95153"><ele></ele><time>2025-8-20T12:21:44Z</time></trkpt>
<trkpt lat="46.1658" lon="7.9515"><ele></ele><time>2025-8-20T12:21:47Z</time></trkpt>
<trkpt lat="46.16581" lon="7.9515"><ele></ele><time>2025-8-20T12:21:50Z</time></trkpt>
<trkpt lat="46.16589" lon="7.95154"><ele></ele><time>2025-8-20T12:21:53Z</time></trkpt>
<trkpt lat="46.16591" lon="7.95155"><ele></ele><time>2025-8-20T12:21:56Z</time></trkpt>
<trkpt lat="46.16596" lon="7.95156"><ele></ele><time>2025-8-20T12:21:59Z</time></trkpt>
<trkpt lat="46.16603" lon="7.95157"><ele></ele><time>2025-8-20T12:22:2Z</time></trkpt>
<trkpt lat="46.16604" lon="7.95156"><ele></ele><time>2025-8-20T12:22:5Z</time></trkpt>
<trkpt lat="46.16608" lon="7.95155"><ele></ele><time>2025-8-20T12:22:8Z</time></trkpt>
<trkpt lat="46.16612" lon="7.95153"><ele></ele><time>2025-8-20T12:22:11Z</time></trkpt>
<trkpt lat="46.16615" lon="7.95153"><ele></ele><time>2025-8-20T12:22:14Z</time></trkpt>
<trkpt lat="46.16619" lon="7.9515"><ele></ele><time>2025-8-20T12:22:17Z</time></trkpt>
<trkpt lat="46.1662" lon="7.9515"><ele></ele><time>2025-8-20T12:22:20Z</time></trkpt>
<trkpt lat="46.16623" lon="7.95149"><ele></ele><time>2025-8-20T12:22:23Z</time></trkpt>
<trkpt lat="46.16625" lon="7.95148"><ele></ele><time>2025-8-20T12:22:26Z</time></trkpt>
<trkpt lat="46.16629" lon="7.95147"><ele></ele><time>2025-8-20T12:22:29Z</time></trkpt>
<trkpt lat="46.16635" lon="7.95146"><ele></ele><time>2025-8-20T12:22:32Z</time></trkpt>
<trkpt lat="46.16638" lon="7.9515"><ele></ele><time>2025-8-20T12:22:35Z</time></trkpt>
<trkpt lat="46.16638" lon="7.95154"><ele></ele><time>2025-8-20T12:22:38Z</time></trkpt>
<trkpt lat="46.16632" lon="7.95158"><ele></ele><time>2025-8-20T12:22:41Z</time></trkpt>
<trkpt lat="46.16627" lon="7.9516"><ele></ele><time>2025-8-20T12:22:44Z</time></trkpt>
<trkpt lat="46.16625" lon="7.95162"><ele></ele><time>2025-8-20T12:22:47Z</time></trkpt>
<trkpt lat="46.16623" lon="7.95164"><ele></ele><time>2025-8-20T12:22:50Z</time></trkpt>
<trkpt lat="46.1662" lon="7.95167"><ele></ele><time>2025-8-20T12:22:53Z</time></trkpt>
<trkpt lat="46.16617" lon="7.95173"><ele></ele><time>2025-8-20T12:22:56Z</time></trkpt>
<trkpt lat="46.16613" lon="7.95178"><ele></ele><time>2025-8-20T12:22:59Z</time></trkpt>
<trkpt lat="46.1661" lon="7.95182"><ele></ele><time>2025-8-20T12:23:2Z</time></trkpt>
<trkpt lat="46.16606" lon="7.95188"><ele></ele><time>2025-8-20T12:23:5Z</time></trkpt>
<trkpt lat="46.16606" lon="7.95191"><ele></ele><time>2025-8-20T12:23:8Z</time></trkpt>
<trkpt lat="46.16605" lon="7.95196"><ele></ele><time>2025-8-20T12:23:11Z</time></trkpt>
<trkpt lat="46.16603" lon="7.95203"><ele></ele><time>2025-8-20T12:23:14Z</time></trkpt>
<trkpt lat="46.16602" lon="7.95206"><ele></ele><time>2025-8-20T12:23:17Z</time></trkpt>
<trkpt lat="46.16596" lon="7.95214"><ele></ele><time>2025-8-20T12:23:20Z</time></trkpt>
<trkpt lat="46.16595" lon="7.95216"><ele></ele><time>2025-8-20T12:23:23Z</time></trkpt>
<trkpt lat="46.16591" lon="7.9522"><ele></ele><time>2025-8-20T12:23:26Z</time></trkpt>
<trkpt lat="46.16589" lon="7.95225"><ele></ele><time>2025-8-20T12:23:29Z</time></trkpt>
<trkpt lat="46.16588" lon="7.95227"><ele></ele><time>2025-8-20T12:23:32Z</time></trkpt>
<trkpt lat="46.16586" lon="7.95236"><ele></ele><time>2025-8-20T12:23:35Z</time></trkpt>
<trkpt lat="46.16584" lon="7.95242"><ele></ele><time>2025-8-20T12:23:38Z</time></trkpt>
<trkpt lat="46.16584" lon="7.95244"><ele></ele><time>2025-8-20T12:23:41Z</time></trkpt>
<trkpt lat="46.16583" lon="7.95251"><ele></ele><time>2025-8-20T12:23:44Z</time></trkpt>
<trkpt lat="46.16583" lon="7.95252"><ele></ele><time>2025-8-20T12:23:47Z</time></trkpt>
<trkpt lat="46.16584" lon="7.95262"><ele></ele><time>2025-8-20T12:23:50Z</time></trkpt>
<trkpt lat="46.16587" lon="7.95269"><ele></ele><time>2025-8-20T12:23:53Z</time></trkpt>
<trkpt lat="46.16588" lon="7.95271"><ele></ele><time>2025-8-20T12:23:56Z</time></trkpt>
<trkpt lat="46.16589" lon="7.95275"><ele></ele><time>2025-8-20T12:23:59Z</time></trkpt>
<trkpt lat="46.16589" lon="7.95284"><ele></ele><time>2025-8-20T12:24:2Z</time></trkpt>
<trkpt lat="46.16589" lon="7.95287"><ele></ele><time>2025-8-20T12:24:5Z</time></trkpt>
<trkpt lat="46.16589" lon="7.95292"><ele></ele><time>2025-8-20T12:24:8Z</time></trkpt>
<trkpt lat="46.16589" lon="7.95294"><ele></ele><time>2025-8-20T12:24:11Z</time></trkpt>
<trkpt lat="46.16589" lon="7.95301"><ele></ele><time>2025-8-20T12:24:14Z</time></trkpt>
<trkpt lat="46.1659" lon="7.95308"><ele></ele><time>2025-8-20T12:24:17Z</time></trkpt>
<trkpt lat="46.16591" lon="7.95312"><ele></ele><time>2025-8-20T12:24:20Z</time></trkpt>
<trkpt lat="46.16591" lon="7.95313"><ele></ele><time>2025-8-20T12:24:23Z</time></trkpt>
<trkpt lat="46.16592" lon="7.9532"><ele></ele><time>2025-8-20T12:24:26Z</time></trkpt>
<trkpt lat="46.16592" lon="7.95322"><ele></ele><time>2025-8-20T12:24:29Z</time></trkpt>
<trkpt lat="46.16593" lon="7.95326"><ele></ele><time>2025-8-20T12:24:32Z</time></trkpt>
<trkpt lat="46.16593" lon="7.95328"><ele></ele><time>2025-8-20T12:24:35Z</time></trkpt>
<trkpt lat="46.16595" lon="7.95333"><ele></ele><time>2025-8-20T12:24:38Z</time></trkpt>
<trkpt lat="46.16595" lon="7.95334"><ele></ele><time>2025-8-20T12:24:41Z</time></trkpt>
<trkpt lat="46.16599" lon="7.95338"><ele></ele><time>2025-8-20T12:24:44Z</time></trkpt>
<trkpt lat="46.166" lon="7.9534"><ele></ele><time>2025-8-20T12:24:47Z</time></trkpt>
<trkpt lat="46.16601" lon="7.95342"><ele></ele><time>2025-8-20T12:24:50Z</time></trkpt>
<trkpt lat="46.16605" lon="7.95341"><ele></ele><time>2025-8-20T12:24:53Z</time></trkpt>
<trkpt lat="46.16606" lon="7.9534"><ele></ele><time>2025-8-20T12:24:56Z</time></trkpt>
<trkpt lat="46.16608" lon="7.95337"><ele></ele><time>2025-8-20T12:24:59Z</time></trkpt>
<trkpt lat="46.16609" lon="7.95334"><ele></ele><time>2025-8-20T12:25:2Z</time></trkpt>
<trkpt lat="46.1661" lon="7.95332"><ele></ele><time>2025-8-20T12:25:5Z</time></trkpt>
<trkpt lat="46.16613" lon="7.95329"><ele></ele><time>2025-8-20T12:25:8Z</time></trkpt>
<trkpt lat="46.16614" lon="7.95326"><ele></ele><time>2025-8-20T12:25:11Z</time></trkpt>
<trkpt lat="46.16615" lon="7.95325"><ele></ele><time>2025-8-20T12:25:14Z</time></trkpt>
<trkpt lat="46.16615" lon="7.95325"><ele></ele><time>2025-8-20T12:25:17Z</time></trkpt>
<trkpt lat="46.16616" lon="7.95324"><ele></ele><time>2025-8-20T12:25:20Z</time></trkpt>
<trkpt lat="46.16618" lon="7.95319"><ele></ele><time>2025-8-20T12:25:23Z</time></trkpt>
<trkpt lat="46.16619" lon="7.95317"><ele></ele><time>2025-8-20T12:25:26Z</time></trkpt>
<trkpt lat="46.1662" lon="7.95317"><ele></ele><time>2025-8-20T12:25:29Z</time></trkpt>
<trkpt lat="46.16622" lon="7.95316"><ele></ele><time>2025-8-20T12:25:32Z</time></trkpt>
<trkpt lat="46.16625" lon="7.95315"><ele></ele><time>2025-8-20T12:25:35Z</time></trkpt>
<trkpt lat="46.16627" lon="7.95314"><ele></ele><time>2025-8-20T12:25:38Z</time></trkpt>
<trkpt lat="46.16633" lon="7.95308"><ele></ele><time>2025-8-20T12:25:41Z</time></trkpt>
<trkpt lat="46.16634" lon="7.95306"><ele></ele><time>2025-8-20T12:25:44Z</time></trkpt>
<trkpt lat="46.16635" lon="7.95298"><ele></ele><time>2025-8-20T12:25:47Z</time></trkpt>
<trkpt lat="46.16634" lon="7.95294"><ele></ele><time>2025-8-20T12:25:50Z</time></trkpt>
<trkpt lat="46.16634" lon="7.9529"><ele></ele><time>2025-8-20T12:25:53Z</time></trkpt>
<trkpt lat="46.16635" lon="7.9528"><ele></ele><time>2025-8-20T12:25:56Z</time></trkpt>
<trkpt lat="46.16636" lon="7.95275"><ele></ele><time>2025-8-20T12:25:59Z</time></trkpt>
<trkpt lat="46.16637" lon="7.95273"><ele></ele><time>2025-8-20T12:26:2Z</time></trkpt>
<trkpt lat="46.1664" lon="7.95269"><ele></ele><time>2025-8-20T12:26:5Z</time></trkpt>
<trkpt lat="46.16642" lon="7.95266"><ele></ele><time>2025-8-20T12:26:8Z</time></trkpt>
<trkpt lat="46.16644" lon="7.95262"><ele></ele><time>2025-8-20T12:26:11Z</time></trkpt>
<trkpt lat="46.16646" lon="7.9526"><ele></ele><time>2025-8-20T12:26:14Z</time></trkpt>
<trkpt lat="46.16649" lon="7.95255"><ele></ele><time>2025-8-20T12:26:17Z</time></trkpt>
<trkpt lat="46.16649" lon="7.95254"><ele></ele><time>2025-8-20T12:26:20Z</time></trkpt>
<trkpt lat="46.16656" lon="7.95246"><ele></ele><time>2025-8-20T12:26:23Z</time></trkpt>
<trkpt lat="46.16657" lon="7.95245"><ele></ele><time>2025-8-20T12:26:26Z</time></trkpt>
<trkpt lat="46.16661" lon="7.95245"><ele></ele><time>2025-8-20T12:26:29Z</time></trkpt>
<trkpt lat="46.16663" lon="7.95246"><ele></ele><time>2025-8-20T12:26:32Z</time></trkpt>
<trkpt lat="46.16664" lon="7.95247"><ele></ele><time>2025-8-20T12:26:35Z</time></trkpt>
<trkpt lat="46.16663" lon="7.95251"><ele></ele><time>2025-8-20T12:26:38Z</time></trkpt>
<trkpt lat="46.16661" lon="7.95253"><ele></ele><time>2025-8-20T12:26:41Z</time></trkpt>
<trkpt lat="46.16659" lon="7.95256"><ele></ele><time>2025-8-20T12:26:44Z</time></trkpt>
<trkpt lat="46.16657" lon="7.95259"><ele></ele><time>2025-8-20T12:26:47Z</time></trkpt>
<trkpt lat="46.16655" lon="7.95263"><ele></ele><time>2025-8-20T12:26:50Z</time></trkpt>
<trkpt lat="46.16654" lon="7.95265"><ele></ele><time>2025-8-20T12:26:53Z</time></trkpt>
<trkpt lat="46.16653" lon="7.95272"><ele></ele><time>2025-8-20T12:26:56Z</time></trkpt>
<trkpt lat="46.16653" lon="7.95274"><ele></ele><time>2025-8-20T12:26:59Z</time></trkpt>
<trkpt lat="46.16652" lon="7.9528"><ele></ele><time>2025-8-20T12:27:2Z</time></trkpt>
<trkpt lat="46.16653" lon="7.95288"><ele></ele><time>2025-8-20T12:27:5Z</time></trkpt>
<trkpt lat="46.16652" lon="7.9529"><ele></ele><time>2025-8-20T12:27:8Z</time></trkpt>
<trkpt lat="46.16651" lon="7.95298"><ele></ele><time>2025-8-20T12:27:11Z</time></trkpt>
<trkpt lat="46.16652" lon="7.95306"><ele></ele><time>2025-8-20T12:27:14Z</time></trkpt>
<trkpt lat="46.16652" lon="7.95309"><ele></ele><time>2025-8-20T12:27:17Z</time></trkpt>
<trkpt lat="46.16653" lon="7.95316"><ele></ele><time>2025-8-20T12:27:20Z</time></trkpt>
<trkpt lat="46.16654" lon="7.95322"><ele></ele><time>2025-8-20T12:27:23Z</time></trkpt>
<trkpt lat="46.16655" lon="7.95324"><ele></ele><time>2025-8-20T12:27:26Z</time></trkpt>
<trkpt lat="46.16655" lon="7.95326"><ele></ele><time>2025-8-20T12:27:29Z</time></trkpt>
<trkpt lat="46.16655" lon="7.95327"><ele></ele><time>2025-8-20T12:27:32Z</time></trkpt>
<trkpt lat="46.16655" lon="7.95327"><ele></ele><time>2025-8-20T12:27:35Z</time></trkpt>
<trkpt lat="46.16655" lon="7.95327"><ele></ele><time>2025-8-20T12:27:38Z</time></trkpt>
<trkpt lat="46.16655" lon="7.95327"><ele></ele><time>2025-8-20T12:27:41Z</time></trkpt>
<trkpt lat="46.16655" lon="7.95327"><ele></ele><time>2025-8-20T12:27:44Z</time></trkpt>
<trkpt lat="46.16655" lon="7.95327"><ele></ele><time>2025-8-20T12:27:47Z</time></trkpt>
<trkpt lat="46.16655" lon="7.95327"><ele></ele><time>2025-8-20T12:27:50Z</time></trkpt>
<trkpt lat="46.16655" lon="7.95327"><ele></ele><time>2025-8-20T12:27:53Z</time></trkpt>
<trkpt lat="46.16655" lon="7.95327"><ele></ele><time>2025-8-20T12:27:56Z</time></trkpt>
<trkpt lat="46.16655" lon="7.95327"><ele></ele><time>2025-8-20T12:27:59Z</time></trkpt>
<trkpt lat="46.16657" lon="7.9533"><ele></ele><time>2025-8-20T12:28:2Z</time></trkpt>
<trkpt lat="46.16658" lon="7.95336"><ele></ele><time>2025-8-20T12:28:5Z</time></trkpt>
<trkpt lat="46.16659" lon="7.9534"><ele></ele><time>2025-8-20T12:28:8Z</time></trkpt>
<trkpt lat="46.16661" lon="7.95344"><ele></ele><time>2025-8-20T12:28:11Z</time></trkpt>
<trkpt lat="46.16661" lon="7.95346"><ele></ele><time>2025-8-20T12:28:14Z</time></trkpt>
<trkpt lat="46.16662" lon="7.95351"><ele></ele><time>2025-8-20T12:28:17Z</time></trkpt>
<trkpt lat="46.16664" lon="7.95356"><ele></ele><time>2025-8-20T12:28:20Z</time></trkpt>
<trkpt lat="46.16665" lon="7.9536"><ele></ele><time>2025-8-20T12:28:23Z</time></trkpt>
<trkpt lat="46.16665" lon="7.95362"><ele></ele><time>2025-8-20T12:28:26Z</time></trkpt>
<trkpt lat="46.16667" lon="7.95368"><ele></ele><time>2025-8-20T12:28:29Z</time></trkpt>
<trkpt lat="46.16668" lon="7.95371"><ele></ele><time>2025-8-20T12:28:32Z</time></trkpt>
<trkpt lat="46.1667" lon="7.95376"><ele></ele><time>2025-8-20T12:28:35Z</time></trkpt>
<trkpt lat="46.16674" lon="7.95387"><ele></ele><time>2025-8-20T12:28:38Z</time></trkpt>
<trkpt lat="46.16674" lon="7.95389"><ele></ele><time>2025-8-20T12:28:41Z</time></trkpt>
<trkpt lat="46.16675" lon="7.95393"><ele></ele><time>2025-8-20T12:28:44Z</time></trkpt>
<trkpt lat="46.16676" lon="7.95402"><ele></ele><time>2025-8-20T12:28:47Z</time></trkpt>
<trkpt lat="46.16676" lon="7.95409"><ele></ele><time>2025-8-20T12:28:50Z</time></trkpt>
<trkpt lat="46.16676" lon="7.95411"><ele></ele><time>2025-8-20T12:28:53Z</time></trkpt>
<trkpt lat="46.16676" lon="7.95415"><ele></ele><time>2025-8-20T12:28:56Z</time></trkpt>
<trkpt lat="46.16676" lon="7.9542"><ele></ele><time>2025-8-20T12:28:59Z</time></trkpt>
<trkpt lat="46.16676" lon="7.95423"><ele></ele><time>2025-8-20T12:29:2Z</time></trkpt>
<trkpt lat="46.16676" lon="7.95427"><ele></ele><time>2025-8-20T12:29:5Z</time></trkpt>
<trkpt lat="46.16677" lon="7.95431"><ele></ele><time>2025-8-20T12:29:8Z</time></trkpt>
<trkpt lat="46.16678" lon="7.95439"><ele></ele><time>2025-8-20T12:29:11Z</time></trkpt>
<trkpt lat="46.16678" lon="7.95439"><ele></ele><time>2025-8-20T12:29:14Z</time></trkpt>
<trkpt lat="46.1668" lon="7.95446"><ele></ele><time>2025-8-20T12:29:17Z</time></trkpt>
<trkpt lat="46.1668" lon="7.95448"><ele></ele><time>2025-8-20T12:29:20Z</time></trkpt>
<trkpt lat="46.1668" lon="7.95456"><ele></ele><time>2025-8-20T12:29:23Z</time></trkpt>
<trkpt lat="46.16682" lon="7.95464"><ele></ele><time>2025-8-20T12:29:26Z</time></trkpt>
<trkpt lat="46.16682" lon="7.95468"><ele></ele><time>2025-8-20T12:29:29Z</time></trkpt>
<trkpt lat="46.16683" lon="7.95478"><ele></ele><time>2025-8-20T12:29:32Z</time></trkpt>
<trkpt lat="46.16683" lon="7.95488"><ele></ele><time>2025-8-20T12:29:35Z</time></trkpt>
<trkpt lat="46.16683" lon="7.95489"><ele></ele><time>2025-8-20T12:29:38Z</time></trkpt>
<trkpt lat="46.16683" lon="7.9549"><ele></ele><time>2025-8-20T12:29:41Z</time></trkpt>
<trkpt lat="46.16683" lon="7.95494"><ele></ele><time>2025-8-20T12:29:44Z</time></trkpt>
<trkpt lat="46.16684" lon="7.955"><ele></ele><time>2025-8-20T12:29:47Z</time></trkpt>
<trkpt lat="46.16683" lon="7.95502"><ele></ele><time>2025-8-20T12:29:50Z</time></trkpt>
<trkpt lat="46.16684" lon="7.95507"><ele></ele><time>2025-8-20T12:29:53Z</time></trkpt>
<trkpt lat="46.16684" lon="7.95509"><ele></ele><time>2025-8-20T12:29:56Z</time></trkpt>
<trkpt lat="46.16684" lon="7.95514"><ele></ele><time>2025-8-20T12:29:59Z</time></trkpt>
<trkpt lat="46.16685" lon="7.95521"><ele></ele><time>2025-8-20T12:30:2Z</time></trkpt>
<trkpt lat="46.16685" lon="7.95534"><ele></ele><time>2025-8-20T12:30:5Z</time></trkpt>
<trkpt lat="46.16685" lon="7.95541"><ele></ele><time>2025-8-20T12:30:8Z</time></trkpt>
<trkpt lat="46.16685" lon="7.95545"><ele></ele><time>2025-8-20T12:30:11Z</time></trkpt>
<trkpt lat="46.16683" lon="7.95554"><ele></ele><time>2025-8-20T12:30:14Z</time></trkpt>
<trkpt lat="46.1668" lon="7.95561"><ele></ele><time>2025-8-20T12:30:17Z</time></trkpt>
<trkpt lat="46.1668" lon="7.95562"><ele></ele><time>2025-8-20T12:30:20Z</time></trkpt>
<trkpt lat="46.16678" lon="7.95567"><ele></ele><time>2025-8-20T12:30:23Z</time></trkpt>
<trkpt lat="46.16678" lon="7.9557"><ele></ele><time>2025-8-20T12:30:26Z</time></trkpt>
<trkpt lat="46.16678" lon="7.95575"><ele></ele><time>2025-8-20T12:30:29Z</time></trkpt>
<trkpt lat="46.16677" lon="7.9558"><ele></ele><time>2025-8-20T12:30:32Z</time></trkpt>
<trkpt lat="46.16677" lon="7.95583"><ele></ele><time>2025-8-20T12:30:35Z</time></trkpt>
<trkpt lat="46.16677" lon="7.95588"><ele></ele><time>2025-8-20T12:30:38Z</time></trkpt>
<trkpt lat="46.16677" lon="7.95592"><ele></ele><time>2025-8-20T12:30:41Z</time></trkpt>
<trkpt lat="46.16676" lon="7.95597"><ele></ele><time>2025-8-20T12:30:44Z</time></trkpt>
<trkpt lat="46.16676" lon="7.95598"><ele></ele><time>2025-8-20T12:30:47Z</time></trkpt>
<trkpt lat="46.16676" lon="7.95601"><ele></ele><time>2025-8-20T12:30:50Z</time></trkpt>
<trkpt lat="46.16676" lon="7.95603"><ele></ele><time>2025-8-20T12:30:53Z</time></trkpt>
<trkpt lat="46.16677" lon="7.9561"><ele></ele><time>2025-8-20T12:30:56Z</time></trkpt>
<trkpt lat="46.16677" lon="7.95611"><ele></ele><time>2025-8-20T12:30:59Z</time></trkpt>
<trkpt lat="46.16678" lon="7.95617"><ele></ele><time>2025-8-20T12:31:2Z</time></trkpt>
<trkpt lat="46.16678" lon="7.95625"><ele></ele><time>2025-8-20T12:31:5Z</time></trkpt>
<trkpt lat="46.16677" lon="7.95627"><ele></ele><time>2025-8-20T12:31:8Z</time></trkpt>
<trkpt lat="46.16677" lon="7.95634"><ele></ele><time>2025-8-20T12:31:11Z</time></trkpt>
<trkpt lat="46.16677" lon="7.95644"><ele></ele><time>2025-8-20T12:31:14Z</time></trkpt>
<trkpt lat="46.16679" lon="7.95643"><ele></ele><time>2025-8-20T12:31:17Z</time></trkpt>
<trkpt lat="46.1668" lon="7.9564"><ele></ele><time>2025-8-20T12:31:20Z</time></trkpt>
<trkpt lat="46.1668" lon="7.95638"><ele></ele><time>2025-8-20T12:31:23Z</time></trkpt>
<trkpt lat="46.16681" lon="7.95627"><ele></ele><time>2025-8-20T12:31:26Z</time></trkpt>
<trkpt lat="46.16681" lon="7.95625"><ele></ele><time>2025-8-20T12:31:29Z</time></trkpt>
<trkpt lat="46.16683" lon="7.95616"><ele></ele><time>2025-8-20T12:31:32Z</time></trkpt>
<trkpt lat="46.16685" lon="7.95608"><ele></ele><time>2025-8-20T12:31:35Z</time></trkpt>
<trkpt lat="46.16686" lon="7.956"><ele></ele><time>2025-8-20T12:31:38Z</time></trkpt>
<trkpt lat="46.16686" lon="7.95598"><ele></ele><time>2025-8-20T12:31:41Z</time></trkpt>
<trkpt lat="46.16689" lon="7.95589"><ele></ele><time>2025-8-20T12:31:44Z</time></trkpt>
<trkpt lat="46.16694" lon="7.95579"><ele></ele><time>2025-8-20T12:31:47Z</time></trkpt>
<trkpt lat="46.16694" lon="7.95577"><ele></ele><time>2025-8-20T12:31:50Z</time></trkpt>
<trkpt lat="46.16698" lon="7.95569"><ele></ele><time>2025-8-20T12:31:53Z</time></trkpt>
<trkpt lat="46.167" lon="7.95562"><ele></ele><time>2025-8-20T12:31:56Z</time></trkpt>
<trkpt lat="46.16701" lon="7.95559"><ele></ele><time>2025-8-20T12:31:59Z</time></trkpt>
<trkpt lat="46.16703" lon="7.95552"><ele></ele><time>2025-8-20T12:32:2Z</time></trkpt>
<trkpt lat="46.16705" lon="7.95542"><ele></ele><time>2025-8-20T12:32:5Z</time></trkpt>
<trkpt lat="46.16706" lon="7.95538"><ele></ele><time>2025-8-20T12:32:8Z</time></trkpt>
<trkpt lat="46.16707" lon="7.95532"><ele></ele><time>2025-8-20T12:32:11Z</time></trkpt>
<trkpt lat="46.16709" lon="7.95523"><ele></ele><time>2025-8-20T12:32:14Z</time></trkpt>
<trkpt lat="46.1671" lon="7.95519"><ele></ele><time>2025-8-20T12:32:17Z</time></trkpt>
<trkpt lat="46.16711" lon="7.95513"><ele></ele><time>2025-8-20T12:32:20Z</time></trkpt>
<trkpt lat="46.16713" lon="7.9551"><ele></ele><time>2025-8-20T12:32:23Z</time></trkpt>
<trkpt lat="46.16716" lon="7.95507"><ele></ele><time>2025-8-20T12:32:26Z</time></trkpt>
<trkpt lat="46.16717" lon="7.95505"><ele></ele><time>2025-8-20T12:32:29Z</time></trkpt>
<trkpt lat="46.16722" lon="7.95505"><ele></ele><time>2025-8-20T12:32:32Z</time></trkpt>
<trkpt lat="46.16723" lon="7.95506"><ele></ele><time>2025-8-20T12:32:35Z</time></trkpt>
<trkpt lat="46.16724" lon="7.95508"><ele></ele><time>2025-8-20T12:32:38Z</time></trkpt>
<trkpt lat="46.16725" lon="7.9551"><ele></ele><time>2025-8-20T12:32:41Z</time></trkpt>
<trkpt lat="46.1673" lon="7.95519"><ele></ele><time>2025-8-20T12:32:44Z</time></trkpt>
<trkpt lat="46.16732" lon="7.95526"><ele></ele><time>2025-8-20T12:32:47Z</time></trkpt>
<trkpt lat="46.16732" lon="7.95527"><ele></ele><time>2025-8-20T12:32:50Z</time></trkpt>
<trkpt lat="46.16735" lon="7.95532"><ele></ele><time>2025-8-20T12:32:53Z</time></trkpt>
<trkpt lat="46.16735" lon="7.95536"><ele></ele><time>2025-8-20T12:32:56Z</time></trkpt>
<trkpt lat="46.16736" lon="7.95541"><ele></ele><time>2025-8-20T12:32:59Z</time></trkpt>
<trkpt lat="46.16737" lon="7.95543"><ele></ele><time>2025-8-20T12:33:2Z</time></trkpt>
<trkpt lat="46.16737" lon="7.95545"><ele></ele><time>2025-8-20T12:33:5Z</time></trkpt>
<trkpt lat="46.16738" lon="7.95546"><ele></ele><time>2025-8-20T12:33:8Z</time></trkpt>
<trkpt lat="46.1674" lon="7.95554"><ele></ele><time>2025-8-20T12:33:11Z</time></trkpt>
<trkpt lat="46.16742" lon="7.95561"><ele></ele><time>2025-8-20T12:33:14Z</time></trkpt>
<trkpt lat="46.16744" lon="7.95567"><ele></ele><time>2025-8-20T12:33:17Z</time></trkpt>
<trkpt lat="46.16745" lon="7.95573"><ele></ele><time>2025-8-20T12:33:20Z</time></trkpt>
<trkpt lat="46.16746" lon="7.95578"><ele></ele><time>2025-8-20T12:33:23Z</time></trkpt>
<trkpt lat="46.16748" lon="7.95581"><ele></ele><time>2025-8-20T12:33:26Z</time></trkpt>
<trkpt lat="46.1675" lon="7.95587"><ele></ele><time>2025-8-20T12:33:29Z</time></trkpt>
<trkpt lat="46.1675" lon="7.95588"><ele></ele><time>2025-8-20T12:33:32Z</time></trkpt>
<trkpt lat="46.16752" lon="7.95596"><ele></ele><time>2025-8-20T12:33:35Z</time></trkpt>
<trkpt lat="46.16753" lon="7.956"><ele></ele><time>2025-8-20T12:33:38Z</time></trkpt>
<trkpt lat="46.16754" lon="7.95604"><ele></ele><time>2025-8-20T12:33:41Z</time></trkpt>
<trkpt lat="46.16759" lon="7.95612"><ele></ele><time>2025-8-20T12:33:44Z</time></trkpt>
<trkpt lat="46.16762" lon="7.95618"><ele></ele><time>2025-8-20T12:33:47Z</time></trkpt>
<trkpt lat="46.16763" lon="7.95618"><ele></ele><time>2025-8-20T12:33:50Z</time></trkpt>
<trkpt lat="46.16767" lon="7.9562"><ele></ele><time>2025-8-20T12:33:53Z</time></trkpt>
<trkpt lat="46.16769" lon="7.95621"><ele></ele><time>2025-8-20T12:33:56Z</time></trkpt>
<trkpt lat="46.16773" lon="7.95623"><ele></ele><time>2025-8-20T12:33:59Z</time></trkpt>
<trkpt lat="46.16778" lon="7.95627"><ele></ele><time>2025-8-20T12:34:2Z</time></trkpt>
<trkpt lat="46.16779" lon="7.95628"><ele></ele><time>2025-8-20T12:34:5Z</time></trkpt>
<trkpt lat="46.16781" lon="7.95633"><ele></ele><time>2025-8-20T12:34:8Z</time></trkpt>
<trkpt lat="46.16782" lon="7.9564"><ele></ele><time>2025-8-20T12:34:11Z</time></trkpt>
<trkpt lat="46.16782" lon="7.95642"><ele></ele><time>2025-8-20T12:34:14Z</time></trkpt>
<trkpt lat="46.16781" lon="7.95646"><ele></ele><time>2025-8-20T12:34:17Z</time></trkpt>
<trkpt lat="46.16782" lon="7.95648"><ele></ele><time>2025-8-20T12:34:20Z</time></trkpt>
<trkpt lat="46.16782" lon="7.95654"><ele></ele><time>2025-8-20T12:34:23Z</time></trkpt>
<trkpt lat="46.16782" lon="7.95663"><ele></ele><time>2025-8-20T12:34:26Z</time></trkpt>
<trkpt lat="46.16782" lon="7.95665"><ele></ele><time>2025-8-20T12:34:29Z</time></trkpt>
<trkpt lat="46.16784" lon="7.95676"><ele></ele><time>2025-8-20T12:34:32Z</time></trkpt>
<trkpt lat="46.16784" lon="7.95678"><ele></ele><time>2025-8-20T12:34:35Z</time></trkpt>
<trkpt lat="46.16786" lon="7.9569"><ele></ele><time>2025-8-20T12:34:38Z</time></trkpt>
<trkpt lat="46.16786" lon="7.95692"><ele></ele><time>2025-8-20T12:34:41Z</time></trkpt>
<trkpt lat="46.16793" lon="7.95697"><ele></ele><time>2025-8-20T12:34:44Z</time></trkpt>
<trkpt lat="46.16794" lon="7.95698"><ele></ele><time>2025-8-20T12:34:47Z</time></trkpt>
<trkpt lat="46.168" lon="7.957"><ele></ele><time>2025-8-20T12:34:50Z</time></trkpt>
<trkpt lat="46.16802" lon="7.95701"><ele></ele><time>2025-8-20T12:34:53Z</time></trkpt>
<trkpt lat="46.16805" lon="7.95701"><ele></ele><time>2025-8-20T12:34:56Z</time></trkpt>
<trkpt lat="46.16805" lon="7.95701"><ele></ele><time>2025-8-20T12:34:59Z</time></trkpt>
<trkpt lat="46.16812" lon="7.95703"><ele></ele><time>2025-8-20T12:35:2Z</time></trkpt>
<trkpt lat="46.16813" lon="7.95703"><ele></ele><time>2025-8-20T12:35:5Z</time></trkpt>
<trkpt lat="46.16818" lon="7.95704"><ele></ele><time>2025-8-20T12:35:8Z</time></trkpt>
<trkpt lat="46.16821" lon="7.95704"><ele></ele><time>2025-8-20T12:35:11Z</time></trkpt>
<trkpt lat="46.16822" lon="7.95705"><ele></ele><time>2025-8-20T12:35:14Z</time></trkpt>
<trkpt lat="46.16822" lon="7.95711"><ele></ele><time>2025-8-20T12:35:17Z</time></trkpt>
<trkpt lat="46.16821" lon="7.95715"><ele></ele><time>2025-8-20T12:35:20Z</time></trkpt>
<trkpt lat="46.16816" lon="7.95722"><ele></ele><time>2025-8-20T12:35:23Z</time></trkpt>
<trkpt lat="46.16814" lon="7.95725"><ele></ele><time>2025-8-20T12:35:26Z</time></trkpt>
<trkpt lat="46.16812" lon="7.95729"><ele></ele><time>2025-8-20T12:35:29Z</time></trkpt>
<trkpt lat="46.1681" lon="7.9573"><ele></ele><time>2025-8-20T12:35:32Z</time></trkpt>
<trkpt lat="46.16808" lon="7.95733"><ele></ele><time>2025-8-20T12:35:35Z</time></trkpt>
<trkpt lat="46.16806" lon="7.95735"><ele></ele><time>2025-8-20T12:35:38Z</time></trkpt>
<trkpt lat="46.168" lon="7.95741"><ele></ele><time>2025-8-20T12:35:41Z</time></trkpt>
<trkpt lat="46.16797" lon="7.95745"><ele></ele><time>2025-8-20T12:35:44Z</time></trkpt>
<trkpt lat="46.16796" lon="7.95748"><ele></ele><time>2025-8-20T12:35:47Z</time></trkpt>
<trkpt lat="46.16793" lon="7.95752"><ele></ele><time>2025-8-20T12:35:50Z</time></trkpt>
<trkpt lat="46.16792" lon="7.95754"><ele></ele><time>2025-8-20T12:35:53Z</time></trkpt>
<trkpt lat="46.16788" lon="7.95758"><ele></ele><time>2025-8-20T12:35:56Z</time></trkpt>
<trkpt lat="46.16785" lon="7.95764"><ele></ele><time>2025-8-20T12:35:59Z</time></trkpt>
<trkpt lat="46.16782" lon="7.95766"><ele></ele><time>2025-8-20T12:36:2Z</time></trkpt>
<trkpt lat="46.1678" lon="7.95769"><ele></ele><time>2025-8-20T12:36:5Z</time></trkpt>
<trkpt lat="46.16777" lon="7.95771"><ele></ele><time>2025-8-20T12:36:8Z</time></trkpt>
<trkpt lat="46.16775" lon="7.95772"><ele></ele><time>2025-8-20T12:36:11Z</time></trkpt>
<trkpt lat="46.16771" lon="7.95775"><ele></ele><time>2025-8-20T12:36:14Z</time></trkpt>
<trkpt lat="46.16768" lon="7.95777"><ele></ele><time>2025-8-20T12:36:17Z</time></trkpt>
<trkpt lat="46.16765" lon="7.95779"><ele></ele><time>2025-8-20T12:36:20Z</time></trkpt>
<trkpt lat="46.16762" lon="7.95782"><ele></ele><time>2025-8-20T12:36:23Z</time></trkpt>
<trkpt lat="46.16762" lon="7.95782"><ele></ele><time>2025-8-20T12:36:26Z</time></trkpt>
<trkpt lat="46.16762" lon="7.95782"><ele></ele><time>2025-8-20T12:36:29Z</time></trkpt>
<trkpt lat="46.16762" lon="7.95782"><ele></ele><time>2025-8-20T12:36:32Z</time></trkpt>
<trkpt lat="46.16762" lon="7.95782"><ele></ele><time>2025-8-20T12:36:35Z</time></trkpt>
<trkpt lat="46.16762" lon="7.95782"><ele></ele><time>2025-8-20T12:36:38Z</time></trkpt>
<trkpt lat="46.16762" lon="7.95782"><ele></ele><time>2025-8-20T12:36:41Z</time></trkpt>
<trkpt lat="46.16762" lon="7.95782"><ele></ele><time>2025-8-20T12:36:44Z</time></trkpt>
<trkpt lat="46.16762" lon="7.95782"><ele></ele><time>2025-8-20T12:36:47Z</time></trkpt>
<trkpt lat="46.16762" lon="7.95782"><ele></ele><time>2025-8-20T12:36:50Z</time></trkpt>
<trkpt lat="46.16762" lon="7.95781"><ele></ele><time>2025-8-20T12:36:53Z</time></trkpt>
<trkpt lat="46.16762" lon="7.95782"><ele></ele><time>2025-8-20T12:36:56Z</time></trkpt>
<trkpt lat="46.16762" lon="7.95782"><ele></ele><time>2025-8-20T12:36:59Z</time></trkpt>
<trkpt lat="46.16762" lon="7.95782"><ele></ele><time>2025-8-20T12:37:2Z</time></trkpt>
<trkpt lat="46.16762" lon="7.95782"><ele></ele><time>2025-8-20T12:37:5Z</time></trkpt>
<trkpt lat="46.16762" lon="7.95782"><ele></ele><time>2025-8-20T12:37:8Z</time></trkpt>
<trkpt lat="46.16762" lon="7.95782"><ele></ele><time>2025-8-20T12:37:11Z</time></trkpt>
<trkpt lat="46.16762" lon="7.95782"><ele></ele><time>2025-8-20T12:37:14Z</time></trkpt>
<trkpt lat="46.16762" lon="7.95782"><ele></ele><time>2025-8-20T12:37:17Z</time></trkpt>
<trkpt lat="46.16762" lon="7.95782"><ele></ele><time>2025-8-20T12:37:20Z</time></trkpt>
<trkpt lat="46.16763" lon="7.95782"><ele></ele><time>2025-8-20T12:37:23Z</time></trkpt>
<trkpt lat="46.16764" lon="7.95786"><ele></ele><time>2025-8-20T12:37:26Z</time></trkpt>
<trkpt lat="46.16763" lon="7.95791"><ele></ele><time>2025-8-20T12:37:29Z</time></trkpt>
<trkpt lat="46.16763" lon="7.95792"><ele></ele><time>2025-8-20T12:37:32Z</time></trkpt>
<trkpt lat="46.16762" lon="7.958"><ele></ele><time>2025-8-20T12:37:35Z</time></trkpt>
<trkpt lat="46.16761" lon="7.95805"><ele></ele><time>2025-8-20T12:37:38Z</time></trkpt>
<trkpt lat="46.1676" lon="7.95808"><ele></ele><time>2025-8-20T12:37:41Z</time></trkpt>
<trkpt lat="46.16761" lon="7.9581"><ele></ele><time>2025-8-20T12:37:44Z</time></trkpt>
<trkpt lat="46.16764" lon="7.95813"><ele></ele><time>2025-8-20T12:37:47Z</time></trkpt>
<trkpt lat="46.16765" lon="7.95813"><ele></ele><time>2025-8-20T12:37:50Z</time></trkpt>
<trkpt lat="46.16768" lon="7.95808"><ele></ele><time>2025-8-20T12:37:53Z</time></trkpt>
<trkpt lat="46.16769" lon="7.95806"><ele></ele><time>2025-8-20T12:37:56Z</time></trkpt>
<trkpt lat="46.16774" lon="7.95802"><ele></ele><time>2025-8-20T12:37:59Z</time></trkpt>
<trkpt lat="46.16775" lon="7.95801"><ele></ele><time>2025-8-20T12:38:2Z</time></trkpt>
<trkpt lat="46.16782" lon="7.95801"><ele></ele><time>2025-8-20T12:38:5Z</time></trkpt>
<trkpt lat="46.16788" lon="7.95801"><ele></ele><time>2025-8-20T12:38:8Z</time></trkpt>
<trkpt lat="46.1679" lon="7.95802"><ele></ele><time>2025-8-20T12:38:11Z</time></trkpt>
<trkpt lat="46.16793" lon="7.95802"><ele></ele><time>2025-8-20T12:38:14Z</time></trkpt>
<trkpt lat="46.16796" lon="7.95803"><ele></ele><time>2025-8-20T12:38:17Z</time></trkpt>
<trkpt lat="46.16797" lon="7.95804"><ele></ele><time>2025-8-20T12:38:20Z</time></trkpt>
<trkpt lat="46.16806" lon="7.95807"><ele></ele><time>2025-8-20T12:38:23Z</time></trkpt>
<trkpt lat="46.16809" lon="7.95809"><ele></ele><time>2025-8-20T12:38:26Z</time></trkpt>
<trkpt lat="46.1681" lon="7.95809"><ele></ele><time>2025-8-20T12:38:29Z</time></trkpt>
<trkpt lat="46.16813" lon="7.95808"><ele></ele><time>2025-8-20T12:38:32Z</time></trkpt>
<trkpt lat="46.16819" lon="7.95809"><ele></ele><time>2025-8-20T12:38:35Z</time></trkpt>
<trkpt lat="46.16827" lon="7.95811"><ele></ele><time>2025-8-20T12:38:38Z</time></trkpt>
<trkpt lat="46.16834" lon="7.95813"><ele></ele><time>2025-8-20T12:38:41Z</time></trkpt>
<trkpt lat="46.16835" lon="7.95814"><ele></ele><time>2025-8-20T12:38:44Z</time></trkpt>
<trkpt lat="46.1684" lon="7.95814"><ele></ele><time>2025-8-20T12:38:47Z</time></trkpt>
<trkpt lat="46.16844" lon="7.95815"><ele></ele><time>2025-8-20T12:38:50Z</time></trkpt>
<trkpt lat="46.16847" lon="7.95813"><ele></ele><time>2025-8-20T12:38:53Z</time></trkpt>
<trkpt lat="46.16851" lon="7.9581"><ele></ele><time>2025-8-20T12:38:56Z</time></trkpt>
<trkpt lat="46.16854" lon="7.95807"><ele></ele><time>2025-8-20T12:38:59Z</time></trkpt>
<trkpt lat="46.16855" lon="7.95801"><ele></ele><time>2025-8-20T12:39:2Z</time></trkpt>
<trkpt lat="46.16856" lon="7.95798"><ele></ele><time>2025-8-20T12:39:5Z</time></trkpt>
<trkpt lat="46.16857" lon="7.95791"><ele></ele><time>2025-8-20T12:39:8Z</time></trkpt>
<trkpt lat="46.16857" lon="7.95789"><ele></ele><time>2025-8-20T12:39:11Z</time></trkpt>
<trkpt lat="46.16858" lon="7.95787"><ele></ele><time>2025-8-20T12:39:14Z</time></trkpt>
<trkpt lat="46.1686" lon="7.95783"><ele></ele><time>2025-8-20T12:39:17Z</time></trkpt>
<trkpt lat="46.16862" lon="7.95778"><ele></ele><time>2025-8-20T12:39:20Z</time></trkpt>
<trkpt lat="46.16864" lon="7.95775"><ele></ele><time>2025-8-20T12:39:23Z</time></trkpt>
<trkpt lat="46.16866" lon="7.95769"><ele></ele><time>2025-8-20T12:39:26Z</time></trkpt>
<trkpt lat="46.16868" lon="7.95765"><ele></ele><time>2025-8-20T12:39:29Z</time></trkpt>
<trkpt lat="46.1687" lon="7.95761"><ele></ele><time>2025-8-20T12:39:32Z</time></trkpt>
<trkpt lat="46.16872" lon="7.95754"><ele></ele><time>2025-8-20T12:39:35Z</time></trkpt>
<trkpt lat="46.16873" lon="7.95753"><ele></ele><time>2025-8-20T12:39:38Z</time></trkpt>
<trkpt lat="46.16875" lon="7.95746"><ele></ele><time>2025-8-20T12:39:41Z</time></trkpt>
<trkpt lat="46.16876" lon="7.95744"><ele></ele><time>2025-8-20T12:39:44Z</time></trkpt>
<trkpt lat="46.16879" lon="7.95739"><ele></ele><time>2025-8-20T12:39:47Z</time></trkpt>
<trkpt lat="46.16882" lon="7.95735"><ele></ele><time>2025-8-20T12:39:50Z</time></trkpt>
<trkpt lat="46.16883" lon="7.95732"><ele></ele><time>2025-8-20T12:39:53Z</time></trkpt>
<trkpt lat="46.16884" lon="7.95731"><ele></ele><time>2025-8-20T12:39:56Z</time></trkpt>
<trkpt lat="46.16884" lon="7.95729"><ele></ele><time>2025-8-20T12:39:59Z</time></trkpt>
<trkpt lat="46.16884" lon="7.95728"><ele></ele><time>2025-8-20T12:40:2Z</time></trkpt>
<trkpt lat="46.16886" lon="7.95725"><ele></ele><time>2025-8-20T12:40:5Z</time></trkpt>
<trkpt lat="46.16888" lon="7.9572"><ele></ele><time>2025-8-20T12:40:8Z</time></trkpt>
<trkpt lat="46.16891" lon="7.95713"><ele></ele><time>2025-8-20T12:40:11Z</time></trkpt>
<trkpt lat="46.16894" lon="7.95702"><ele></ele><time>2025-8-20T12:40:14Z</time></trkpt>
<trkpt lat="46.16896" lon="7.95692"><ele></ele><time>2025-8-20T12:40:17Z</time></trkpt>
<trkpt lat="46.16897" lon="7.9568"><ele></ele><time>2025-8-20T12:40:20Z</time></trkpt>
<trkpt lat="46.16898" lon="7.95678"><ele></ele><time>2025-8-20T12:40:23Z</time></trkpt>
<trkpt lat="46.16898" lon="7.95677"><ele></ele><time>2025-8-20T12:40:26Z</time></trkpt>
<trkpt lat="46.16899" lon="7.95673"><ele></ele><time>2025-8-20T12:40:29Z</time></trkpt>
<trkpt lat="46.16899" lon="7.95671"><ele></ele><time>2025-8-20T12:40:32Z</time></trkpt>
<trkpt lat="46.169" lon="7.95666"><ele></ele><time>2025-8-20T12:40:35Z</time></trkpt>
<trkpt lat="46.16901" lon="7.9566"><ele></ele><time>2025-8-20T12:40:38Z</time></trkpt>
<trkpt lat="46.16902" lon="7.95657"><ele></ele><time>2025-8-20T12:40:41Z</time></trkpt>
<trkpt lat="46.16902" lon="7.95655"><ele></ele><time>2025-8-20T12:40:44Z</time></trkpt>
<trkpt lat="46.16901" lon="7.95644"><ele></ele><time>2025-8-20T12:40:47Z</time></trkpt>
<trkpt lat="46.16902" lon="7.95634"><ele></ele><time>2025-8-20T12:40:50Z</time></trkpt>
<trkpt lat="46.16904" lon="7.95633"><ele></ele><time>2025-8-20T12:40:53Z</time></trkpt>
<trkpt lat="46.16907" lon="7.95633"><ele></ele><time>2025-8-20T12:40:56Z</time></trkpt>
<trkpt lat="46.16909" lon="7.95635"><ele></ele><time>2025-8-20T12:40:59Z</time></trkpt>
<trkpt lat="46.1691" lon="7.95637"><ele></ele><time>2025-8-20T12:41:2Z</time></trkpt>
<trkpt lat="46.1691" lon="7.95639"><ele></ele><time>2025-8-20T12:41:5Z</time></trkpt>
<trkpt lat="46.16907" lon="7.95649"><ele></ele><time>2025-8-20T12:41:8Z</time></trkpt>
<trkpt lat="46.16908" lon="7.95651"><ele></ele><time>2025-8-20T12:41:11Z</time></trkpt>
<trkpt lat="46.16908" lon="7.95656"><ele></ele><time>2025-8-20T12:41:14Z</time></trkpt>
<trkpt lat="46.16908" lon="7.95661"><ele></ele><time>2025-8-20T12:41:17Z</time></trkpt>
<trkpt lat="46.16909" lon="7.95666"><ele></ele><time>2025-8-20T12:41:20Z</time></trkpt>
<trkpt lat="46.16909" lon="7.95672"><ele></ele><time>2025-8-20T12:41:23Z</time></trkpt>
<trkpt lat="46.16908" lon="7.95675"><ele></ele><time>2025-8-20T12:41:26Z</time></trkpt>
<trkpt lat="46.16907" lon="7.95683"><ele></ele><time>2025-8-20T12:41:29Z</time></trkpt>
<trkpt lat="46.16908" lon="7.95686"><ele></ele><time>2025-8-20T12:41:32Z</time></trkpt>
<trkpt lat="46.16908" lon="7.95689"><ele></ele><time>2025-8-20T12:41:35Z</time></trkpt>
<trkpt lat="46.16909" lon="7.95696"><ele></ele><time>2025-8-20T12:41:38Z</time></trkpt>
<trkpt lat="46.16908" lon="7.95698"><ele></ele><time>2025-8-20T12:41:41Z</time></trkpt>
<trkpt lat="46.16908" lon="7.95699"><ele></ele><time>2025-8-20T12:41:44Z</time></trkpt>
<trkpt lat="46.16908" lon="7.95704"><ele></ele><time>2025-8-20T12:41:47Z</time></trkpt>
<trkpt lat="46.16908" lon="7.95712"><ele></ele><time>2025-8-20T12:41:50Z</time></trkpt>
<trkpt lat="46.16907" lon="7.95717"><ele></ele><time>2025-8-20T12:41:53Z</time></trkpt>
<trkpt lat="46.16907" lon="7.95724"><ele></ele><time>2025-8-20T12:41:56Z</time></trkpt>
<trkpt lat="46.16907" lon="7.95725"><ele></ele><time>2025-8-20T12:41:59Z</time></trkpt>
<trkpt lat="46.16905" lon="7.95733"><ele></ele><time>2025-8-20T12:42:2Z</time></trkpt>
<trkpt lat="46.16906" lon="7.95734"><ele></ele><time>2025-8-20T12:42:5Z</time></trkpt>
<trkpt lat="46.16906" lon="7.95737"><ele></ele><time>2025-8-20T12:42:8Z</time></trkpt>
<trkpt lat="46.16905" lon="7.95741"><ele></ele><time>2025-8-20T12:42:11Z</time></trkpt>
<trkpt lat="46.16905" lon="7.95749"><ele></ele><time>2025-8-20T12:42:14Z</time></trkpt>
<trkpt lat="46.16904" lon="7.95757"><ele></ele><time>2025-8-20T12:42:17Z</time></trkpt>
<trkpt lat="46.16905" lon="7.95761"><ele></ele><time>2025-8-20T12:42:20Z</time></trkpt>
<trkpt lat="46.16904" lon="7.95765"><ele></ele><time>2025-8-20T12:42:23Z</time></trkpt>
<trkpt lat="46.16903" lon="7.95771"><ele></ele><time>2025-8-20T12:42:26Z</time></trkpt>
<trkpt lat="46.16903" lon="7.95772"><ele></ele><time>2025-8-20T12:42:29Z</time></trkpt>
<trkpt lat="46.16902" lon="7.95781"><ele></ele><time>2025-8-20T12:42:32Z</time></trkpt>
<trkpt lat="46.16901" lon="7.95786"><ele></ele><time>2025-8-20T12:42:35Z</time></trkpt>
<trkpt lat="46.16901" lon="7.9579"><ele></ele><time>2025-8-20T12:42:38Z</time></trkpt>
<trkpt lat="46.16901" lon="7.95797"><ele></ele><time>2025-8-20T12:42:41Z</time></trkpt>
<trkpt lat="46.16901" lon="7.95805"><ele></ele><time>2025-8-20T12:42:44Z</time></trkpt>
<trkpt lat="46.16902" lon="7.95815"><ele></ele><time>2025-8-20T12:42:47Z</time></trkpt>
<trkpt lat="46.16902" lon="7.95819"><ele></ele><time>2025-8-20T12:42:50Z</time></trkpt>
<trkpt lat="46.16903" lon="7.95825"><ele></ele><time>2025-8-20T12:42:53Z</time></trkpt>
<trkpt lat="46.16903" lon="7.95829"><ele></ele><time>2025-8-20T12:42:56Z</time></trkpt>
<trkpt lat="46.16903" lon="7.9583"><ele></ele><time>2025-8-20T12:42:59Z</time></trkpt>
<trkpt lat="46.16904" lon="7.95838"><ele></ele><time>2025-8-20T12:43:2Z</time></trkpt>
<trkpt lat="46.16904" lon="7.95841"><ele></ele><time>2025-8-20T12:43:5Z</time></trkpt>
<trkpt lat="46.16904" lon="7.95842"><ele></ele><time>2025-8-20T12:43:8Z</time></trkpt>
<trkpt lat="46.16904" lon="7.95845"><ele></ele><time>2025-8-20T12:43:11Z</time></trkpt>
<trkpt lat="46.16905" lon="7.95852"><ele></ele><time>2025-8-20T12:43:14Z</time></trkpt>
<trkpt lat="46.16905" lon="7.95855"><ele></ele><time>2025-8-20T12:43:17Z</time></trkpt>
<trkpt lat="46.16906" lon="7.95863"><ele></ele><time>2025-8-20T12:43:20Z</time></trkpt>
<trkpt lat="46.16906" lon="7.95872"><ele></ele><time>2025-8-20T12:43:23Z</time></trkpt>
<trkpt lat="46.16906" lon="7.95873"><ele></ele><time>2025-8-20T12:43:26Z</time></trkpt>
<trkpt lat="46.16906" lon="7.95885"><ele></ele><time>2025-8-20T12:43:29Z</time></trkpt>
<trkpt lat="46.16904" lon="7.9589"><ele></ele><time>2025-8-20T12:43:32Z</time></trkpt>
<trkpt lat="46.16903" lon="7.95895"><ele></ele><time>2025-8-20T12:43:35Z</time></trkpt>
<trkpt lat="46.16903" lon="7.95899"><ele></ele><time>2025-8-20T12:43:38Z</time></trkpt>
<trkpt lat="46.16903" lon="7.95905"><ele></ele><time>2025-8-20T12:43:41Z</time></trkpt>
<trkpt lat="46.16902" lon="7.95911"><ele></ele><time>2025-8-20T12:43:44Z</time></trkpt>
<trkpt lat="46.16901" lon="7.95917"><ele></ele><time>2025-8-20T12:43:47Z</time></trkpt>
<trkpt lat="46.16901" lon="7.95922"><ele></ele><time>2025-8-20T12:43:50Z</time></trkpt>
<trkpt lat="46.16897" lon="7.95932"><ele></ele><time>2025-8-20T12:43:53Z</time></trkpt>
<trkpt lat="46.16896" lon="7.95933"><ele></ele><time>2025-8-20T12:43:56Z</time></trkpt>
<trkpt lat="46.1689" lon="7.9594"><ele></ele><time>2025-8-20T12:43:59Z</time></trkpt>
<trkpt lat="46.16885" lon="7.95948"><ele></ele><time>2025-8-20T12:44:2Z</time></trkpt>
<trkpt lat="46.16883" lon="7.95951"><ele></ele><time>2025-8-20T12:44:5Z</time></trkpt>
<trkpt lat="46.16881" lon="7.95955"><ele></ele><time>2025-8-20T12:44:8Z</time></trkpt>
<trkpt lat="46.1688" lon="7.95957"><ele></ele><time>2025-8-20T12:44:11Z</time></trkpt>
<trkpt lat="46.16876" lon="7.9596"><ele></ele><time>2025-8-20T12:44:14Z</time></trkpt>
<trkpt lat="46.16868" lon="7.95963"><ele></ele><time>2025-8-20T12:44:17Z</time></trkpt>
<trkpt lat="46.16861" lon="7.95962"><ele></ele><time>2025-8-20T12:44:20Z</time></trkpt>
<trkpt lat="46.16854" lon="7.95961"><ele></ele><time>2025-8-20T12:44:23Z</time></trkpt>
<trkpt lat="46.16853" lon="7.95962"><ele></ele><time>2025-8-20T12:44:26Z</time></trkpt>
<trkpt lat="46.16854" lon="7.95963"><ele></ele><time>2025-8-20T12:44:29Z</time></trkpt>
<trkpt lat="46.16855" lon="7.95966"><ele></ele><time>2025-8-20T12:44:32Z</time></trkpt>
<trkpt lat="46.16861" lon="7.95969"><ele></ele><time>2025-8-20T12:44:35Z</time></trkpt>
<trkpt lat="46.16862" lon="7.95969"><ele></ele><time>2025-8-20T12:44:38Z</time></trkpt>
<trkpt lat="46.16869" lon="7.95972"><ele></ele><time>2025-8-20T12:44:41Z</time></trkpt>
<trkpt lat="46.16873" lon="7.95972"><ele></ele><time>2025-8-20T12:44:44Z</time></trkpt>
<trkpt lat="46.16874" lon="7.95972"><ele></ele><time>2025-8-20T12:44:47Z</time></trkpt>
<trkpt lat="46.16882" lon="7.95971"><ele></ele><time>2025-8-20T12:44:50Z</time></trkpt>
<trkpt lat="46.16889" lon="7.95968"><ele></ele><time>2025-8-20T12:44:53Z</time></trkpt>
<trkpt lat="46.16891" lon="7.95967"><ele></ele><time>2025-8-20T12:44:56Z</time></trkpt>
<trkpt lat="46.16899" lon="7.95964"><ele></ele><time>2025-8-20T12:44:59Z</time></trkpt>
<trkpt lat="46.1691" lon="7.95958"><ele></ele><time>2025-8-20T12:45:2Z</time></trkpt>
<trkpt lat="46.16913" lon="7.95954"><ele></ele><time>2025-8-20T12:45:5Z</time></trkpt>
<trkpt lat="46.16913" lon="7.95952"><ele></ele><time>2025-8-20T12:45:8Z</time></trkpt>
<trkpt lat="46.16916" lon="7.95946"><ele></ele><time>2025-8-20T12:45:11Z</time></trkpt>
<trkpt lat="46.1692" lon="7.95938"><ele></ele><time>2025-8-20T12:45:14Z</time></trkpt>
<trkpt lat="46.16921" lon="7.95936"><ele></ele><time>2025-8-20T12:45:17Z</time></trkpt>
<trkpt lat="46.16924" lon="7.95929"><ele></ele><time>2025-8-20T12:45:20Z</time></trkpt>
<trkpt lat="46.16925" lon="7.95927"><ele></ele><time>2025-8-20T12:45:23Z</time></trkpt>
<trkpt lat="46.16928" lon="7.95921"><ele></ele><time>2025-8-20T12:45:26Z</time></trkpt>
<trkpt lat="46.16928" lon="7.9592"><ele></ele><time>2025-8-20T12:45:29Z</time></trkpt>
<trkpt lat="46.16929" lon="7.95919"><ele></ele><time>2025-8-20T12:45:32Z</time></trkpt>
<trkpt lat="46.16931" lon="7.95912"><ele></ele><time>2025-8-20T12:45:35Z</time></trkpt>
<trkpt lat="46.16933" lon="7.95906"><ele></ele><time>2025-8-20T12:45:38Z</time></trkpt>
<trkpt lat="46.16934" lon="7.95902"><ele></ele><time>2025-8-20T12:45:41Z</time></trkpt>
<trkpt lat="46.16936" lon="7.95896"><ele></ele><time>2025-8-20T12:45:44Z</time></trkpt>
<trkpt lat="46.16936" lon="7.95894"><ele></ele><time>2025-8-20T12:45:47Z</time></trkpt>
<trkpt lat="46.16936" lon="7.9589"><ele></ele><time>2025-8-20T12:45:50Z</time></trkpt>
<trkpt lat="46.16937" lon="7.95884"><ele></ele><time>2025-8-20T12:45:53Z</time></trkpt>
<trkpt lat="46.16937" lon="7.95882"><ele></ele><time>2025-8-20T12:45:56Z</time></trkpt>
<trkpt lat="46.16939" lon="7.95871"><ele></ele><time>2025-8-20T12:45:59Z</time></trkpt>
<trkpt lat="46.16939" lon="7.95869"><ele></ele><time>2025-8-20T12:46:2Z</time></trkpt>
<trkpt lat="46.16941" lon="7.9586"><ele></ele><time>2025-8-20T12:46:5Z</time></trkpt>
<trkpt lat="46.16941" lon="7.95859"><ele></ele><time>2025-8-20T12:46:8Z</time></trkpt>
<trkpt lat="46.16943" lon="7.95851"><ele></ele><time>2025-8-20T12:46:11Z</time></trkpt>
<trkpt lat="46.16944" lon="7.95847"><ele></ele><time>2025-8-20T12:46:14Z</time></trkpt>
<trkpt lat="46.16944" lon="7.95846"><ele></ele><time>2025-8-20T12:46:17Z</time></trkpt>
<trkpt lat="46.16948" lon="7.95841"><ele></ele><time>2025-8-20T12:46:20Z</time></trkpt>
<trkpt lat="46.16949" lon="7.95838"><ele></ele><time>2025-8-20T12:46:23Z</time></trkpt>
<trkpt lat="46.16951" lon="7.95831"><ele></ele><time>2025-8-20T12:46:26Z</time></trkpt>
<trkpt lat="46.16951" lon="7.9583"><ele></ele><time>2025-8-20T12:46:29Z</time></trkpt>
<trkpt lat="46.16954" lon="7.9583"><ele></ele><time>2025-8-20T12:46:32Z</time></trkpt>
<trkpt lat="46.16955" lon="7.9583"><ele></ele><time>2025-8-20T12:46:35Z</time></trkpt>
<trkpt lat="46.16956" lon="7.95832"><ele></ele><time>2025-8-20T12:46:38Z</time></trkpt>
<trkpt lat="46.16957" lon="7.95837"><ele></ele><time>2025-8-20T12:46:41Z</time></trkpt>
<trkpt lat="46.16956" lon="7.95839"><ele></ele><time>2025-8-20T12:46:44Z</time></trkpt>
<trkpt lat="46.16955" lon="7.95845"><ele></ele><time>2025-8-20T12:46:47Z</time></trkpt>
<trkpt lat="46.16954" lon="7.95848"><ele></ele><time>2025-8-20T12:46:50Z</time></trkpt>
<trkpt lat="46.16954" lon="7.95854"><ele></ele><time>2025-8-20T12:46:53Z</time></trkpt>
<trkpt lat="46.16954" lon="7.95856"><ele></ele><time>2025-8-20T12:46:56Z</time></trkpt>
<trkpt lat="46.16954" lon="7.95862"><ele></ele><time>2025-8-20T12:46:59Z</time></trkpt>
<trkpt lat="46.16954" lon="7.95864"><ele></ele><time>2025-8-20T12:47:2Z</time></trkpt>
<trkpt lat="46.16956" lon="7.95871"><ele></ele><time>2025-8-20T12:47:5Z</time></trkpt>
<trkpt lat="46.16957" lon="7.95877"><ele></ele><time>2025-8-20T12:47:8Z</time></trkpt>
<trkpt lat="46.16957" lon="7.95886"><ele></ele><time>2025-8-20T12:47:11Z</time></trkpt>
<trkpt lat="46.16957" lon="7.95896"><ele></ele><time>2025-8-20T12:47:14Z</time></trkpt>
<trkpt lat="46.16958" lon="7.95901"><ele></ele><time>2025-8-20T12:47:17Z</time></trkpt>
<trkpt lat="46.16957" lon="7.95904"><ele></ele><time>2025-8-20T12:47:20Z</time></trkpt>
<trkpt lat="46.16957" lon="7.95905"><ele></ele><time>2025-8-20T12:47:23Z</time></trkpt>
<trkpt lat="46.16958" lon="7.95907"><ele></ele><time>2025-8-20T12:47:26Z</time></trkpt>
<trkpt lat="46.16959" lon="7.9591"><ele></ele><time>2025-8-20T12:47:29Z</time></trkpt>
<trkpt lat="46.16959" lon="7.9591"><ele></ele><time>2025-8-20T12:47:32Z</time></trkpt>
<trkpt lat="46.16959" lon="7.9591"><ele></ele><time>2025-8-20T12:47:35Z</time></trkpt>
<trkpt lat="46.16959" lon="7.95907"><ele></ele><time>2025-8-20T12:47:38Z</time></trkpt>
<trkpt lat="46.16959" lon="7.95907"><ele></ele><time>2025-8-20T12:47:41Z</time></trkpt>
<trkpt lat="46.16958" lon="7.95907"><ele></ele><time>2025-8-20T12:47:44Z</time></trkpt>
<trkpt lat="46.16957" lon="7.959"><ele></ele><time>2025-8-20T12:47:47Z</time></trkpt>
<trkpt lat="46.16957" lon="7.95879"><ele></ele><time>2025-8-20T12:47:50Z</time></trkpt>
<trkpt lat="46.16956" lon="7.95873"><ele></ele><time>2025-8-20T12:47:53Z</time></trkpt>
<trkpt lat="46.16956" lon="7.95873"><ele></ele><time>2025-8-20T12:47:56Z</time></trkpt>
<trkpt lat="46.16955" lon="7.95878"><ele></ele><time>2025-8-20T12:47:59Z</time></trkpt>
<trkpt lat="46.16955" lon="7.9588"><ele></ele><time>2025-8-20T12:48:2Z</time></trkpt>
<trkpt lat="46.16957" lon="7.95897"><ele></ele><time>2025-8-20T12:48:5Z</time></trkpt>
<trkpt lat="46.16958" lon="7.95917"><ele></ele><time>2025-8-20T12:48:8Z</time></trkpt>
<trkpt lat="46.16958" lon="7.95919"><ele></ele><time>2025-8-20T12:48:11Z</time></trkpt>
<trkpt lat="46.16957" lon="7.95922"><ele></ele><time>2025-8-20T12:48:14Z</time></trkpt>
<trkpt lat="46.16957" lon="7.9592"><ele></ele><time>2025-8-20T12:48:17Z</time></trkpt>
<trkpt lat="46.16957" lon="7.95913"><ele></ele><time>2025-8-20T12:48:20Z</time></trkpt>
<trkpt lat="46.16958" lon="7.95908"><ele></ele><time>2025-8-20T12:48:23Z</time></trkpt>
<trkpt lat="46.16958" lon="7.95908"><ele></ele><time>2025-8-20T12:48:26Z</time></trkpt>
<trkpt lat="46.16958" lon="7.95908"><ele></ele><time>2025-8-20T12:48:29Z</time></trkpt>
<trkpt lat="46.16958" lon="7.95908"><ele></ele><time>2025-8-20T12:48:32Z</time></trkpt>
<trkpt lat="46.16957" lon="7.95904"><ele></ele><time>2025-8-20T12:48:35Z</time></trkpt>
<trkpt lat="46.16957" lon="7.95894"><ele></ele><time>2025-8-20T12:48:38Z</time></trkpt>
<trkpt lat="46.16957" lon="7.95898"><ele></ele><time>2025-8-20T12:48:41Z</time></trkpt>
<trkpt lat="46.16958" lon="7.95899"><ele></ele><time>2025-8-20T12:48:44Z</time></trkpt>
<trkpt lat="46.16959" lon="7.95908"><ele></ele><time>2025-8-20T12:48:47Z</time></trkpt>
<trkpt lat="46.16959" lon="7.95922"><ele></ele><time>2025-8-20T12:48:50Z</time></trkpt>
<trkpt lat="46.16958" lon="7.95925"><ele></ele><time>2025-8-20T12:48:53Z</time></trkpt>
<trkpt lat="46.16957" lon="7.95939"><ele></ele><time>2025-8-20T12:48:56Z</time></trkpt>
<trkpt lat="46.16956" lon="7.95948"><ele></ele><time>2025-8-20T12:48:59Z</time></trkpt>
<trkpt lat="46.16955" lon="7.9595"><ele></ele><time>2025-8-20T12:49:2Z</time></trkpt>
<trkpt lat="46.16953" lon="7.95956"><ele></ele><time>2025-8-20T12:49:5Z</time></trkpt>
<trkpt lat="46.16953" lon="7.95955"><ele></ele><time>2025-8-20T12:49:8Z</time></trkpt>
<trkpt lat="46.16954" lon="7.95953"><ele></ele><time>2025-8-20T12:49:11Z</time></trkpt>
<trkpt lat="46.16957" lon="7.95934"><ele></ele><time>2025-8-20T12:49:14Z</time></trkpt>
<trkpt lat="46.16958" lon="7.95917"><ele></ele><time>2025-8-20T12:49:17Z</time></trkpt>
<trkpt lat="46.16958" lon="7.95913"><ele></ele><time>2025-8-20T12:49:20Z</time></trkpt>
<trkpt lat="46.16958" lon="7.95908"><ele></ele><time>2025-8-20T12:49:23Z</time></trkpt>
<trkpt lat="46.16958" lon="7.95908"><ele></ele><time>2025-8-20T12:49:26Z</time></trkpt>
<trkpt lat="46.16958" lon="7.95908"><ele></ele><time>2025-8-20T12:49:29Z</time></trkpt>
<trkpt lat="46.16958" lon="7.95908"><ele></ele><time>2025-8-20T12:49:32Z</time></trkpt>
<trkpt lat="46.16958" lon="7.95908"><ele></ele><time>2025-8-20T12:49:35Z</time></trkpt>
<trkpt lat="46.16957" lon="7.9591"><ele></ele><time>2025-8-20T12:49:38Z</time></trkpt>
<trkpt lat="46.16957" lon="7.9591"><ele></ele><time>2025-8-20T12:49:41Z</time></trkpt>
<trkpt lat="46.16957" lon="7.9591"><ele></ele><time>2025-8-20T12:49:44Z</time></trkpt>
<trkpt lat="46.16957" lon="7.95911"><ele></ele><time>2025-8-20T12:49:47Z</time></trkpt>
<trkpt lat="46.16958" lon="7.95919"><ele></ele><time>2025-8-20T12:49:50Z</time></trkpt>
<trkpt lat="46.16958" lon="7.95921"><ele></ele><time>2025-8-20T12:49:53Z</time></trkpt>
<trkpt lat="46.16958" lon="7.9593"><ele></ele><time>2025-8-20T12:49:56Z</time></trkpt>
<trkpt lat="46.16958" lon="7.95936"><ele></ele><time>2025-8-20T12:49:59Z</time></trkpt>
<trkpt lat="46.16958" lon="7.95938"><ele></ele><time>2025-8-20T12:50:2Z</time></trkpt>
<trkpt lat="46.16956" lon="7.95949"><ele></ele><time>2025-8-20T12:50:5Z</time></trkpt>
<trkpt lat="46.16956" lon="7.95951"><ele></ele><time>2025-8-20T12:50:8Z</time></trkpt>
<trkpt lat="46.16952" lon="7.95962"><ele></ele><time>2025-8-20T12:50:11Z</time></trkpt>
<trkpt lat="46.16951" lon="7.95966"><ele></ele><time>2025-8-20T12:50:14Z</time></trkpt>
<trkpt lat="46.16949" lon="7.95973"><ele></ele><time>2025-8-20T12:50:17Z</time></trkpt>
<trkpt lat="46.16947" lon="7.95981"><ele></ele><time>2025-8-20T12:50:20Z</time></trkpt>
<trkpt lat="46.16946" lon="7.95984"><ele></ele><time>2025-8-20T12:50:23Z</time></trkpt>
<trkpt lat="46.16944" lon="7.95992"><ele></ele><time>2025-8-20T12:50:26Z</time></trkpt>
<trkpt lat="46.16943" lon="7.95995"><ele></ele><time>2025-8-20T12:50:29Z</time></trkpt>
<trkpt lat="46.16942" lon="7.96003"><ele></ele><time>2025-8-20T12:50:32Z</time></trkpt>
<trkpt lat="46.16942" lon="7.96007"><ele></ele><time>2025-8-20T12:50:35Z</time></trkpt>
<trkpt lat="46.16941" lon="7.96011"><ele></ele><time>2025-8-20T12:50:38Z</time></trkpt>
<trkpt lat="46.1694" lon="7.96017"><ele></ele><time>2025-8-20T12:50:41Z</time></trkpt>
<trkpt lat="46.16939" lon="7.96017"><ele></ele><time>2025-8-20T12:50:44Z</time></trkpt>
<trkpt lat="46.16938" lon="7.96025"><ele></ele><time>2025-8-20T12:50:47Z</time></trkpt>
<trkpt lat="46.16937" lon="7.96029"><ele></ele><time>2025-8-20T12:50:50Z</time></trkpt>
<trkpt lat="46.16936" lon="7.96031"><ele></ele><time>2025-8-20T12:50:53Z</time></trkpt>
<trkpt lat="46.16934" lon="7.96035"><ele></ele><time>2025-8-20T12:50:56Z</time></trkpt>
<trkpt lat="46.16932" lon="7.96037"><ele></ele><time>2025-8-20T12:50:59Z</time></trkpt>
<trkpt lat="46.16931" lon="7.9604"><ele></ele><time>2025-8-20T12:51:2Z</time></trkpt>
<trkpt lat="46.16929" lon="7.96044"><ele></ele><time>2025-8-20T12:51:5Z</time></trkpt>
<trkpt lat="46.16928" lon="7.96046"><ele></ele><time>2025-8-20T12:51:8Z</time></trkpt>
<trkpt lat="46.16919" lon="7.96053"><ele></ele><time>2025-8-20T12:51:11Z</time></trkpt>
<trkpt lat="46.1691" lon="7.96053"><ele></ele><time>2025-8-20T12:51:14Z</time></trkpt>
<trkpt lat="46.16903" lon="7.96053"><ele></ele><time>2025-8-20T12:51:17Z</time></trkpt>
<trkpt lat="46.169" lon="7.96052"><ele></ele><time>2025-8-20T12:51:20Z</time></trkpt>
<trkpt lat="46.16898" lon="7.96052"><ele></ele><time>2025-8-20T12:51:23Z</time></trkpt>
<trkpt lat="46.16897" lon="7.96052"><ele></ele><time>2025-8-20T12:51:26Z</time></trkpt>
<trkpt lat="46.16896" lon="7.96054"><ele></ele><time>2025-8-20T12:51:29Z</time></trkpt>
<trkpt lat="46.16896" lon="7.96057"><ele></ele><time>2025-8-20T12:51:32Z</time></trkpt>
<trkpt lat="46.16897" lon="7.96058"><ele></ele><time>2025-8-20T12:51:35Z</time></trkpt>
<trkpt lat="46.16898" lon="7.96058"><ele></ele><time>2025-8-20T12:51:38Z</time></trkpt>
<trkpt lat="46.16903" lon="7.9606"><ele></ele><time>2025-8-20T12:51:41Z</time></trkpt>
<trkpt lat="46.16906" lon="7.96062"><ele></ele><time>2025-8-20T12:51:44Z</time></trkpt>
<trkpt lat="46.16909" lon="7.96063"><ele></ele><time>2025-8-20T12:51:47Z</time></trkpt>
<trkpt lat="46.16911" lon="7.96064"><ele></ele><time>2025-8-20T12:51:50Z</time></trkpt>
<trkpt lat="46.16915" lon="7.96066"><ele></ele><time>2025-8-20T12:51:53Z</time></trkpt>
<trkpt lat="46.16918" lon="7.96066"><ele></ele><time>2025-8-20T12:51:56Z</time></trkpt>
<trkpt lat="46.16922" lon="7.96067"><ele></ele><time>2025-8-20T12:51:59Z</time></trkpt>
<trkpt lat="46.16926" lon="7.96068"><ele></ele><time>2025-8-20T12:52:2Z</time></trkpt>
<trkpt lat="46.16928" lon="7.96067"><ele></ele><time>2025-8-20T12:52:5Z</time></trkpt>
<trkpt lat="46.16936" lon="7.96059"><ele></ele><time>2025-8-20T12:52:8Z</time></trkpt>
<trkpt lat="46.16939" lon="7.96052"><ele></ele><time>2025-8-20T12:52:11Z</time></trkpt>
<trkpt lat="46.16941" lon="7.9605"><ele></ele><time>2025-8-20T12:52:14Z</time></trkpt>
<trkpt lat="46.16944" lon="7.96046"><ele></ele><time>2025-8-20T12:52:17Z</time></trkpt>
<trkpt lat="46.16947" lon="7.96042"><ele></ele><time>2025-8-20T12:52:20Z</time></trkpt>
<trkpt lat="46.16948" lon="7.9604"><ele></ele><time>2025-8-20T12:52:23Z</time></trkpt>
<trkpt lat="46.16953" lon="7.96035"><ele></ele><time>2025-8-20T12:52:26Z</time></trkpt>
<trkpt lat="46.16956" lon="7.96028"><ele></ele><time>2025-8-20T12:52:29Z</time></trkpt>
<trkpt lat="46.1696" lon="7.9602"><ele></ele><time>2025-8-20T12:52:32Z</time></trkpt>
<trkpt lat="46.16961" lon="7.96017"><ele></ele><time>2025-8-20T12:52:35Z</time></trkpt>
<trkpt lat="46.16962" lon="7.96014"><ele></ele><time>2025-8-20T12:52:38Z</time></trkpt>
<trkpt lat="46.16966" lon="7.96007"><ele></ele><time>2025-8-20T12:52:41Z</time></trkpt>
<trkpt lat="46.16968" lon="7.96003"><ele></ele><time>2025-8-20T12:52:44Z</time></trkpt>
<trkpt lat="46.16971" lon="7.96"><ele></ele><time>2025-8-20T12:52:47Z</time></trkpt>
<trkpt lat="46.16972" lon="7.95998"><ele></ele><time>2025-8-20T12:52:50Z</time></trkpt>
<trkpt lat="46.16973" lon="7.95997"><ele></ele><time>2025-8-20T12:52:53Z</time></trkpt>
<trkpt lat="46.16977" lon="7.95987"><ele></ele><time>2025-8-20T12:52:56Z</time></trkpt>
<trkpt lat="46.16978" lon="7.95986"><ele></ele><time>2025-8-20T12:52:59Z</time></trkpt>
<trkpt lat="46.16981" lon="7.9598"><ele></ele><time>2025-8-20T12:53:2Z</time></trkpt>
<trkpt lat="46.16983" lon="7.95976"><ele></ele><time>2025-8-20T12:53:5Z</time></trkpt>
<trkpt lat="46.16983" lon="7.95972"><ele></ele><time>2025-8-20T12:53:8Z</time></trkpt>
<trkpt lat="46.16984" lon="7.95971"><ele></ele><time>2025-8-20T12:53:11Z</time></trkpt>
<trkpt lat="46.16987" lon="7.95967"><ele></ele><time>2025-8-20T12:53:14Z</time></trkpt>
<trkpt lat="46.16989" lon="7.95963"><ele></ele><time>2025-8-20T12:53:17Z</time></trkpt>
<trkpt lat="46.16989" lon="7.95963"><ele></ele><time>2025-8-20T12:53:20Z</time></trkpt>
<trkpt lat="46.16991" lon="7.95958"><ele></ele><time>2025-8-20T12:53:23Z</time></trkpt>
<trkpt lat="46.16992" lon="7.95957"><ele></ele><time>2025-8-20T12:53:26Z</time></trkpt>
<trkpt lat="46.16993" lon="7.95954"><ele></ele><time>2025-8-20T12:53:29Z</time></trkpt>
<trkpt lat="46.16995" lon="7.95951"><ele></ele><time>2025-8-20T12:53:32Z</time></trkpt>
<trkpt lat="46.16998" lon="7.95945"><ele></ele><time>2025-8-20T12:53:35Z</time></trkpt>
<trkpt lat="46.16999" lon="7.95942"><ele></ele><time>2025-8-20T12:53:38Z</time></trkpt>
<trkpt lat="46.17001" lon="7.95937"><ele></ele><time>2025-8-20T12:53:41Z</time></trkpt>
<trkpt lat="46.17002" lon="7.95935"><ele></ele><time>2025-8-20T12:53:44Z</time></trkpt>
<trkpt lat="46.17006" lon="7.95928"><ele></ele><time>2025-8-20T12:53:47Z</time></trkpt>
<trkpt lat="46.17007" lon="7.95924"><ele></ele><time>2025-8-20T12:53:50Z</time></trkpt>
<trkpt lat="46.17008" lon="7.95922"><ele></ele><time>2025-8-20T12:53:53Z</time></trkpt>
<trkpt lat="46.1701" lon="7.95916"><ele></ele><time>2025-8-20T12:53:56Z</time></trkpt>
<trkpt lat="46.17013" lon="7.9591"><ele></ele><time>2025-8-20T12:53:59Z</time></trkpt>
<trkpt lat="46.17015" lon="7.95905"><ele></ele><time>2025-8-20T12:54:2Z</time></trkpt>
<trkpt lat="46.17017" lon="7.95899"><ele></ele><time>2025-8-20T12:54:5Z</time></trkpt>
<trkpt lat="46.17021" lon="7.95894"><ele></ele><time>2025-8-20T12:54:8Z</time></trkpt>
<trkpt lat="46.17022" lon="7.95893"><ele></ele><time>2025-8-20T12:54:11Z</time></trkpt>
<trkpt lat="46.17026" lon="7.95891"><ele></ele><time>2025-8-20T12:54:14Z</time></trkpt>
<trkpt lat="46.17032" lon="7.95891"><ele></ele><time>2025-8-20T12:54:17Z</time></trkpt>
<trkpt lat="46.17036" lon="7.95893"><ele></ele><time>2025-8-20T12:54:20Z</time></trkpt>
<trkpt lat="46.17036" lon="7.95894"><ele></ele><time>2025-8-20T12:54:23Z</time></trkpt>
<trkpt lat="46.17037" lon="7.95896"><ele></ele><time>2025-8-20T12:54:26Z</time></trkpt>
<trkpt lat="46.17038" lon="7.95901"><ele></ele><time>2025-8-20T12:54:29Z</time></trkpt>
<trkpt lat="46.17037" lon="7.95902"><ele></ele><time>2025-8-20T12:54:32Z</time></trkpt>
<trkpt lat="46.17033" lon="7.95907"><ele></ele><time>2025-8-20T12:54:35Z</time></trkpt>
<trkpt lat="46.17032" lon="7.95911"><ele></ele><time>2025-8-20T12:54:38Z</time></trkpt>
<trkpt lat="46.17029" lon="7.95916"><ele></ele><time>2025-8-20T12:54:41Z</time></trkpt>
<trkpt lat="46.17025" lon="7.95925"><ele></ele><time>2025-8-20T12:54:44Z</time></trkpt>
<trkpt lat="46.17025" lon="7.95927"><ele></ele><time>2025-8-20T12:54:47Z</time></trkpt>
<trkpt lat="46.17024" lon="7.95936"><ele></ele><time>2025-8-20T12:54:50Z</time></trkpt>
<trkpt lat="46.17023" lon="7.95939"><ele></ele><time>2025-8-20T12:54:53Z</time></trkpt>
<trkpt lat="46.17021" lon="7.95949"><ele></ele><time>2025-8-20T12:54:56Z</time></trkpt>
<trkpt lat="46.1702" lon="7.95952"><ele></ele><time>2025-8-20T12:54:59Z</time></trkpt>
<trkpt lat="46.17017" lon="7.95964"><ele></ele><time>2025-8-20T12:55:2Z</time></trkpt>
<trkpt lat="46.17016" lon="7.95974"><ele></ele><time>2025-8-20T12:55:5Z</time></trkpt>
<trkpt lat="46.17016" lon="7.95975"><ele></ele><time>2025-8-20T12:55:8Z</time></trkpt>
<trkpt lat="46.17016" lon="7.95981"><ele></ele><time>2025-8-20T12:55:11Z</time></trkpt>
<trkpt lat="46.17017" lon="7.95988"><ele></ele><time>2025-8-20T12:55:14Z</time></trkpt>
<trkpt lat="46.17017" lon="7.95998"><ele></ele><time>2025-8-20T12:55:17Z</time></trkpt>
<trkpt lat="46.17017" lon="7.96"><ele></ele><time>2025-8-20T12:55:20Z</time></trkpt>
<trkpt lat="46.17017" lon="7.96005"><ele></ele><time>2025-8-20T12:55:23Z</time></trkpt>
<trkpt lat="46.17017" lon="7.96009"><ele></ele><time>2025-8-20T12:55:26Z</time></trkpt>
<trkpt lat="46.17017" lon="7.96013"><ele></ele><time>2025-8-20T12:55:29Z</time></trkpt>
<trkpt lat="46.17016" lon="7.96017"><ele></ele><time>2025-8-20T12:55:32Z</time></trkpt>
<trkpt lat="46.17014" lon="7.9603"><ele></ele><time>2025-8-20T12:55:35Z</time></trkpt>
<trkpt lat="46.17012" lon="7.9604"><ele></ele><time>2025-8-20T12:55:38Z</time></trkpt>
<trkpt lat="46.17012" lon="7.96042"><ele></ele><time>2025-8-20T12:55:41Z</time></trkpt>
<trkpt lat="46.17011" lon="7.96044"><ele></ele><time>2025-8-20T12:55:44Z</time></trkpt>
<trkpt lat="46.1701" lon="7.96048"><ele></ele><time>2025-8-20T12:55:47Z</time></trkpt>
<trkpt lat="46.1701" lon="7.9605"><ele></ele><time>2025-8-20T12:55:50Z</time></trkpt>
<trkpt lat="46.17008" lon="7.96059"><ele></ele><time>2025-8-20T12:55:53Z</time></trkpt>
<trkpt lat="46.17008" lon="7.96059"><ele></ele><time>2025-8-20T12:55:56Z</time></trkpt>
<trkpt lat="46.17007" lon="7.96067"><ele></ele><time>2025-8-20T12:55:59Z</time></trkpt>
<trkpt lat="46.17007" lon="7.96068"><ele></ele><time>2025-8-20T12:56:2Z</time></trkpt>
<trkpt lat="46.17007" lon="7.96076"><ele></ele><time>2025-8-20T12:56:5Z</time></trkpt>
<trkpt lat="46.17006" lon="7.96084"><ele></ele><time>2025-8-20T12:56:8Z</time></trkpt>
<trkpt lat="46.17005" lon="7.96088"><ele></ele><time>2025-8-20T12:56:11Z</time></trkpt>
<trkpt lat="46.17004" lon="7.96094"><ele></ele><time>2025-8-20T12:56:14Z</time></trkpt>
<trkpt lat="46.17003" lon="7.96098"><ele></ele><time>2025-8-20T12:56:17Z</time></trkpt>
<trkpt lat="46.17002" lon="7.96102"><ele></ele><time>2025-8-20T12:56:20Z</time></trkpt>
<trkpt lat="46.17001" lon="7.96106"><ele></ele><time>2025-8-20T12:56:23Z</time></trkpt>
<trkpt lat="46.17001" lon="7.96111"><ele></ele><time>2025-8-20T12:56:26Z</time></trkpt>
<trkpt lat="46.17001" lon="7.96116"><ele></ele><time>2025-8-20T12:56:29Z</time></trkpt>
<trkpt lat="46.17" lon="7.9612"><ele></ele><time>2025-8-20T12:56:32Z</time></trkpt>
<trkpt lat="46.17" lon="7.96123"><ele></ele><time>2025-8-20T12:56:35Z</time></trkpt>
<trkpt lat="46.17" lon="7.96125"><ele></ele><time>2025-8-20T12:56:38Z</time></trkpt>
<trkpt lat="46.17" lon="7.96127"><ele></ele><time>2025-8-20T12:56:41Z</time></trkpt>
<trkpt lat="46.16999" lon="7.96134"><ele></ele><time>2025-8-20T12:56:44Z</time></trkpt>
<trkpt lat="46.16997" lon="7.96142"><ele></ele><time>2025-8-20T12:56:47Z</time></trkpt>
<trkpt lat="46.16996" lon="7.96145"><ele></ele><time>2025-8-20T12:56:50Z</time></trkpt>
<trkpt lat="46.16993" lon="7.9615"><ele></ele><time>2025-8-20T12:56:53Z</time></trkpt>
<trkpt lat="46.16991" lon="7.96154"><ele></ele><time>2025-8-20T12:56:56Z</time></trkpt>
<trkpt lat="46.16986" lon="7.96164"><ele></ele><time>2025-8-20T12:56:59Z</time></trkpt>
<trkpt lat="46.16981" lon="7.96174"><ele></ele><time>2025-8-20T12:57:2Z</time></trkpt>
<trkpt lat="46.16971" lon="7.96179"><ele></ele><time>2025-8-20T12:57:5Z</time></trkpt>
<trkpt lat="46.16967" lon="7.9618"><ele></ele><time>2025-8-20T12:57:8Z</time></trkpt>
<trkpt lat="46.16954" lon="7.96188"><ele></ele><time>2025-8-20T12:57:11Z</time></trkpt>
<trkpt lat="46.16942" lon="7.962"><ele></ele><time>2025-8-20T12:57:14Z</time></trkpt>
<trkpt lat="46.16934" lon="7.96202"><ele></ele><time>2025-8-20T12:57:17Z</time></trkpt>
<trkpt lat="46.1693" lon="7.96198"><ele></ele><time>2025-8-20T12:57:20Z</time></trkpt>
<trkpt lat="46.16927" lon="7.96193"><ele></ele><time>2025-8-20T12:57:23Z</time></trkpt>
<trkpt lat="46.16924" lon="7.96188"><ele></ele><time>2025-8-20T12:57:26Z</time></trkpt>
<trkpt lat="46.16921" lon="7.96183"><ele></ele><time>2025-8-20T12:57:29Z</time></trkpt>
<trkpt lat="46.16914" lon="7.9617"><ele></ele><time>2025-8-20T12:57:32Z</time></trkpt>
<trkpt lat="46.16913" lon="7.96168"><ele></ele><time>2025-8-20T12:57:35Z</time></trkpt>
<trkpt lat="46.16913" lon="7.96168"><ele></ele><time>2025-8-20T12:57:38Z</time></trkpt>
<trkpt lat="46.16913" lon="7.96168"><ele></ele><time>2025-8-20T12:57:41Z</time></trkpt>
<trkpt lat="46.16913" lon="7.96169"><ele></ele><time>2025-8-20T12:57:44Z</time></trkpt>
<trkpt lat="46.16917" lon="7.96174"><ele></ele><time>2025-8-20T12:57:47Z</time></trkpt>
<trkpt lat="46.16923" lon="7.96185"><ele></ele><time>2025-8-20T12:57:50Z</time></trkpt>
<trkpt lat="46.16925" lon="7.96189"><ele></ele><time>2025-8-20T12:57:53Z</time></trkpt>
<trkpt lat="46.16932" lon="7.96202"><ele></ele><time>2025-8-20T12:57:56Z</time></trkpt>
<trkpt lat="46.16935" lon="7.96203"><ele></ele><time>2025-8-20T12:57:59Z</time></trkpt>
<trkpt lat="46.16935" lon="7.96203"><ele></ele><time>2025-8-20T12:58:2Z</time></trkpt>
<trkpt lat="46.16933" lon="7.96202"><ele></ele><time>2025-8-20T12:58:5Z</time></trkpt>
<trkpt lat="46.16931" lon="7.962"><ele></ele><time>2025-8-20T12:58:8Z</time></trkpt>
<trkpt lat="46.16922" lon="7.96185"><ele></ele><time>2025-8-20T12:58:11Z</time></trkpt>
<trkpt lat="46.16917" lon="7.96177"><ele></ele><time>2025-8-20T12:58:14Z</time></trkpt>
<trkpt lat="46.16913" lon="7.96169"><ele></ele><time>2025-8-20T12:58:17Z</time></trkpt>
<trkpt lat="46.169" lon="7.96156"><ele></ele><time>2025-8-20T12:58:20Z</time></trkpt>
<trkpt lat="46.16887" lon="7.96152"><ele></ele><time>2025-8-20T12:58:23Z</time></trkpt>
<trkpt lat="46.16884" lon="7.96151"><ele></ele><time>2025-8-20T12:58:26Z</time></trkpt>
<trkpt lat="46.16873" lon="7.9615"><ele></ele><time>2025-8-20T12:58:29Z</time></trkpt>
<trkpt lat="46.16868" lon="7.96149"><ele></ele><time>2025-8-20T12:58:32Z</time></trkpt>
<trkpt lat="46.1686" lon="7.96148"><ele></ele><time>2025-8-20T12:58:35Z</time></trkpt>
<trkpt lat="46.16853" lon="7.96146"><ele></ele><time>2025-8-20T12:58:38Z</time></trkpt>
<trkpt lat="46.16848" lon="7.96146"><ele></ele><time>2025-8-20T12:58:41Z</time></trkpt>
<trkpt lat="46.16848" lon="7.96146"><ele></ele><time>2025-8-20T12:58:44Z</time></trkpt>
<trkpt lat="46.16847" lon="7.96146"><ele></ele><time>2025-8-20T12:58:47Z</time></trkpt>
<trkpt lat="46.16845" lon="7.96144"><ele></ele><time>2025-8-20T12:58:50Z</time></trkpt>
<trkpt lat="46.16836" lon="7.96143"><ele></ele><time>2025-8-20T12:58:53Z</time></trkpt>
<trkpt lat="46.16834" lon="7.96142"><ele></ele><time>2025-8-20T12:58:56Z</time></trkpt>
<trkpt lat="46.16833" lon="7.96142"><ele></ele><time>2025-8-20T12:58:59Z</time></trkpt>
<trkpt lat="46.16827" lon="7.96141"><ele></ele><time>2025-8-20T12:59:2Z</time></trkpt>
<trkpt lat="46.16813" lon="7.96135"><ele></ele><time>2025-8-20T12:59:5Z</time></trkpt>
<trkpt lat="46.16802" lon="7.96138"><ele></ele><time>2025-8-20T12:59:8Z</time></trkpt>
<trkpt lat="46.16801" lon="7.96141"><ele></ele><time>2025-8-20T12:59:11Z</time></trkpt>
<trkpt lat="46.16801" lon="7.96146"><ele></ele><time>2025-8-20T12:59:14Z</time></trkpt>
<trkpt lat="46.16801" lon="7.96148"><ele></ele><time>2025-8-20T12:59:17Z</time></trkpt>
<trkpt lat="46.16799" lon="7.96157"><ele></ele><time>2025-8-20T12:59:20Z</time></trkpt>
<trkpt lat="46.16799" lon="7.96159"><ele></ele><time>2025-8-20T12:59:23Z</time></trkpt>
<trkpt lat="46.16799" lon="7.96166"><ele></ele><time>2025-8-20T12:59:26Z</time></trkpt>
<trkpt lat="46.16799" lon="7.96169"><ele></ele><time>2025-8-20T12:59:29Z</time></trkpt>
<trkpt lat="46.16798" lon="7.96173"><ele></ele><time>2025-8-20T12:59:32Z</time></trkpt>
<trkpt lat="46.16797" lon="7.96175"><ele></ele><time>2025-8-20T12:59:35Z</time></trkpt>
<trkpt lat="46.16796" lon="7.96191"><ele></ele><time>2025-8-20T12:59:38Z</time></trkpt>
<trkpt lat="46.16795" lon="7.96194"><ele></ele><time>2025-8-20T12:59:41Z</time></trkpt>
<trkpt lat="46.16792" lon="7.9621"><ele></ele><time>2025-8-20T12:59:44Z</time></trkpt>
<trkpt lat="46.16791" lon="7.96216"><ele></ele><time>2025-8-20T12:59:47Z</time></trkpt>
<trkpt lat="46.16791" lon="7.96222"><ele></ele><time>2025-8-20T12:59:50Z</time></trkpt>
<trkpt lat="46.16791" lon="7.96221"><ele></ele><time>2025-8-20T12:59:53Z</time></trkpt>
<trkpt lat="46.16791" lon="7.96217"><ele></ele><time>2025-8-20T12:59:56Z</time></trkpt>
<trkpt lat="46.16791" lon="7.96217"><ele></ele><time>2025-8-20T12:59:59Z</time></trkpt>
<trkpt lat="46.16791" lon="7.96217"><ele></ele><time>2025-8-20T13:0:2Z</time></trkpt>
<trkpt lat="46.16791" lon="7.96221"><ele></ele><time>2025-8-20T13:0:5Z</time></trkpt>
<trkpt lat="46.1679" lon="7.96234"><ele></ele><time>2025-8-20T13:0:8Z</time></trkpt>
<trkpt lat="46.16789" lon="7.96259"><ele></ele><time>2025-8-20T13:0:11Z</time></trkpt>
<trkpt lat="46.16793" lon="7.96273"><ele></ele><time>2025-8-20T13:0:14Z</time></trkpt>
<trkpt lat="46.16794" lon="7.96278"><ele></ele><time>2025-8-20T13:0:17Z</time></trkpt>
<trkpt lat="46.16797" lon="7.96293"><ele></ele><time>2025-8-20T13:0:20Z</time></trkpt>
<trkpt lat="46.168" lon="7.96303"><ele></ele><time>2025-8-20T13:0:23Z</time></trkpt>
<trkpt lat="46.16801" lon="7.96303"><ele></ele><time>2025-8-20T13:0:26Z</time></trkpt>
<trkpt lat="46.16801" lon="7.96303"><ele></ele><time>2025-8-20T13:0:29Z</time></trkpt>
<trkpt lat="46.16801" lon="7.96303"><ele></ele><time>2025-8-20T13:0:32Z</time></trkpt>
<trkpt lat="46.16801" lon="7.96303"><ele></ele><time>2025-8-20T13:0:35Z</time></trkpt>
<trkpt lat="46.16801" lon="7.96303"><ele></ele><time>2025-8-20T13:0:38Z</time></trkpt>
<trkpt lat="46.16801" lon="7.96303"><ele></ele><time>2025-8-20T13:0:41Z</time></trkpt>
<trkpt lat="46.16803" lon="7.96301"><ele></ele><time>2025-8-20T13:0:44Z</time></trkpt>
<trkpt lat="46.16803" lon="7.96295"><ele></ele><time>2025-8-20T13:0:47Z</time></trkpt>
<trkpt lat="46.16804" lon="7.96295"><ele></ele><time>2025-8-20T13:0:50Z</time></trkpt>
<trkpt lat="46.16804" lon="7.96295"><ele></ele><time>2025-8-20T13:0:53Z</time></trkpt>
<trkpt lat="46.16803" lon="7.96297"><ele></ele><time>2025-8-20T13:0:56Z</time></trkpt>
<trkpt lat="46.16802" lon="7.96298"><ele></ele><time>2025-8-20T13:0:59Z</time></trkpt>
<trkpt lat="46.16802" lon="7.96298"><ele></ele><time>2025-8-20T13:1:2Z</time></trkpt>
<trkpt lat="46.16802" lon="7.96298"><ele></ele><time>2025-8-20T13:1:5Z</time></trkpt>
<trkpt lat="46.16802" lon="7.96298"><ele></ele><time>2025-8-20T13:1:8Z</time></trkpt>
<trkpt lat="46.16802" lon="7.96298"><ele></ele><time>2025-8-20T13:1:11Z</time></trkpt>
<trkpt lat="46.16803" lon="7.96297"><ele></ele><time>2025-8-20T13:1:14Z</time></trkpt>
<trkpt lat="46.16804" lon="7.96295"><ele></ele><time>2025-8-20T13:1:17Z</time></trkpt>
<trkpt lat="46.16804" lon="7.96295"><ele></ele><time>2025-8-20T13:1:20Z</time></trkpt>
<trkpt lat="46.16804" lon="7.96295"><ele></ele><time>2025-8-20T13:1:23Z</time></trkpt>
<trkpt lat="46.16804" lon="7.96296"><ele></ele><time>2025-8-20T13:1:26Z</time></trkpt>
<trkpt lat="46.16803" lon="7.96296"><ele></ele><time>2025-8-20T13:1:29Z</time></trkpt>
<trkpt lat="46.16804" lon="7.96295"><ele></ele><time>2025-8-20T13:1:32Z</time></trkpt>
<trkpt lat="46.16803" lon="7.96296"><ele></ele><time>2025-8-20T13:1:35Z</time></trkpt>
<trkpt lat="46.16802" lon="7.96297"><ele></ele><time>2025-8-20T13:1:38Z</time></trkpt>
<trkpt lat="46.16799" lon="7.96295"><ele></ele><time>2025-8-20T13:1:41Z</time></trkpt>
<trkpt lat="46.16794" lon="7.96287"><ele></ele><time>2025-8-20T13:1:44Z</time></trkpt>
<trkpt lat="46.16794" lon="7.96283"><ele></ele><time>2025-8-20T13:1:47Z</time></trkpt>
<trkpt lat="46.16796" lon="7.96282"><ele></ele><time>2025-8-20T13:1:50Z</time></trkpt>
<trkpt lat="46.16798" lon="7.96286"><ele></ele><time>2025-8-20T13:1:53Z</time></trkpt>
<trkpt lat="46.16798" lon="7.96292"><ele></ele><time>2025-8-20T13:1:56Z</time></trkpt>
<trkpt lat="46.168" lon="7.96304"><ele></ele><time>2025-8-20T13:1:59Z</time></trkpt>
<trkpt lat="46.168" lon="7.96306"><ele></ele><time>2025-8-20T13:2:2Z</time></trkpt>
<trkpt lat="46.168" lon="7.96306"><ele></ele><time>2025-8-20T13:2:5Z</time></trkpt>
<trkpt lat="46.168" lon="7.96306"><ele></ele><time>2025-8-20T13:2:8Z</time></trkpt>
<trkpt lat="46.168" lon="7.96306"><ele></ele><time>2025-8-20T13:2:11Z</time></trkpt>
<trkpt lat="46.168" lon="7.96306"><ele></ele><time>2025-8-20T13:2:14Z</time></trkpt>
<trkpt lat="46.168" lon="7.96306"><ele></ele><time>2025-8-20T13:2:17Z</time></trkpt>
<trkpt lat="46.168" lon="7.96306"><ele></ele><time>2025-8-20T13:2:20Z</time></trkpt>
<trkpt lat="46.168" lon="7.96306"><ele></ele><time>2025-8-20T13:2:23Z</time></trkpt>
<trkpt lat="46.168" lon="7.96306"><ele></ele><time>2025-8-20T13:2:26Z</time></trkpt>
<trkpt lat="46.168" lon="7.96306"><ele></ele><time>2025-8-20T13:2:29Z</time></trkpt>
<trkpt lat="46.16797" lon="7.96305"><ele></ele><time>2025-8-20T13:2:32Z</time></trkpt>
<trkpt lat="46.16796" lon="7.96299"><ele></ele><time>2025-8-20T13:2:35Z</time></trkpt>
<trkpt lat="46.16795" lon="7.96293"><ele></ele><time>2025-8-20T13:2:38Z</time></trkpt>
<trkpt lat="46.16793" lon="7.96282"><ele></ele><time>2025-8-20T13:2:41Z</time></trkpt>
<trkpt lat="46.16789" lon="7.96264"><ele></ele><time>2025-8-20T13:2:44Z</time></trkpt>
<trkpt lat="46.16788" lon="7.96247"><ele></ele><time>2025-8-20T13:2:47Z</time></trkpt>
<trkpt lat="46.16788" lon="7.96242"><ele></ele><time>2025-8-20T13:2:50Z</time></trkpt>
<trkpt lat="46.1679" lon="7.96227"><ele></ele><time>2025-8-20T13:2:53Z</time></trkpt>
<trkpt lat="46.16792" lon="7.96205"><ele></ele><time>2025-8-20T13:2:56Z</time></trkpt>
<trkpt lat="46.16796" lon="7.96182"><ele></ele><time>2025-8-20T13:2:59Z</time></trkpt>
<trkpt lat="46.16798" lon="7.96164"><ele></ele><time>2025-8-20T13:3:2Z</time></trkpt>
<trkpt lat="46.16799" lon="7.96151"><ele></ele><time>2025-8-20T13:3:5Z</time></trkpt>
<trkpt lat="46.168" lon="7.96142"><ele></ele><time>2025-8-20T13:3:8Z</time></trkpt>
<trkpt lat="46.16803" lon="7.96135"><ele></ele><time>2025-8-20T13:3:11Z</time></trkpt>
<trkpt lat="46.16806" lon="7.96133"><ele></ele><time>2025-8-20T13:3:14Z</time></trkpt>
<trkpt lat="46.16811" lon="7.96133"><ele></ele><time>2025-8-20T13:3:17Z</time></trkpt>
<trkpt lat="46.16829" lon="7.9614"><ele></ele><time>2025-8-20T13:3:20Z</time></trkpt>
<trkpt lat="46.16839" lon="7.9614"><ele></ele><time>2025-8-20T13:3:23Z</time></trkpt>
<trkpt lat="46.16852" lon="7.96144"><ele></ele><time>2025-8-20T13:3:26Z</time></trkpt>
<trkpt lat="46.16859" lon="7.96146"><ele></ele><time>2025-8-20T13:3:29Z</time></trkpt>
<trkpt lat="46.16865" lon="7.96147"><ele></ele><time>2025-8-20T13:3:32Z</time></trkpt>
<trkpt lat="46.16876" lon="7.96149"><ele></ele><time>2025-8-20T13:3:35Z</time></trkpt>
<trkpt lat="46.16893" lon="7.96151"><ele></ele><time>2025-8-20T13:3:38Z</time></trkpt>
<trkpt lat="46.16897" lon="7.96153"><ele></ele><time>2025-8-20T13:3:41Z</time></trkpt>
<trkpt lat="46.16901" lon="7.96155"><ele></ele><time>2025-8-20T13:3:44Z</time></trkpt>
<trkpt lat="46.16909" lon="7.96162"><ele></ele><time>2025-8-20T13:3:47Z</time></trkpt>
<trkpt lat="46.16913" lon="7.96166"><ele></ele><time>2025-8-20T13:3:50Z</time></trkpt>
<trkpt lat="46.16916" lon="7.96172"><ele></ele><time>2025-8-20T13:3:53Z</time></trkpt>
<trkpt lat="46.16919" lon="7.96178"><ele></ele><time>2025-8-20T13:3:56Z</time></trkpt>
<trkpt lat="46.16925" lon="7.96189"><ele></ele><time>2025-8-20T13:3:59Z</time></trkpt>
<trkpt lat="46.16928" lon="7.96194"><ele></ele><time>2025-8-20T13:4:2Z</time></trkpt>
<trkpt lat="46.16931" lon="7.96197"><ele></ele><time>2025-8-20T13:4:5Z</time></trkpt>
<trkpt lat="46.16937" lon="7.962"><ele></ele><time>2025-8-20T13:4:8Z</time></trkpt>
<trkpt lat="46.1694" lon="7.962"><ele></ele><time>2025-8-20T13:4:11Z</time></trkpt>
<trkpt lat="46.16942" lon="7.962"><ele></ele><time>2025-8-20T13:4:14Z</time></trkpt>
<trkpt lat="46.16943" lon="7.96199"><ele></ele><time>2025-8-20T13:4:17Z</time></trkpt>
<trkpt lat="46.16952" lon="7.9619"><ele></ele><time>2025-8-20T13:4:20Z</time></trkpt>
<trkpt lat="46.16969" lon="7.96179"><ele></ele><time>2025-8-20T13:4:23Z</time></trkpt>
<trkpt lat="46.16984" lon="7.96167"><ele></ele><time>2025-8-20T13:4:26Z</time></trkpt>
<trkpt lat="46.16988" lon="7.9616"><ele></ele><time>2025-8-20T13:4:29Z</time></trkpt>
<trkpt lat="46.16989" lon="7.96155"><ele></ele><time>2025-8-20T13:4:32Z</time></trkpt>
<trkpt lat="46.16994" lon="7.96152"><ele></ele><time>2025-8-20T13:4:35Z</time></trkpt>
<trkpt lat="46.16995" lon="7.96153"><ele></ele><time>2025-8-20T13:4:38Z</time></trkpt>
<trkpt lat="46.16997" lon="7.96156"><ele></ele><time>2025-8-20T13:4:41Z</time></trkpt>
<trkpt lat="46.16997" lon="7.96159"><ele></ele><time>2025-8-20T13:4:44Z</time></trkpt>
<trkpt lat="46.16993" lon="7.96167"><ele></ele><time>2025-8-20T13:4:47Z</time></trkpt>
<trkpt lat="46.1699" lon="7.9618"><ele></ele><time>2025-8-20T13:4:50Z</time></trkpt>
<trkpt lat="46.16988" lon="7.96186"><ele></ele><time>2025-8-20T13:4:53Z</time></trkpt>
<trkpt lat="46.16987" lon="7.96187"><ele></ele><time>2025-8-20T13:4:56Z</time></trkpt>
<trkpt lat="46.16984" lon="7.96191"><ele></ele><time>2025-8-20T13:4:59Z</time></trkpt>
<trkpt lat="46.16976" lon="7.96195"><ele></ele><time>2025-8-20T13:5:2Z</time></trkpt>
<trkpt lat="46.1697" lon="7.96198"><ele></ele><time>2025-8-20T13:5:5Z</time></trkpt>
<trkpt lat="46.1697" lon="7.96199"><ele></ele><time>2025-8-20T13:5:8Z</time></trkpt>
<trkpt lat="46.16967" lon="7.96201"><ele></ele><time>2025-8-20T13:5:11Z</time></trkpt>
<trkpt lat="46.16965" lon="7.96202"><ele></ele><time>2025-8-20T13:5:14Z</time></trkpt>
<trkpt lat="46.16965" lon="7.96206"><ele></ele><time>2025-8-20T13:5:17Z</time></trkpt>
<trkpt lat="46.16966" lon="7.96206"><ele></ele><time>2025-8-20T13:5:20Z</time></trkpt>
<trkpt lat="46.16966" lon="7.96206"><ele></ele><time>2025-8-20T13:5:23Z</time></trkpt>
<trkpt lat="46.16967" lon="7.96206"><ele></ele><time>2025-8-20T13:5:26Z</time></trkpt>
<trkpt lat="46.16974" lon="7.96206"><ele></ele><time>2025-8-20T13:5:29Z</time></trkpt>
<trkpt lat="46.16978" lon="7.96207"><ele></ele><time>2025-8-20T13:5:32Z</time></trkpt>
<trkpt lat="46.16982" lon="7.96208"><ele></ele><time>2025-8-20T13:5:35Z</time></trkpt>
<trkpt lat="46.16983" lon="7.96208"><ele></ele><time>2025-8-20T13:5:38Z</time></trkpt>
<trkpt lat="46.16987" lon="7.9621"><ele></ele><time>2025-8-20T13:5:41Z</time></trkpt>
<trkpt lat="46.16989" lon="7.96211"><ele></ele><time>2025-8-20T13:5:44Z</time></trkpt>
<trkpt lat="46.16995" lon="7.96211"><ele></ele><time>2025-8-20T13:5:47Z</time></trkpt>
<trkpt lat="46.16998" lon="7.96211"><ele></ele><time>2025-8-20T13:5:50Z</time></trkpt>
<trkpt lat="46.17004" lon="7.96211"><ele></ele><time>2025-8-20T13:5:53Z</time></trkpt>
<trkpt lat="46.17008" lon="7.96209"><ele></ele><time>2025-8-20T13:5:56Z</time></trkpt>
<trkpt lat="46.1701" lon="7.9621"><ele></ele><time>2025-8-20T13:5:59Z</time></trkpt>
<trkpt lat="46.17012" lon="7.9621"><ele></ele><time>2025-8-20T13:6:2Z</time></trkpt>
<trkpt lat="46.17017" lon="7.96209"><ele></ele><time>2025-8-20T13:6:5Z</time></trkpt>
<trkpt lat="46.1702" lon="7.96208"><ele></ele><time>2025-8-20T13:6:8Z</time></trkpt>
<trkpt lat="46.17022" lon="7.96208"><ele></ele><time>2025-8-20T13:6:11Z</time></trkpt>
<trkpt lat="46.17023" lon="7.96208"><ele></ele><time>2025-8-20T13:6:14Z</time></trkpt>
<trkpt lat="46.17026" lon="7.96208"><ele></ele><time>2025-8-20T13:6:17Z</time></trkpt>
<trkpt lat="46.17031" lon="7.9621"><ele></ele><time>2025-8-20T13:6:20Z</time></trkpt>
<trkpt lat="46.17034" lon="7.96211"><ele></ele><time>2025-8-20T13:6:23Z</time></trkpt>
<trkpt lat="46.17037" lon="7.96213"><ele></ele><time>2025-8-20T13:6:26Z</time></trkpt>
<trkpt lat="46.17039" lon="7.96215"><ele></ele><time>2025-8-20T13:6:29Z</time></trkpt>
<trkpt lat="46.1704" lon="7.96217"><ele></ele><time>2025-8-20T13:6:32Z</time></trkpt>
<trkpt lat="46.17041" lon="7.9622"><ele></ele><time>2025-8-20T13:6:35Z</time></trkpt>
<trkpt lat="46.17042" lon="7.96223"><ele></ele><time>2025-8-20T13:6:38Z</time></trkpt>
<trkpt lat="46.17041" lon="7.96234"><ele></ele><time>2025-8-20T13:6:41Z</time></trkpt>
<trkpt lat="46.17038" lon="7.96241"><ele></ele><time>2025-8-20T13:6:44Z</time></trkpt>
<trkpt lat="46.17037" lon="7.96244"><ele></ele><time>2025-8-20T13:6:47Z</time></trkpt>
<trkpt lat="46.17028" lon="7.96249"><ele></ele><time>2025-8-20T13:6:50Z</time></trkpt>
<trkpt lat="46.17014" lon="7.96247"><ele></ele><time>2025-8-20T13:6:53Z</time></trkpt>
<trkpt lat="46.17006" lon="7.96248"><ele></ele><time>2025-8-20T13:6:56Z</time></trkpt>
<trkpt lat="46.16999" lon="7.96247"><ele></ele><time>2025-8-20T13:6:59Z</time></trkpt>
<trkpt lat="46.16998" lon="7.96247"><ele></ele><time>2025-8-20T13:7:2Z</time></trkpt>
<trkpt lat="46.16989" lon="7.96245"><ele></ele><time>2025-8-20T13:7:5Z</time></trkpt>
<trkpt lat="46.16988" lon="7.96245"><ele></ele><time>2025-8-20T13:7:8Z</time></trkpt>
<trkpt lat="46.16983" lon="7.96246"><ele></ele><time>2025-8-20T13:7:11Z</time></trkpt>
<trkpt lat="46.1697" lon="7.96246"><ele></ele><time>2025-8-20T13:7:14Z</time></trkpt>
<trkpt lat="46.16964" lon="7.96247"><ele></ele><time>2025-8-20T13:7:17Z</time></trkpt>
<trkpt lat="46.16961" lon="7.96247"><ele></ele><time>2025-8-20T13:7:20Z</time></trkpt>
<trkpt lat="46.16959" lon="7.96248"><ele></ele><time>2025-8-20T13:7:23Z</time></trkpt>
<trkpt lat="46.16955" lon="7.96252"><ele></ele><time>2025-8-20T13:7:26Z</time></trkpt>
<trkpt lat="46.16949" lon="7.96255"><ele></ele><time>2025-8-20T13:7:29Z</time></trkpt>
<trkpt lat="46.16947" lon="7.96258"><ele></ele><time>2025-8-20T13:7:32Z</time></trkpt>
<trkpt lat="46.16945" lon="7.96259"><ele></ele><time>2025-8-20T13:7:35Z</time></trkpt>
<trkpt lat="46.16943" lon="7.96262"><ele></ele><time>2025-8-20T13:7:38Z</time></trkpt>
<trkpt lat="46.16942" lon="7.96263"><ele></ele><time>2025-8-20T13:7:41Z</time></trkpt>
<trkpt lat="46.16939" lon="7.96266"><ele></ele><time>2025-8-20T13:7:44Z</time></trkpt>
<trkpt lat="46.16935" lon="7.96268"><ele></ele><time>2025-8-20T13:7:47Z</time></trkpt>
<trkpt lat="46.16935" lon="7.96269"><ele></ele><time>2025-8-20T13:7:50Z</time></trkpt>
<trkpt lat="46.16934" lon="7.96271"><ele></ele><time>2025-8-20T13:7:53Z</time></trkpt>
<trkpt lat="46.16935" lon="7.96274"><ele></ele><time>2025-8-20T13:7:56Z</time></trkpt>
<trkpt lat="46.16937" lon="7.96276"><ele></ele><time>2025-8-20T13:7:59Z</time></trkpt>
<trkpt lat="46.16941" lon="7.96276"><ele></ele><time>2025-8-20T13:8:2Z</time></trkpt>
<trkpt lat="46.16943" lon="7.96275"><ele></ele><time>2025-8-20T13:8:5Z</time></trkpt>
<trkpt lat="46.16945" lon="7.96273"><ele></ele><time>2025-8-20T13:8:8Z</time></trkpt>
<trkpt lat="46.16948" lon="7.96272"><ele></ele><time>2025-8-20T13:8:11Z</time></trkpt>
<trkpt lat="46.16951" lon="7.9627"><ele></ele><time>2025-8-20T13:8:14Z</time></trkpt>
<trkpt lat="46.16954" lon="7.96271"><ele></ele><time>2025-8-20T13:8:17Z</time></trkpt>
<trkpt lat="46.16956" lon="7.9627"><ele></ele><time>2025-8-20T13:8:20Z</time></trkpt>
<trkpt lat="46.16957" lon="7.96269"><ele></ele><time>2025-8-20T13:8:23Z</time></trkpt>
<trkpt lat="46.16961" lon="7.96268"><ele></ele><time>2025-8-20T13:8:26Z</time></trkpt>
<trkpt lat="46.16967" lon="7.96268"><ele></ele><time>2025-8-20T13:8:29Z</time></trkpt>
<trkpt lat="46.16968" lon="7.96269"><ele></ele><time>2025-8-20T13:8:32Z</time></trkpt>
<trkpt lat="46.16973" lon="7.96271"><ele></ele><time>2025-8-20T13:8:35Z</time></trkpt>
<trkpt lat="46.16974" lon="7.96272"><ele></ele><time>2025-8-20T13:8:38Z</time></trkpt>
<trkpt lat="46.16976" lon="7.96272"><ele></ele><time>2025-8-20T13:8:41Z</time></trkpt>
<trkpt lat="46.16977" lon="7.96272"><ele></ele><time>2025-8-20T13:8:44Z</time></trkpt>
<trkpt lat="46.16978" lon="7.96272"><ele></ele><time>2025-8-20T13:8:47Z</time></trkpt>
<trkpt lat="46.16979" lon="7.96273"><ele></ele><time>2025-8-20T13:8:50Z</time></trkpt>
<trkpt lat="46.1698" lon="7.96272"><ele></ele><time>2025-8-20T13:8:53Z</time></trkpt>
<trkpt lat="46.16989" lon="7.96275"><ele></ele><time>2025-8-20T13:8:56Z</time></trkpt>
<trkpt lat="46.16997" lon="7.96278"><ele></ele><time>2025-8-20T13:8:59Z</time></trkpt>
<trkpt lat="46.16998" lon="7.96278"><ele></ele><time>2025-8-20T13:9:2Z</time></trkpt>
<trkpt lat="46.17007" lon="7.96284"><ele></ele><time>2025-8-20T13:9:5Z</time></trkpt>
<trkpt lat="46.17012" lon="7.96288"><ele></ele><time>2025-8-20T13:9:8Z</time></trkpt>
<trkpt lat="46.17013" lon="7.96289"><ele></ele><time>2025-8-20T13:9:11Z</time></trkpt>
<trkpt lat="46.17016" lon="7.9629"><ele></ele><time>2025-8-20T13:9:14Z</time></trkpt>
<trkpt lat="46.17022" lon="7.96294"><ele></ele><time>2025-8-20T13:9:17Z</time></trkpt>
<trkpt lat="46.17022" lon="7.96295"><ele></ele><time>2025-8-20T13:9:20Z</time></trkpt>
<trkpt lat="46.17028" lon="7.96301"><ele></ele><time>2025-8-20T13:9:23Z</time></trkpt>
<trkpt lat="46.17033" lon="7.96305"><ele></ele><time>2025-8-20T13:9:26Z</time></trkpt>
<trkpt lat="46.17034" lon="7.96308"><ele></ele><time>2025-8-20T13:9:29Z</time></trkpt>
<trkpt lat="46.17035" lon="7.96313"><ele></ele><time>2025-8-20T13:9:32Z</time></trkpt>
<trkpt lat="46.17037" lon="7.96318"><ele></ele><time>2025-8-20T13:9:35Z</time></trkpt>
<trkpt lat="46.17037" lon="7.9632"><ele></ele><time>2025-8-20T13:9:38Z</time></trkpt>
<trkpt lat="46.17042" lon="7.9633"><ele></ele><time>2025-8-20T13:9:41Z</time></trkpt>
<trkpt lat="46.17046" lon="7.96338"><ele></ele><time>2025-8-20T13:9:44Z</time></trkpt>
<trkpt lat="46.17048" lon="7.9634"><ele></ele><time>2025-8-20T13:9:47Z</time></trkpt>
<trkpt lat="46.1705" lon="7.96345"><ele></ele><time>2025-8-20T13:9:50Z</time></trkpt>
<trkpt lat="46.17054" lon="7.96349"><ele></ele><time>2025-8-20T13:9:53Z</time></trkpt>
<trkpt lat="46.17056" lon="7.9635"><ele></ele><time>2025-8-20T13:9:56Z</time></trkpt>
<trkpt lat="46.17059" lon="7.96353"><ele></ele><time>2025-8-20T13:9:59Z</time></trkpt>
<trkpt lat="46.1706" lon="7.96357"><ele></ele><time>2025-8-20T13:10:2Z</time></trkpt>
<trkpt lat="46.17058" lon="7.96366"><ele></ele><time>2025-8-20T13:10:5Z</time></trkpt>
<trkpt lat="46.17052" lon="7.96375"><ele></ele><time>2025-8-20T13:10:8Z</time></trkpt>
<trkpt lat="46.1705" lon="7.96376"><ele></ele><time>2025-8-20T13:10:11Z</time></trkpt>
<trkpt lat="46.17037" lon="7.96387"><ele></ele><time>2025-8-20T13:10:14Z</time></trkpt>
<trkpt lat="46.17034" lon="7.96389"><ele></ele><time>2025-8-20T13:10:17Z</time></trkpt>
<trkpt lat="46.17028" lon="7.96393"><ele></ele><time>2025-8-20T13:10:20Z</time></trkpt>
<trkpt lat="46.17026" lon="7.96395"><ele></ele><time>2025-8-20T13:10:23Z</time></trkpt>
<trkpt lat="46.17022" lon="7.96397"><ele></ele><time>2025-8-20T13:10:26Z</time></trkpt>
<trkpt lat="46.17021" lon="7.96399"><ele></ele><time>2025-8-20T13:10:29Z</time></trkpt>
<trkpt lat="46.17016" lon="7.96407"><ele></ele><time>2025-8-20T13:10:32Z</time></trkpt>
<trkpt lat="46.17021" lon="7.96412"><ele></ele><time>2025-8-20T13:10:35Z</time></trkpt>
<trkpt lat="46.17026" lon="7.96413"><ele></ele><time>2025-8-20T13:10:38Z</time></trkpt>
<trkpt lat="46.1703" lon="7.96409"><ele></ele><time>2025-8-20T13:10:41Z</time></trkpt>
<trkpt lat="46.17033" lon="7.96407"><ele></ele><time>2025-8-20T13:10:44Z</time></trkpt>
<trkpt lat="46.17037" lon="7.96405"><ele></ele><time>2025-8-20T13:10:47Z</time></trkpt>
<trkpt lat="46.17043" lon="7.96403"><ele></ele><time>2025-8-20T13:10:50Z</time></trkpt>
<trkpt lat="46.17054" lon="7.96403"><ele></ele><time>2025-8-20T13:10:53Z</time></trkpt>
<trkpt lat="46.17063" lon="7.9641"><ele></ele><time>2025-8-20T13:10:56Z</time></trkpt>
<trkpt lat="46.17064" lon="7.96413"><ele></ele><time>2025-8-20T13:10:59Z</time></trkpt>
<trkpt lat="46.17063" lon="7.96418"><ele></ele><time>2025-8-20T13:11:2Z</time></trkpt>
<trkpt lat="46.17062" lon="7.9642"><ele></ele><time>2025-8-20T13:11:5Z</time></trkpt>
<trkpt lat="46.17055" lon="7.96422"><ele></ele><time>2025-8-20T13:11:8Z</time></trkpt>
<trkpt lat="46.17053" lon="7.96423"><ele></ele><time>2025-8-20T13:11:11Z</time></trkpt>
<trkpt lat="46.17049" lon="7.96426"><ele></ele><time>2025-8-20T13:11:14Z</time></trkpt>
<trkpt lat="46.17045" lon="7.96428"><ele></ele><time>2025-8-20T13:11:17Z</time></trkpt>
<trkpt lat="46.17042" lon="7.9643"><ele></ele><time>2025-8-20T13:11:20Z</time></trkpt>
<trkpt lat="46.17039" lon="7.96436"><ele></ele><time>2025-8-20T13:11:23Z</time></trkpt>
<trkpt lat="46.17039" lon="7.96441"><ele></ele><time>2025-8-20T13:11:26Z</time></trkpt>
<trkpt lat="46.1704" lon="7.96447"><ele></ele><time>2025-8-20T13:11:29Z</time></trkpt>
<trkpt lat="46.17039" lon="7.96452"><ele></ele><time>2025-8-20T13:11:32Z</time></trkpt>
<trkpt lat="46.17039" lon="7.96455"><ele></ele><time>2025-8-20T13:11:35Z</time></trkpt>
<trkpt lat="46.17038" lon="7.96466"><ele></ele><time>2025-8-20T13:11:38Z</time></trkpt>
<trkpt lat="46.17038" lon="7.96467"><ele></ele><time>2025-8-20T13:11:41Z</time></trkpt>
<trkpt lat="46.17038" lon="7.96469"><ele></ele><time>2025-8-20T13:11:44Z</time></trkpt>
<trkpt lat="46.17038" lon="7.9647"><ele></ele><time>2025-8-20T13:11:47Z</time></trkpt>
<trkpt lat="46.17038" lon="7.96472"><ele></ele><time>2025-8-20T13:11:50Z</time></trkpt>
<trkpt lat="46.17039" lon="7.96474"><ele></ele><time>2025-8-20T13:11:53Z</time></trkpt>
<trkpt lat="46.17039" lon="7.96475"><ele></ele><time>2025-8-20T13:11:56Z</time></trkpt>
<trkpt lat="46.17039" lon="7.96476"><ele></ele><time>2025-8-20T13:11:59Z</time></trkpt>
<trkpt lat="46.17038" lon="7.96482"><ele></ele><time>2025-8-20T13:12:2Z</time></trkpt>
<trkpt lat="46.17038" lon="7.96483"><ele></ele><time>2025-8-20T13:12:5Z</time></trkpt>
<trkpt lat="46.17038" lon="7.96486"><ele></ele><time>2025-8-20T13:12:8Z</time></trkpt>
<trkpt lat="46.17038" lon="7.9649"><ele></ele><time>2025-8-20T13:12:11Z</time></trkpt>
<trkpt lat="46.17038" lon="7.96491"><ele></ele><time>2025-8-20T13:12:14Z</time></trkpt>
<trkpt lat="46.17037" lon="7.96499"><ele></ele><time>2025-8-20T13:12:17Z</time></trkpt>
<trkpt lat="46.17038" lon="7.965"><ele></ele><time>2025-8-20T13:12:20Z</time></trkpt>
<trkpt lat="46.17037" lon="7.965"><ele></ele><time>2025-8-20T13:12:23Z</time></trkpt>
<trkpt lat="46.17037" lon="7.96501"><ele></ele><time>2025-8-20T13:12:26Z</time></trkpt>
<trkpt lat="46.17037" lon="7.96505"><ele></ele><time>2025-8-20T13:12:29Z</time></trkpt>
<trkpt lat="46.17037" lon="7.96506"><ele></ele><time>2025-8-20T13:12:32Z</time></trkpt>
<trkpt lat="46.17037" lon="7.96508"><ele></ele><time>2025-8-20T13:12:35Z</time></trkpt>
<trkpt lat="46.17037" lon="7.9651"><ele></ele><time>2025-8-20T13:12:38Z</time></trkpt>
<trkpt lat="46.17038" lon="7.96512"><ele></ele><time>2025-8-20T13:12:41Z</time></trkpt>
<trkpt lat="46.17038" lon="7.96515"><ele></ele><time>2025-8-20T13:12:44Z</time></trkpt>
<trkpt lat="46.17037" lon="7.96517"><ele></ele><time>2025-8-20T13:12:47Z</time></trkpt>
<trkpt lat="46.17038" lon="7.96522"><ele></ele><time>2025-8-20T13:12:50Z</time></trkpt>
<trkpt lat="46.17038" lon="7.96526"><ele></ele><time>2025-8-20T13:12:53Z</time></trkpt>
<trkpt lat="46.17038" lon="7.96531"><ele></ele><time>2025-8-20T13:12:56Z</time></trkpt>
<trkpt lat="46.17038" lon="7.96532"><ele></ele><time>2025-8-20T13:12:59Z</time></trkpt>
<trkpt lat="46.17039" lon="7.96537"><ele></ele><time>2025-8-20T13:13:2Z</time></trkpt>
<trkpt lat="46.17038" lon="7.96539"><ele></ele><time>2025-8-20T13:13:5Z</time></trkpt>
<trkpt lat="46.17038" lon="7.9654"><ele></ele><time>2025-8-20T13:13:8Z</time></trkpt>
<trkpt lat="46.17039" lon="7.96545"><ele></ele><time>2025-8-20T13:13:11Z</time></trkpt>
<trkpt lat="46.1704" lon="7.96546"><ele></ele><time>2025-8-20T13:13:14Z</time></trkpt>
<trkpt lat="46.17041" lon="7.96554"><ele></ele><time>2025-8-20T13:13:17Z</time></trkpt>
<trkpt lat="46.17043" lon="7.96563"><ele></ele><time>2025-8-20T13:13:20Z</time></trkpt>
<trkpt lat="46.17044" lon="7.96567"><ele></ele><time>2025-8-20T13:13:23Z</time></trkpt>
<trkpt lat="46.17046" lon="7.96573"><ele></ele><time>2025-8-20T13:13:26Z</time></trkpt>
<trkpt lat="46.17048" lon="7.96576"><ele></ele><time>2025-8-20T13:13:29Z</time></trkpt>
<trkpt lat="46.17049" lon="7.9658"><ele></ele><time>2025-8-20T13:13:32Z</time></trkpt>
<trkpt lat="46.17052" lon="7.96587"><ele></ele><time>2025-8-20T13:13:35Z</time></trkpt>
<trkpt lat="46.17052" lon="7.96588"><ele></ele><time>2025-8-20T13:13:38Z</time></trkpt>
<trkpt lat="46.17053" lon="7.96592"><ele></ele><time>2025-8-20T13:13:41Z</time></trkpt>
<trkpt lat="46.17055" lon="7.96596"><ele></ele><time>2025-8-20T13:13:44Z</time></trkpt>
<trkpt lat="46.17057" lon="7.966"><ele></ele><time>2025-8-20T13:13:47Z</time></trkpt>
<trkpt lat="46.17058" lon="7.96605"><ele></ele><time>2025-8-20T13:13:50Z</time></trkpt>
<trkpt lat="46.17059" lon="7.96606"><ele></ele><time>2025-8-20T13:13:53Z</time></trkpt>
<trkpt lat="46.17061" lon="7.96609"><ele></ele><time>2025-8-20T13:13:56Z</time></trkpt>
<trkpt lat="46.17062" lon="7.9661"><ele></ele><time>2025-8-20T13:13:59Z</time></trkpt>
<trkpt lat="46.17063" lon="7.96613"><ele></ele><time>2025-8-20T13:14:2Z</time></trkpt>
<trkpt lat="46.17064" lon="7.96615"><ele></ele><time>2025-8-20T13:14:5Z</time></trkpt>
<trkpt lat="46.17066" lon="7.96618"><ele></ele><time>2025-8-20T13:14:8Z</time></trkpt>
<trkpt lat="46.17067" lon="7.96622"><ele></ele><time>2025-8-20T13:14:11Z</time></trkpt>
<trkpt lat="46.17068" lon="7.96624"><ele></ele><time>2025-8-20T13:14:14Z</time></trkpt>
<trkpt lat="46.17071" lon="7.96629"><ele></ele><time>2025-8-20T13:14:17Z</time></trkpt>
<trkpt lat="46.17071" lon="7.96629"><ele></ele><time>2025-8-20T13:14:20Z</time></trkpt>
<trkpt lat="46.17075" lon="7.96634"><ele></ele><time>2025-8-20T13:14:23Z</time></trkpt>
<trkpt lat="46.17076" lon="7.96637"><ele></ele><time>2025-8-20T13:14:26Z</time></trkpt>
<trkpt lat="46.17077" lon="7.96639"><ele></ele><time>2025-8-20T13:14:29Z</time></trkpt>
<trkpt lat="46.17079" lon="7.96643"><ele></ele><time>2025-8-20T13:14:32Z</time></trkpt>
<trkpt lat="46.1708" lon="7.96645"><ele></ele><time>2025-8-20T13:14:35Z</time></trkpt>
<trkpt lat="46.17083" lon="7.96649"><ele></ele><time>2025-8-20T13:14:38Z</time></trkpt>
<trkpt lat="46.17086" lon="7.96652"><ele></ele><time>2025-8-20T13:14:41Z</time></trkpt>
<trkpt lat="46.17088" lon="7.96655"><ele></ele><time>2025-8-20T13:14:44Z</time></trkpt>
<trkpt lat="46.1709" lon="7.96657"><ele></ele><time>2025-8-20T13:14:47Z</time></trkpt>
<trkpt lat="46.17093" lon="7.9666"><ele></ele><time>2025-8-20T13:14:50Z</time></trkpt>
<trkpt lat="46.17095" lon="7.96665"><ele></ele><time>2025-8-20T13:14:53Z</time></trkpt>
<trkpt lat="46.17097" lon="7.96666"><ele></ele><time>2025-8-20T13:14:56Z</time></trkpt>
<trkpt lat="46.17101" lon="7.96673"><ele></ele><time>2025-8-20T13:14:59Z</time></trkpt>
<trkpt lat="46.17103" lon="7.96675"><ele></ele><time>2025-8-20T13:15:2Z</time></trkpt>
<trkpt lat="46.17103" lon="7.96675"><ele></ele><time>2025-8-20T13:15:5Z</time></trkpt>
<trkpt lat="46.17103" lon="7.96675"><ele></ele><time>2025-8-20T13:15:8Z</time></trkpt>
<trkpt lat="46.17103" lon="7.96675"><ele></ele><time>2025-8-20T13:15:11Z</time></trkpt>
<trkpt lat="46.17105" lon="7.96677"><ele></ele><time>2025-8-20T13:15:14Z</time></trkpt>
<trkpt lat="46.17107" lon="7.96678"><ele></ele><time>2025-8-20T13:15:17Z</time></trkpt>
<trkpt lat="46.17107" lon="7.9668"><ele></ele><time>2025-8-20T13:15:20Z</time></trkpt>
<trkpt lat="46.17108" lon="7.96682"><ele></ele><time>2025-8-20T13:15:23Z</time></trkpt>
<trkpt lat="46.17109" lon="7.96683"><ele></ele><time>2025-8-20T13:15:26Z</time></trkpt>
<trkpt lat="46.17113" lon="7.96686"><ele></ele><time>2025-8-20T13:15:29Z</time></trkpt>
<trkpt lat="46.17117" lon="7.9669"><ele></ele><time>2025-8-20T13:15:32Z</time></trkpt>
<trkpt lat="46.17118" lon="7.96692"><ele></ele><time>2025-8-20T13:15:35Z</time></trkpt>
<trkpt lat="46.17123" lon="7.96695"><ele></ele><time>2025-8-20T13:15:38Z</time></trkpt>
<trkpt lat="46.17122" lon="7.96696"><ele></ele><time>2025-8-20T13:15:41Z</time></trkpt>
<trkpt lat="46.17122" lon="7.96696"><ele></ele><time>2025-8-20T13:15:44Z</time></trkpt>
<trkpt lat="46.17126" lon="7.967"><ele></ele><time>2025-8-20T13:15:47Z</time></trkpt>
<trkpt lat="46.17127" lon="7.96701"><ele></ele><time>2025-8-20T13:15:50Z</time></trkpt>
<trkpt lat="46.17133" lon="7.96709"><ele></ele><time>2025-8-20T13:15:53Z</time></trkpt>
<trkpt lat="46.1714" lon="7.96716"><ele></ele><time>2025-8-20T13:15:56Z</time></trkpt>
<trkpt lat="46.17146" lon="7.96721"><ele></ele><time>2025-8-20T13:15:59Z</time></trkpt>
<trkpt lat="46.17148" lon="7.96723"><ele></ele><time>2025-8-20T13:16:2Z</time></trkpt>
<trkpt lat="46.17151" lon="7.96725"><ele></ele><time>2025-8-20T13:16:5Z</time></trkpt>
<trkpt lat="46.17153" lon="7.96727"><ele></ele><time>2025-8-20T13:16:8Z</time></trkpt>
<trkpt lat="46.17157" lon="7.9673"><ele></ele><time>2025-8-20T13:16:11Z</time></trkpt>
<trkpt lat="46.17162" lon="7.96734"><ele></ele><time>2025-8-20T13:16:14Z</time></trkpt>
<trkpt lat="46.17163" lon="7.96735"><ele></ele><time>2025-8-20T13:16:17Z</time></trkpt>
<trkpt lat="46.17171" lon="7.96743"><ele></ele><time>2025-8-20T13:16:20Z</time></trkpt>
<trkpt lat="46.17174" lon="7.96745"><ele></ele><time>2025-8-20T13:16:23Z</time></trkpt>
<trkpt lat="46.17175" lon="7.96746"><ele></ele><time>2025-8-20T13:16:26Z</time></trkpt>
<trkpt lat="46.1718" lon="7.96751"><ele></ele><time>2025-8-20T13:16:29Z</time></trkpt>
<trkpt lat="46.17181" lon="7.9675"><ele></ele><time>2025-8-20T13:16:32Z</time></trkpt>
<trkpt lat="46.17186" lon="7.96757"><ele></ele><time>2025-8-20T13:16:35Z</time></trkpt>
<trkpt lat="46.17188" lon="7.96758"><ele></ele><time>2025-8-20T13:16:38Z</time></trkpt>
<trkpt lat="46.17188" lon="7.96758"><ele></ele><time>2025-8-20T13:16:41Z</time></trkpt>
<trkpt lat="46.17189" lon="7.96757"><ele></ele><time>2025-8-20T13:16:44Z</time></trkpt>
<trkpt lat="46.17195" lon="7.96762"><ele></ele><time>2025-8-20T13:16:47Z</time></trkpt>
<trkpt lat="46.17199" lon="7.96766"><ele></ele><time>2025-8-20T13:16:50Z</time></trkpt>
<trkpt lat="46.17202" lon="7.9677"><ele></ele><time>2025-8-20T13:16:53Z</time></trkpt>
<trkpt lat="46.17204" lon="7.96773"><ele></ele><time>2025-8-20T13:16:56Z</time></trkpt>
<trkpt lat="46.17206" lon="7.96774"><ele></ele><time>2025-8-20T13:16:59Z</time></trkpt>
<trkpt lat="46.17211" lon="7.96777"><ele></ele><time>2025-8-20T13:17:2Z</time></trkpt>
<trkpt lat="46.17216" lon="7.96783"><ele></ele><time>2025-8-20T13:17:5Z</time></trkpt>
<trkpt lat="46.1722" lon="7.96789"><ele></ele><time>2025-8-20T13:17:8Z</time></trkpt>
<trkpt lat="46.17225" lon="7.96797"><ele></ele><time>2025-8-20T13:17:11Z</time></trkpt>
<trkpt lat="46.17228" lon="7.968"><ele></ele><time>2025-8-20T13:17:14Z</time></trkpt>
<trkpt lat="46.17229" lon="7.96801"><ele></ele><time>2025-8-20T13:17:17Z</time></trkpt>
<trkpt lat="46.17231" lon="7.96803"><ele></ele><time>2025-8-20T13:17:20Z</time></trkpt>
<trkpt lat="46.17233" lon="7.96804"><ele></ele><time>2025-8-20T13:17:23Z</time></trkpt>
<trkpt lat="46.17235" lon="7.96806"><ele></ele><time>2025-8-20T13:17:26Z</time></trkpt>
<trkpt lat="46.17239" lon="7.9681"><ele></ele><time>2025-8-20T13:17:29Z</time></trkpt>
<trkpt lat="46.1724" lon="7.96812"><ele></ele><time>2025-8-20T13:17:32Z</time></trkpt>
<trkpt lat="46.17244" lon="7.96817"><ele></ele><time>2025-8-20T13:17:35Z</time></trkpt>
<trkpt lat="46.17245" lon="7.96818"><ele></ele><time>2025-8-20T13:17:38Z</time></trkpt>
<trkpt lat="46.17248" lon="7.96821"><ele></ele><time>2025-8-20T13:17:41Z</time></trkpt>
<trkpt lat="46.1725" lon="7.96825"><ele></ele><time>2025-8-20T13:17:44Z</time></trkpt>
<trkpt lat="46.17254" lon="7.96832"><ele></ele><time>2025-8-20T13:17:47Z</time></trkpt>
<trkpt lat="46.17255" lon="7.96832"><ele></ele><time>2025-8-20T13:17:50Z</time></trkpt>
<trkpt lat="46.17256" lon="7.96835"><ele></ele><time>2025-8-20T13:17:53Z</time></trkpt>
<trkpt lat="46.17258" lon="7.96838"><ele></ele><time>2025-8-20T13:17:56Z</time></trkpt>
<trkpt lat="46.17259" lon="7.9684"><ele></ele><time>2025-8-20T13:17:59Z</time></trkpt>
<trkpt lat="46.17264" lon="7.96846"><ele></ele><time>2025-8-20T13:18:2Z</time></trkpt>
<trkpt lat="46.17269" lon="7.96851"><ele></ele><time>2025-8-20T13:18:5Z</time></trkpt>
<trkpt lat="46.17273" lon="7.96857"><ele></ele><time>2025-8-20T13:18:8Z</time></trkpt>
<trkpt lat="46.17274" lon="7.96858"><ele></ele><time>2025-8-20T13:18:11Z</time></trkpt>
<trkpt lat="46.17274" lon="7.96858"><ele></ele><time>2025-8-20T13:18:14Z</time></trkpt>
<trkpt lat="46.17274" lon="7.96858"><ele></ele><time>2025-8-20T13:18:17Z</time></trkpt>
<trkpt lat="46.17274" lon="7.96858"><ele></ele><time>2025-8-20T13:18:20Z</time></trkpt>
<trkpt lat="46.17274" lon="7.96858"><ele></ele><time>2025-8-20T13:18:23Z</time></trkpt>
<trkpt lat="46.17274" lon="7.96858"><ele></ele><time>2025-8-20T13:18:26Z</time></trkpt>
<trkpt lat="46.17279" lon="7.96859"><ele></ele><time>2025-8-20T13:18:29Z</time></trkpt>
<trkpt lat="46.17284" lon="7.96859"><ele></ele><time>2025-8-20T13:18:32Z</time></trkpt>
<trkpt lat="46.17285" lon="7.96858"><ele></ele><time>2025-8-20T13:18:35Z</time></trkpt>
<trkpt lat="46.17285" lon="7.96858"><ele></ele><time>2025-8-20T13:18:38Z</time></trkpt>
<trkpt lat="46.17286" lon="7.96858"><ele></ele><time>2025-8-20T13:18:41Z</time></trkpt>
<trkpt lat="46.17285" lon="7.96857"><ele></ele><time>2025-8-20T13:18:44Z</time></trkpt>
<trkpt lat="46.17284" lon="7.96857"><ele></ele><time>2025-8-20T13:18:47Z</time></trkpt>
<trkpt lat="46.17285" lon="7.96857"><ele></ele><time>2025-8-20T13:18:50Z</time></trkpt>
<trkpt lat="46.17287" lon="7.96857"><ele></ele><time>2025-8-20T13:18:53Z</time></trkpt>
<trkpt lat="46.17287" lon="7.96857"><ele></ele><time>2025-8-20T13:18:56Z</time></trkpt>
<trkpt lat="46.17287" lon="7.96857"><ele></ele><time>2025-8-20T13:18:59Z</time></trkpt>
<trkpt lat="46.17287" lon="7.96856"><ele></ele><time>2025-8-20T13:19:2Z</time></trkpt>
<trkpt lat="46.17287" lon="7.96857"><ele></ele><time>2025-8-20T13:19:5Z</time></trkpt>
<trkpt lat="46.17287" lon="7.96857"><ele></ele><time>2025-8-20T13:19:8Z</time></trkpt>
<trkpt lat="46.17287" lon="7.96857"><ele></ele><time>2025-8-20T13:19:11Z</time></trkpt>
<trkpt lat="46.17287" lon="7.96857"><ele></ele><time>2025-8-20T13:19:14Z</time></trkpt>
<trkpt lat="46.17287" lon="7.96857"><ele></ele><time>2025-8-20T13:19:17Z</time></trkpt>
<trkpt lat="46.17287" lon="7.96857"><ele></ele><time>2025-8-20T13:19:20Z</time></trkpt>
<trkpt lat="46.17287" lon="7.96856"><ele></ele><time>2025-8-20T13:19:23Z</time></trkpt>
<trkpt lat="46.17287" lon="7.96857"><ele></ele><time>2025-8-20T13:19:26Z</time></trkpt>
<trkpt lat="46.17287" lon="7.96857"><ele></ele><time>2025-8-20T13:19:29Z</time></trkpt>
<trkpt lat="46.17287" lon="7.96857"><ele></ele><time>2025-8-20T13:19:32Z</time></trkpt>
<trkpt lat="46.17287" lon="7.96857"><ele></ele><time>2025-8-20T13:19:35Z</time></trkpt>
<trkpt lat="46.17287" lon="7.96857"><ele></ele><time>2025-8-20T13:19:38Z</time></trkpt>
<trkpt lat="46.17287" lon="7.96857"><ele></ele><time>2025-8-20T13:19:41Z</time></trkpt>
<trkpt lat="46.17287" lon="7.96857"><ele></ele><time>2025-8-20T13:19:44Z</time></trkpt>
<trkpt lat="46.17285" lon="7.96858"><ele></ele><time>2025-8-20T13:19:47Z</time></trkpt>
<trkpt lat="46.17285" lon="7.96858"><ele></ele><time>2025-8-20T13:19:50Z</time></trkpt>
<trkpt lat="46.17285" lon="7.96856"><ele></ele><time>2025-8-20T13:19:53Z</time></trkpt>
<trkpt lat="46.17285" lon="7.96855"><ele></ele><time>2025-8-20T13:19:56Z</time></trkpt>
<trkpt lat="46.17285" lon="7.96855"><ele></ele><time>2025-8-20T13:19:59Z</time></trkpt>
<trkpt lat="46.17285" lon="7.96856"><ele></ele><time>2025-8-20T13:20:2Z</time></trkpt>
<trkpt lat="46.17287" lon="7.96856"><ele></ele><time>2025-8-20T13:20:5Z</time></trkpt>
<trkpt lat="46.17287" lon="7.96856"><ele></ele><time>2025-8-20T13:20:8Z</time></trkpt>
<trkpt lat="46.17287" lon="7.96856"><ele></ele><time>2025-8-20T13:20:11Z</time></trkpt>
<trkpt lat="46.17287" lon="7.96857"><ele></ele><time>2025-8-20T13:20:14Z</time></trkpt>
<trkpt lat="46.17287" lon="7.96856"><ele></ele><time>2025-8-20T13:20:17Z</time></trkpt>
<trkpt lat="46.17287" lon="7.96856"><ele></ele><time>2025-8-20T13:20:20Z</time></trkpt>
<trkpt lat="46.17287" lon="7.96856"><ele></ele><time>2025-8-20T13:20:23Z</time></trkpt>
<trkpt lat="46.17287" lon="7.96856"><ele></ele><time>2025-8-20T13:20:26Z</time></trkpt>
<trkpt lat="46.17287" lon="7.96856"><ele></ele><time>2025-8-20T13:20:29Z</time></trkpt>
<trkpt lat="46.17287" lon="7.96856"><ele></ele><time>2025-8-20T13:20:32Z</time></trkpt>
<trkpt lat="46.17287" lon="7.96856"><ele></ele><time>2025-8-20T13:20:35Z</time></trkpt>
<trkpt lat="46.17287" lon="7.96856"><ele></ele><time>2025-8-20T13:20:38Z</time></trkpt>
<trkpt lat="46.17287" lon="7.96856"><ele></ele><time>2025-8-20T13:20:41Z</time></trkpt>
<trkpt lat="46.17287" lon="7.96856"><ele></ele><time>2025-8-20T13:20:44Z</time></trkpt>
<trkpt lat="46.17287" lon="7.96856"><ele></ele><time>2025-8-20T13:20:47Z</time></trkpt>
<trkpt lat="46.17287" lon="7.96856"><ele></ele><time>2025-8-20T13:20:50Z</time></trkpt>
<trkpt lat="46.17287" lon="7.96856"><ele></ele><time>2025-8-20T13:20:53Z</time></trkpt>
<trkpt lat="46.17287" lon="7.96856"><ele></ele><time>2025-8-20T13:20:56Z</time></trkpt>
<trkpt lat="46.17287" lon="7.96856"><ele></ele><time>2025-8-20T13:20:59Z</time></trkpt>
<trkpt lat="46.17287" lon="7.96854"><ele></ele><time>2025-8-20T13:21:2Z</time></trkpt>
<trkpt lat="46.17286" lon="7.96854"><ele></ele><time>2025-8-20T13:21:5Z</time></trkpt>
<trkpt lat="46.17286" lon="7.96854"><ele></ele><time>2025-8-20T13:21:8Z</time></trkpt>
<trkpt lat="46.17286" lon="7.96854"><ele></ele><time>2025-8-20T13:21:11Z</time></trkpt>
<trkpt lat="46.17286" lon="7.96854"><ele></ele><time>2025-8-20T13:21:14Z</time></trkpt>
<trkpt lat="46.17286" lon="7.96854"><ele></ele><time>2025-8-20T13:21:17Z</time></trkpt>
<trkpt lat="46.17286" lon="7.96854"><ele></ele><time>2025-8-20T13:21:20Z</time></trkpt>
<trkpt lat="46.17286" lon="7.96854"><ele></ele><time>2025-8-20T13:21:23Z</time></trkpt>
<trkpt lat="46.17286" lon="7.96854"><ele></ele><time>2025-8-20T13:21:26Z</time></trkpt>
<trkpt lat="46.17286" lon="7.96854"><ele></ele><time>2025-8-20T13:21:29Z</time></trkpt>
<trkpt lat="46.17287" lon="7.96855"><ele></ele><time>2025-8-20T13:21:32Z</time></trkpt>
<trkpt lat="46.17287" lon="7.96855"><ele></ele><time>2025-8-20T13:21:35Z</time></trkpt>
<trkpt lat="46.17287" lon="7.96856"><ele></ele><time>2025-8-20T13:21:38Z</time></trkpt>
<trkpt lat="46.17286" lon="7.96856"><ele></ele><time>2025-8-20T13:21:41Z</time></trkpt>
<trkpt lat="46.17286" lon="7.96856"><ele></ele><time>2025-8-20T13:21:44Z</time></trkpt>
<trkpt lat="46.17286" lon="7.96856"><ele></ele><time>2025-8-20T13:21:47Z</time></trkpt>
<trkpt lat="46.17286" lon="7.96856"><ele></ele><time>2025-8-20T13:21:50Z</time></trkpt>
<trkpt lat="46.17286" lon="7.96856"><ele></ele><time>2025-8-20T13:21:53Z</time></trkpt>
<trkpt lat="46.17286" lon="7.96856"><ele></ele><time>2025-8-20T13:21:56Z</time></trkpt>
<trkpt lat="46.17287" lon="7.96855"><ele></ele><time>2025-8-20T13:21:59Z</time></trkpt>
<trkpt lat="46.17286" lon="7.96856"><ele></ele><time>2025-8-20T13:22:2Z</time></trkpt>
<trkpt lat="46.17286" lon="7.96856"><ele></ele><time>2025-8-20T13:22:5Z</time></trkpt>
<trkpt lat="46.17287" lon="7.96855"><ele></ele><time>2025-8-20T13:22:8Z</time></trkpt>
<trkpt lat="46.17286" lon="7.96856"><ele></ele><time>2025-8-20T13:22:11Z</time></trkpt>
<trkpt lat="46.17286" lon="7.96856"><ele></ele><time>2025-8-20T13:22:14Z</time></trkpt>
<trkpt lat="46.17286" lon="7.96856"><ele></ele><time>2025-8-20T13:22:17Z</time></trkpt>
<trkpt lat="46.17286" lon="7.96856"><ele></ele><time>2025-8-20T13:22:20Z</time></trkpt>
<trkpt lat="46.17286" lon="7.96856"><ele></ele><time>2025-8-20T13:22:23Z</time></trkpt>
<trkpt lat="46.17286" lon="7.96856"><ele></ele><time>2025-8-20T13:22:26Z</time></trkpt>
<trkpt lat="46.17286" lon="7.96856"><ele></ele><time>2025-8-20T13:22:29Z</time></trkpt>
<trkpt lat="46.17286" lon="7.96856"><ele></ele><time>2025-8-20T13:22:32Z</time></trkpt>
<trkpt lat="46.17286" lon="7.96856"><ele></ele><time>2025-8-20T13:22:35Z</time></trkpt>
<trkpt lat="46.17286" lon="7.96857"><ele></ele><time>2025-8-20T13:22:38Z</time></trkpt>
<trkpt lat="46.17285" lon="7.96857"><ele></ele><time>2025-8-20T13:22:41Z</time></trkpt>
<trkpt lat="46.17283" lon="7.96862"><ele></ele><time>2025-8-20T13:22:44Z</time></trkpt>
<trkpt lat="46.17283" lon="7.96862"><ele></ele><time>2025-8-20T13:22:47Z</time></trkpt>
<trkpt lat="46.17283" lon="7.96862"><ele></ele><time>2025-8-20T13:22:50Z</time></trkpt>
<trkpt lat="46.17283" lon="7.96862"><ele></ele><time>2025-8-20T13:22:53Z</time></trkpt>
<trkpt lat="46.17285" lon="7.96859"><ele></ele><time>2025-8-20T13:22:56Z</time></trkpt>
<trkpt lat="46.17285" lon="7.96858"><ele></ele><time>2025-8-20T13:22:59Z</time></trkpt>
<trkpt lat="46.17285" lon="7.96859"><ele></ele><time>2025-8-20T13:23:2Z</time></trkpt>
<trkpt lat="46.17285" lon="7.96859"><ele></ele><time>2025-8-20T13:23:5Z</time></trkpt>
<trkpt lat="46.17285" lon="7.96859"><ele></ele><time>2025-8-20T13:23:8Z</time></trkpt>
<trkpt lat="46.17285" lon="7.96859"><ele></ele><time>2025-8-20T13:23:11Z</time></trkpt>
<trkpt lat="46.17285" lon="7.96859"><ele></ele><time>2025-8-20T13:23:14Z</time></trkpt>
<trkpt lat="46.17285" lon="7.96859"><ele></ele><time>2025-8-20T13:23:17Z</time></trkpt>
<trkpt lat="46.17285" lon="7.96859"><ele></ele><time>2025-8-20T13:23:20Z</time></trkpt>
<trkpt lat="46.17285" lon="7.96859"><ele></ele><time>2025-8-20T13:23:23Z</time></trkpt>
<trkpt lat="46.17285" lon="7.96859"><ele></ele><time>2025-8-20T13:23:26Z</time></trkpt>
<trkpt lat="46.17285" lon="7.96859"><ele></ele><time>2025-8-20T13:23:29Z</time></trkpt>
<trkpt lat="46.17285" lon="7.96859"><ele></ele><time>2025-8-20T13:23:32Z</time></trkpt>
<trkpt lat="46.17285" lon="7.96859"><ele></ele><time>2025-8-20T13:23:35Z</time></trkpt>
<trkpt lat="46.17285" lon="7.96859"><ele></ele><time>2025-8-20T13:23:38Z</time></trkpt>
<trkpt lat="46.17285" lon="7.96859"><ele></ele><time>2025-8-20T13:23:41Z</time></trkpt>
<trkpt lat="46.17285" lon="7.96859"><ele></ele><time>2025-8-20T13:23:44Z</time></trkpt>
<trkpt lat="46.17285" lon="7.96859"><ele></ele><time>2025-8-20T13:23:47Z</time></trkpt>
<trkpt lat="46.17285" lon="7.96859"><ele></ele><time>2025-8-20T13:23:50Z</time></trkpt>
<trkpt lat="46.17285" lon="7.96859"><ele></ele><time>2025-8-20T13:23:53Z</time></trkpt>
<trkpt lat="46.17285" lon="7.96859"><ele></ele><time>2025-8-20T13:23:56Z</time></trkpt>
<trkpt lat="46.17287" lon="7.96854"><ele></ele><time>2025-8-20T13:23:59Z</time></trkpt>
<trkpt lat="46.17287" lon="7.96854"><ele></ele><time>2025-8-20T13:24:2Z</time></trkpt>
<trkpt lat="46.17287" lon="7.96854"><ele></ele><time>2025-8-20T13:24:5Z</time></trkpt>
<trkpt lat="46.17287" lon="7.96854"><ele></ele><time>2025-8-20T13:24:8Z</time></trkpt>
<trkpt lat="46.17287" lon="7.96854"><ele></ele><time>2025-8-20T13:24:11Z</time></trkpt>
<trkpt lat="46.17287" lon="7.96854"><ele></ele><time>2025-8-20T13:24:14Z</time></trkpt>
<trkpt lat="46.17287" lon="7.96854"><ele></ele><time>2025-8-20T13:24:17Z</time></trkpt>
<trkpt lat="46.17287" lon="7.96854"><ele></ele><time>2025-8-20T13:24:20Z</time></trkpt>
<trkpt lat="46.17287" lon="7.96854"><ele></ele><time>2025-8-20T13:24:23Z</time></trkpt>
<trkpt lat="46.17287" lon="7.96854"><ele></ele><time>2025-8-20T13:24:26Z</time></trkpt>
<trkpt lat="46.17287" lon="7.96856"><ele></ele><time>2025-8-20T13:24:29Z</time></trkpt>
<trkpt lat="46.17287" lon="7.96856"><ele></ele><time>2025-8-20T13:24:32Z</time></trkpt>
<trkpt lat="46.17286" lon="7.96855"><ele></ele><time>2025-8-20T13:24:35Z</time></trkpt>
<trkpt lat="46.17286" lon="7.96855"><ele></ele><time>2025-8-20T13:24:38Z</time></trkpt>
<trkpt lat="46.17286" lon="7.96855"><ele></ele><time>2025-8-20T13:24:41Z</time></trkpt>
<trkpt lat="46.17286" lon="7.96855"><ele></ele><time>2025-8-20T13:24:44Z</time></trkpt>
<trkpt lat="46.17286" lon="7.96855"><ele></ele><time>2025-8-20T13:24:47Z</time></trkpt>
<trkpt lat="46.17286" lon="7.96855"><ele></ele><time>2025-8-20T13:24:50Z</time></trkpt>
<trkpt lat="46.17286" lon="7.96855"><ele></ele><time>2025-8-20T13:24:53Z</time></trkpt>
<trkpt lat="46.17286" lon="7.96855"><ele></ele><time>2025-8-20T13:24:56Z</time></trkpt>
<trkpt lat="46.17286" lon="7.96855"><ele></ele><time>2025-8-20T13:24:59Z</time></trkpt>
<trkpt lat="46.17286" lon="7.96855"><ele></ele><time>2025-8-20T13:25:2Z</time></trkpt>
<trkpt lat="46.17286" lon="7.96855"><ele></ele><time>2025-8-20T13:25:5Z</time></trkpt>
<trkpt lat="46.17286" lon="7.96855"><ele></ele><time>2025-8-20T13:25:8Z</time></trkpt>
<trkpt lat="46.17286" lon="7.96855"><ele></ele><time>2025-8-20T13:25:11Z</time></trkpt>
<trkpt lat="46.17286" lon="7.96855"><ele></ele><time>2025-8-20T13:25:14Z</time></trkpt>
<trkpt lat="46.17286" lon="7.96855"><ele></ele><time>2025-8-20T13:25:17Z</time></trkpt>
<trkpt lat="46.17286" lon="7.96855"><ele></ele><time>2025-8-20T13:25:20Z</time></trkpt>
<trkpt lat="46.17286" lon="7.96855"><ele></ele><time>2025-8-20T13:25:23Z</time></trkpt>
<trkpt lat="46.17286" lon="7.96855"><ele></ele><time>2025-8-20T13:25:26Z</time></trkpt>
<trkpt lat="46.17286" lon="7.96855"><ele></ele><time>2025-8-20T13:25:29Z</time></trkpt>
<trkpt lat="46.17286" lon="7.96855"><ele></ele><time>2025-8-20T13:25:32Z</time></trkpt>
<trkpt lat="46.17286" lon="7.96855"><ele></ele><time>2025-8-20T13:25:35Z</time></trkpt>
<trkpt lat="46.17286" lon="7.96855"><ele></ele><time>2025-8-20T13:25:38Z</time></trkpt>
<trkpt lat="46.17286" lon="7.96855"><ele></ele><time>2025-8-20T13:25:41Z</time></trkpt>
<trkpt lat="46.17286" lon="7.96855"><ele></ele><time>2025-8-20T13:25:44Z</time></trkpt>
<trkpt lat="46.17286" lon="7.96855"><ele></ele><time>2025-8-20T13:25:47Z</time></trkpt>
<trkpt lat="46.17286" lon="7.96855"><ele></ele><time>2025-8-20T13:25:50Z</time></trkpt>
<trkpt lat="46.17286" lon="7.96855"><ele></ele><time>2025-8-20T13:25:53Z</time></trkpt>
<trkpt lat="46.17286" lon="7.96855"><ele></ele><time>2025-8-20T13:25:56Z</time></trkpt>
<trkpt lat="46.17286" lon="7.96855"><ele></ele><time>2025-8-20T13:25:59Z</time></trkpt>
<trkpt lat="46.17286" lon="7.96855"><ele></ele><time>2025-8-20T13:26:2Z</time></trkpt>
<trkpt lat="46.17286" lon="7.96855"><ele></ele><time>2025-8-20T13:26:5Z</time></trkpt>
<trkpt lat="46.17286" lon="7.96855"><ele></ele><time>2025-8-20T13:26:8Z</time></trkpt>
<trkpt lat="46.17287" lon="7.96853"><ele></ele><time>2025-8-20T13:26:11Z</time></trkpt>
<trkpt lat="46.17288" lon="7.96851"><ele></ele><time>2025-8-20T13:26:14Z</time></trkpt>
<trkpt lat="46.17288" lon="7.96852"><ele></ele><time>2025-8-20T13:26:17Z</time></trkpt>
<trkpt lat="46.17288" lon="7.96852"><ele></ele><time>2025-8-20T13:26:20Z</time></trkpt>
<trkpt lat="46.17288" lon="7.96853"><ele></ele><time>2025-8-20T13:26:23Z</time></trkpt>
<trkpt lat="46.17288" lon="7.96853"><ele></ele><time>2025-8-20T13:26:26Z</time></trkpt>
<trkpt lat="46.17287" lon="7.96854"><ele></ele><time>2025-8-20T13:26:29Z</time></trkpt>
<trkpt lat="46.17287" lon="7.96854"><ele></ele><time>2025-8-20T13:26:32Z</time></trkpt>
<trkpt lat="46.17287" lon="7.96853"><ele></ele><time>2025-8-20T13:26:35Z</time></trkpt>
<trkpt lat="46.17287" lon="7.96854"><ele></ele><time>2025-8-20T13:26:38Z</time></trkpt>
<trkpt lat="46.17287" lon="7.96853"><ele></ele><time>2025-8-20T13:26:41Z</time></trkpt>
<trkpt lat="46.17287" lon="7.96854"><ele></ele><time>2025-8-20T13:26:44Z</time></trkpt>
<trkpt lat="46.17287" lon="7.96853"><ele></ele><time>2025-8-20T13:26:47Z</time></trkpt>
<trkpt lat="46.17287" lon="7.96853"><ele></ele><time>2025-8-20T13:26:50Z</time></trkpt>
<trkpt lat="46.17286" lon="7.96854"><ele></ele><time>2025-8-20T13:26:53Z</time></trkpt>
<trkpt lat="46.17287" lon="7.96855"><ele></ele><time>2025-8-20T13:26:56Z</time></trkpt>
<trkpt lat="46.17286" lon="7.96855"><ele></ele><time>2025-8-20T13:26:59Z</time></trkpt>
<trkpt lat="46.17287" lon="7.96854"><ele></ele><time>2025-8-20T13:27:2Z</time></trkpt>
<trkpt lat="46.17287" lon="7.96854"><ele></ele><time>2025-8-20T13:27:5Z</time></trkpt>
<trkpt lat="46.17287" lon="7.96853"><ele></ele><time>2025-8-20T13:27:8Z</time></trkpt>
<trkpt lat="46.17288" lon="7.96853"><ele></ele><time>2025-8-20T13:27:11Z</time></trkpt>
<trkpt lat="46.17286" lon="7.96853"><ele></ele><time>2025-8-20T13:27:14Z</time></trkpt>
<trkpt lat="46.17287" lon="7.96853"><ele></ele><time>2025-8-20T13:27:17Z</time></trkpt>
<trkpt lat="46.17287" lon="7.96853"><ele></ele><time>2025-8-20T13:27:20Z</time></trkpt>
<trkpt lat="46.17286" lon="7.96854"><ele></ele><time>2025-8-20T13:27:23Z</time></trkpt>
<trkpt lat="46.17286" lon="7.96854"><ele></ele><time>2025-8-20T13:27:26Z</time></trkpt>
<trkpt lat="46.17286" lon="7.96854"><ele></ele><time>2025-8-20T13:27:29Z</time></trkpt>
<trkpt lat="46.17286" lon="7.96854"><ele></ele><time>2025-8-20T13:27:32Z</time></trkpt>
<trkpt lat="46.17286" lon="7.96854"><ele></ele><time>2025-8-20T13:27:35Z</time></trkpt>
<trkpt lat="46.17286" lon="7.96854"><ele></ele><time>2025-8-20T13:27:38Z</time></trkpt>
<trkpt lat="46.17286" lon="7.96854"><ele></ele><time>2025-8-20T13:27:41Z</time></trkpt>
<trkpt lat="46.17287" lon="7.96856"><ele></ele><time>2025-8-20T13:27:44Z</time></trkpt>
<trkpt lat="46.17287" lon="7.96857"><ele></ele><time>2025-8-20T13:27:47Z</time></trkpt>
<trkpt lat="46.17287" lon="7.96857"><ele></ele><time>2025-8-20T13:27:50Z</time></trkpt>
<trkpt lat="46.17286" lon="7.96856"><ele></ele><time>2025-8-20T13:27:53Z</time></trkpt>
<trkpt lat="46.17285" lon="7.96856"><ele></ele><time>2025-8-20T13:27:56Z</time></trkpt>
<trkpt lat="46.17283" lon="7.96856"><ele></ele><time>2025-8-20T13:27:59Z</time></trkpt>
<trkpt lat="46.17285" lon="7.96856"><ele></ele><time>2025-8-20T13:28:2Z</time></trkpt>
<trkpt lat="46.17286" lon="7.96855"><ele></ele><time>2025-8-20T13:28:5Z</time></trkpt>
<trkpt lat="46.17286" lon="7.96855"><ele></ele><time>2025-8-20T13:28:8Z</time></trkpt>
<trkpt lat="46.17286" lon="7.96855"><ele></ele><time>2025-8-20T13:28:11Z</time></trkpt>
<trkpt lat="46.17286" lon="7.96855"><ele></ele><time>2025-8-20T13:28:14Z</time></trkpt>
<trkpt lat="46.17286" lon="7.96855"><ele></ele><time>2025-8-20T13:28:17Z</time></trkpt>
<trkpt lat="46.17286" lon="7.96855"><ele></ele><time>2025-8-20T13:28:20Z</time></trkpt>
<trkpt lat="46.17286" lon="7.96855"><ele></ele><time>2025-8-20T13:28:23Z</time></trkpt>
<trkpt lat="46.17286" lon="7.96855"><ele></ele><time>2025-8-20T13:28:26Z</time></trkpt>
<trkpt lat="46.17286" lon="7.96857"><ele></ele><time>2025-8-20T13:28:29Z</time></trkpt>
<trkpt lat="46.17287" lon="7.96857"><ele></ele><time>2025-8-20T13:28:32Z</time></trkpt>
<trkpt lat="46.17287" lon="7.96857"><ele></ele><time>2025-8-20T13:28:35Z</time></trkpt>
<trkpt lat="46.17286" lon="7.96857"><ele></ele><time>2025-8-20T13:28:38Z</time></trkpt>
<trkpt lat="46.17286" lon="7.96856"><ele></ele><time>2025-8-20T13:28:41Z</time></trkpt>
<trkpt lat="46.17285" lon="7.96856"><ele></ele><time>2025-8-20T13:28:44Z</time></trkpt>
<trkpt lat="46.17284" lon="7.96856"><ele></ele><time>2025-8-20T13:28:47Z</time></trkpt>
<trkpt lat="46.17285" lon="7.96856"><ele></ele><time>2025-8-20T13:28:50Z</time></trkpt>
<trkpt lat="46.17286" lon="7.96858"><ele></ele><time>2025-8-20T13:28:53Z</time></trkpt>
<trkpt lat="46.17285" lon="7.96859"><ele></ele><time>2025-8-20T13:28:56Z</time></trkpt>
<trkpt lat="46.17285" lon="7.96859"><ele></ele><time>2025-8-20T13:28:59Z</time></trkpt>
<trkpt lat="46.17285" lon="7.96859"><ele></ele><time>2025-8-20T13:29:2Z</time></trkpt>
<trkpt lat="46.17284" lon="7.96859"><ele></ele><time>2025-8-20T13:29:5Z</time></trkpt>
<trkpt lat="46.17285" lon="7.96857"><ele></ele><time>2025-8-20T13:29:8Z</time></trkpt>
<trkpt lat="46.17285" lon="7.96857"><ele></ele><time>2025-8-20T13:29:11Z</time></trkpt>
<trkpt lat="46.17286" lon="7.96855"><ele></ele><time>2025-8-20T13:29:14Z</time></trkpt>
<trkpt lat="46.17286" lon="7.96855"><ele></ele><time>2025-8-20T13:29:17Z</time></trkpt>
<trkpt lat="46.17286" lon="7.96855"><ele></ele><time>2025-8-20T13:29:20Z</time></trkpt>
<trkpt lat="46.17286" lon="7.96855"><ele></ele><time>2025-8-20T13:29:23Z</time></trkpt>
<trkpt lat="46.17286" lon="7.96855"><ele></ele><time>2025-8-20T13:29:26Z</time></trkpt>
<trkpt lat="46.17286" lon="7.96855"><ele></ele><time>2025-8-20T13:29:29Z</time></trkpt>
<trkpt lat="46.17286" lon="7.96855"><ele></ele><time>2025-8-20T13:29:32Z</time></trkpt>
<trkpt lat="46.17286" lon="7.96855"><ele></ele><time>2025-8-20T13:29:35Z</time></trkpt>
<trkpt lat="46.17286" lon="7.96855"><ele></ele><time>2025-8-20T13:29:38Z</time></trkpt>
<trkpt lat="46.17286" lon="7.96855"><ele></ele><time>2025-8-20T13:29:41Z</time></trkpt>
<trkpt lat="46.17286" lon="7.96855"><ele></ele><time>2025-8-20T13:29:44Z</time></trkpt>
<trkpt lat="46.17286" lon="7.96855"><ele></ele><time>2025-8-20T13:29:47Z</time></trkpt>
<trkpt lat="46.17286" lon="7.96855"><ele></ele><time>2025-8-20T13:29:50Z</time></trkpt>
<trkpt lat="46.17286" lon="7.96855"><ele></ele><time>2025-8-20T13:29:53Z</time></trkpt>
<trkpt lat="46.17286" lon="7.96855"><ele></ele><time>2025-8-20T13:29:56Z</time></trkpt>
<trkpt lat="46.17286" lon="7.96856"><ele></ele><time>2025-8-20T13:29:59Z</time></trkpt>
<trkpt lat="46.17287" lon="7.96858"><ele></ele><time>2025-8-20T13:30:2Z</time></trkpt>
<trkpt lat="46.17287" lon="7.96857"><ele></ele><time>2025-8-20T13:30:5Z</time></trkpt>
<trkpt lat="46.17287" lon="7.96857"><ele></ele><time>2025-8-20T13:30:8Z</time></trkpt>
<trkpt lat="46.17287" lon="7.96857"><ele></ele><time>2025-8-20T13:30:11Z</time></trkpt>
<trkpt lat="46.17287" lon="7.96857"><ele></ele><time>2025-8-20T13:30:14Z</time></trkpt>
<trkpt lat="46.17287" lon="7.96857"><ele></ele><time>2025-8-20T13:30:17Z</time></trkpt>
<trkpt lat="46.17287" lon="7.96857"><ele></ele><time>2025-8-20T13:30:20Z</time></trkpt>
<trkpt lat="46.17287" lon="7.96857"><ele></ele><time>2025-8-20T13:30:23Z</time></trkpt>
<trkpt lat="46.17287" lon="7.96857"><ele></ele><time>2025-8-20T13:30:26Z</time></trkpt>
<trkpt lat="46.17287" lon="7.96857"><ele></ele><time>2025-8-20T13:30:29Z</time></trkpt>
<trkpt lat="46.17287" lon="7.96857"><ele></ele><time>2025-8-20T13:30:32Z</time></trkpt>
<trkpt lat="46.17287" lon="7.96856"><ele></ele><time>2025-8-20T13:30:35Z</time></trkpt>
<trkpt lat="46.17287" lon="7.96856"><ele></ele><time>2025-8-20T13:30:38Z</time></trkpt>
<trkpt lat="46.17287" lon="7.96857"><ele></ele><time>2025-8-20T13:30:41Z</time></trkpt>
<trkpt lat="46.17287" lon="7.96857"><ele></ele><time>2025-8-20T13:30:44Z</time></trkpt>
<trkpt lat="46.17287" lon="7.96857"><ele></ele><time>2025-8-20T13:30:47Z</time></trkpt>
<trkpt lat="46.17287" lon="7.96857"><ele></ele><time>2025-8-20T13:30:50Z</time></trkpt>
<trkpt lat="46.17287" lon="7.96857"><ele></ele><time>2025-8-20T13:30:53Z</time></trkpt>
<trkpt lat="46.17286" lon="7.96857"><ele></ele><time>2025-8-20T13:30:56Z</time></trkpt>
<trkpt lat="46.17285" lon="7.96855"><ele></ele><time>2025-8-20T13:30:59Z</time></trkpt>
<trkpt lat="46.17285" lon="7.96855"><ele></ele><time>2025-8-20T13:31:2Z</time></trkpt>
<trkpt lat="46.17285" lon="7.96856"><ele></ele><time>2025-8-20T13:31:5Z</time></trkpt>
<trkpt lat="46.17285" lon="7.96856"><ele></ele><time>2025-8-20T13:31:8Z</time></trkpt>
<trkpt lat="46.17286" lon="7.96855"><ele></ele><time>2025-8-20T13:31:11Z</time></trkpt>
<trkpt lat="46.17285" lon="7.96854"><ele></ele><time>2025-8-20T13:31:14Z</time></trkpt>
<trkpt lat="46.17286" lon="7.96856"><ele></ele><time>2025-8-20T13:31:17Z</time></trkpt>
<trkpt lat="46.17286" lon="7.96856"><ele></ele><time>2025-8-20T13:31:20Z</time></trkpt>
<trkpt lat="46.17287" lon="7.96857"><ele></ele><time>2025-8-20T13:31:23Z</time></trkpt>
<trkpt lat="46.1729" lon="7.96859"><ele></ele><time>2025-8-20T13:31:26Z</time></trkpt>
<trkpt lat="46.17291" lon="7.96861"><ele></ele><time>2025-8-20T13:31:29Z</time></trkpt>
<trkpt lat="46.17292" lon="7.96861"><ele></ele><time>2025-8-20T13:31:32Z</time></trkpt>
<trkpt lat="46.17292" lon="7.96861"><ele></ele><time>2025-8-20T13:31:35Z</time></trkpt>
<trkpt lat="46.17293" lon="7.96861"><ele></ele><time>2025-8-20T13:31:38Z</time></trkpt>
<trkpt lat="46.17294" lon="7.96862"><ele></ele><time>2025-8-20T13:31:41Z</time></trkpt>
<trkpt lat="46.17296" lon="7.96863"><ele></ele><time>2025-8-20T13:31:44Z</time></trkpt>
<trkpt lat="46.17297" lon="7.96865"><ele></ele><time>2025-8-20T13:31:47Z</time></trkpt>
<trkpt lat="46.173" lon="7.96867"><ele></ele><time>2025-8-20T13:31:50Z</time></trkpt>
<trkpt lat="46.17301" lon="7.96868"><ele></ele><time>2025-8-20T13:31:53Z</time></trkpt>
<trkpt lat="46.17303" lon="7.9687"><ele></ele><time>2025-8-20T13:31:56Z</time></trkpt>
<trkpt lat="46.17303" lon="7.9687"><ele></ele><time>2025-8-20T13:31:59Z</time></trkpt>
<trkpt lat="46.17303" lon="7.9687"><ele></ele><time>2025-8-20T13:32:2Z</time></trkpt>
<trkpt lat="46.17303" lon="7.96869"><ele></ele><time>2025-8-20T13:32:5Z</time></trkpt>
<trkpt lat="46.17302" lon="7.96867"><ele></ele><time>2025-8-20T13:32:8Z</time></trkpt>
<trkpt lat="46.17302" lon="7.96866"><ele></ele><time>2025-8-20T13:32:11Z</time></trkpt>
<trkpt lat="46.17302" lon="7.96866"><ele></ele><time>2025-8-20T13:32:14Z</time></trkpt>
<trkpt lat="46.17302" lon="7.96866"><ele></ele><time>2025-8-20T13:32:17Z</time></trkpt>
<trkpt lat="46.17302" lon="7.96866"><ele></ele><time>2025-8-20T13:32:20Z</time></trkpt>
<trkpt lat="46.17302" lon="7.96866"><ele></ele><time>2025-8-20T13:32:23Z</time></trkpt>
<trkpt lat="46.17302" lon="7.96866"><ele></ele><time>2025-8-20T13:32:26Z</time></trkpt>
<trkpt lat="46.17302" lon="7.96866"><ele></ele><time>2025-8-20T13:32:29Z</time></trkpt>
<trkpt lat="46.17303" lon="7.96865"><ele></ele><time>2025-8-20T13:32:32Z</time></trkpt>
<trkpt lat="46.17301" lon="7.96865"><ele></ele><time>2025-8-20T13:32:35Z</time></trkpt>
<trkpt lat="46.17299" lon="7.96866"><ele></ele><time>2025-8-20T13:32:38Z</time></trkpt>
<trkpt lat="46.17298" lon="7.96865"><ele></ele><time>2025-8-20T13:32:41Z</time></trkpt>
<trkpt lat="46.17296" lon="7.96864"><ele></ele><time>2025-8-20T13:32:44Z</time></trkpt>
<trkpt lat="46.17294" lon="7.96863"><ele></ele><time>2025-8-20T13:32:47Z</time></trkpt>
<trkpt lat="46.17293" lon="7.96862"><ele></ele><time>2025-8-20T13:32:50Z</time></trkpt>
<trkpt lat="46.17293" lon="7.96861"><ele></ele><time>2025-8-20T13:32:53Z</time></trkpt>
<trkpt lat="46.17291" lon="7.9686"><ele></ele><time>2025-8-20T13:32:56Z</time></trkpt>
<trkpt lat="46.1729" lon="7.96859"><ele></ele><time>2025-8-20T13:32:59Z</time></trkpt>
<trkpt lat="46.17289" lon="7.96859"><ele></ele><time>2025-8-20T13:33:2Z</time></trkpt>
<trkpt lat="46.17287" lon="7.96857"><ele></ele><time>2025-8-20T13:33:5Z</time></trkpt>
<trkpt lat="46.17288" lon="7.96857"><ele></ele><time>2025-8-20T13:33:8Z</time></trkpt>
<trkpt lat="46.17287" lon="7.96858"><ele></ele><time>2025-8-20T13:33:11Z</time></trkpt>
<trkpt lat="46.17287" lon="7.96858"><ele></ele><time>2025-8-20T13:33:14Z</time></trkpt>
<trkpt lat="46.17287" lon="7.96858"><ele></ele><time>2025-8-20T13:33:17Z</time></trkpt>
<trkpt lat="46.17287" lon="7.96858"><ele></ele><time>2025-8-20T13:33:20Z</time></trkpt>
<trkpt lat="46.17287" lon="7.96858"><ele></ele><time>2025-8-20T13:33:23Z</time></trkpt>
<trkpt lat="46.17287" lon="7.96858"><ele></ele><time>2025-8-20T13:33:26Z</time></trkpt>
<trkpt lat="46.17287" lon="7.96856"><ele></ele><time>2025-8-20T13:33:29Z</time></trkpt>
<trkpt lat="46.17287" lon="7.96856"><ele></ele><time>2025-8-20T13:33:32Z</time></trkpt>
<trkpt lat="46.17287" lon="7.96855"><ele></ele><time>2025-8-20T13:33:35Z</time></trkpt>
<trkpt lat="46.17287" lon="7.96855"><ele></ele><time>2025-8-20T13:33:38Z</time></trkpt>
<trkpt lat="46.17287" lon="7.96855"><ele></ele><time>2025-8-20T13:33:41Z</time></trkpt>
<trkpt lat="46.17287" lon="7.96855"><ele></ele><time>2025-8-20T13:33:44Z</time></trkpt>
<trkpt lat="46.17287" lon="7.96855"><ele></ele><time>2025-8-20T13:33:47Z</time></trkpt>
<trkpt lat="46.17287" lon="7.96855"><ele></ele><time>2025-8-20T13:33:50Z</time></trkpt>
<trkpt lat="46.17287" lon="7.96855"><ele></ele><time>2025-8-20T13:33:53Z</time></trkpt>
<trkpt lat="46.17287" lon="7.96855"><ele></ele><time>2025-8-20T13:33:56Z</time></trkpt>
<trkpt lat="46.17287" lon="7.96855"><ele></ele><time>2025-8-20T13:33:59Z</time></trkpt>
<trkpt lat="46.17287" lon="7.96855"><ele></ele><time>2025-8-20T13:34:2Z</time></trkpt>
<trkpt lat="46.17287" lon="7.96855"><ele></ele><time>2025-8-20T13:34:5Z</time></trkpt>
<trkpt lat="46.17287" lon="7.96855"><ele></ele><time>2025-8-20T13:34:8Z</time></trkpt>
<trkpt lat="46.17287" lon="7.96855"><ele></ele><time>2025-8-20T13:34:11Z</time></trkpt>
<trkpt lat="46.17287" lon="7.96855"><ele></ele><time>2025-8-20T13:34:14Z</time></trkpt>
<trkpt lat="46.17287" lon="7.96855"><ele></ele><time>2025-8-20T13:34:17Z</time></trkpt>
<trkpt lat="46.17287" lon="7.96855"><ele></ele><time>2025-8-20T13:34:20Z</time></trkpt>
<trkpt lat="46.17287" lon="7.96855"><ele></ele><time>2025-8-20T13:34:23Z</time></trkpt>
<trkpt lat="46.17287" lon="7.96855"><ele></ele><time>2025-8-20T13:34:26Z</time></trkpt>
<trkpt lat="46.17287" lon="7.96855"><ele></ele><time>2025-8-20T13:34:29Z</time></trkpt>
<trkpt lat="46.17287" lon="7.96855"><ele></ele><time>2025-8-20T13:34:32Z</time></trkpt>
<trkpt lat="46.17287" lon="7.96855"><ele></ele><time>2025-8-20T13:34:35Z</time></trkpt>
<trkpt lat="46.17287" lon="7.96855"><ele></ele><time>2025-8-20T13:34:38Z</time></trkpt>
<trkpt lat="46.17287" lon="7.96855"><ele></ele><time>2025-8-20T13:34:41Z</time></trkpt>
<trkpt lat="46.17287" lon="7.96855"><ele></ele><time>2025-8-20T13:34:44Z</time></trkpt>
<trkpt lat="46.17287" lon="7.96855"><ele></ele><time>2025-8-20T13:34:47Z</time></trkpt>
<trkpt lat="46.17287" lon="7.96855"><ele></ele><time>2025-8-20T13:34:50Z</time></trkpt>
<trkpt lat="46.17287" lon="7.96855"><ele></ele><time>2025-8-20T13:34:53Z</time></trkpt>
<trkpt lat="46.17287" lon="7.96855"><ele></ele><time>2025-8-20T13:34:56Z</time></trkpt>
<trkpt lat="46.17287" lon="7.96855"><ele></ele><time>2025-8-20T13:34:59Z</time></trkpt>
<trkpt lat="46.17288" lon="7.96856"><ele></ele><time>2025-8-20T13:35:2Z</time></trkpt>
<trkpt lat="46.17287" lon="7.96855"><ele></ele><time>2025-8-20T13:35:5Z</time></trkpt>
<trkpt lat="46.17287" lon="7.96855"><ele></ele><time>2025-8-20T13:35:8Z</time></trkpt>
<trkpt lat="46.17287" lon="7.96855"><ele></ele><time>2025-8-20T13:35:11Z</time></trkpt>
<trkpt lat="46.17287" lon="7.96855"><ele></ele><time>2025-8-20T13:35:14Z</time></trkpt>
<trkpt lat="46.17287" lon="7.96855"><ele></ele><time>2025-8-20T13:35:17Z</time></trkpt>
<trkpt lat="46.17287" lon="7.96855"><ele></ele><time>2025-8-20T13:35:20Z</time></trkpt>
<trkpt lat="46.17287" lon="7.96855"><ele></ele><time>2025-8-20T13:35:23Z</time></trkpt>
<trkpt lat="46.17287" lon="7.96855"><ele></ele><time>2025-8-20T13:35:26Z</time></trkpt>
<trkpt lat="46.17287" lon="7.96855"><ele></ele><time>2025-8-20T13:35:29Z</time></trkpt>
<trkpt lat="46.17287" lon="7.96855"><ele></ele><time>2025-8-20T13:35:32Z</time></trkpt>
<trkpt lat="46.17287" lon="7.96855"><ele></ele><time>2025-8-20T13:35:35Z</time></trkpt>
<trkpt lat="46.17287" lon="7.96855"><ele></ele><time>2025-8-20T13:35:38Z</time></trkpt>
<trkpt lat="46.17287" lon="7.96855"><ele></ele><time>2025-8-20T13:35:41Z</time></trkpt>
<trkpt lat="46.17287" lon="7.96855"><ele></ele><time>2025-8-20T13:35:44Z</time></trkpt>
<trkpt lat="46.17287" lon="7.96855"><ele></ele><time>2025-8-20T13:35:47Z</time></trkpt>
<trkpt lat="46.17287" lon="7.96855"><ele></ele><time>2025-8-20T13:35:50Z</time></trkpt>
<trkpt lat="46.17287" lon="7.96855"><ele></ele><time>2025-8-20T13:35:53Z</time></trkpt>
<trkpt lat="46.17287" lon="7.96855"><ele></ele><time>2025-8-20T13:35:56Z</time></trkpt>
<trkpt lat="46.17287" lon="7.96855"><ele></ele><time>2025-8-20T13:35:59Z</time></trkpt>
<trkpt lat="46.17288" lon="7.96856"><ele></ele><time>2025-8-20T13:36:2Z</time></trkpt>
<trkpt lat="46.17288" lon="7.96856"><ele></ele><time>2025-8-20T13:36:5Z</time></trkpt>
<trkpt lat="46.17288" lon="7.96856"><ele></ele><time>2025-8-20T13:36:8Z</time></trkpt>
<trkpt lat="46.17287" lon="7.96856"><ele></ele><time>2025-8-20T13:36:11Z</time></trkpt>
<trkpt lat="46.17287" lon="7.96856"><ele></ele><time>2025-8-20T13:36:14Z</time></trkpt>
<trkpt lat="46.17286" lon="7.96857"><ele></ele><time>2025-8-20T13:36:17Z</time></trkpt>
<trkpt lat="46.17285" lon="7.96855"><ele></ele><time>2025-8-20T13:36:20Z</time></trkpt>
<trkpt lat="46.17284" lon="7.96857"><ele></ele><time>2025-8-20T13:36:23Z</time></trkpt>
<trkpt lat="46.17281" lon="7.96859"><ele></ele><time>2025-8-20T13:36:26Z</time></trkpt>
<trkpt lat="46.17277" lon="7.96858"><ele></ele><time>2025-8-20T13:36:29Z</time></trkpt>
<trkpt lat="46.17276" lon="7.96858"><ele></ele><time>2025-8-20T13:36:32Z</time></trkpt>
<trkpt lat="46.17275" lon="7.96859"><ele></ele><time>2025-8-20T13:36:35Z</time></trkpt>
<trkpt lat="46.17276" lon="7.96862"><ele></ele><time>2025-8-20T13:36:38Z</time></trkpt>
<trkpt lat="46.17278" lon="7.96864"><ele></ele><time>2025-8-20T13:36:41Z</time></trkpt>
<trkpt lat="46.17282" lon="7.9687"><ele></ele><time>2025-8-20T13:36:44Z</time></trkpt>
<trkpt lat="46.17295" lon="7.96885"><ele></ele><time>2025-8-20T13:36:47Z</time></trkpt>
<trkpt lat="46.17297" lon="7.96889"><ele></ele><time>2025-8-20T13:36:50Z</time></trkpt>
<trkpt lat="46.17304" lon="7.96901"><ele></ele><time>2025-8-20T13:36:53Z</time></trkpt>
<trkpt lat="46.17309" lon="7.9691"><ele></ele><time>2025-8-20T13:36:56Z</time></trkpt>
<trkpt lat="46.17311" lon="7.96914"><ele></ele><time>2025-8-20T13:36:59Z</time></trkpt>
<trkpt lat="46.17314" lon="7.96916"><ele></ele><time>2025-8-20T13:37:2Z</time></trkpt>
<trkpt lat="46.17322" lon="7.9693"><ele></ele><time>2025-8-20T13:37:5Z</time></trkpt>
<trkpt lat="46.17322" lon="7.96934"><ele></ele><time>2025-8-20T13:37:8Z</time></trkpt>
<trkpt lat="46.17322" lon="7.96934"><ele></ele><time>2025-8-20T13:37:11Z</time></trkpt>
<trkpt lat="46.17322" lon="7.96934"><ele></ele><time>2025-8-20T13:37:14Z</time></trkpt>
<trkpt lat="46.17322" lon="7.96934"><ele></ele><time>2025-8-20T13:37:17Z</time></trkpt>
<trkpt lat="46.17322" lon="7.96934"><ele></ele><time>2025-8-20T13:37:20Z</time></trkpt>
<trkpt lat="46.17322" lon="7.96934"><ele></ele><time>2025-8-20T13:37:23Z</time></trkpt>
<trkpt lat="46.17322" lon="7.96934"><ele></ele><time>2025-8-20T13:37:26Z</time></trkpt>
<trkpt lat="46.17322" lon="7.96934"><ele></ele><time>2025-8-20T13:37:29Z</time></trkpt>
<trkpt lat="46.17322" lon="7.96934"><ele></ele><time>2025-8-20T13:37:32Z</time></trkpt>
<trkpt lat="46.17322" lon="7.96934"><ele></ele><time>2025-8-20T13:37:35Z</time></trkpt>
<trkpt lat="46.17322" lon="7.96934"><ele></ele><time>2025-8-20T13:37:38Z</time></trkpt>
<trkpt lat="46.17322" lon="7.96934"><ele></ele><time>2025-8-20T13:37:41Z</time></trkpt>
<trkpt lat="46.17322" lon="7.96934"><ele></ele><time>2025-8-20T13:37:44Z</time></trkpt>
<trkpt lat="46.17322" lon="7.96934"><ele></ele><time>2025-8-20T13:37:47Z</time></trkpt>
<trkpt lat="46.17322" lon="7.96934"><ele></ele><time>2025-8-20T13:37:50Z</time></trkpt>
<trkpt lat="46.17322" lon="7.96934"><ele></ele><time>2025-8-20T13:37:53Z</time></trkpt>
<trkpt lat="46.17322" lon="7.96934"><ele></ele><time>2025-8-20T13:37:56Z</time></trkpt>
<trkpt lat="46.17322" lon="7.96936"><ele></ele><time>2025-8-20T13:37:59Z</time></trkpt>
<trkpt lat="46.17322" lon="7.96936"><ele></ele><time>2025-8-20T13:38:2Z</time></trkpt>
<trkpt lat="46.17322" lon="7.96936"><ele></ele><time>2025-8-20T13:38:5Z</time></trkpt>
<trkpt lat="46.17322" lon="7.96936"><ele></ele><time>2025-8-20T13:38:8Z</time></trkpt>
<trkpt lat="46.17322" lon="7.96936"><ele></ele><time>2025-8-20T13:38:11Z</time></trkpt>
<trkpt lat="46.17321" lon="7.96935"><ele></ele><time>2025-8-20T13:38:14Z</time></trkpt>
<trkpt lat="46.17322" lon="7.96936"><ele></ele><time>2025-8-20T13:38:17Z</time></trkpt>
<trkpt lat="46.17321" lon="7.96936"><ele></ele><time>2025-8-20T13:38:20Z</time></trkpt>
<trkpt lat="46.17322" lon="7.96939"><ele></ele><time>2025-8-20T13:38:23Z</time></trkpt>
<trkpt lat="46.17324" lon="7.96954"><ele></ele><time>2025-8-20T13:38:26Z</time></trkpt>
<trkpt lat="46.17333" lon="7.96983"><ele></ele><time>2025-8-20T13:38:29Z</time></trkpt>
<trkpt lat="46.17342" lon="7.97"><ele></ele><time>2025-8-20T13:38:32Z</time></trkpt>
<trkpt lat="46.17344" lon="7.97004"><ele></ele><time>2025-8-20T13:38:35Z</time></trkpt>
<trkpt lat="46.17352" lon="7.97024"><ele></ele><time>2025-8-20T13:38:38Z</time></trkpt>
<trkpt lat="46.17349" lon="7.97022"><ele></ele><time>2025-8-20T13:38:41Z</time></trkpt>
<trkpt lat="46.17348" lon="7.97018"><ele></ele><time>2025-8-20T13:38:44Z</time></trkpt>
<trkpt lat="46.17341" lon="7.97001"><ele></ele><time>2025-8-20T13:38:47Z</time></trkpt>
<trkpt lat="46.17329" lon="7.96973"><ele></ele><time>2025-8-20T13:38:50Z</time></trkpt>
<trkpt lat="46.17323" lon="7.96946"><ele></ele><time>2025-8-20T13:38:53Z</time></trkpt>
<trkpt lat="46.17317" lon="7.96926"><ele></ele><time>2025-8-20T13:38:56Z</time></trkpt>
<trkpt lat="46.17314" lon="7.96922"><ele></ele><time>2025-8-20T13:38:59Z</time></trkpt>
<trkpt lat="46.17306" lon="7.96906"><ele></ele><time>2025-8-20T13:39:2Z</time></trkpt>
<trkpt lat="46.173" lon="7.96897"><ele></ele><time>2025-8-20T13:39:5Z</time></trkpt>
<trkpt lat="46.17281" lon="7.9687"><ele></ele><time>2025-8-20T13:39:8Z</time></trkpt>
<trkpt lat="46.17276" lon="7.96862"><ele></ele><time>2025-8-20T13:39:11Z</time></trkpt>
<trkpt lat="46.17272" lon="7.96855"><ele></ele><time>2025-8-20T13:39:14Z</time></trkpt>
<trkpt lat="46.17266" lon="7.96848"><ele></ele><time>2025-8-20T13:39:17Z</time></trkpt>
<trkpt lat="46.17266" lon="7.96848"><ele></ele><time>2025-8-20T13:39:20Z</time></trkpt>
<trkpt lat="46.17266" lon="7.96848"><ele></ele><time>2025-8-20T13:39:23Z</time></trkpt>
<trkpt lat="46.17265" lon="7.96848"><ele></ele><time>2025-8-20T13:39:26Z</time></trkpt>
<trkpt lat="46.17266" lon="7.96848"><ele></ele><time>2025-8-20T13:39:29Z</time></trkpt>
<trkpt lat="46.17266" lon="7.96848"><ele></ele><time>2025-8-20T13:39:32Z</time></trkpt>
<trkpt lat="46.17266" lon="7.96848"><ele></ele><time>2025-8-20T13:39:35Z</time></trkpt>
<trkpt lat="46.17266" lon="7.96848"><ele></ele><time>2025-8-20T13:39:38Z</time></trkpt>
<trkpt lat="46.17265" lon="7.96848"><ele></ele><time>2025-8-20T13:39:41Z</time></trkpt>
<trkpt lat="46.17263" lon="7.96845"><ele></ele><time>2025-8-20T13:39:44Z</time></trkpt>
<trkpt lat="46.17261" lon="7.96843"><ele></ele><time>2025-8-20T13:39:47Z</time></trkpt>
<trkpt lat="46.17261" lon="7.96843"><ele></ele><time>2025-8-20T13:39:50Z</time></trkpt>
<trkpt lat="46.17261" lon="7.96843"><ele></ele><time>2025-8-20T13:39:53Z</time></trkpt>
<trkpt lat="46.1726" lon="7.9684"><ele></ele><time>2025-8-20T13:39:56Z</time></trkpt>
<trkpt lat="46.17258" lon="7.96838"><ele></ele><time>2025-8-20T13:39:59Z</time></trkpt>
<trkpt lat="46.17258" lon="7.96838"><ele></ele><time>2025-8-20T13:40:2Z</time></trkpt>
<trkpt lat="46.17258" lon="7.96838"><ele></ele><time>2025-8-20T13:40:5Z</time></trkpt>
<trkpt lat="46.17258" lon="7.96838"><ele></ele><time>2025-8-20T13:40:8Z</time></trkpt>
<trkpt lat="46.17258" lon="7.96838"><ele></ele><time>2025-8-20T13:40:11Z</time></trkpt>
<trkpt lat="46.17258" lon="7.96838"><ele></ele><time>2025-8-20T13:40:14Z</time></trkpt>
<trkpt lat="46.17253" lon="7.96832"><ele></ele><time>2025-8-20T13:40:17Z</time></trkpt>
<trkpt lat="46.17246" lon="7.96822"><ele></ele><time>2025-8-20T13:40:20Z</time></trkpt>
<trkpt lat="46.17247" lon="7.96821"><ele></ele><time>2025-8-20T13:40:23Z</time></trkpt>
<trkpt lat="46.17245" lon="7.96819"><ele></ele><time>2025-8-20T13:40:26Z</time></trkpt>
<trkpt lat="46.1724" lon="7.96812"><ele></ele><time>2025-8-20T13:40:29Z</time></trkpt>
<trkpt lat="46.17235" lon="7.96806"><ele></ele><time>2025-8-20T13:40:32Z</time></trkpt>
<trkpt lat="46.1723" lon="7.96801"><ele></ele><time>2025-8-20T13:40:35Z</time></trkpt>
<trkpt lat="46.17223" lon="7.96794"><ele></ele><time>2025-8-20T13:40:38Z</time></trkpt>
<trkpt lat="46.17218" lon="7.96787"><ele></ele><time>2025-8-20T13:40:41Z</time></trkpt>
<trkpt lat="46.17212" lon="7.96778"><ele></ele><time>2025-8-20T13:40:44Z</time></trkpt>
<trkpt lat="46.17207" lon="7.96774"><ele></ele><time>2025-8-20T13:40:47Z</time></trkpt>
<trkpt lat="46.17204" lon="7.96771"><ele></ele><time>2025-8-20T13:40:50Z</time></trkpt>
<trkpt lat="46.17203" lon="7.9677"><ele></ele><time>2025-8-20T13:40:53Z</time></trkpt>
<trkpt lat="46.172" lon="7.96767"><ele></ele><time>2025-8-20T13:40:56Z</time></trkpt>
<trkpt lat="46.17196" lon="7.96764"><ele></ele><time>2025-8-20T13:40:59Z</time></trkpt>
<trkpt lat="46.1719" lon="7.96758"><ele></ele><time>2025-8-20T13:41:2Z</time></trkpt>
<trkpt lat="46.17187" lon="7.96756"><ele></ele><time>2025-8-20T13:41:5Z</time></trkpt>
<trkpt lat="46.17183" lon="7.9675"><ele></ele><time>2025-8-20T13:41:8Z</time></trkpt>
<trkpt lat="46.17176" lon="7.96747"><ele></ele><time>2025-8-20T13:41:11Z</time></trkpt>
<trkpt lat="46.17171" lon="7.96745"><ele></ele><time>2025-8-20T13:41:14Z</time></trkpt>
<trkpt lat="46.17166" lon="7.96739"><ele></ele><time>2025-8-20T13:41:17Z</time></trkpt>
<trkpt lat="46.17165" lon="7.96737"><ele></ele><time>2025-8-20T13:41:20Z</time></trkpt>
<trkpt lat="46.17165" lon="7.96737"><ele></ele><time>2025-8-20T13:41:23Z</time></trkpt>
<trkpt lat="46.17165" lon="7.96737"><ele></ele><time>2025-8-20T13:41:26Z</time></trkpt>
<trkpt lat="46.17164" lon="7.96737"><ele></ele><time>2025-8-20T13:41:29Z</time></trkpt>
<trkpt lat="46.17159" lon="7.96733"><ele></ele><time>2025-8-20T13:41:32Z</time></trkpt>
<trkpt lat="46.17148" lon="7.96723"><ele></ele><time>2025-8-20T13:41:35Z</time></trkpt>
<trkpt lat="46.17139" lon="7.96713"><ele></ele><time>2025-8-20T13:41:38Z</time></trkpt>
<trkpt lat="46.17133" lon="7.96707"><ele></ele><time>2025-8-20T13:41:41Z</time></trkpt>
<trkpt lat="46.17131" lon="7.96704"><ele></ele><time>2025-8-20T13:41:44Z</time></trkpt>
<trkpt lat="46.17119" lon="7.96693"><ele></ele><time>2025-8-20T13:41:47Z</time></trkpt>
<trkpt lat="46.17116" lon="7.9669"><ele></ele><time>2025-8-20T13:41:50Z</time></trkpt>
<trkpt lat="46.17106" lon="7.96679"><ele></ele><time>2025-8-20T13:41:53Z</time></trkpt>
<trkpt lat="46.17094" lon="7.96663"><ele></ele><time>2025-8-20T13:41:56Z</time></trkpt>
<trkpt lat="46.17091" lon="7.96659"><ele></ele><time>2025-8-20T13:41:59Z</time></trkpt>
<trkpt lat="46.17085" lon="7.96651"><ele></ele><time>2025-8-20T13:42:2Z</time></trkpt>
<trkpt lat="46.1708" lon="7.96645"><ele></ele><time>2025-8-20T13:42:5Z</time></trkpt>
<trkpt lat="46.17079" lon="7.96643"><ele></ele><time>2025-8-20T13:42:8Z</time></trkpt>
<trkpt lat="46.17078" lon="7.96642"><ele></ele><time>2025-8-20T13:42:11Z</time></trkpt>
<trkpt lat="46.17078" lon="7.96642"><ele></ele><time>2025-8-20T13:42:14Z</time></trkpt>
<trkpt lat="46.17077" lon="7.9664"><ele></ele><time>2025-8-20T13:42:17Z</time></trkpt>
<trkpt lat="46.17074" lon="7.96634"><ele></ele><time>2025-8-20T13:42:20Z</time></trkpt>
<trkpt lat="46.17073" lon="7.96632"><ele></ele><time>2025-8-20T13:42:23Z</time></trkpt>
<trkpt lat="46.17071" lon="7.96627"><ele></ele><time>2025-8-20T13:42:26Z</time></trkpt>
<trkpt lat="46.17067" lon="7.96621"><ele></ele><time>2025-8-20T13:42:29Z</time></trkpt>
<trkpt lat="46.17067" lon="7.9662"><ele></ele><time>2025-8-20T13:42:32Z</time></trkpt>
<trkpt lat="46.17066" lon="7.96619"><ele></ele><time>2025-8-20T13:42:35Z</time></trkpt>
<trkpt lat="46.17066" lon="7.96618"><ele></ele><time>2025-8-20T13:42:38Z</time></trkpt>
<trkpt lat="46.17062" lon="7.96612"><ele></ele><time>2025-8-20T13:42:41Z</time></trkpt>
<trkpt lat="46.17061" lon="7.96611"><ele></ele><time>2025-8-20T13:42:44Z</time></trkpt>
<trkpt lat="46.17057" lon="7.96605"><ele></ele><time>2025-8-20T13:42:47Z</time></trkpt>
<trkpt lat="46.17055" lon="7.96599"><ele></ele><time>2025-8-20T13:42:50Z</time></trkpt>
<trkpt lat="46.17055" lon="7.96598"><ele></ele><time>2025-8-20T13:42:53Z</time></trkpt>
<trkpt lat="46.17052" lon="7.96591"><ele></ele><time>2025-8-20T13:42:56Z</time></trkpt>
<trkpt lat="46.17051" lon="7.96587"><ele></ele><time>2025-8-20T13:42:59Z</time></trkpt>
<trkpt lat="46.17049" lon="7.96582"><ele></ele><time>2025-8-20T13:43:2Z</time></trkpt>
<trkpt lat="46.17046" lon="7.96576"><ele></ele><time>2025-8-20T13:43:5Z</time></trkpt>
<trkpt lat="46.17043" lon="7.96567"><ele></ele><time>2025-8-20T13:43:8Z</time></trkpt>
<trkpt lat="46.17043" lon="7.96566"><ele></ele><time>2025-8-20T13:43:11Z</time></trkpt>
<trkpt lat="46.17041" lon="7.96558"><ele></ele><time>2025-8-20T13:43:14Z</time></trkpt>
<trkpt lat="46.1704" lon="7.96556"><ele></ele><time>2025-8-20T13:43:17Z</time></trkpt>
<trkpt lat="46.1704" lon="7.96554"><ele></ele><time>2025-8-20T13:43:20Z</time></trkpt>
<trkpt lat="46.17038" lon="7.96548"><ele></ele><time>2025-8-20T13:43:23Z</time></trkpt>
<trkpt lat="46.17038" lon="7.96547"><ele></ele><time>2025-8-20T13:43:26Z</time></trkpt>
<trkpt lat="46.17038" lon="7.96547"><ele></ele><time>2025-8-20T13:43:29Z</time></trkpt>
<trkpt lat="46.17038" lon="7.96547"><ele></ele><time>2025-8-20T13:43:32Z</time></trkpt>
<trkpt lat="46.17038" lon="7.96547"><ele></ele><time>2025-8-20T13:43:35Z</time></trkpt>
<trkpt lat="46.17038" lon="7.96547"><ele></ele><time>2025-8-20T13:43:38Z</time></trkpt>
<trkpt lat="46.17038" lon="7.96548"><ele></ele><time>2025-8-20T13:43:41Z</time></trkpt>
<trkpt lat="46.17038" lon="7.96544"><ele></ele><time>2025-8-20T13:43:44Z</time></trkpt>
<trkpt lat="46.17036" lon="7.96532"><ele></ele><time>2025-8-20T13:43:47Z</time></trkpt>
<trkpt lat="46.17036" lon="7.96523"><ele></ele><time>2025-8-20T13:43:50Z</time></trkpt>
<trkpt lat="46.17036" lon="7.96517"><ele></ele><time>2025-8-20T13:43:53Z</time></trkpt>
<trkpt lat="46.17036" lon="7.96512"><ele></ele><time>2025-8-20T13:43:56Z</time></trkpt>
<trkpt lat="46.17036" lon="7.96503"><ele></ele><time>2025-8-20T13:43:59Z</time></trkpt>
<trkpt lat="46.17036" lon="7.96499"><ele></ele><time>2025-8-20T13:44:2Z</time></trkpt>
<trkpt lat="46.17037" lon="7.96495"><ele></ele><time>2025-8-20T13:44:5Z</time></trkpt>
<trkpt lat="46.17037" lon="7.96485"><ele></ele><time>2025-8-20T13:44:8Z</time></trkpt>
<trkpt lat="46.17037" lon="7.96473"><ele></ele><time>2025-8-20T13:44:11Z</time></trkpt>
<trkpt lat="46.17037" lon="7.96461"><ele></ele><time>2025-8-20T13:44:14Z</time></trkpt>
<trkpt lat="46.17038" lon="7.96443"><ele></ele><time>2025-8-20T13:44:17Z</time></trkpt>
<trkpt lat="46.17039" lon="7.96436"><ele></ele><time>2025-8-20T13:44:20Z</time></trkpt>
<trkpt lat="46.17046" lon="7.96425"><ele></ele><time>2025-8-20T13:44:23Z</time></trkpt>
<trkpt lat="46.1705" lon="7.96422"><ele></ele><time>2025-8-20T13:44:26Z</time></trkpt>
<trkpt lat="46.17057" lon="7.96418"><ele></ele><time>2025-8-20T13:44:29Z</time></trkpt>
<trkpt lat="46.1706" lon="7.96416"><ele></ele><time>2025-8-20T13:44:32Z</time></trkpt>
<trkpt lat="46.17061" lon="7.96413"><ele></ele><time>2025-8-20T13:44:35Z</time></trkpt>
<trkpt lat="46.17061" lon="7.96409"><ele></ele><time>2025-8-20T13:44:38Z</time></trkpt>
<trkpt lat="46.17059" lon="7.96406"><ele></ele><time>2025-8-20T13:44:41Z</time></trkpt>
<trkpt lat="46.17049" lon="7.96402"><ele></ele><time>2025-8-20T13:44:44Z</time></trkpt>
<trkpt lat="46.17045" lon="7.96402"><ele></ele><time>2025-8-20T13:44:47Z</time></trkpt>
<trkpt lat="46.17036" lon="7.96405"><ele></ele><time>2025-8-20T13:44:50Z</time></trkpt>
<trkpt lat="46.17032" lon="7.96408"><ele></ele><time>2025-8-20T13:44:53Z</time></trkpt>
<trkpt lat="46.17027" lon="7.96411"><ele></ele><time>2025-8-20T13:44:56Z</time></trkpt>
<trkpt lat="46.17019" lon="7.96407"><ele></ele><time>2025-8-20T13:44:59Z</time></trkpt>
<trkpt lat="46.17018" lon="7.96396"><ele></ele><time>2025-8-20T13:45:2Z</time></trkpt>
<trkpt lat="46.17025" lon="7.9639"><ele></ele><time>2025-8-20T13:45:5Z</time></trkpt>
<trkpt lat="46.17029" lon="7.96386"><ele></ele><time>2025-8-20T13:45:8Z</time></trkpt>
<trkpt lat="46.17046" lon="7.96375"><ele></ele><time>2025-8-20T13:45:11Z</time></trkpt>
<trkpt lat="46.17051" lon="7.96373"><ele></ele><time>2025-8-20T13:45:14Z</time></trkpt>
<trkpt lat="46.17055" lon="7.96369"><ele></ele><time>2025-8-20T13:45:17Z</time></trkpt>
<trkpt lat="46.17057" lon="7.96364"><ele></ele><time>2025-8-20T13:45:20Z</time></trkpt>
<trkpt lat="46.17057" lon="7.96358"><ele></ele><time>2025-8-20T13:45:23Z</time></trkpt>
<trkpt lat="46.17053" lon="7.96348"><ele></ele><time>2025-8-20T13:45:26Z</time></trkpt>
<trkpt lat="46.17049" lon="7.96342"><ele></ele><time>2025-8-20T13:45:29Z</time></trkpt>
<trkpt lat="46.17046" lon="7.96336"><ele></ele><time>2025-8-20T13:45:32Z</time></trkpt>
<trkpt lat="46.17042" lon="7.9633"><ele></ele><time>2025-8-20T13:45:35Z</time></trkpt>
<trkpt lat="46.17037" lon="7.96315"><ele></ele><time>2025-8-20T13:45:38Z</time></trkpt>
<trkpt lat="46.17034" lon="7.96309"><ele></ele><time>2025-8-20T13:45:41Z</time></trkpt>
<trkpt lat="46.17031" lon="7.96304"><ele></ele><time>2025-8-20T13:45:44Z</time></trkpt>
<trkpt lat="46.17031" lon="7.96305"><ele></ele><time>2025-8-20T13:45:47Z</time></trkpt>
<trkpt lat="46.17032" lon="7.96304"><ele></ele><time>2025-8-20T13:45:50Z</time></trkpt>
<trkpt lat="46.17033" lon="7.96306"><ele></ele><time>2025-8-20T13:45:53Z</time></trkpt>
<trkpt lat="46.17033" lon="7.96307"><ele></ele><time>2025-8-20T13:45:56Z</time></trkpt>
<trkpt lat="46.17034" lon="7.9631"><ele></ele><time>2025-8-20T13:45:59Z</time></trkpt>
<trkpt lat="46.17038" lon="7.96319"><ele></ele><time>2025-8-20T13:46:2Z</time></trkpt>
<trkpt lat="46.17043" lon="7.96332"><ele></ele><time>2025-8-20T13:46:5Z</time></trkpt>
<trkpt lat="46.17044" lon="7.96335"><ele></ele><time>2025-8-20T13:46:8Z</time></trkpt>
<trkpt lat="46.17045" lon="7.96336"><ele></ele><time>2025-8-20T13:46:11Z</time></trkpt>
<trkpt lat="46.17046" lon="7.96337"><ele></ele><time>2025-8-20T13:46:14Z</time></trkpt>
<trkpt lat="46.17046" lon="7.96337"><ele></ele><time>2025-8-20T13:46:17Z</time></trkpt>
<trkpt lat="46.17046" lon="7.96335"><ele></ele><time>2025-8-20T13:46:20Z</time></trkpt>
<trkpt lat="46.17046" lon="7.96335"><ele></ele><time>2025-8-20T13:46:23Z</time></trkpt>
<trkpt lat="46.17046" lon="7.96335"><ele></ele><time>2025-8-20T13:46:26Z</time></trkpt>
<trkpt lat="46.17046" lon="7.96335"><ele></ele><time>2025-8-20T13:46:29Z</time></trkpt>
<trkpt lat="46.17046" lon="7.96335"><ele></ele><time>2025-8-20T13:46:32Z</time></trkpt>
<trkpt lat="46.17046" lon="7.96335"><ele></ele><time>2025-8-20T13:46:35Z</time></trkpt>
<trkpt lat="46.17046" lon="7.96335"><ele></ele><time>2025-8-20T13:46:38Z</time></trkpt>
<trkpt lat="46.17046" lon="7.96335"><ele></ele><time>2025-8-20T13:46:41Z</time></trkpt>
<trkpt lat="46.17046" lon="7.96335"><ele></ele><time>2025-8-20T13:46:44Z</time></trkpt>
<trkpt lat="46.17046" lon="7.96335"><ele></ele><time>2025-8-20T13:46:47Z</time></trkpt>
<trkpt lat="46.17046" lon="7.96335"><ele></ele><time>2025-8-20T13:46:50Z</time></trkpt>
<trkpt lat="46.17045" lon="7.96335"><ele></ele><time>2025-8-20T13:46:53Z</time></trkpt>
<trkpt lat="46.17044" lon="7.96333"><ele></ele><time>2025-8-20T13:46:56Z</time></trkpt>
<trkpt lat="46.17044" lon="7.96332"><ele></ele><time>2025-8-20T13:46:59Z</time></trkpt>
<trkpt lat="46.17046" lon="7.96335"><ele></ele><time>2025-8-20T13:47:2Z</time></trkpt>
<trkpt lat="46.17046" lon="7.96335"><ele></ele><time>2025-8-20T13:47:5Z</time></trkpt>
<trkpt lat="46.17047" lon="7.96333"><ele></ele><time>2025-8-20T13:47:8Z</time></trkpt>
<trkpt lat="46.17047" lon="7.96333"><ele></ele><time>2025-8-20T13:47:11Z</time></trkpt>
<trkpt lat="46.17047" lon="7.96333"><ele></ele><time>2025-8-20T13:47:14Z</time></trkpt>
<trkpt lat="46.17046" lon="7.96332"><ele></ele><time>2025-8-20T13:47:17Z</time></trkpt>
<trkpt lat="46.17044" lon="7.96333"><ele></ele><time>2025-8-20T13:47:20Z</time></trkpt>
<trkpt lat="46.17043" lon="7.96332"><ele></ele><time>2025-8-20T13:47:23Z</time></trkpt>
<trkpt lat="46.17042" lon="7.96333"><ele></ele><time>2025-8-20T13:47:26Z</time></trkpt>
<trkpt lat="46.17042" lon="7.96333"><ele></ele><time>2025-8-20T13:47:29Z</time></trkpt>
<trkpt lat="46.17042" lon="7.96333"><ele></ele><time>2025-8-20T13:47:32Z</time></trkpt>
<trkpt lat="46.17042" lon="7.96333"><ele></ele><time>2025-8-20T13:47:35Z</time></trkpt>
<trkpt lat="46.17042" lon="7.96333"><ele></ele><time>2025-8-20T13:47:38Z</time></trkpt>
<trkpt lat="46.17042" lon="7.96333"><ele></ele><time>2025-8-20T13:47:41Z</time></trkpt>
<trkpt lat="46.17042" lon="7.96333"><ele></ele><time>2025-8-20T13:47:44Z</time></trkpt>
<trkpt lat="46.17042" lon="7.96333"><ele></ele><time>2025-8-20T13:47:47Z</time></trkpt>
<trkpt lat="46.17042" lon="7.96333"><ele></ele><time>2025-8-20T13:47:50Z</time></trkpt>
<trkpt lat="46.17042" lon="7.96333"><ele></ele><time>2025-8-20T13:47:53Z</time></trkpt>
<trkpt lat="46.17042" lon="7.96333"><ele></ele><time>2025-8-20T13:47:56Z</time></trkpt>
<trkpt lat="46.17043" lon="7.96335"><ele></ele><time>2025-8-20T13:47:59Z</time></trkpt>
<trkpt lat="46.17043" lon="7.96335"><ele></ele><time>2025-8-20T13:48:2Z</time></trkpt>
<trkpt lat="46.17041" lon="7.96335"><ele></ele><time>2025-8-20T13:48:5Z</time></trkpt>
<trkpt lat="46.17042" lon="7.96334"><ele></ele><time>2025-8-20T13:48:8Z</time></trkpt>
<trkpt lat="46.17043" lon="7.96335"><ele></ele><time>2025-8-20T13:48:11Z</time></trkpt>
<trkpt lat="46.17043" lon="7.96335"><ele></ele><time>2025-8-20T13:48:14Z</time></trkpt>
<trkpt lat="46.17043" lon="7.96335"><ele></ele><time>2025-8-20T13:48:17Z</time></trkpt>
<trkpt lat="46.17043" lon="7.96334"><ele></ele><time>2025-8-20T13:48:20Z</time></trkpt>
<trkpt lat="46.17043" lon="7.96332"><ele></ele><time>2025-8-20T13:48:23Z</time></trkpt>
<trkpt lat="46.17043" lon="7.96332"><ele></ele><time>2025-8-20T13:48:26Z</time></trkpt>
<trkpt lat="46.17043" lon="7.96332"><ele></ele><time>2025-8-20T13:48:29Z</time></trkpt>
<trkpt lat="46.17042" lon="7.96332"><ele></ele><time>2025-8-20T13:48:32Z</time></trkpt>
<trkpt lat="46.17042" lon="7.9633"><ele></ele><time>2025-8-20T13:48:35Z</time></trkpt>
<trkpt lat="46.17038" lon="7.96321"><ele></ele><time>2025-8-20T13:48:38Z</time></trkpt>
<trkpt lat="46.17036" lon="7.96317"><ele></ele><time>2025-8-20T13:48:41Z</time></trkpt>
<trkpt lat="46.17028" lon="7.963"><ele></ele><time>2025-8-20T13:48:44Z</time></trkpt>
<trkpt lat="46.17025" lon="7.96296"><ele></ele><time>2025-8-20T13:48:47Z</time></trkpt>
<trkpt lat="46.17021" lon="7.96292"><ele></ele><time>2025-8-20T13:48:50Z</time></trkpt>
<trkpt lat="46.17017" lon="7.96288"><ele></ele><time>2025-8-20T13:48:53Z</time></trkpt>
<trkpt lat="46.17012" lon="7.96285"><ele></ele><time>2025-8-20T13:48:56Z</time></trkpt>
<trkpt lat="46.17007" lon="7.96282"><ele></ele><time>2025-8-20T13:48:59Z</time></trkpt>
<trkpt lat="46.17001" lon="7.96279"><ele></ele><time>2025-8-20T13:49:2Z</time></trkpt>
<trkpt lat="46.16995" lon="7.96277"><ele></ele><time>2025-8-20T13:49:5Z</time></trkpt>
<trkpt lat="46.16988" lon="7.96275"><ele></ele><time>2025-8-20T13:49:8Z</time></trkpt>
<trkpt lat="46.16981" lon="7.96273"><ele></ele><time>2025-8-20T13:49:11Z</time></trkpt>
<trkpt lat="46.16975" lon="7.9627"><ele></ele><time>2025-8-20T13:49:14Z</time></trkpt>
<trkpt lat="46.16969" lon="7.96268"><ele></ele><time>2025-8-20T13:49:17Z</time></trkpt>
<trkpt lat="46.1696" lon="7.96268"><ele></ele><time>2025-8-20T13:49:20Z</time></trkpt>
<trkpt lat="46.1695" lon="7.96272"><ele></ele><time>2025-8-20T13:49:23Z</time></trkpt>
<trkpt lat="46.16945" lon="7.96275"><ele></ele><time>2025-8-20T13:49:26Z</time></trkpt>
<trkpt lat="46.1694" lon="7.96277"><ele></ele><time>2025-8-20T13:49:29Z</time></trkpt>
<trkpt lat="46.16932" lon="7.96276"><ele></ele><time>2025-8-20T13:49:32Z</time></trkpt>
<trkpt lat="46.16933" lon="7.96272"><ele></ele><time>2025-8-20T13:49:35Z</time></trkpt>
<trkpt lat="46.16934" lon="7.9627"><ele></ele><time>2025-8-20T13:49:38Z</time></trkpt>
<trkpt lat="46.16939" lon="7.96265"><ele></ele><time>2025-8-20T13:49:41Z</time></trkpt>
<trkpt lat="46.16947" lon="7.96256"><ele></ele><time>2025-8-20T13:49:44Z</time></trkpt>
<trkpt lat="46.16956" lon="7.96249"><ele></ele><time>2025-8-20T13:49:47Z</time></trkpt>
<trkpt lat="46.16967" lon="7.96246"><ele></ele><time>2025-8-20T13:49:50Z</time></trkpt>
<trkpt lat="46.16979" lon="7.96245"><ele></ele><time>2025-8-20T13:49:53Z</time></trkpt>
<trkpt lat="46.16985" lon="7.96246"><ele></ele><time>2025-8-20T13:49:56Z</time></trkpt>
<trkpt lat="46.17005" lon="7.96249"><ele></ele><time>2025-8-20T13:49:59Z</time></trkpt>
<trkpt lat="46.17013" lon="7.96248"><ele></ele><time>2025-8-20T13:50:2Z</time></trkpt>
<trkpt lat="46.1702" lon="7.96248"><ele></ele><time>2025-8-20T13:50:5Z</time></trkpt>
<trkpt lat="46.17028" lon="7.96247"><ele></ele><time>2025-8-20T13:50:8Z</time></trkpt>
<trkpt lat="46.17039" lon="7.96236"><ele></ele><time>2025-8-20T13:50:11Z</time></trkpt>
<trkpt lat="46.17041" lon="7.96227"><ele></ele><time>2025-8-20T13:50:14Z</time></trkpt>
<trkpt lat="46.17041" lon="7.9622"><ele></ele><time>2025-8-20T13:50:17Z</time></trkpt>
<trkpt lat="46.17038" lon="7.96215"><ele></ele><time>2025-8-20T13:50:20Z</time></trkpt>
<trkpt lat="46.17028" lon="7.96209"><ele></ele><time>2025-8-20T13:50:23Z</time></trkpt>
<trkpt lat="46.17022" lon="7.96208"><ele></ele><time>2025-8-20T13:50:26Z</time></trkpt>
<trkpt lat="46.17016" lon="7.96209"><ele></ele><time>2025-8-20T13:50:29Z</time></trkpt>
<trkpt lat="46.17008" lon="7.96211"><ele></ele><time>2025-8-20T13:50:32Z</time></trkpt>
<trkpt lat="46.17" lon="7.96211"><ele></ele><time>2025-8-20T13:50:35Z</time></trkpt>
<trkpt lat="46.16986" lon="7.96208"><ele></ele><time>2025-8-20T13:50:38Z</time></trkpt>
<trkpt lat="46.16981" lon="7.96208"><ele></ele><time>2025-8-20T13:50:41Z</time></trkpt>
<trkpt lat="46.16975" lon="7.96208"><ele></ele><time>2025-8-20T13:50:44Z</time></trkpt>
<trkpt lat="46.16971" lon="7.96209"><ele></ele><time>2025-8-20T13:50:47Z</time></trkpt>
<trkpt lat="46.16965" lon="7.96204"><ele></ele><time>2025-8-20T13:50:50Z</time></trkpt>
<trkpt lat="46.16965" lon="7.962"><ele></ele><time>2025-8-20T13:50:53Z</time></trkpt>
<trkpt lat="46.16971" lon="7.96195"><ele></ele><time>2025-8-20T13:50:56Z</time></trkpt>
<trkpt lat="46.16979" lon="7.96193"><ele></ele><time>2025-8-20T13:50:59Z</time></trkpt>
<trkpt lat="46.16988" lon="7.96186"><ele></ele><time>2025-8-20T13:51:2Z</time></trkpt>
<trkpt lat="46.16993" lon="7.96169"><ele></ele><time>2025-8-20T13:51:5Z</time></trkpt>
<trkpt lat="46.16995" lon="7.96165"><ele></ele><time>2025-8-20T13:51:8Z</time></trkpt>
<trkpt lat="46.16998" lon="7.96148"><ele></ele><time>2025-8-20T13:51:11Z</time></trkpt>
<trkpt lat="46.16998" lon="7.9614"><ele></ele><time>2025-8-20T13:51:14Z</time></trkpt>
<trkpt lat="46.16999" lon="7.96124"><ele></ele><time>2025-8-20T13:51:17Z</time></trkpt>
<trkpt lat="46.16999" lon="7.96121"><ele></ele><time>2025-8-20T13:51:20Z</time></trkpt>
<trkpt lat="46.16999" lon="7.96109"><ele></ele><time>2025-8-20T13:51:23Z</time></trkpt>
<trkpt lat="46.17" lon="7.96099"><ele></ele><time>2025-8-20T13:51:26Z</time></trkpt>
<trkpt lat="46.17" lon="7.96096"><ele></ele><time>2025-8-20T13:51:29Z</time></trkpt>
<trkpt lat="46.17001" lon="7.96094"><ele></ele><time>2025-8-20T13:51:32Z</time></trkpt>
<trkpt lat="46.17001" lon="7.96094"><ele></ele><time>2025-8-20T13:51:35Z</time></trkpt>
<trkpt lat="46.17003" lon="7.96086"><ele></ele><time>2025-8-20T13:51:38Z</time></trkpt>
<trkpt lat="46.17006" lon="7.9607"><ele></ele><time>2025-8-20T13:51:41Z</time></trkpt>
<trkpt lat="46.17008" lon="7.96057"><ele></ele><time>2025-8-20T13:51:44Z</time></trkpt>
<trkpt lat="46.1701" lon="7.9605"><ele></ele><time>2025-8-20T13:51:47Z</time></trkpt>
<trkpt lat="46.17015" lon="7.96025"><ele></ele><time>2025-8-20T13:51:50Z</time></trkpt>
<trkpt lat="46.17017" lon="7.96016"><ele></ele><time>2025-8-20T13:51:53Z</time></trkpt>
<trkpt lat="46.17017" lon="7.96006"><ele></ele><time>2025-8-20T13:51:56Z</time></trkpt>
<trkpt lat="46.17016" lon="7.95987"><ele></ele><time>2025-8-20T13:51:59Z</time></trkpt>
<trkpt lat="46.17016" lon="7.95978"><ele></ele><time>2025-8-20T13:52:2Z</time></trkpt>
<trkpt lat="46.17017" lon="7.95971"><ele></ele><time>2025-8-20T13:52:5Z</time></trkpt>
<trkpt lat="46.1702" lon="7.95954"><ele></ele><time>2025-8-20T13:52:8Z</time></trkpt>
<trkpt lat="46.17022" lon="7.95945"><ele></ele><time>2025-8-20T13:52:11Z</time></trkpt>
<trkpt lat="46.17027" lon="7.95925"><ele></ele><time>2025-8-20T13:52:14Z</time></trkpt>
<trkpt lat="46.17034" lon="7.95911"><ele></ele><time>2025-8-20T13:52:17Z</time></trkpt>
<trkpt lat="46.17038" lon="7.95902"><ele></ele><time>2025-8-20T13:52:20Z</time></trkpt>
<trkpt lat="46.17038" lon="7.95897"><ele></ele><time>2025-8-20T13:52:23Z</time></trkpt>
<trkpt lat="46.17036" lon="7.95893"><ele></ele><time>2025-8-20T13:52:26Z</time></trkpt>
<trkpt lat="46.17032" lon="7.95891"><ele></ele><time>2025-8-20T13:52:29Z</time></trkpt>
<trkpt lat="46.17028" lon="7.95893"><ele></ele><time>2025-8-20T13:52:32Z</time></trkpt>
<trkpt lat="46.17024" lon="7.95896"><ele></ele><time>2025-8-20T13:52:35Z</time></trkpt>
<trkpt lat="46.17021" lon="7.95899"><ele></ele><time>2025-8-20T13:52:38Z</time></trkpt>
<trkpt lat="46.17015" lon="7.9591"><ele></ele><time>2025-8-20T13:52:41Z</time></trkpt>
<trkpt lat="46.17009" lon="7.95923"><ele></ele><time>2025-8-20T13:52:44Z</time></trkpt>
<trkpt lat="46.17004" lon="7.95936"><ele></ele><time>2025-8-20T13:52:47Z</time></trkpt>
<trkpt lat="46.17002" lon="7.95942"><ele></ele><time>2025-8-20T13:52:50Z</time></trkpt>
<trkpt lat="46.16999" lon="7.95948"><ele></ele><time>2025-8-20T13:52:53Z</time></trkpt>
<trkpt lat="46.16996" lon="7.95953"><ele></ele><time>2025-8-20T13:52:56Z</time></trkpt>
<trkpt lat="46.1699" lon="7.95963"><ele></ele><time>2025-8-20T13:52:59Z</time></trkpt>
<trkpt lat="46.16986" lon="7.95974"><ele></ele><time>2025-8-20T13:53:2Z</time></trkpt>
<trkpt lat="46.1698" lon="7.95985"><ele></ele><time>2025-8-20T13:53:5Z</time></trkpt>
<trkpt lat="46.16975" lon="7.95996"><ele></ele><time>2025-8-20T13:53:8Z</time></trkpt>
<trkpt lat="46.16966" lon="7.96015"><ele></ele><time>2025-8-20T13:53:11Z</time></trkpt>
<trkpt lat="46.16957" lon="7.96033"><ele></ele><time>2025-8-20T13:53:14Z</time></trkpt>
<trkpt lat="46.1695" lon="7.96045"><ele></ele><time>2025-8-20T13:53:17Z</time></trkpt>
<trkpt lat="46.16938" lon="7.96063"><ele></ele><time>2025-8-20T13:53:20Z</time></trkpt>
<trkpt lat="46.16926" lon="7.96068"><ele></ele><time>2025-8-20T13:53:23Z</time></trkpt>
<trkpt lat="46.16908" lon="7.96063"><ele></ele><time>2025-8-20T13:53:26Z</time></trkpt>
<trkpt lat="46.169" lon="7.96062"><ele></ele><time>2025-8-20T13:53:29Z</time></trkpt>
<trkpt lat="46.16898" lon="7.96059"><ele></ele><time>2025-8-20T13:53:32Z</time></trkpt>
<trkpt lat="46.16898" lon="7.96055"><ele></ele><time>2025-8-20T13:53:35Z</time></trkpt>
<trkpt lat="46.16902" lon="7.9605"><ele></ele><time>2025-8-20T13:53:38Z</time></trkpt>
<trkpt lat="46.16915" lon="7.96052"><ele></ele><time>2025-8-20T13:53:41Z</time></trkpt>
<trkpt lat="46.16917" lon="7.96051"><ele></ele><time>2025-8-20T13:53:44Z</time></trkpt>
<trkpt lat="46.16926" lon="7.96047"><ele></ele><time>2025-8-20T13:53:47Z</time></trkpt>
<trkpt lat="46.16931" lon="7.96045"><ele></ele><time>2025-8-20T13:53:50Z</time></trkpt>
<trkpt lat="46.16932" lon="7.96043"><ele></ele><time>2025-8-20T13:53:53Z</time></trkpt>
<trkpt lat="46.1694" lon="7.96021"><ele></ele><time>2025-8-20T13:53:56Z</time></trkpt>
<trkpt lat="46.16943" lon="7.9601"><ele></ele><time>2025-8-20T13:53:59Z</time></trkpt>
<trkpt lat="46.16944" lon="7.95998"><ele></ele><time>2025-8-20T13:54:2Z</time></trkpt>
<trkpt lat="46.16946" lon="7.95986"><ele></ele><time>2025-8-20T13:54:5Z</time></trkpt>
<trkpt lat="46.16947" lon="7.9598"><ele></ele><time>2025-8-20T13:54:8Z</time></trkpt>
<trkpt lat="46.16952" lon="7.95964"><ele></ele><time>2025-8-20T13:54:11Z</time></trkpt>
<trkpt lat="46.16955" lon="7.95953"><ele></ele><time>2025-8-20T13:54:14Z</time></trkpt>
<trkpt lat="46.16957" lon="7.95946"><ele></ele><time>2025-8-20T13:54:17Z</time></trkpt>
<trkpt lat="46.16958" lon="7.9594"><ele></ele><time>2025-8-20T13:54:20Z</time></trkpt>
<trkpt lat="46.16959" lon="7.95933"><ele></ele><time>2025-8-20T13:54:23Z</time></trkpt>
<trkpt lat="46.1696" lon="7.95918"><ele></ele><time>2025-8-20T13:54:26Z</time></trkpt>
<trkpt lat="46.1696" lon="7.95911"><ele></ele><time>2025-8-20T13:54:29Z</time></trkpt>
<trkpt lat="46.16959" lon="7.95897"><ele></ele><time>2025-8-20T13:54:32Z</time></trkpt>
<trkpt lat="46.16958" lon="7.95884"><ele></ele><time>2025-8-20T13:54:35Z</time></trkpt>
<trkpt lat="46.16956" lon="7.95871"><ele></ele><time>2025-8-20T13:54:38Z</time></trkpt>
<trkpt lat="46.16956" lon="7.95864"><ele></ele><time>2025-8-20T13:54:41Z</time></trkpt>
<trkpt lat="46.16955" lon="7.95857"><ele></ele><time>2025-8-20T13:54:44Z</time></trkpt>
<trkpt lat="46.16957" lon="7.95844"><ele></ele><time>2025-8-20T13:54:47Z</time></trkpt>
<trkpt lat="46.16959" lon="7.95839"><ele></ele><time>2025-8-20T13:54:50Z</time></trkpt>
<trkpt lat="46.16959" lon="7.95834"><ele></ele><time>2025-8-20T13:54:53Z</time></trkpt>
<trkpt lat="46.16955" lon="7.95832"><ele></ele><time>2025-8-20T13:54:56Z</time></trkpt>
<trkpt lat="46.16954" lon="7.95834"><ele></ele><time>2025-8-20T13:54:59Z</time></trkpt>
<trkpt lat="46.16947" lon="7.95847"><ele></ele><time>2025-8-20T13:55:2Z</time></trkpt>
<trkpt lat="46.16944" lon="7.95857"><ele></ele><time>2025-8-20T13:55:5Z</time></trkpt>
<trkpt lat="46.16941" lon="7.95873"><ele></ele><time>2025-8-20T13:55:8Z</time></trkpt>
<trkpt lat="46.1694" lon="7.95879"><ele></ele><time>2025-8-20T13:55:11Z</time></trkpt>
<trkpt lat="46.16939" lon="7.95885"><ele></ele><time>2025-8-20T13:55:14Z</time></trkpt>
<trkpt lat="46.16938" lon="7.95892"><ele></ele><time>2025-8-20T13:55:17Z</time></trkpt>
<trkpt lat="46.16937" lon="7.95899"><ele></ele><time>2025-8-20T13:55:20Z</time></trkpt>
<trkpt lat="46.16935" lon="7.95907"><ele></ele><time>2025-8-20T13:55:23Z</time></trkpt>
<trkpt lat="46.16932" lon="7.95914"><ele></ele><time>2025-8-20T13:55:26Z</time></trkpt>
<trkpt lat="46.16924" lon="7.95935"><ele></ele><time>2025-8-20T13:55:29Z</time></trkpt>
<trkpt lat="46.16921" lon="7.95942"><ele></ele><time>2025-8-20T13:55:32Z</time></trkpt>
<trkpt lat="46.16914" lon="7.95956"><ele></ele><time>2025-8-20T13:55:35Z</time></trkpt>
<trkpt lat="46.16902" lon="7.95964"><ele></ele><time>2025-8-20T13:55:38Z</time></trkpt>
<trkpt lat="46.16892" lon="7.95968"><ele></ele><time>2025-8-20T13:55:41Z</time></trkpt>
<trkpt lat="46.16882" lon="7.95971"><ele></ele><time>2025-8-20T13:55:44Z</time></trkpt>
<trkpt lat="46.16879" lon="7.95972"><ele></ele><time>2025-8-20T13:55:47Z</time></trkpt>
<trkpt lat="46.16874" lon="7.95971"><ele></ele><time>2025-8-20T13:55:50Z</time></trkpt>
<trkpt lat="46.16862" lon="7.95971"><ele></ele><time>2025-8-20T13:55:53Z</time></trkpt>
<trkpt lat="46.16857" lon="7.95971"><ele></ele><time>2025-8-20T13:55:56Z</time></trkpt>
<trkpt lat="46.16855" lon="7.95968"><ele></ele><time>2025-8-20T13:55:59Z</time></trkpt>
<trkpt lat="46.16854" lon="7.95965"><ele></ele><time>2025-8-20T13:56:2Z</time></trkpt>
<trkpt lat="46.16855" lon="7.95963"><ele></ele><time>2025-8-20T13:56:5Z</time></trkpt>
<trkpt lat="46.16856" lon="7.95962"><ele></ele><time>2025-8-20T13:56:8Z</time></trkpt>
<trkpt lat="46.1686" lon="7.95961"><ele></ele><time>2025-8-20T13:56:11Z</time></trkpt>
<trkpt lat="46.16866" lon="7.95961"><ele></ele><time>2025-8-20T13:56:14Z</time></trkpt>
<trkpt lat="46.16872" lon="7.95961"><ele></ele><time>2025-8-20T13:56:17Z</time></trkpt>
<trkpt lat="46.16877" lon="7.9596"><ele></ele><time>2025-8-20T13:56:20Z</time></trkpt>
<trkpt lat="46.16883" lon="7.95952"><ele></ele><time>2025-8-20T13:56:23Z</time></trkpt>
<trkpt lat="46.16886" lon="7.95949"><ele></ele><time>2025-8-20T13:56:26Z</time></trkpt>
<trkpt lat="46.16891" lon="7.95943"><ele></ele><time>2025-8-20T13:56:29Z</time></trkpt>
<trkpt lat="46.16898" lon="7.95935"><ele></ele><time>2025-8-20T13:56:32Z</time></trkpt>
<trkpt lat="46.16899" lon="7.95933"><ele></ele><time>2025-8-20T13:56:35Z</time></trkpt>
<trkpt lat="46.16901" lon="7.95931"><ele></ele><time>2025-8-20T13:56:38Z</time></trkpt>
<trkpt lat="46.16902" lon="7.95927"><ele></ele><time>2025-8-20T13:56:41Z</time></trkpt>
<trkpt lat="46.16905" lon="7.95911"><ele></ele><time>2025-8-20T13:56:44Z</time></trkpt>
<trkpt lat="46.16905" lon="7.95905"><ele></ele><time>2025-8-20T13:56:47Z</time></trkpt>
<trkpt lat="46.16907" lon="7.95888"><ele></ele><time>2025-8-20T13:56:50Z</time></trkpt>
<trkpt lat="46.16908" lon="7.95882"><ele></ele><time>2025-8-20T13:56:53Z</time></trkpt>
<trkpt lat="46.16908" lon="7.95876"><ele></ele><time>2025-8-20T13:56:56Z</time></trkpt>
<trkpt lat="46.16907" lon="7.95868"><ele></ele><time>2025-8-20T13:56:59Z</time></trkpt>
<trkpt lat="46.16905" lon="7.95841"><ele></ele><time>2025-8-20T13:57:2Z</time></trkpt>
<trkpt lat="46.16905" lon="7.95835"><ele></ele><time>2025-8-20T13:57:5Z</time></trkpt>
<trkpt lat="46.16903" lon="7.95823"><ele></ele><time>2025-8-20T13:57:8Z</time></trkpt>
<trkpt lat="46.16903" lon="7.95811"><ele></ele><time>2025-8-20T13:57:11Z</time></trkpt>
<trkpt lat="46.16902" lon="7.95805"><ele></ele><time>2025-8-20T13:57:14Z</time></trkpt>
<trkpt lat="46.16902" lon="7.95798"><ele></ele><time>2025-8-20T13:57:17Z</time></trkpt>
<trkpt lat="46.16904" lon="7.9578"><ele></ele><time>2025-8-20T13:57:20Z</time></trkpt>
<trkpt lat="46.16905" lon="7.95769"><ele></ele><time>2025-8-20T13:57:23Z</time></trkpt>
<trkpt lat="46.16906" lon="7.95763"><ele></ele><time>2025-8-20T13:57:26Z</time></trkpt>
<trkpt lat="46.16908" lon="7.95745"><ele></ele><time>2025-8-20T13:57:29Z</time></trkpt>
<trkpt lat="46.1691" lon="7.95733"><ele></ele><time>2025-8-20T13:57:32Z</time></trkpt>
<trkpt lat="46.1691" lon="7.95727"><ele></ele><time>2025-8-20T13:57:35Z</time></trkpt>
<trkpt lat="46.16911" lon="7.95722"><ele></ele><time>2025-8-20T13:57:38Z</time></trkpt>
<trkpt lat="46.16911" lon="7.95712"><ele></ele><time>2025-8-20T13:57:41Z</time></trkpt>
<trkpt lat="46.16912" lon="7.95703"><ele></ele><time>2025-8-20T13:57:44Z</time></trkpt>
<trkpt lat="46.16912" lon="7.95693"><ele></ele><time>2025-8-20T13:57:47Z</time></trkpt>
<trkpt lat="46.16912" lon="7.95678"><ele></ele><time>2025-8-20T13:57:50Z</time></trkpt>
<trkpt lat="46.16911" lon="7.95674"><ele></ele><time>2025-8-20T13:57:53Z</time></trkpt>
<trkpt lat="46.1691" lon="7.95654"><ele></ele><time>2025-8-20T13:57:56Z</time></trkpt>
<trkpt lat="46.16912" lon="7.95644"><ele></ele><time>2025-8-20T13:57:59Z</time></trkpt>
<trkpt lat="46.16912" lon="7.95638"><ele></ele><time>2025-8-20T13:58:2Z</time></trkpt>
<trkpt lat="46.1691" lon="7.95635"><ele></ele><time>2025-8-20T13:58:5Z</time></trkpt>
<trkpt lat="46.16907" lon="7.95635"><ele></ele><time>2025-8-20T13:58:8Z</time></trkpt>
<trkpt lat="46.16904" lon="7.95645"><ele></ele><time>2025-8-20T13:58:11Z</time></trkpt>
<trkpt lat="46.16901" lon="7.9567"><ele></ele><time>2025-8-20T13:58:14Z</time></trkpt>
<trkpt lat="46.16899" lon="7.95683"><ele></ele><time>2025-8-20T13:58:17Z</time></trkpt>
<trkpt lat="46.16899" lon="7.95692"><ele></ele><time>2025-8-20T13:58:20Z</time></trkpt>
<trkpt lat="46.16897" lon="7.957"><ele></ele><time>2025-8-20T13:58:23Z</time></trkpt>
<trkpt lat="46.16892" lon="7.95716"><ele></ele><time>2025-8-20T13:58:26Z</time></trkpt>
<trkpt lat="46.16891" lon="7.95721"><ele></ele><time>2025-8-20T13:58:29Z</time></trkpt>
<trkpt lat="46.16884" lon="7.95738"><ele></ele><time>2025-8-20T13:58:32Z</time></trkpt>
<trkpt lat="46.16878" lon="7.95748"><ele></ele><time>2025-8-20T13:58:35Z</time></trkpt>
<trkpt lat="46.16876" lon="7.95754"><ele></ele><time>2025-8-20T13:58:38Z</time></trkpt>
<trkpt lat="46.16874" lon="7.95759"><ele></ele><time>2025-8-20T13:58:41Z</time></trkpt>
<trkpt lat="46.16869" lon="7.9577"><ele></ele><time>2025-8-20T13:58:44Z</time></trkpt>
<trkpt lat="46.16865" lon="7.9578"><ele></ele><time>2025-8-20T13:58:47Z</time></trkpt>
<trkpt lat="46.16862" lon="7.9579"><ele></ele><time>2025-8-20T13:58:50Z</time></trkpt>
<trkpt lat="46.16858" lon="7.95807"><ele></ele><time>2025-8-20T13:58:53Z</time></trkpt>
<trkpt lat="46.1685" lon="7.95814"><ele></ele><time>2025-8-20T13:58:56Z</time></trkpt>
<trkpt lat="46.16845" lon="7.95815"><ele></ele><time>2025-8-20T13:58:59Z</time></trkpt>
<trkpt lat="46.16841" lon="7.95815"><ele></ele><time>2025-8-20T13:59:2Z</time></trkpt>
<trkpt lat="46.16832" lon="7.95812"><ele></ele><time>2025-8-20T13:59:5Z</time></trkpt>
<trkpt lat="46.16818" lon="7.95809"><ele></ele><time>2025-8-20T13:59:8Z</time></trkpt>
<trkpt lat="46.16805" lon="7.95808"><ele></ele><time>2025-8-20T13:59:11Z</time></trkpt>
<trkpt lat="46.16796" lon="7.95803"><ele></ele><time>2025-8-20T13:59:14Z</time></trkpt>
<trkpt lat="46.16787" lon="7.958"><ele></ele><time>2025-8-20T13:59:17Z</time></trkpt>
<trkpt lat="46.16783" lon="7.95801"><ele></ele><time>2025-8-20T13:59:20Z</time></trkpt>
<trkpt lat="46.16775" lon="7.95805"><ele></ele><time>2025-8-20T13:59:23Z</time></trkpt>
<trkpt lat="46.16772" lon="7.95809"><ele></ele><time>2025-8-20T13:59:26Z</time></trkpt>
<trkpt lat="46.16764" lon="7.95817"><ele></ele><time>2025-8-20T13:59:29Z</time></trkpt>
<trkpt lat="46.16762" lon="7.95815"><ele></ele><time>2025-8-20T13:59:32Z</time></trkpt>
<trkpt lat="46.16763" lon="7.95804"><ele></ele><time>2025-8-20T13:59:35Z</time></trkpt>
<trkpt lat="46.16764" lon="7.95798"><ele></ele><time>2025-8-20T13:59:38Z</time></trkpt>
<trkpt lat="46.16769" lon="7.95783"><ele></ele><time>2025-8-20T13:59:41Z</time></trkpt>
<trkpt lat="46.16776" lon="7.95773"><ele></ele><time>2025-8-20T13:59:44Z</time></trkpt>
<trkpt lat="46.16781" lon="7.95769"><ele></ele><time>2025-8-20T13:59:47Z</time></trkpt>
<trkpt lat="46.16783" lon="7.95767"><ele></ele><time>2025-8-20T13:59:50Z</time></trkpt>
<trkpt lat="46.16794" lon="7.95753"><ele></ele><time>2025-8-20T13:59:53Z</time></trkpt>
<trkpt lat="46.16799" lon="7.95747"><ele></ele><time>2025-8-20T13:59:56Z</time></trkpt>
<trkpt lat="46.16804" lon="7.9574"><ele></ele><time>2025-8-20T13:59:59Z</time></trkpt>
<trkpt lat="46.16814" lon="7.95728"><ele></ele><time>2025-8-20T14:0:2Z</time></trkpt>
<trkpt lat="46.16818" lon="7.95725"><ele></ele><time>2025-8-20T14:0:5Z</time></trkpt>
<trkpt lat="46.16822" lon="7.9572"><ele></ele><time>2025-8-20T14:0:8Z</time></trkpt>
<trkpt lat="46.16823" lon="7.95714"><ele></ele><time>2025-8-20T14:0:11Z</time></trkpt>
<trkpt lat="46.16822" lon="7.95709"><ele></ele><time>2025-8-20T14:0:14Z</time></trkpt>
<trkpt lat="46.16814" lon="7.95703"><ele></ele><time>2025-8-20T14:0:17Z</time></trkpt>
<trkpt lat="46.16808" lon="7.95703"><ele></ele><time>2025-8-20T14:0:20Z</time></trkpt>
<trkpt lat="46.16802" lon="7.95702"><ele></ele><time>2025-8-20T14:0:23Z</time></trkpt>
<trkpt lat="46.16796" lon="7.957"><ele></ele><time>2025-8-20T14:0:26Z</time></trkpt>
<trkpt lat="46.16791" lon="7.95697"><ele></ele><time>2025-8-20T14:0:29Z</time></trkpt>
<trkpt lat="46.16787" lon="7.95691"><ele></ele><time>2025-8-20T14:0:32Z</time></trkpt>
<trkpt lat="46.16785" lon="7.95676"><ele></ele><time>2025-8-20T14:0:35Z</time></trkpt>
<trkpt lat="46.16785" lon="7.95659"><ele></ele><time>2025-8-20T14:0:38Z</time></trkpt>
<trkpt lat="46.16784" lon="7.95641"><ele></ele><time>2025-8-20T14:0:41Z</time></trkpt>
<trkpt lat="46.16782" lon="7.95633"><ele></ele><time>2025-8-20T14:0:44Z</time></trkpt>
<trkpt lat="46.16772" lon="7.95624"><ele></ele><time>2025-8-20T14:0:47Z</time></trkpt>
<trkpt lat="46.16766" lon="7.95619"><ele></ele><time>2025-8-20T14:0:50Z</time></trkpt>
<trkpt lat="46.1676" lon="7.95614"><ele></ele><time>2025-8-20T14:0:53Z</time></trkpt>
<trkpt lat="46.16756" lon="7.95606"><ele></ele><time>2025-8-20T14:0:56Z</time></trkpt>
<trkpt lat="46.16754" lon="7.95597"><ele></ele><time>2025-8-20T14:0:59Z</time></trkpt>
<trkpt lat="46.16749" lon="7.95579"><ele></ele><time>2025-8-20T14:1:2Z</time></trkpt>
<trkpt lat="46.16744" lon="7.95561"><ele></ele><time>2025-8-20T14:1:5Z</time></trkpt>
<trkpt lat="46.1674" lon="7.95544"><ele></ele><time>2025-8-20T14:1:8Z</time></trkpt>
<trkpt lat="46.16738" lon="7.95536"><ele></ele><time>2025-8-20T14:1:11Z</time></trkpt>
<trkpt lat="46.16735" lon="7.95529"><ele></ele><time>2025-8-20T14:1:14Z</time></trkpt>
<trkpt lat="46.16732" lon="7.95522"><ele></ele><time>2025-8-20T14:1:17Z</time></trkpt>
<trkpt lat="46.16727" lon="7.95508"><ele></ele><time>2025-8-20T14:1:20Z</time></trkpt>
<trkpt lat="46.1672" lon="7.95502"><ele></ele><time>2025-8-20T14:1:23Z</time></trkpt>
<trkpt lat="46.16714" lon="7.95512"><ele></ele><time>2025-8-20T14:1:26Z</time></trkpt>
<trkpt lat="46.16713" lon="7.95516"><ele></ele><time>2025-8-20T14:1:29Z</time></trkpt>
<trkpt lat="46.16713" lon="7.95518"><ele></ele><time>2025-8-20T14:1:32Z</time></trkpt>
<trkpt lat="46.16712" lon="7.95521"><ele></ele><time>2025-8-20T14:1:35Z</time></trkpt>
<trkpt lat="46.16709" lon="7.95538"><ele></ele><time>2025-8-20T14:1:38Z</time></trkpt>
<trkpt lat="46.16708" lon="7.95543"><ele></ele><time>2025-8-20T14:1:41Z</time></trkpt>
<trkpt lat="46.16705" lon="7.95555"><ele></ele><time>2025-8-20T14:1:44Z</time></trkpt>
<trkpt lat="46.16699" lon="7.95572"><ele></ele><time>2025-8-20T14:1:47Z</time></trkpt>
<trkpt lat="46.16697" lon="7.95578"><ele></ele><time>2025-8-20T14:1:50Z</time></trkpt>
<trkpt lat="46.16692" lon="7.95591"><ele></ele><time>2025-8-20T14:1:53Z</time></trkpt>
<trkpt lat="46.16689" lon="7.95606"><ele></ele><time>2025-8-20T14:1:56Z</time></trkpt>
<trkpt lat="46.16687" lon="7.95613"><ele></ele><time>2025-8-20T14:1:59Z</time></trkpt>
<trkpt lat="46.16686" lon="7.95625"><ele></ele><time>2025-8-20T14:2:2Z</time></trkpt>
<trkpt lat="46.16683" lon="7.95641"><ele></ele><time>2025-8-20T14:2:5Z</time></trkpt>
<trkpt lat="46.16681" lon="7.95645"><ele></ele><time>2025-8-20T14:2:8Z</time></trkpt>
<trkpt lat="46.16677" lon="7.95642"><ele></ele><time>2025-8-20T14:2:11Z</time></trkpt>
<trkpt lat="46.16679" lon="7.95626"><ele></ele><time>2025-8-20T14:2:14Z</time></trkpt>
<trkpt lat="46.16679" lon="7.9562"><ele></ele><time>2025-8-20T14:2:17Z</time></trkpt>
<trkpt lat="46.16678" lon="7.95614"><ele></ele><time>2025-8-20T14:2:20Z</time></trkpt>
<trkpt lat="46.16679" lon="7.95596"><ele></ele><time>2025-8-20T14:2:23Z</time></trkpt>
<trkpt lat="46.16679" lon="7.95583"><ele></ele><time>2025-8-20T14:2:26Z</time></trkpt>
<trkpt lat="46.1668" lon="7.95576"><ele></ele><time>2025-8-20T14:2:29Z</time></trkpt>
<trkpt lat="46.16682" lon="7.95569"><ele></ele><time>2025-8-20T14:2:32Z</time></trkpt>
<trkpt lat="46.16684" lon="7.95563"><ele></ele><time>2025-8-20T14:2:35Z</time></trkpt>
<trkpt lat="46.16686" lon="7.95549"><ele></ele><time>2025-8-20T14:2:38Z</time></trkpt>
<trkpt lat="46.16687" lon="7.95542"><ele></ele><time>2025-8-20T14:2:41Z</time></trkpt>
<trkpt lat="46.16687" lon="7.95534"><ele></ele><time>2025-8-20T14:2:44Z</time></trkpt>
<trkpt lat="46.16686" lon="7.95526"><ele></ele><time>2025-8-20T14:2:47Z</time></trkpt>
<trkpt lat="46.16685" lon="7.95506"><ele></ele><time>2025-8-20T14:2:50Z</time></trkpt>
<trkpt lat="46.16685" lon="7.95493"><ele></ele><time>2025-8-20T14:2:53Z</time></trkpt>
<trkpt lat="46.16684" lon="7.95479"><ele></ele><time>2025-8-20T14:2:56Z</time></trkpt>
<trkpt lat="46.16682" lon="7.95466"><ele></ele><time>2025-8-20T14:2:59Z</time></trkpt>
<trkpt lat="46.16681" lon="7.95459"><ele></ele><time>2025-8-20T14:3:2Z</time></trkpt>
<trkpt lat="46.16681" lon="7.95453"><ele></ele><time>2025-8-20T14:3:5Z</time></trkpt>
<trkpt lat="46.16679" lon="7.95434"><ele></ele><time>2025-8-20T14:3:8Z</time></trkpt>
<trkpt lat="46.16678" lon="7.95415"><ele></ele><time>2025-8-20T14:3:11Z</time></trkpt>
<trkpt lat="46.16678" lon="7.95408"><ele></ele><time>2025-8-20T14:3:14Z</time></trkpt>
<trkpt lat="46.16677" lon="7.95402"><ele></ele><time>2025-8-20T14:3:17Z</time></trkpt>
<trkpt lat="46.16675" lon="7.9539"><ele></ele><time>2025-8-20T14:3:20Z</time></trkpt>
<trkpt lat="46.16672" lon="7.95378"><ele></ele><time>2025-8-20T14:3:23Z</time></trkpt>
<trkpt lat="46.16668" lon="7.95362"><ele></ele><time>2025-8-20T14:3:26Z</time></trkpt>
<trkpt lat="46.16667" lon="7.95356"><ele></ele><time>2025-8-20T14:3:29Z</time></trkpt>
<trkpt lat="46.16663" lon="7.95345"><ele></ele><time>2025-8-20T14:3:32Z</time></trkpt>
<trkpt lat="46.1666" lon="7.95334"><ele></ele><time>2025-8-20T14:3:35Z</time></trkpt>
<trkpt lat="46.16654" lon="7.95306"><ele></ele><time>2025-8-20T14:3:38Z</time></trkpt>
<trkpt lat="46.16654" lon="7.95295"><ele></ele><time>2025-8-20T14:3:41Z</time></trkpt>
<trkpt lat="46.16655" lon="7.95284"><ele></ele><time>2025-8-20T14:3:44Z</time></trkpt>
<trkpt lat="46.16655" lon="7.95279"><ele></ele><time>2025-8-20T14:3:47Z</time></trkpt>
<trkpt lat="46.16662" lon="7.9526"><ele></ele><time>2025-8-20T14:3:50Z</time></trkpt>
<trkpt lat="46.16665" lon="7.95257"><ele></ele><time>2025-8-20T14:3:53Z</time></trkpt>
<trkpt lat="46.16667" lon="7.95252"><ele></ele><time>2025-8-20T14:3:56Z</time></trkpt>
<trkpt lat="46.16667" lon="7.95247"><ele></ele><time>2025-8-20T14:3:59Z</time></trkpt>
<trkpt lat="46.16665" lon="7.95244"><ele></ele><time>2025-8-20T14:4:2Z</time></trkpt>
<trkpt lat="46.16657" lon="7.9525"><ele></ele><time>2025-8-20T14:4:5Z</time></trkpt>
<trkpt lat="46.16655" lon="7.95254"><ele></ele><time>2025-8-20T14:4:8Z</time></trkpt>
<trkpt lat="46.16646" lon="7.95267"><ele></ele><time>2025-8-20T14:4:11Z</time></trkpt>
<trkpt lat="46.1664" lon="7.95276"><ele></ele><time>2025-8-20T14:4:14Z</time></trkpt>
<trkpt lat="46.16639" lon="7.95281"><ele></ele><time>2025-8-20T14:4:17Z</time></trkpt>
<trkpt lat="46.16639" lon="7.95287"><ele></ele><time>2025-8-20T14:4:20Z</time></trkpt>
<trkpt lat="46.16639" lon="7.95293"><ele></ele><time>2025-8-20T14:4:23Z</time></trkpt>
<trkpt lat="46.16637" lon="7.95308"><ele></ele><time>2025-8-20T14:4:26Z</time></trkpt>
<trkpt lat="46.16634" lon="7.95313"><ele></ele><time>2025-8-20T14:4:29Z</time></trkpt>
<trkpt lat="46.1663" lon="7.95315"><ele></ele><time>2025-8-20T14:4:32Z</time></trkpt>
<trkpt lat="46.16621" lon="7.95321"><ele></ele><time>2025-8-20T14:4:35Z</time></trkpt>
<trkpt lat="46.16616" lon="7.95332"><ele></ele><time>2025-8-20T14:4:38Z</time></trkpt>
<trkpt lat="46.16609" lon="7.95342"><ele></ele><time>2025-8-20T14:4:41Z</time></trkpt>
<trkpt lat="46.16602" lon="7.9534"><ele></ele><time>2025-8-20T14:4:44Z</time></trkpt>
<trkpt lat="46.16599" lon="7.95336"><ele></ele><time>2025-8-20T14:4:47Z</time></trkpt>
<trkpt lat="46.16597" lon="7.95332"><ele></ele><time>2025-8-20T14:4:50Z</time></trkpt>
<trkpt lat="46.16596" lon="7.95327"><ele></ele><time>2025-8-20T14:4:53Z</time></trkpt>
<trkpt lat="46.16594" lon="7.95318"><ele></ele><time>2025-8-20T14:4:56Z</time></trkpt>
<trkpt lat="46.16594" lon="7.95315"><ele></ele><time>2025-8-20T14:4:59Z</time></trkpt>
<trkpt lat="46.16592" lon="7.95309"><ele></ele><time>2025-8-20T14:5:2Z</time></trkpt>
<trkpt lat="46.16592" lon="7.95307"><ele></ele><time>2025-8-20T14:5:5Z</time></trkpt>
<trkpt lat="46.16592" lon="7.95307"><ele></ele><time>2025-8-20T14:5:8Z</time></trkpt>
<trkpt lat="46.16592" lon="7.95306"><ele></ele><time>2025-8-20T14:5:11Z</time></trkpt>
<trkpt lat="46.16593" lon="7.95306"><ele></ele><time>2025-8-20T14:5:14Z</time></trkpt>
<trkpt lat="46.16593" lon="7.95306"><ele></ele><time>2025-8-20T14:5:17Z</time></trkpt>
<trkpt lat="46.16593" lon="7.95306"><ele></ele><time>2025-8-20T14:5:20Z</time></trkpt>
<trkpt lat="46.16593" lon="7.95307"><ele></ele><time>2025-8-20T14:5:23Z</time></trkpt>
<trkpt lat="46.16593" lon="7.95305"><ele></ele><time>2025-8-20T14:5:26Z</time></trkpt>
<trkpt lat="46.16594" lon="7.95293"><ele></ele><time>2025-8-20T14:5:29Z</time></trkpt>
<trkpt lat="46.16593" lon="7.95283"><ele></ele><time>2025-8-20T14:5:32Z</time></trkpt>
<trkpt lat="46.16592" lon="7.95278"><ele></ele><time>2025-8-20T14:5:35Z</time></trkpt>
<trkpt lat="46.1659" lon="7.95273"><ele></ele><time>2025-8-20T14:5:38Z</time></trkpt>
<trkpt lat="46.16586" lon="7.95262"><ele></ele><time>2025-8-20T14:5:41Z</time></trkpt>
<trkpt lat="46.16586" lon="7.95257"><ele></ele><time>2025-8-20T14:5:44Z</time></trkpt>
<trkpt lat="46.16589" lon="7.95236"><ele></ele><time>2025-8-20T14:5:47Z</time></trkpt>
<trkpt lat="46.1659" lon="7.95231"><ele></ele><time>2025-8-20T14:5:50Z</time></trkpt>
<trkpt lat="46.16593" lon="7.95226"><ele></ele><time>2025-8-20T14:5:53Z</time></trkpt>
<trkpt lat="46.16596" lon="7.95221"><ele></ele><time>2025-8-20T14:5:56Z</time></trkpt>
<trkpt lat="46.16599" lon="7.95217"><ele></ele><time>2025-8-20T14:5:59Z</time></trkpt>
<trkpt lat="46.16605" lon="7.95208"><ele></ele><time>2025-8-20T14:6:2Z</time></trkpt>
<trkpt lat="46.16611" lon="7.95187"><ele></ele><time>2025-8-20T14:6:5Z</time></trkpt>
<trkpt lat="46.16618" lon="7.95176"><ele></ele><time>2025-8-20T14:6:8Z</time></trkpt>
<trkpt lat="46.16625" lon="7.95165"><ele></ele><time>2025-8-20T14:6:11Z</time></trkpt>
<trkpt lat="46.16629" lon="7.95162"><ele></ele><time>2025-8-20T14:6:14Z</time></trkpt>
<trkpt lat="46.16632" lon="7.9516"><ele></ele><time>2025-8-20T14:6:17Z</time></trkpt>
<trkpt lat="46.1664" lon="7.95155"><ele></ele><time>2025-8-20T14:6:20Z</time></trkpt>
<trkpt lat="46.16641" lon="7.95152"><ele></ele><time>2025-8-20T14:6:23Z</time></trkpt>
<trkpt lat="46.16638" lon="7.95148"><ele></ele><time>2025-8-20T14:6:26Z</time></trkpt>
<trkpt lat="46.16623" lon="7.95152"><ele></ele><time>2025-8-20T14:6:29Z</time></trkpt>
<trkpt lat="46.16618" lon="7.95154"><ele></ele><time>2025-8-20T14:6:32Z</time></trkpt>
<trkpt lat="46.16607" lon="7.95157"><ele></ele><time>2025-8-20T14:6:35Z</time></trkpt>
<trkpt lat="46.16602" lon="7.95157"><ele></ele><time>2025-8-20T14:6:38Z</time></trkpt>
<trkpt lat="46.16596" lon="7.95156"><ele></ele><time>2025-8-20T14:6:41Z</time></trkpt>
<trkpt lat="46.16592" lon="7.95153"><ele></ele><time>2025-8-20T14:6:44Z</time></trkpt>
<trkpt lat="46.16584" lon="7.95153"><ele></ele><time>2025-8-20T14:6:47Z</time></trkpt>
<trkpt lat="46.16578" lon="7.95162"><ele></ele><time>2025-8-20T14:6:50Z</time></trkpt>
<trkpt lat="46.16575" lon="7.95169"><ele></ele><time>2025-8-20T14:6:53Z</time></trkpt>
<trkpt lat="46.16571" lon="7.95182"><ele></ele><time>2025-8-20T14:6:56Z</time></trkpt>
<trkpt lat="46.16571" lon="7.95195"><ele></ele><time>2025-8-20T14:6:59Z</time></trkpt>
<trkpt lat="46.16568" lon="7.95209"><ele></ele><time>2025-8-20T14:7:2Z</time></trkpt>
<trkpt lat="46.16564" lon="7.95223"><ele></ele><time>2025-8-20T14:7:5Z</time></trkpt>
<trkpt lat="46.16563" lon="7.95229"><ele></ele><time>2025-8-20T14:7:8Z</time></trkpt>
<trkpt lat="46.16561" lon="7.95235"><ele></ele><time>2025-8-20T14:7:11Z</time></trkpt>
<trkpt lat="46.16558" lon="7.95234"><ele></ele><time>2025-8-20T14:7:14Z</time></trkpt>
<trkpt lat="46.16559" lon="7.95224"><ele></ele><time>2025-8-20T14:7:17Z</time></trkpt>
<trkpt lat="46.16561" lon="7.95212"><ele></ele><time>2025-8-20T14:7:20Z</time></trkpt>
<trkpt lat="46.1656" lon="7.95198"><ele></ele><time>2025-8-20T14:7:23Z</time></trkpt>
<trkpt lat="46.16558" lon="7.95191"><ele></ele><time>2025-8-20T14:7:26Z</time></trkpt>
<trkpt lat="46.16555" lon="7.95184"><ele></ele><time>2025-8-20T14:7:29Z</time></trkpt>
<trkpt lat="46.16554" lon="7.95178"><ele></ele><time>2025-8-20T14:7:32Z</time></trkpt>
<trkpt lat="46.16554" lon="7.95172"><ele></ele><time>2025-8-20T14:7:35Z</time></trkpt>
<trkpt lat="46.16553" lon="7.9516"><ele></ele><time>2025-8-20T14:7:38Z</time></trkpt>
<trkpt lat="46.16554" lon="7.95147"><ele></ele><time>2025-8-20T14:7:41Z</time></trkpt>
<trkpt lat="46.16554" lon="7.95141"><ele></ele><time>2025-8-20T14:7:44Z</time></trkpt>
<trkpt lat="46.16555" lon="7.95135"><ele></ele><time>2025-8-20T14:7:47Z</time></trkpt>
<trkpt lat="46.16555" lon="7.9511"><ele></ele><time>2025-8-20T14:7:50Z</time></trkpt>
<trkpt lat="46.16554" lon="7.95104"><ele></ele><time>2025-8-20T14:7:53Z</time></trkpt>
<trkpt lat="46.16553" lon="7.95097"><ele></ele><time>2025-8-20T14:7:56Z</time></trkpt>
<trkpt lat="46.1655" lon="7.95085"><ele></ele><time>2025-8-20T14:7:59Z</time></trkpt>
<trkpt lat="46.16553" lon="7.95074"><ele></ele><time>2025-8-20T14:8:2Z</time></trkpt>
<trkpt lat="46.16556" lon="7.9507"><ele></ele><time>2025-8-20T14:8:5Z</time></trkpt>
<trkpt lat="46.16559" lon="7.95065"><ele></ele><time>2025-8-20T14:8:8Z</time></trkpt>
<trkpt lat="46.1656" lon="7.95054"><ele></ele><time>2025-8-20T14:8:11Z</time></trkpt>
<trkpt lat="46.16554" lon="7.95046"><ele></ele><time>2025-8-20T14:8:14Z</time></trkpt>
<trkpt lat="46.16551" lon="7.95043"><ele></ele><time>2025-8-20T14:8:17Z</time></trkpt>
<trkpt lat="46.16547" lon="7.95039"><ele></ele><time>2025-8-20T14:8:20Z</time></trkpt>
<trkpt lat="46.16542" lon="7.95031"><ele></ele><time>2025-8-20T14:8:23Z</time></trkpt>
<trkpt lat="46.16541" lon="7.95026"><ele></ele><time>2025-8-20T14:8:26Z</time></trkpt>
<trkpt lat="46.16542" lon="7.95021"><ele></ele><time>2025-8-20T14:8:29Z</time></trkpt>
<trkpt lat="46.16545" lon="7.95017"><ele></ele><time>2025-8-20T14:8:32Z</time></trkpt>
<trkpt lat="46.16552" lon="7.95016"><ele></ele><time>2025-8-20T14:8:35Z</time></trkpt>
<trkpt lat="46.16556" lon="7.95015"><ele></ele><time>2025-8-20T14:8:38Z</time></trkpt>
<trkpt lat="46.16565" lon="7.9501"><ele></ele><time>2025-8-20T14:8:41Z</time></trkpt>
<trkpt lat="46.1657" lon="7.95006"><ele></ele><time>2025-8-20T14:8:44Z</time></trkpt>
<trkpt lat="46.16579" lon="7.94996"><ele></ele><time>2025-8-20T14:8:47Z</time></trkpt>
<trkpt lat="46.16584" lon="7.94984"><ele></ele><time>2025-8-20T14:8:50Z</time></trkpt>
<trkpt lat="46.16586" lon="7.94978"><ele></ele><time>2025-8-20T14:8:53Z</time></trkpt>
<trkpt lat="46.16589" lon="7.94965"><ele></ele><time>2025-8-20T14:8:56Z</time></trkpt>
<trkpt lat="46.16593" lon="7.94941"><ele></ele><time>2025-8-20T14:8:59Z</time></trkpt>
<trkpt lat="46.16595" lon="7.94934"><ele></ele><time>2025-8-20T14:9:2Z</time></trkpt>
<trkpt lat="46.16598" lon="7.94929"><ele></ele><time>2025-8-20T14:9:5Z</time></trkpt>
<trkpt lat="46.16602" lon="7.94927"><ele></ele><time>2025-8-20T14:9:8Z</time></trkpt>
<trkpt lat="46.1661" lon="7.94922"><ele></ele><time>2025-8-20T14:9:11Z</time></trkpt>
<trkpt lat="46.16612" lon="7.94917"><ele></ele><time>2025-8-20T14:9:14Z</time></trkpt>
<trkpt lat="46.16612" lon="7.94912"><ele></ele><time>2025-8-20T14:9:17Z</time></trkpt>
<trkpt lat="46.16608" lon="7.94907"><ele></ele><time>2025-8-20T14:9:20Z</time></trkpt>
<trkpt lat="46.16605" lon="7.94907"><ele></ele><time>2025-8-20T14:9:23Z</time></trkpt>
<trkpt lat="46.16599" lon="7.94908"><ele></ele><time>2025-8-20T14:9:26Z</time></trkpt>
<trkpt lat="46.16588" lon="7.9491"><ele></ele><time>2025-8-20T14:9:29Z</time></trkpt>
<trkpt lat="46.16575" lon="7.94914"><ele></ele><time>2025-8-20T14:9:32Z</time></trkpt>
<trkpt lat="46.16564" lon="7.94919"><ele></ele><time>2025-8-20T14:9:35Z</time></trkpt>
<trkpt lat="46.16554" lon="7.94922"><ele></ele><time>2025-8-20T14:9:38Z</time></trkpt>
<trkpt lat="46.16544" lon="7.94924"><ele></ele><time>2025-8-20T14:9:41Z</time></trkpt>
<trkpt lat="46.1654" lon="7.94924"><ele></ele><time>2025-8-20T14:9:44Z</time></trkpt>
<trkpt lat="46.16533" lon="7.94924"><ele></ele><time>2025-8-20T14:9:47Z</time></trkpt>
<trkpt lat="46.16531" lon="7.94927"><ele></ele><time>2025-8-20T14:9:50Z</time></trkpt>
<trkpt lat="46.16529" lon="7.94931"><ele></ele><time>2025-8-20T14:9:53Z</time></trkpt>
<trkpt lat="46.16527" lon="7.94934"><ele></ele><time>2025-8-20T14:9:56Z</time></trkpt>
<trkpt lat="46.16524" lon="7.94938"><ele></ele><time>2025-8-20T14:9:59Z</time></trkpt>
<trkpt lat="46.16519" lon="7.94948"><ele></ele><time>2025-8-20T14:10:2Z</time></trkpt>
<trkpt lat="46.16516" lon="7.94952"><ele></ele><time>2025-8-20T14:10:5Z</time></trkpt>
<trkpt lat="46.16512" lon="7.94955"><ele></ele><time>2025-8-20T14:10:8Z</time></trkpt>
<trkpt lat="46.16508" lon="7.94957"><ele></ele><time>2025-8-20T14:10:11Z</time></trkpt>
<trkpt lat="46.16504" lon="7.94959"><ele></ele><time>2025-8-20T14:10:14Z</time></trkpt>
<trkpt lat="46.16499" lon="7.94959"><ele></ele><time>2025-8-20T14:10:17Z</time></trkpt>
<trkpt lat="46.1649" lon="7.94956"><ele></ele><time>2025-8-20T14:10:20Z</time></trkpt>
<trkpt lat="46.16486" lon="7.94957"><ele></ele><time>2025-8-20T14:10:23Z</time></trkpt>
<trkpt lat="46.16482" lon="7.94958"><ele></ele><time>2025-8-20T14:10:26Z</time></trkpt>
<trkpt lat="46.16474" lon="7.94962"><ele></ele><time>2025-8-20T14:10:29Z</time></trkpt>
<trkpt lat="46.1647" lon="7.94962"><ele></ele><time>2025-8-20T14:10:32Z</time></trkpt>
<trkpt lat="46.16469" lon="7.94952"><ele></ele><time>2025-8-20T14:10:35Z</time></trkpt>
<trkpt lat="46.16471" lon="7.9495"><ele></ele><time>2025-8-20T14:10:38Z</time></trkpt>
<trkpt lat="46.16478" lon="7.94948"><ele></ele><time>2025-8-20T14:10:41Z</time></trkpt>
<trkpt lat="46.16483" lon="7.94947"><ele></ele><time>2025-8-20T14:10:44Z</time></trkpt>
<trkpt lat="46.16492" lon="7.94944"><ele></ele><time>2025-8-20T14:10:47Z</time></trkpt>
<trkpt lat="46.16502" lon="7.94938"><ele></ele><time>2025-8-20T14:10:50Z</time></trkpt>
<trkpt lat="46.16505" lon="7.94933"><ele></ele><time>2025-8-20T14:10:53Z</time></trkpt>
<trkpt lat="46.16507" lon="7.94928"><ele></ele><time>2025-8-20T14:10:56Z</time></trkpt>
<trkpt lat="46.16513" lon="7.94909"><ele></ele><time>2025-8-20T14:10:59Z</time></trkpt>
<trkpt lat="46.16517" lon="7.94895"><ele></ele><time>2025-8-20T14:11:2Z</time></trkpt>
<trkpt lat="46.16521" lon="7.94882"><ele></ele><time>2025-8-20T14:11:5Z</time></trkpt>
<trkpt lat="46.16523" lon="7.94877"><ele></ele><time>2025-8-20T14:11:8Z</time></trkpt>
<trkpt lat="46.16526" lon="7.94873"><ele></ele><time>2025-8-20T14:11:11Z</time></trkpt>
<trkpt lat="46.16533" lon="7.94868"><ele></ele><time>2025-8-20T14:11:14Z</time></trkpt>
<trkpt lat="46.16537" lon="7.94864"><ele></ele><time>2025-8-20T14:11:17Z</time></trkpt>
<trkpt lat="46.1654" lon="7.9486"><ele></ele><time>2025-8-20T14:11:20Z</time></trkpt>
<trkpt lat="46.16546" lon="7.94853"><ele></ele><time>2025-8-20T14:11:23Z</time></trkpt>
<trkpt lat="46.1655" lon="7.9485"><ele></ele><time>2025-8-20T14:11:26Z</time></trkpt>
<trkpt lat="46.16563" lon="7.94841"><ele></ele><time>2025-8-20T14:11:29Z</time></trkpt>
<trkpt lat="46.16571" lon="7.94835"><ele></ele><time>2025-8-20T14:11:32Z</time></trkpt>
<trkpt lat="46.16579" lon="7.94822"><ele></ele><time>2025-8-20T14:11:35Z</time></trkpt>
<trkpt lat="46.16579" lon="7.94817"><ele></ele><time>2025-8-20T14:11:38Z</time></trkpt>
<trkpt lat="46.16578" lon="7.94813"><ele></ele><time>2025-8-20T14:11:41Z</time></trkpt>
<trkpt lat="46.16575" lon="7.94809"><ele></ele><time>2025-8-20T14:11:44Z</time></trkpt>
<trkpt lat="46.16574" lon="7.94809"><ele></ele><time>2025-8-20T14:11:47Z</time></trkpt>
<trkpt lat="46.16575" lon="7.94809"><ele></ele><time>2025-8-20T14:11:50Z</time></trkpt>
<trkpt lat="46.16575" lon="7.94809"><ele></ele><time>2025-8-20T14:11:53Z</time></trkpt>
<trkpt lat="46.16575" lon="7.94809"><ele></ele><time>2025-8-20T14:11:56Z</time></trkpt>
<trkpt lat="46.16577" lon="7.94807"><ele></ele><time>2025-8-20T14:11:59Z</time></trkpt>
<trkpt lat="46.16577" lon="7.94806"><ele></ele><time>2025-8-20T14:12:2Z</time></trkpt>
<trkpt lat="46.16577" lon="7.94807"><ele></ele><time>2025-8-20T14:12:5Z</time></trkpt>
<trkpt lat="46.16577" lon="7.94807"><ele></ele><time>2025-8-20T14:12:8Z</time></trkpt>
<trkpt lat="46.16577" lon="7.94807"><ele></ele><time>2025-8-20T14:12:11Z</time></trkpt>
<trkpt lat="46.16577" lon="7.94807"><ele></ele><time>2025-8-20T14:12:14Z</time></trkpt>
<trkpt lat="46.16577" lon="7.94807"><ele></ele><time>2025-8-20T14:12:17Z</time></trkpt>
<trkpt lat="46.16577" lon="7.94807"><ele></ele><time>2025-8-20T14:12:20Z</time></trkpt>
<trkpt lat="46.16577" lon="7.94807"><ele></ele><time>2025-8-20T14:12:23Z</time></trkpt>
<trkpt lat="46.16577" lon="7.94807"><ele></ele><time>2025-8-20T14:12:26Z</time></trkpt>
<trkpt lat="46.16576" lon="7.94805"><ele></ele><time>2025-8-20T14:12:29Z</time></trkpt>
<trkpt lat="46.16575" lon="7.9481"><ele></ele><time>2025-8-20T14:12:32Z</time></trkpt>
<trkpt lat="46.16571" lon="7.9482"><ele></ele><time>2025-8-20T14:12:35Z</time></trkpt>
<trkpt lat="46.16569" lon="7.94823"><ele></ele><time>2025-8-20T14:12:38Z</time></trkpt>
<trkpt lat="46.16559" lon="7.94828"><ele></ele><time>2025-8-20T14:12:41Z</time></trkpt>
<trkpt lat="46.16555" lon="7.94828"><ele></ele><time>2025-8-20T14:12:44Z</time></trkpt>
<trkpt lat="46.16548" lon="7.94829"><ele></ele><time>2025-8-20T14:12:47Z</time></trkpt>
<trkpt lat="46.1654" lon="7.94831"><ele></ele><time>2025-8-20T14:12:50Z</time></trkpt>
<trkpt lat="46.16536" lon="7.94834"><ele></ele><time>2025-8-20T14:12:53Z</time></trkpt>
<trkpt lat="46.16523" lon="7.9484"><ele></ele><time>2025-8-20T14:12:56Z</time></trkpt>
<trkpt lat="46.16519" lon="7.94842"><ele></ele><time>2025-8-20T14:12:59Z</time></trkpt>
<trkpt lat="46.16515" lon="7.94846"><ele></ele><time>2025-8-20T14:13:2Z</time></trkpt>
<trkpt lat="46.16502" lon="7.94857"><ele></ele><time>2025-8-20T14:13:5Z</time></trkpt>
<trkpt lat="46.16496" lon="7.94865"><ele></ele><time>2025-8-20T14:13:8Z</time></trkpt>
<trkpt lat="46.16494" lon="7.94867"><ele></ele><time>2025-8-20T14:13:11Z</time></trkpt>
<trkpt lat="46.16482" lon="7.94877"><ele></ele><time>2025-8-20T14:13:14Z</time></trkpt>
<trkpt lat="46.16474" lon="7.94879"><ele></ele><time>2025-8-20T14:13:17Z</time></trkpt>
<trkpt lat="46.16459" lon="7.9488"><ele></ele><time>2025-8-20T14:13:20Z</time></trkpt>
<trkpt lat="46.16442" lon="7.94884"><ele></ele><time>2025-8-20T14:13:23Z</time></trkpt>
<trkpt lat="46.16438" lon="7.94886"><ele></ele><time>2025-8-20T14:13:26Z</time></trkpt>
<trkpt lat="46.1643" lon="7.94892"><ele></ele><time>2025-8-20T14:13:29Z</time></trkpt>
<trkpt lat="46.16422" lon="7.94901"><ele></ele><time>2025-8-20T14:13:32Z</time></trkpt>
<trkpt lat="46.16419" lon="7.94907"><ele></ele><time>2025-8-20T14:13:35Z</time></trkpt>
<trkpt lat="46.16416" lon="7.94913"><ele></ele><time>2025-8-20T14:13:38Z</time></trkpt>
<trkpt lat="46.16413" lon="7.94925"><ele></ele><time>2025-8-20T14:13:41Z</time></trkpt>
<trkpt lat="46.1641" lon="7.94939"><ele></ele><time>2025-8-20T14:13:44Z</time></trkpt>
<trkpt lat="46.16407" lon="7.94958"><ele></ele><time>2025-8-20T14:13:47Z</time></trkpt>
<trkpt lat="46.16406" lon="7.94979"><ele></ele><time>2025-8-20T14:13:50Z</time></trkpt>
<trkpt lat="46.16405" lon="7.95002"><ele></ele><time>2025-8-20T14:13:53Z</time></trkpt>
<trkpt lat="46.16404" lon="7.95011"><ele></ele><time>2025-8-20T14:13:56Z</time></trkpt>
<trkpt lat="46.16404" lon="7.95019"><ele></ele><time>2025-8-20T14:13:59Z</time></trkpt>
<trkpt lat="46.16404" lon="7.95025"><ele></ele><time>2025-8-20T14:14:2Z</time></trkpt>
<trkpt lat="46.16401" lon="7.9503"><ele></ele><time>2025-8-20T14:14:5Z</time></trkpt>
<trkpt lat="46.16399" lon="7.95031"><ele></ele><time>2025-8-20T14:14:8Z</time></trkpt>
<trkpt lat="46.16396" lon="7.95024"><ele></ele><time>2025-8-20T14:14:11Z</time></trkpt>
<trkpt lat="46.16397" lon="7.95017"><ele></ele><time>2025-8-20T14:14:14Z</time></trkpt>
<trkpt lat="46.16398" lon="7.95001"><ele></ele><time>2025-8-20T14:14:17Z</time></trkpt>
<trkpt lat="46.16397" lon="7.94995"><ele></ele><time>2025-8-20T14:14:20Z</time></trkpt>
<trkpt lat="46.16396" lon="7.94982"><ele></ele><time>2025-8-20T14:14:23Z</time></trkpt>
<trkpt lat="46.16395" lon="7.94968"><ele></ele><time>2025-8-20T14:14:26Z</time></trkpt>
<trkpt lat="46.16394" lon="7.94953"><ele></ele><time>2025-8-20T14:14:29Z</time></trkpt>
<trkpt lat="46.16393" lon="7.94946"><ele></ele><time>2025-8-20T14:14:32Z</time></trkpt>
<trkpt lat="46.16393" lon="7.94931"><ele></ele><time>2025-8-20T14:14:35Z</time></trkpt>
<trkpt lat="46.16393" lon="7.94924"><ele></ele><time>2025-8-20T14:14:38Z</time></trkpt>
<trkpt lat="46.16393" lon="7.94917"><ele></ele><time>2025-8-20T14:14:41Z</time></trkpt>
<trkpt lat="46.16394" lon="7.9489"><ele></ele><time>2025-8-20T14:14:44Z</time></trkpt>
<trkpt lat="46.16394" lon="7.94883"><ele></ele><time>2025-8-20T14:14:47Z</time></trkpt>
<trkpt lat="46.16394" lon="7.94868"><ele></ele><time>2025-8-20T14:14:50Z</time></trkpt>
<trkpt lat="46.16394" lon="7.94861"><ele></ele><time>2025-8-20T14:14:53Z</time></trkpt>
<trkpt lat="46.16394" lon="7.94854"><ele></ele><time>2025-8-20T14:14:56Z</time></trkpt>
<trkpt lat="46.16393" lon="7.94848"><ele></ele><time>2025-8-20T14:14:59Z</time></trkpt>
<trkpt lat="46.16393" lon="7.94841"><ele></ele><time>2025-8-20T14:15:2Z</time></trkpt>
<trkpt lat="46.16393" lon="7.9483"><ele></ele><time>2025-8-20T14:15:5Z</time></trkpt>
<trkpt lat="46.16395" lon="7.94825"><ele></ele><time>2025-8-20T14:15:8Z</time></trkpt>
<trkpt lat="46.16399" lon="7.94812"><ele></ele><time>2025-8-20T14:15:11Z</time></trkpt>
<trkpt lat="46.16396" lon="7.94808"><ele></ele><time>2025-8-20T14:15:14Z</time></trkpt>
<trkpt lat="46.16392" lon="7.94807"><ele></ele><time>2025-8-20T14:15:17Z</time></trkpt>
<trkpt lat="46.1639" lon="7.94809"><ele></ele><time>2025-8-20T14:15:20Z</time></trkpt>
<trkpt lat="46.16387" lon="7.94813"><ele></ele><time>2025-8-20T14:15:23Z</time></trkpt>
<trkpt lat="46.16385" lon="7.94825"><ele></ele><time>2025-8-20T14:15:26Z</time></trkpt>
<trkpt lat="46.16382" lon="7.94839"><ele></ele><time>2025-8-20T14:15:29Z</time></trkpt>
<trkpt lat="46.16378" lon="7.94858"><ele></ele><time>2025-8-20T14:15:32Z</time></trkpt>
<trkpt lat="46.16375" lon="7.94869"><ele></ele><time>2025-8-20T14:15:35Z</time></trkpt>
<trkpt lat="46.16372" lon="7.94881"><ele></ele><time>2025-8-20T14:15:38Z</time></trkpt>
<trkpt lat="46.16369" lon="7.94891"><ele></ele><time>2025-8-20T14:15:41Z</time></trkpt>
<trkpt lat="46.16367" lon="7.94901"><ele></ele><time>2025-8-20T14:15:44Z</time></trkpt>
<trkpt lat="46.16366" lon="7.94909"><ele></ele><time>2025-8-20T14:15:47Z</time></trkpt>
<trkpt lat="46.16363" lon="7.94915"><ele></ele><time>2025-8-20T14:15:50Z</time></trkpt>
<trkpt lat="46.16359" lon="7.94917"><ele></ele><time>2025-8-20T14:15:53Z</time></trkpt>
<trkpt lat="46.16355" lon="7.94911"><ele></ele><time>2025-8-20T14:15:56Z</time></trkpt>
<trkpt lat="46.16354" lon="7.94901"><ele></ele><time>2025-8-20T14:15:59Z</time></trkpt>
<trkpt lat="46.16354" lon="7.94894"><ele></ele><time>2025-8-20T14:16:2Z</time></trkpt>
<trkpt lat="46.16353" lon="7.94887"><ele></ele><time>2025-8-20T14:16:5Z</time></trkpt>
<trkpt lat="46.1635" lon="7.94869"><ele></ele><time>2025-8-20T14:16:8Z</time></trkpt>
<trkpt lat="46.16345" lon="7.94849"><ele></ele><time>2025-8-20T14:16:11Z</time></trkpt>
<trkpt lat="46.16341" lon="7.94839"><ele></ele><time>2025-8-20T14:16:14Z</time></trkpt>
<trkpt lat="46.16338" lon="7.94828"><ele></ele><time>2025-8-20T14:16:17Z</time></trkpt>
<trkpt lat="46.16335" lon="7.94817"><ele></ele><time>2025-8-20T14:16:20Z</time></trkpt>
<trkpt lat="46.1633" lon="7.94795"><ele></ele><time>2025-8-20T14:16:23Z</time></trkpt>
<trkpt lat="46.1633" lon="7.94783"><ele></ele><time>2025-8-20T14:16:26Z</time></trkpt>
<trkpt lat="46.1633" lon="7.94771"><ele></ele><time>2025-8-20T14:16:29Z</time></trkpt>
<trkpt lat="46.16329" lon="7.94759"><ele></ele><time>2025-8-20T14:16:32Z</time></trkpt>
<trkpt lat="46.16325" lon="7.94748"><ele></ele><time>2025-8-20T14:16:35Z</time></trkpt>
<trkpt lat="46.16321" lon="7.94739"><ele></ele><time>2025-8-20T14:16:38Z</time></trkpt>
<trkpt lat="46.16319" lon="7.9473"><ele></ele><time>2025-8-20T14:16:41Z</time></trkpt>
<trkpt lat="46.16315" lon="7.94713"><ele></ele><time>2025-8-20T14:16:44Z</time></trkpt>
<trkpt lat="46.1631" lon="7.94696"><ele></ele><time>2025-8-20T14:16:47Z</time></trkpt>
<trkpt lat="46.1631" lon="7.94688"><ele></ele><time>2025-8-20T14:16:50Z</time></trkpt>
<trkpt lat="46.16311" lon="7.9468"><ele></ele><time>2025-8-20T14:16:53Z</time></trkpt>
<trkpt lat="46.16314" lon="7.94672"><ele></ele><time>2025-8-20T14:16:56Z</time></trkpt>
<trkpt lat="46.16317" lon="7.94664"><ele></ele><time>2025-8-20T14:16:59Z</time></trkpt>
<trkpt lat="46.16322" lon="7.94648"><ele></ele><time>2025-8-20T14:17:2Z</time></trkpt>
<trkpt lat="46.16328" lon="7.9463"><ele></ele><time>2025-8-20T14:17:5Z</time></trkpt>
<trkpt lat="46.16331" lon="7.9462"><ele></ele><time>2025-8-20T14:17:8Z</time></trkpt>
<trkpt lat="46.16333" lon="7.9461"><ele></ele><time>2025-8-20T14:17:11Z</time></trkpt>
<trkpt lat="46.16333" lon="7.946"><ele></ele><time>2025-8-20T14:17:14Z</time></trkpt>
<trkpt lat="46.16333" lon="7.94589"><ele></ele><time>2025-8-20T14:17:17Z</time></trkpt>
<trkpt lat="46.16332" lon="7.9458"><ele></ele><time>2025-8-20T14:17:20Z</time></trkpt>
<trkpt lat="46.16331" lon="7.94559"><ele></ele><time>2025-8-20T14:17:23Z</time></trkpt>
<trkpt lat="46.16329" lon="7.94549"><ele></ele><time>2025-8-20T14:17:26Z</time></trkpt>
<trkpt lat="46.16325" lon="7.94541"><ele></ele><time>2025-8-20T14:17:29Z</time></trkpt>
<trkpt lat="46.16321" lon="7.94537"><ele></ele><time>2025-8-20T14:17:32Z</time></trkpt>
<trkpt lat="46.16315" lon="7.94536"><ele></ele><time>2025-8-20T14:17:35Z</time></trkpt>
<trkpt lat="46.1631" lon="7.94537"><ele></ele><time>2025-8-20T14:17:38Z</time></trkpt>
<trkpt lat="46.16305" lon="7.94541"><ele></ele><time>2025-8-20T14:17:41Z</time></trkpt>
<trkpt lat="46.16301" lon="7.94546"><ele></ele><time>2025-8-20T14:17:44Z</time></trkpt>
<trkpt lat="46.16297" lon="7.94551"><ele></ele><time>2025-8-20T14:17:47Z</time></trkpt>
<trkpt lat="46.16294" lon="7.94556"><ele></ele><time>2025-8-20T14:17:50Z</time></trkpt>
<trkpt lat="46.16291" lon="7.94561"><ele></ele><time>2025-8-20T14:17:53Z</time></trkpt>
<trkpt lat="46.16288" lon="7.94565"><ele></ele><time>2025-8-20T14:17:56Z</time></trkpt>
<trkpt lat="46.16285" lon="7.94572"><ele></ele><time>2025-8-20T14:17:59Z</time></trkpt>
<trkpt lat="46.16284" lon="7.94573"><ele></ele><time>2025-8-20T14:18:2Z</time></trkpt>
<trkpt lat="46.16285" lon="7.94573"><ele></ele><time>2025-8-20T14:18:5Z</time></trkpt>
<trkpt lat="46.16285" lon="7.94573"><ele></ele><time>2025-8-20T14:18:8Z</time></trkpt>
<trkpt lat="46.16283" lon="7.94573"><ele></ele><time>2025-8-20T14:18:11Z</time></trkpt>
<trkpt lat="46.1628" lon="7.94572"><ele></ele><time>2025-8-20T14:18:14Z</time></trkpt>
<trkpt lat="46.1628" lon="7.94573"><ele></ele><time>2025-8-20T14:18:17Z</time></trkpt>
<trkpt lat="46.16279" lon="7.94575"><ele></ele><time>2025-8-20T14:18:20Z</time></trkpt>
<trkpt lat="46.1628" lon="7.94575"><ele></ele><time>2025-8-20T14:18:23Z</time></trkpt>
<trkpt lat="46.1628" lon="7.94575"><ele></ele><time>2025-8-20T14:18:26Z</time></trkpt>
<trkpt lat="46.16276" lon="7.94582"><ele></ele><time>2025-8-20T14:18:29Z</time></trkpt>
<trkpt lat="46.16269" lon="7.9459"><ele></ele><time>2025-8-20T14:18:32Z</time></trkpt>
<trkpt lat="46.16265" lon="7.94597"><ele></ele><time>2025-8-20T14:18:35Z</time></trkpt>
<trkpt lat="46.16265" lon="7.94597"><ele></ele><time>2025-8-20T14:18:38Z</time></trkpt>
<trkpt lat="46.16265" lon="7.94597"><ele></ele><time>2025-8-20T14:18:41Z</time></trkpt>
<trkpt lat="46.16265" lon="7.94597"><ele></ele><time>2025-8-20T14:18:44Z</time></trkpt>
<trkpt lat="46.16263" lon="7.94599"><ele></ele><time>2025-8-20T14:18:47Z</time></trkpt>
<trkpt lat="46.16265" lon="7.94601"><ele></ele><time>2025-8-20T14:18:50Z</time></trkpt>
<trkpt lat="46.16263" lon="7.94602"><ele></ele><time>2025-8-20T14:18:53Z</time></trkpt>
<trkpt lat="46.16254" lon="7.94609"><ele></ele><time>2025-8-20T14:18:56Z</time></trkpt>
<trkpt lat="46.16253" lon="7.94613"><ele></ele><time>2025-8-20T14:18:59Z</time></trkpt>
<trkpt lat="46.16248" lon="7.94626"><ele></ele><time>2025-8-20T14:19:2Z</time></trkpt>
<trkpt lat="46.16246" lon="7.94629"><ele></ele><time>2025-8-20T14:19:5Z</time></trkpt>
<trkpt lat="46.16243" lon="7.9463"><ele></ele><time>2025-8-20T14:19:8Z</time></trkpt>
<trkpt lat="46.16236" lon="7.94626"><ele></ele><time>2025-8-20T14:19:11Z</time></trkpt>
<trkpt lat="46.16234" lon="7.94615"><ele></ele><time>2025-8-20T14:19:14Z</time></trkpt>
<trkpt lat="46.16235" lon="7.94608"><ele></ele><time>2025-8-20T14:19:17Z</time></trkpt>
<trkpt lat="46.16237" lon="7.94593"><ele></ele><time>2025-8-20T14:19:20Z</time></trkpt>
<trkpt lat="46.1623" lon="7.9458"><ele></ele><time>2025-8-20T14:19:23Z</time></trkpt>
<trkpt lat="46.16219" lon="7.94579"><ele></ele><time>2025-8-20T14:19:26Z</time></trkpt>
<trkpt lat="46.16212" lon="7.94578"><ele></ele><time>2025-8-20T14:19:29Z</time></trkpt>
<trkpt lat="46.16207" lon="7.94575"><ele></ele><time>2025-8-20T14:19:32Z</time></trkpt>
<trkpt lat="46.16203" lon="7.94572"><ele></ele><time>2025-8-20T14:19:35Z</time></trkpt>
<trkpt lat="46.162" lon="7.94569"><ele></ele><time>2025-8-20T14:19:38Z</time></trkpt>
<trkpt lat="46.162" lon="7.94565"><ele></ele><time>2025-8-20T14:19:41Z</time></trkpt>
<trkpt lat="46.16201" lon="7.94555"><ele></ele><time>2025-8-20T14:19:44Z</time></trkpt>
<trkpt lat="46.16205" lon="7.94533"><ele></ele><time>2025-8-20T14:19:47Z</time></trkpt>
<trkpt lat="46.16207" lon="7.94526"><ele></ele><time>2025-8-20T14:19:50Z</time></trkpt>
<trkpt lat="46.16211" lon="7.94519"><ele></ele><time>2025-8-20T14:19:53Z</time></trkpt>
<trkpt lat="46.16223" lon="7.945"><ele></ele><time>2025-8-20T14:19:56Z</time></trkpt>
<trkpt lat="46.16228" lon="7.94486"><ele></ele><time>2025-8-20T14:19:59Z</time></trkpt>
<trkpt lat="46.16228" lon="7.94469"><ele></ele><time>2025-8-20T14:20:2Z</time></trkpt>
<trkpt lat="46.16227" lon="7.9446"><ele></ele><time>2025-8-20T14:20:5Z</time></trkpt>
<trkpt lat="46.16227" lon="7.94452"><ele></ele><time>2025-8-20T14:20:8Z</time></trkpt>
<trkpt lat="46.16227" lon="7.94445"><ele></ele><time>2025-8-20T14:20:11Z</time></trkpt>
<trkpt lat="46.16231" lon="7.94429"><ele></ele><time>2025-8-20T14:20:14Z</time></trkpt>
<trkpt lat="46.16233" lon="7.9442"><ele></ele><time>2025-8-20T14:20:17Z</time></trkpt>
<trkpt lat="46.16235" lon="7.94404"><ele></ele><time>2025-8-20T14:20:20Z</time></trkpt>
<trkpt lat="46.16237" lon="7.9439"><ele></ele><time>2025-8-20T14:20:23Z</time></trkpt>
<trkpt lat="46.16242" lon="7.94382"><ele></ele><time>2025-8-20T14:20:26Z</time></trkpt>
<trkpt lat="46.16246" lon="7.94381"><ele></ele><time>2025-8-20T14:20:29Z</time></trkpt>
<trkpt lat="46.16251" lon="7.94381"><ele></ele><time>2025-8-20T14:20:32Z</time></trkpt>
<trkpt lat="46.16261" lon="7.94385"><ele></ele><time>2025-8-20T14:20:35Z</time></trkpt>
<trkpt lat="46.16273" lon="7.94379"><ele></ele><time>2025-8-20T14:20:38Z</time></trkpt>
<trkpt lat="46.16277" lon="7.94373"><ele></ele><time>2025-8-20T14:20:41Z</time></trkpt>
<trkpt lat="46.1628" lon="7.94365"><ele></ele><time>2025-8-20T14:20:44Z</time></trkpt>
<trkpt lat="46.16282" lon="7.94357"><ele></ele><time>2025-8-20T14:20:47Z</time></trkpt>
<trkpt lat="46.16283" lon="7.94349"><ele></ele><time>2025-8-20T14:20:50Z</time></trkpt>
<trkpt lat="46.16282" lon="7.94334"><ele></ele><time>2025-8-20T14:20:53Z</time></trkpt>
<trkpt lat="46.16282" lon="7.94323"><ele></ele><time>2025-8-20T14:20:56Z</time></trkpt>
<trkpt lat="46.16278" lon="7.9431"><ele></ele><time>2025-8-20T14:20:59Z</time></trkpt>
<trkpt lat="46.16275" lon="7.94305"><ele></ele><time>2025-8-20T14:21:2Z</time></trkpt>
<trkpt lat="46.16275" lon="7.94303"><ele></ele><time>2025-8-20T14:21:5Z</time></trkpt>
<trkpt lat="46.16276" lon="7.943"><ele></ele><time>2025-8-20T14:21:8Z</time></trkpt>
<trkpt lat="46.16275" lon="7.94299"><ele></ele><time>2025-8-20T14:21:11Z</time></trkpt>
<trkpt lat="46.16275" lon="7.94299"><ele></ele><time>2025-8-20T14:21:14Z</time></trkpt>
<trkpt lat="46.16274" lon="7.94299"><ele></ele><time>2025-8-20T14:21:17Z</time></trkpt>
<trkpt lat="46.16274" lon="7.94297"><ele></ele><time>2025-8-20T14:21:20Z</time></trkpt>
<trkpt lat="46.16271" lon="7.94288"><ele></ele><time>2025-8-20T14:21:23Z</time></trkpt>
<trkpt lat="46.16266" lon="7.94275"><ele></ele><time>2025-8-20T14:21:26Z</time></trkpt>
<trkpt lat="46.16263" lon="7.94267"><ele></ele><time>2025-8-20T14:21:29Z</time></trkpt>
<trkpt lat="46.16259" lon="7.94261"><ele></ele><time>2025-8-20T14:21:32Z</time></trkpt>
<trkpt lat="46.16258" lon="7.94261"><ele></ele><time>2025-8-20T14:21:35Z</time></trkpt>
<trkpt lat="46.16259" lon="7.9426"><ele></ele><time>2025-8-20T14:21:38Z</time></trkpt>
<trkpt lat="46.16259" lon="7.9426"><ele></ele><time>2025-8-20T14:21:41Z</time></trkpt>
<trkpt lat="46.16259" lon="7.9426"><ele></ele><time>2025-8-20T14:21:44Z</time></trkpt>
<trkpt lat="46.16259" lon="7.9426"><ele></ele><time>2025-8-20T14:21:47Z</time></trkpt>
<trkpt lat="46.16259" lon="7.9426"><ele></ele><time>2025-8-20T14:21:50Z</time></trkpt>
<trkpt lat="46.16259" lon="7.9426"><ele></ele><time>2025-8-20T14:21:53Z</time></trkpt>
<trkpt lat="46.16259" lon="7.9426"><ele></ele><time>2025-8-20T14:21:56Z</time></trkpt>
<trkpt lat="46.16257" lon="7.94259"><ele></ele><time>2025-8-20T14:21:59Z</time></trkpt>
<trkpt lat="46.16254" lon="7.94241"><ele></ele><time>2025-8-20T14:22:2Z</time></trkpt>
<trkpt lat="46.16253" lon="7.94234"><ele></ele><time>2025-8-20T14:22:5Z</time></trkpt>
<trkpt lat="46.16251" lon="7.9421"><ele></ele><time>2025-8-20T14:22:8Z</time></trkpt>
<trkpt lat="46.16252" lon="7.94195"><ele></ele><time>2025-8-20T14:22:11Z</time></trkpt>
<trkpt lat="46.16254" lon="7.9418"><ele></ele><time>2025-8-20T14:22:14Z</time></trkpt>
<trkpt lat="46.16258" lon="7.94166"><ele></ele><time>2025-8-20T14:22:17Z</time></trkpt>
<trkpt lat="46.1626" lon="7.94158"><ele></ele><time>2025-8-20T14:22:20Z</time></trkpt>
<trkpt lat="46.16264" lon="7.94144"><ele></ele><time>2025-8-20T14:22:23Z</time></trkpt>
<trkpt lat="46.1627" lon="7.94132"><ele></ele><time>2025-8-20T14:22:26Z</time></trkpt>
<trkpt lat="46.16272" lon="7.94126"><ele></ele><time>2025-8-20T14:22:29Z</time></trkpt>
<trkpt lat="46.16278" lon="7.94115"><ele></ele><time>2025-8-20T14:22:32Z</time></trkpt>
<trkpt lat="46.16282" lon="7.94111"><ele></ele><time>2025-8-20T14:22:35Z</time></trkpt>
<trkpt lat="46.16285" lon="7.94107"><ele></ele><time>2025-8-20T14:22:38Z</time></trkpt>
<trkpt lat="46.16293" lon="7.94101"><ele></ele><time>2025-8-20T14:22:41Z</time></trkpt>
<trkpt lat="46.16297" lon="7.94098"><ele></ele><time>2025-8-20T14:22:44Z</time></trkpt>
<trkpt lat="46.16301" lon="7.94095"><ele></ele><time>2025-8-20T14:22:47Z</time></trkpt>
<trkpt lat="46.16315" lon="7.94083"><ele></ele><time>2025-8-20T14:22:50Z</time></trkpt>
<trkpt lat="46.16326" lon="7.94073"><ele></ele><time>2025-8-20T14:22:53Z</time></trkpt>
<trkpt lat="46.16331" lon="7.94067"><ele></ele><time>2025-8-20T14:22:56Z</time></trkpt>
<trkpt lat="46.1634" lon="7.94052"><ele></ele><time>2025-8-20T14:22:59Z</time></trkpt>
<trkpt lat="46.16347" lon="7.94039"><ele></ele><time>2025-8-20T14:23:2Z</time></trkpt>
<trkpt lat="46.1635" lon="7.94032"><ele></ele><time>2025-8-20T14:23:5Z</time></trkpt>
<trkpt lat="46.16367" lon="7.94006"><ele></ele><time>2025-8-20T14:23:8Z</time></trkpt>
<trkpt lat="46.16372" lon="7.94"><ele></ele><time>2025-8-20T14:23:11Z</time></trkpt>
<trkpt lat="46.16378" lon="7.93995"><ele></ele><time>2025-8-20T14:23:14Z</time></trkpt>
<trkpt lat="46.16384" lon="7.9399"><ele></ele><time>2025-8-20T14:23:17Z</time></trkpt>
<trkpt lat="46.16391" lon="7.93986"><ele></ele><time>2025-8-20T14:23:20Z</time></trkpt>
<trkpt lat="46.16404" lon="7.93977"><ele></ele><time>2025-8-20T14:23:23Z</time></trkpt>
<trkpt lat="46.1641" lon="7.93971"><ele></ele><time>2025-8-20T14:23:26Z</time></trkpt>
<trkpt lat="46.16415" lon="7.93963"><ele></ele><time>2025-8-20T14:23:29Z</time></trkpt>
<trkpt lat="46.16418" lon="7.93955"><ele></ele><time>2025-8-20T14:23:32Z</time></trkpt>
<trkpt lat="46.16421" lon="7.93947"><ele></ele><time>2025-8-20T14:23:35Z</time></trkpt>
<trkpt lat="46.16426" lon="7.93935"><ele></ele><time>2025-8-20T14:23:38Z</time></trkpt>
<trkpt lat="46.16428" lon="7.93931"><ele></ele><time>2025-8-20T14:23:41Z</time></trkpt>
<trkpt lat="46.1643" lon="7.93926"><ele></ele><time>2025-8-20T14:23:44Z</time></trkpt>
<trkpt lat="46.1643" lon="7.93926"><ele></ele><time>2025-8-20T14:23:47Z</time></trkpt>
<trkpt lat="46.1643" lon="7.93926"><ele></ele><time>2025-8-20T14:23:50Z</time></trkpt>
<trkpt lat="46.1643" lon="7.93926"><ele></ele><time>2025-8-20T14:23:53Z</time></trkpt>
<trkpt lat="46.1643" lon="7.93926"><ele></ele><time>2025-8-20T14:23:56Z</time></trkpt>
<trkpt lat="46.1643" lon="7.93926"><ele></ele><time>2025-8-20T14:23:59Z</time></trkpt>
<trkpt lat="46.16432" lon="7.93922"><ele></ele><time>2025-8-20T14:24:2Z</time></trkpt>
<trkpt lat="46.16441" lon="7.93902"><ele></ele><time>2025-8-20T14:24:5Z</time></trkpt>
<trkpt lat="46.1645" lon="7.93881"><ele></ele><time>2025-8-20T14:24:8Z</time></trkpt>
<trkpt lat="46.16452" lon="7.93876"><ele></ele><time>2025-8-20T14:24:11Z</time></trkpt>
<trkpt lat="46.16463" lon="7.93853"><ele></ele><time>2025-8-20T14:24:14Z</time></trkpt>
<trkpt lat="46.16466" lon="7.9385"><ele></ele><time>2025-8-20T14:24:17Z</time></trkpt>
<trkpt lat="46.16476" lon="7.93839"><ele></ele><time>2025-8-20T14:24:20Z</time></trkpt>
<trkpt lat="46.1648" lon="7.93836"><ele></ele><time>2025-8-20T14:24:23Z</time></trkpt>
<trkpt lat="46.16489" lon="7.93832"><ele></ele><time>2025-8-20T14:24:26Z</time></trkpt>
<trkpt lat="46.16499" lon="7.93827"><ele></ele><time>2025-8-20T14:24:29Z</time></trkpt>
<trkpt lat="46.16509" lon="7.93824"><ele></ele><time>2025-8-20T14:24:32Z</time></trkpt>
<trkpt lat="46.16515" lon="7.93822"><ele></ele><time>2025-8-20T14:24:35Z</time></trkpt>
<trkpt lat="46.16521" lon="7.93821"><ele></ele><time>2025-8-20T14:24:38Z</time></trkpt>
<trkpt lat="46.16527" lon="7.93818"><ele></ele><time>2025-8-20T14:24:41Z</time></trkpt>
<trkpt lat="46.1654" lon="7.93812"><ele></ele><time>2025-8-20T14:24:44Z</time></trkpt>
<trkpt lat="46.16551" lon="7.93805"><ele></ele><time>2025-8-20T14:24:47Z</time></trkpt>
<trkpt lat="46.16557" lon="7.93802"><ele></ele><time>2025-8-20T14:24:50Z</time></trkpt>
<trkpt lat="46.16562" lon="7.93797"><ele></ele><time>2025-8-20T14:24:53Z</time></trkpt>
<trkpt lat="46.16568" lon="7.93792"><ele></ele><time>2025-8-20T14:24:56Z</time></trkpt>
<trkpt lat="46.16587" lon="7.93775"><ele></ele><time>2025-8-20T14:24:59Z</time></trkpt>
<trkpt lat="46.16601" lon="7.93763"><ele></ele><time>2025-8-20T14:25:2Z</time></trkpt>
<trkpt lat="46.16616" lon="7.9375"><ele></ele><time>2025-8-20T14:25:5Z</time></trkpt>
<trkpt lat="46.16623" lon="7.9374"><ele></ele><time>2025-8-20T14:25:8Z</time></trkpt>
<trkpt lat="46.1663" lon="7.9373"><ele></ele><time>2025-8-20T14:25:11Z</time></trkpt>
<trkpt lat="46.16645" lon="7.9371"><ele></ele><time>2025-8-20T14:25:14Z</time></trkpt>
<trkpt lat="46.16652" lon="7.93701"><ele></ele><time>2025-8-20T14:25:17Z</time></trkpt>
<trkpt lat="46.16665" lon="7.93683"><ele></ele><time>2025-8-20T14:25:20Z</time></trkpt>
<trkpt lat="46.16671" lon="7.93674"><ele></ele><time>2025-8-20T14:25:23Z</time></trkpt>
<trkpt lat="46.16682" lon="7.93651"><ele></ele><time>2025-8-20T14:25:26Z</time></trkpt>
<trkpt lat="46.16688" lon="7.93638"><ele></ele><time>2025-8-20T14:25:29Z</time></trkpt>
<trkpt lat="46.16694" lon="7.93627"><ele></ele><time>2025-8-20T14:25:32Z</time></trkpt>
<trkpt lat="46.16705" lon="7.93603"><ele></ele><time>2025-8-20T14:25:35Z</time></trkpt>
<trkpt lat="46.1671" lon="7.93592"><ele></ele><time>2025-8-20T14:25:38Z</time></trkpt>
<trkpt lat="46.16716" lon="7.93581"><ele></ele><time>2025-8-20T14:25:41Z</time></trkpt>
<trkpt lat="46.16719" lon="7.93571"><ele></ele><time>2025-8-20T14:25:44Z</time></trkpt>
<trkpt lat="46.16723" lon="7.9356"><ele></ele><time>2025-8-20T14:25:47Z</time></trkpt>
<trkpt lat="46.16727" lon="7.93544"><ele></ele><time>2025-8-20T14:25:50Z</time></trkpt>
<trkpt lat="46.16729" lon="7.93538"><ele></ele><time>2025-8-20T14:25:53Z</time></trkpt>
<trkpt lat="46.16732" lon="7.93529"><ele></ele><time>2025-8-20T14:25:56Z</time></trkpt>
<trkpt lat="46.16735" lon="7.93524"><ele></ele><time>2025-8-20T14:25:59Z</time></trkpt>
<trkpt lat="46.16739" lon="7.9352"><ele></ele><time>2025-8-20T14:26:2Z</time></trkpt>
<trkpt lat="46.1675" lon="7.93504"><ele></ele><time>2025-8-20T14:26:5Z</time></trkpt>
<trkpt lat="46.16753" lon="7.93496"><ele></ele><time>2025-8-20T14:26:8Z</time></trkpt>
<trkpt lat="46.16756" lon="7.93489"><ele></ele><time>2025-8-20T14:26:11Z</time></trkpt>
<trkpt lat="46.16767" lon="7.93465"><ele></ele><time>2025-8-20T14:26:14Z</time></trkpt>
<trkpt lat="46.1677" lon="7.93458"><ele></ele><time>2025-8-20T14:26:17Z</time></trkpt>
<trkpt lat="46.16773" lon="7.93451"><ele></ele><time>2025-8-20T14:26:20Z</time></trkpt>
<trkpt lat="46.1678" lon="7.93434"><ele></ele><time>2025-8-20T14:26:23Z</time></trkpt>
<trkpt lat="46.16788" lon="7.93419"><ele></ele><time>2025-8-20T14:26:26Z</time></trkpt>
<trkpt lat="46.168" lon="7.93397"><ele></ele><time>2025-8-20T14:26:29Z</time></trkpt>
<trkpt lat="46.16813" lon="7.93376"><ele></ele><time>2025-8-20T14:26:32Z</time></trkpt>
<trkpt lat="46.16822" lon="7.93362"><ele></ele><time>2025-8-20T14:26:35Z</time></trkpt>
<trkpt lat="46.16827" lon="7.93355"><ele></ele><time>2025-8-20T14:26:38Z</time></trkpt>
<trkpt lat="46.16836" lon="7.93342"><ele></ele><time>2025-8-20T14:26:41Z</time></trkpt>
<trkpt lat="46.16841" lon="7.93337"><ele></ele><time>2025-8-20T14:26:44Z</time></trkpt>
<trkpt lat="46.16851" lon="7.9333"><ele></ele><time>2025-8-20T14:26:47Z</time></trkpt>
<trkpt lat="46.16856" lon="7.93326"><ele></ele><time>2025-8-20T14:26:50Z</time></trkpt>
<trkpt lat="46.16866" lon="7.93321"><ele></ele><time>2025-8-20T14:26:53Z</time></trkpt>
<trkpt lat="46.16881" lon="7.93318"><ele></ele><time>2025-8-20T14:26:56Z</time></trkpt>
<trkpt lat="46.1688" lon="7.93306"><ele></ele><time>2025-8-20T14:26:59Z</time></trkpt>
<trkpt lat="46.1687" lon="7.93302"><ele></ele><time>2025-8-20T14:27:2Z</time></trkpt>
<trkpt lat="46.1686" lon="7.93299"><ele></ele><time>2025-8-20T14:27:5Z</time></trkpt>
<trkpt lat="46.16845" lon="7.93299"><ele></ele><time>2025-8-20T14:27:8Z</time></trkpt>
<trkpt lat="46.16837" lon="7.933"><ele></ele><time>2025-8-20T14:27:11Z</time></trkpt>
<trkpt lat="46.16821" lon="7.93304"><ele></ele><time>2025-8-20T14:27:14Z</time></trkpt>
<trkpt lat="46.16806" lon="7.93308"><ele></ele><time>2025-8-20T14:27:17Z</time></trkpt>
<trkpt lat="46.16792" lon="7.93312"><ele></ele><time>2025-8-20T14:27:20Z</time></trkpt>
<trkpt lat="46.16779" lon="7.93316"><ele></ele><time>2025-8-20T14:27:23Z</time></trkpt>
<trkpt lat="46.16772" lon="7.93318"><ele></ele><time>2025-8-20T14:27:26Z</time></trkpt>
<trkpt lat="46.16759" lon="7.93322"><ele></ele><time>2025-8-20T14:27:29Z</time></trkpt>
<trkpt lat="46.16754" lon="7.93325"><ele></ele><time>2025-8-20T14:27:32Z</time></trkpt>
<trkpt lat="46.16749" lon="7.93328"><ele></ele><time>2025-8-20T14:27:35Z</time></trkpt>
<trkpt lat="46.16745" lon="7.93333"><ele></ele><time>2025-8-20T14:27:38Z</time></trkpt>
<trkpt lat="46.16734" lon="7.9335"><ele></ele><time>2025-8-20T14:27:41Z</time></trkpt>
<trkpt lat="46.16731" lon="7.93356"><ele></ele><time>2025-8-20T14:27:44Z</time></trkpt>
<trkpt lat="46.16729" lon="7.93361"><ele></ele><time>2025-8-20T14:27:47Z</time></trkpt>
<trkpt lat="46.16723" lon="7.9337"><ele></ele><time>2025-8-20T14:27:50Z</time></trkpt>
<trkpt lat="46.16712" lon="7.93385"><ele></ele><time>2025-8-20T14:27:53Z</time></trkpt>
<trkpt lat="46.16708" lon="7.9339"><ele></ele><time>2025-8-20T14:27:56Z</time></trkpt>
<trkpt lat="46.16702" lon="7.93393"><ele></ele><time>2025-8-20T14:27:59Z</time></trkpt>
<trkpt lat="46.1669" lon="7.93397"><ele></ele><time>2025-8-20T14:28:2Z</time></trkpt>
<trkpt lat="46.16685" lon="7.934"><ele></ele><time>2025-8-20T14:28:5Z</time></trkpt>
<trkpt lat="46.1668" lon="7.93406"><ele></ele><time>2025-8-20T14:28:8Z</time></trkpt>
<trkpt lat="46.16675" lon="7.93413"><ele></ele><time>2025-8-20T14:28:11Z</time></trkpt>
<trkpt lat="46.16671" lon="7.9342"><ele></ele><time>2025-8-20T14:28:14Z</time></trkpt>
<trkpt lat="46.1666" lon="7.93435"><ele></ele><time>2025-8-20T14:28:17Z</time></trkpt>
<trkpt lat="46.1665" lon="7.93451"><ele></ele><time>2025-8-20T14:28:20Z</time></trkpt>
<trkpt lat="46.16641" lon="7.9347"><ele></ele><time>2025-8-20T14:28:23Z</time></trkpt>
<trkpt lat="46.1663" lon="7.93486"><ele></ele><time>2025-8-20T14:28:26Z</time></trkpt>
<trkpt lat="46.1662" lon="7.93501"><ele></ele><time>2025-8-20T14:28:29Z</time></trkpt>
<trkpt lat="46.16602" lon="7.93522"><ele></ele><time>2025-8-20T14:28:32Z</time></trkpt>
<trkpt lat="46.16596" lon="7.93527"><ele></ele><time>2025-8-20T14:28:35Z</time></trkpt>
<trkpt lat="46.16582" lon="7.93531"><ele></ele><time>2025-8-20T14:28:38Z</time></trkpt>
<trkpt lat="46.16557" lon="7.93532"><ele></ele><time>2025-8-20T14:28:41Z</time></trkpt>
<trkpt lat="46.16549" lon="7.93533"><ele></ele><time>2025-8-20T14:28:44Z</time></trkpt>
<trkpt lat="46.16542" lon="7.93535"><ele></ele><time>2025-8-20T14:28:47Z</time></trkpt>
<trkpt lat="46.16535" lon="7.93538"><ele></ele><time>2025-8-20T14:28:50Z</time></trkpt>
<trkpt lat="46.1653" lon="7.9354"><ele></ele><time>2025-8-20T14:28:53Z</time></trkpt>
<trkpt lat="46.16525" lon="7.93543"><ele></ele><time>2025-8-20T14:28:56Z</time></trkpt>
<trkpt lat="46.1652" lon="7.93548"><ele></ele><time>2025-8-20T14:28:59Z</time></trkpt>
<trkpt lat="46.16511" lon="7.93558"><ele></ele><time>2025-8-20T14:29:2Z</time></trkpt>
<trkpt lat="46.16502" lon="7.93568"><ele></ele><time>2025-8-20T14:29:5Z</time></trkpt>
<trkpt lat="46.16498" lon="7.93573"><ele></ele><time>2025-8-20T14:29:8Z</time></trkpt>
<trkpt lat="46.16487" lon="7.93584"><ele></ele><time>2025-8-20T14:29:11Z</time></trkpt>
<trkpt lat="46.16484" lon="7.93587"><ele></ele><time>2025-8-20T14:29:14Z</time></trkpt>
<trkpt lat="46.1647" lon="7.93601"><ele></ele><time>2025-8-20T14:29:17Z</time></trkpt>
<trkpt lat="46.16464" lon="7.93605"><ele></ele><time>2025-8-20T14:29:20Z</time></trkpt>
<trkpt lat="46.16457" lon="7.93609"><ele></ele><time>2025-8-20T14:29:23Z</time></trkpt>
<trkpt lat="46.1645" lon="7.93613"><ele></ele><time>2025-8-20T14:29:26Z</time></trkpt>
<trkpt lat="46.16444" lon="7.93616"><ele></ele><time>2025-8-20T14:29:29Z</time></trkpt>
<trkpt lat="46.1644" lon="7.93615"><ele></ele><time>2025-8-20T14:29:32Z</time></trkpt>
<trkpt lat="46.16438" lon="7.93606"><ele></ele><time>2025-8-20T14:29:35Z</time></trkpt>
<trkpt lat="46.16445" lon="7.93597"><ele></ele><time>2025-8-20T14:29:38Z</time></trkpt>
<trkpt lat="46.16456" lon="7.93582"><ele></ele><time>2025-8-20T14:29:41Z</time></trkpt>
<trkpt lat="46.16461" lon="7.93571"><ele></ele><time>2025-8-20T14:29:44Z</time></trkpt>
<trkpt lat="46.16466" lon="7.9356"><ele></ele><time>2025-8-20T14:29:47Z</time></trkpt>
<trkpt lat="46.1647" lon="7.93549"><ele></ele><time>2025-8-20T14:29:50Z</time></trkpt>
<trkpt lat="46.16474" lon="7.93538"><ele></ele><time>2025-8-20T14:29:53Z</time></trkpt>
<trkpt lat="46.16478" lon="7.9353"><ele></ele><time>2025-8-20T14:29:56Z</time></trkpt>
<trkpt lat="46.16484" lon="7.93522"><ele></ele><time>2025-8-20T14:29:59Z</time></trkpt>
<trkpt lat="46.1649" lon="7.93517"><ele></ele><time>2025-8-20T14:30:2Z</time></trkpt>
<trkpt lat="46.16495" lon="7.93512"><ele></ele><time>2025-8-20T14:30:5Z</time></trkpt>
<trkpt lat="46.16498" lon="7.93504"><ele></ele><time>2025-8-20T14:30:8Z</time></trkpt>
<trkpt lat="46.16496" lon="7.93499"><ele></ele><time>2025-8-20T14:30:11Z</time></trkpt>
<trkpt lat="46.16489" lon="7.93502"><ele></ele><time>2025-8-20T14:30:14Z</time></trkpt>
<trkpt lat="46.16484" lon="7.93506"><ele></ele><time>2025-8-20T14:30:17Z</time></trkpt>
<trkpt lat="46.16479" lon="7.93512"><ele></ele><time>2025-8-20T14:30:20Z</time></trkpt>
<trkpt lat="46.16473" lon="7.93517"><ele></ele><time>2025-8-20T14:30:23Z</time></trkpt>
<trkpt lat="46.16466" lon="7.93522"><ele></ele><time>2025-8-20T14:30:26Z</time></trkpt>
<trkpt lat="46.16459" lon="7.93526"><ele></ele><time>2025-8-20T14:30:29Z</time></trkpt>
<trkpt lat="46.16451" lon="7.9353"><ele></ele><time>2025-8-20T14:30:32Z</time></trkpt>
<trkpt lat="46.16443" lon="7.93534"><ele></ele><time>2025-8-20T14:30:35Z</time></trkpt>
<trkpt lat="46.16434" lon="7.9354"><ele></ele><time>2025-8-20T14:30:38Z</time></trkpt>
<trkpt lat="46.16415" lon="7.93553"><ele></ele><time>2025-8-20T14:30:41Z</time></trkpt>
<trkpt lat="46.16406" lon="7.9356"><ele></ele><time>2025-8-20T14:30:44Z</time></trkpt>
<trkpt lat="46.16391" lon="7.93574"><ele></ele><time>2025-8-20T14:30:47Z</time></trkpt>
<trkpt lat="46.16384" lon="7.93579"><ele></ele><time>2025-8-20T14:30:50Z</time></trkpt>
<trkpt lat="46.16377" lon="7.93582"><ele></ele><time>2025-8-20T14:30:53Z</time></trkpt>
<trkpt lat="46.16369" lon="7.93587"><ele></ele><time>2025-8-20T14:30:56Z</time></trkpt>
<trkpt lat="46.16361" lon="7.93589"><ele></ele><time>2025-8-20T14:30:59Z</time></trkpt>
<trkpt lat="46.16359" lon="7.93589"><ele></ele><time>2025-8-20T14:31:2Z</time></trkpt>
<trkpt lat="46.16351" lon="7.93592"><ele></ele><time>2025-8-20T14:31:5Z</time></trkpt>
<trkpt lat="46.16348" lon="7.93594"><ele></ele><time>2025-8-20T14:31:8Z</time></trkpt>
<trkpt lat="46.16343" lon="7.93595"><ele></ele><time>2025-8-20T14:31:11Z</time></trkpt>
<trkpt lat="46.16339" lon="7.93597"><ele></ele><time>2025-8-20T14:31:14Z</time></trkpt>
<trkpt lat="46.16327" lon="7.93597"><ele></ele><time>2025-8-20T14:31:17Z</time></trkpt>
<trkpt lat="46.16321" lon="7.93596"><ele></ele><time>2025-8-20T14:31:20Z</time></trkpt>
<trkpt lat="46.16308" lon="7.93592"><ele></ele><time>2025-8-20T14:31:23Z</time></trkpt>
<trkpt lat="46.16303" lon="7.9359"><ele></ele><time>2025-8-20T14:31:26Z</time></trkpt>
<trkpt lat="46.16297" lon="7.9359"><ele></ele><time>2025-8-20T14:31:29Z</time></trkpt>
<trkpt lat="46.16292" lon="7.93591"><ele></ele><time>2025-8-20T14:31:32Z</time></trkpt>
<trkpt lat="46.16287" lon="7.93594"><ele></ele><time>2025-8-20T14:31:35Z</time></trkpt>
<trkpt lat="46.16281" lon="7.93597"><ele></ele><time>2025-8-20T14:31:38Z</time></trkpt>
<trkpt lat="46.16275" lon="7.93598"><ele></ele><time>2025-8-20T14:31:41Z</time></trkpt>
<trkpt lat="46.1627" lon="7.936"><ele></ele><time>2025-8-20T14:31:44Z</time></trkpt>
<trkpt lat="46.16266" lon="7.93602"><ele></ele><time>2025-8-20T14:31:47Z</time></trkpt>
<trkpt lat="46.16262" lon="7.93605"><ele></ele><time>2025-8-20T14:31:50Z</time></trkpt>
<trkpt lat="46.16255" lon="7.9361"><ele></ele><time>2025-8-20T14:31:53Z</time></trkpt>
<trkpt lat="46.16255" lon="7.93609"><ele></ele><time>2025-8-20T14:31:56Z</time></trkpt>
<trkpt lat="46.16254" lon="7.9361"><ele></ele><time>2025-8-20T14:31:59Z</time></trkpt>
<trkpt lat="46.16253" lon="7.93611"><ele></ele><time>2025-8-20T14:32:2Z</time></trkpt>
<trkpt lat="46.16253" lon="7.93614"><ele></ele><time>2025-8-20T14:32:5Z</time></trkpt>
<trkpt lat="46.16252" lon="7.93616"><ele></ele><time>2025-8-20T14:32:8Z</time></trkpt>
<trkpt lat="46.16252" lon="7.93615"><ele></ele><time>2025-8-20T14:32:11Z</time></trkpt>
<trkpt lat="46.16251" lon="7.93614"><ele></ele><time>2025-8-20T14:32:14Z</time></trkpt>
<trkpt lat="46.1625" lon="7.93614"><ele></ele><time>2025-8-20T14:32:17Z</time></trkpt>
<trkpt lat="46.16251" lon="7.93615"><ele></ele><time>2025-8-20T14:32:20Z</time></trkpt>
<trkpt lat="46.16251" lon="7.93615"><ele></ele><time>2025-8-20T14:32:23Z</time></trkpt>
<trkpt lat="46.16251" lon="7.93614"><ele></ele><time>2025-8-20T14:32:26Z</time></trkpt>
<trkpt lat="46.16251" lon="7.93617"><ele></ele><time>2025-8-20T14:32:29Z</time></trkpt>
<trkpt lat="46.1625" lon="7.93617"><ele></ele><time>2025-8-20T14:32:32Z</time></trkpt>
<trkpt lat="46.16251" lon="7.93617"><ele></ele><time>2025-8-20T14:32:35Z</time></trkpt>
<trkpt lat="46.16251" lon="7.93617"><ele></ele><time>2025-8-20T14:32:38Z</time></trkpt>
<trkpt lat="46.16251" lon="7.93613"><ele></ele><time>2025-8-20T14:32:41Z</time></trkpt>
<trkpt lat="46.16251" lon="7.93615"><ele></ele><time>2025-8-20T14:32:44Z</time></trkpt>
<trkpt lat="46.16251" lon="7.93615"><ele></ele><time>2025-8-20T14:32:47Z</time></trkpt>
<trkpt lat="46.16251" lon="7.93615"><ele></ele><time>2025-8-20T14:32:50Z</time></trkpt>
<trkpt lat="46.16251" lon="7.93615"><ele></ele><time>2025-8-20T14:32:53Z</time></trkpt>
<trkpt lat="46.16251" lon="7.93615"><ele></ele><time>2025-8-20T14:32:56Z</time></trkpt>
<trkpt lat="46.16252" lon="7.93616"><ele></ele><time>2025-8-20T14:32:59Z</time></trkpt>
<trkpt lat="46.16251" lon="7.93617"><ele></ele><time>2025-8-20T14:33:2Z</time></trkpt>
<trkpt lat="46.1625" lon="7.93617"><ele></ele><time>2025-8-20T14:33:5Z</time></trkpt>
<trkpt lat="46.1625" lon="7.93617"><ele></ele><time>2025-8-20T14:33:8Z</time></trkpt>
<trkpt lat="46.1625" lon="7.93617"><ele></ele><time>2025-8-20T14:33:11Z</time></trkpt>
<trkpt lat="46.1625" lon="7.93617"><ele></ele><time>2025-8-20T14:33:14Z</time></trkpt>
<trkpt lat="46.1625" lon="7.93617"><ele></ele><time>2025-8-20T14:33:17Z</time></trkpt>
<trkpt lat="46.16248" lon="7.93619"><ele></ele><time>2025-8-20T14:33:20Z</time></trkpt>
<trkpt lat="46.16244" lon="7.93625"><ele></ele><time>2025-8-20T14:33:23Z</time></trkpt>
<trkpt lat="46.16243" lon="7.93627"><ele></ele><time>2025-8-20T14:33:26Z</time></trkpt>
<trkpt lat="46.1624" lon="7.93631"><ele></ele><time>2025-8-20T14:33:29Z</time></trkpt>
<trkpt lat="46.16236" lon="7.93635"><ele></ele><time>2025-8-20T14:33:32Z</time></trkpt>
<trkpt lat="46.16234" lon="7.93637"><ele></ele><time>2025-8-20T14:33:35Z</time></trkpt>
<trkpt lat="46.16233" lon="7.93637"><ele></ele><time>2025-8-20T14:33:38Z</time></trkpt>
<trkpt lat="46.16229" lon="7.93642"><ele></ele><time>2025-8-20T14:33:41Z</time></trkpt>
<trkpt lat="46.16227" lon="7.93646"><ele></ele><time>2025-8-20T14:33:44Z</time></trkpt>
<trkpt lat="46.16226" lon="7.93647"><ele></ele><time>2025-8-20T14:33:47Z</time></trkpt>
<trkpt lat="46.16226" lon="7.93648"><ele></ele><time>2025-8-20T14:33:50Z</time></trkpt>
<trkpt lat="46.16222" lon="7.93653"><ele></ele><time>2025-8-20T14:33:53Z</time></trkpt>
<trkpt lat="46.1622" lon="7.93655"><ele></ele><time>2025-8-20T14:33:56Z</time></trkpt>
<trkpt lat="46.16218" lon="7.93658"><ele></ele><time>2025-8-20T14:33:59Z</time></trkpt>
<trkpt lat="46.16217" lon="7.9366"><ele></ele><time>2025-8-20T14:34:2Z</time></trkpt>
<trkpt lat="46.16215" lon="7.93661"><ele></ele><time>2025-8-20T14:34:5Z</time></trkpt>
<trkpt lat="46.16211" lon="7.93666"><ele></ele><time>2025-8-20T14:34:8Z</time></trkpt>
<trkpt lat="46.16206" lon="7.9367"><ele></ele><time>2025-8-20T14:34:11Z</time></trkpt>
<trkpt lat="46.16205" lon="7.93671"><ele></ele><time>2025-8-20T14:34:14Z</time></trkpt>
<trkpt lat="46.16203" lon="7.93673"><ele></ele><time>2025-8-20T14:34:17Z</time></trkpt>
<trkpt lat="46.16202" lon="7.93674"><ele></ele><time>2025-8-20T14:34:20Z</time></trkpt>
<trkpt lat="46.16198" lon="7.93679"><ele></ele><time>2025-8-20T14:34:23Z</time></trkpt>
<trkpt lat="46.16197" lon="7.9368"><ele></ele><time>2025-8-20T14:34:26Z</time></trkpt>
<trkpt lat="46.16196" lon="7.93681"><ele></ele><time>2025-8-20T14:34:29Z</time></trkpt>
<trkpt lat="46.16192" lon="7.93684"><ele></ele><time>2025-8-20T14:34:32Z</time></trkpt>
<trkpt lat="46.16189" lon="7.93689"><ele></ele><time>2025-8-20T14:34:35Z</time></trkpt>
<trkpt lat="46.16188" lon="7.9369"><ele></ele><time>2025-8-20T14:34:38Z</time></trkpt>
<trkpt lat="46.16186" lon="7.93691"><ele></ele><time>2025-8-20T14:34:41Z</time></trkpt>
<trkpt lat="46.16181" lon="7.93698"><ele></ele><time>2025-8-20T14:34:44Z</time></trkpt>
<trkpt lat="46.16179" lon="7.93699"><ele></ele><time>2025-8-20T14:34:47Z</time></trkpt>
<trkpt lat="46.16173" lon="7.93702"><ele></ele><time>2025-8-20T14:34:50Z</time></trkpt>
<trkpt lat="46.16172" lon="7.93702"><ele></ele><time>2025-8-20T14:34:53Z</time></trkpt>
<trkpt lat="46.16172" lon="7.93702"><ele></ele><time>2025-8-20T14:34:56Z</time></trkpt>
<trkpt lat="46.16172" lon="7.93702"><ele></ele><time>2025-8-20T14:34:59Z</time></trkpt>
<trkpt lat="46.16172" lon="7.93702"><ele></ele><time>2025-8-20T14:35:2Z</time></trkpt>
<trkpt lat="46.16172" lon="7.93702"><ele></ele><time>2025-8-20T14:35:5Z</time></trkpt>
<trkpt lat="46.16172" lon="7.93702"><ele></ele><time>2025-8-20T14:35:8Z</time></trkpt>
<trkpt lat="46.16172" lon="7.93703"><ele></ele><time>2025-8-20T14:35:11Z</time></trkpt>
<trkpt lat="46.16169" lon="7.93703"><ele></ele><time>2025-8-20T14:35:14Z</time></trkpt>
<trkpt lat="46.16159" lon="7.93705"><ele></ele><time>2025-8-20T14:35:17Z</time></trkpt>
<trkpt lat="46.16154" lon="7.93705"><ele></ele><time>2025-8-20T14:35:20Z</time></trkpt>
<trkpt lat="46.1615" lon="7.93705"><ele></ele><time>2025-8-20T14:35:23Z</time></trkpt>
<trkpt lat="46.16135" lon="7.93706"><ele></ele><time>2025-8-20T14:35:26Z</time></trkpt>
<trkpt lat="46.16125" lon="7.93708"><ele></ele><time>2025-8-20T14:35:29Z</time></trkpt>
<trkpt lat="46.16105" lon="7.93709"><ele></ele><time>2025-8-20T14:35:32Z</time></trkpt>
<trkpt lat="46.16077" lon="7.93707"><ele></ele><time>2025-8-20T14:35:35Z</time></trkpt>
<trkpt lat="46.16073" lon="7.93708"><ele></ele><time>2025-8-20T14:35:38Z</time></trkpt>
<trkpt lat="46.16066" lon="7.93714"><ele></ele><time>2025-8-20T14:35:41Z</time></trkpt>
<trkpt lat="46.16062" lon="7.93717"><ele></ele><time>2025-8-20T14:35:44Z</time></trkpt>
<trkpt lat="46.16047" lon="7.93733"><ele></ele><time>2025-8-20T14:35:47Z</time></trkpt>
<trkpt lat="46.16041" lon="7.93739"><ele></ele><time>2025-8-20T14:35:50Z</time></trkpt>
<trkpt lat="46.16018" lon="7.93748"><ele></ele><time>2025-8-20T14:35:53Z</time></trkpt>
<trkpt lat="46.16" lon="7.9375"><ele></ele><time>2025-8-20T14:35:56Z</time></trkpt>
<trkpt lat="46.15999" lon="7.93751"><ele></ele><time>2025-8-20T14:35:59Z</time></trkpt>
<trkpt lat="46.15999" lon="7.93751"><ele></ele><time>2025-8-20T14:36:2Z</time></trkpt>
<trkpt lat="46.15999" lon="7.93751"><ele></ele><time>2025-8-20T14:36:5Z</time></trkpt>
<trkpt lat="46.15996" lon="7.93759"><ele></ele><time>2025-8-20T14:36:8Z</time></trkpt>
<trkpt lat="46.15991" lon="7.93769"><ele></ele><time>2025-8-20T14:36:11Z</time></trkpt>
<trkpt lat="46.15986" lon="7.93777"><ele></ele><time>2025-8-20T14:36:14Z</time></trkpt>
<trkpt lat="46.15983" lon="7.93783"><ele></ele><time>2025-8-20T14:36:17Z</time></trkpt>
<trkpt lat="46.15983" lon="7.93783"><ele></ele><time>2025-8-20T14:36:20Z</time></trkpt>
<trkpt lat="46.15983" lon="7.93783"><ele></ele><time>2025-8-20T14:36:23Z</time></trkpt>
<trkpt lat="46.15983" lon="7.93783"><ele></ele><time>2025-8-20T14:36:26Z</time></trkpt>
<trkpt lat="46.15978" lon="7.93787"><ele></ele><time>2025-8-20T14:36:29Z</time></trkpt>
<trkpt lat="46.15976" lon="7.9379"><ele></ele><time>2025-8-20T14:36:32Z</time></trkpt>
<trkpt lat="46.15975" lon="7.93796"><ele></ele><time>2025-8-20T14:36:35Z</time></trkpt>
<trkpt lat="46.15973" lon="7.93802"><ele></ele><time>2025-8-20T14:36:38Z</time></trkpt>
<trkpt lat="46.15972" lon="7.93805"><ele></ele><time>2025-8-20T14:36:41Z</time></trkpt>
<trkpt lat="46.15971" lon="7.93808"><ele></ele><time>2025-8-20T14:36:44Z</time></trkpt>
<trkpt lat="46.15967" lon="7.9381"><ele></ele><time>2025-8-20T14:36:47Z</time></trkpt>
<trkpt lat="46.15968" lon="7.93807"><ele></ele><time>2025-8-20T14:36:50Z</time></trkpt>
<trkpt lat="46.15969" lon="7.93806"><ele></ele><time>2025-8-20T14:36:53Z</time></trkpt>
<trkpt lat="46.15969" lon="7.93801"><ele></ele><time>2025-8-20T14:36:56Z</time></trkpt>
<trkpt lat="46.15969" lon="7.93799"><ele></ele><time>2025-8-20T14:36:59Z</time></trkpt>
<trkpt lat="46.15968" lon="7.93799"><ele></ele><time>2025-8-20T14:37:2Z</time></trkpt>
<trkpt lat="46.15968" lon="7.93799"><ele></ele><time>2025-8-20T14:37:5Z</time></trkpt>
<trkpt lat="46.15965" lon="7.93798"><ele></ele><time>2025-8-20T14:37:8Z</time></trkpt>
<trkpt lat="46.15964" lon="7.93797"><ele></ele><time>2025-8-20T14:37:11Z</time></trkpt>
<trkpt lat="46.15961" lon="7.93797"><ele></ele><time>2025-8-20T14:37:14Z</time></trkpt>
<trkpt lat="46.15961" lon="7.93797"><ele></ele><time>2025-8-20T14:37:17Z</time></trkpt>
<trkpt lat="46.15959" lon="7.93797"><ele></ele><time>2025-8-20T14:37:20Z</time></trkpt>
<trkpt lat="46.15957" lon="7.93795"><ele></ele><time>2025-8-20T14:37:23Z</time></trkpt>
<trkpt lat="46.15953" lon="7.9379"><ele></ele><time>2025-8-20T14:37:26Z</time></trkpt>
<trkpt lat="46.15953" lon="7.93789"><ele></ele><time>2025-8-20T14:37:29Z</time></trkpt>
<trkpt lat="46.15953" lon="7.93785"><ele></ele><time>2025-8-20T14:37:32Z</time></trkpt>
<trkpt lat="46.15953" lon="7.93784"><ele></ele><time>2025-8-20T14:37:35Z</time></trkpt>
<trkpt lat="46.15951" lon="7.93783"><ele></ele><time>2025-8-20T14:37:38Z</time></trkpt>
<trkpt lat="46.1595" lon="7.9378"><ele></ele><time>2025-8-20T14:37:41Z</time></trkpt>
<trkpt lat="46.1595" lon="7.93779"><ele></ele><time>2025-8-20T14:37:44Z</time></trkpt>
<trkpt lat="46.1595" lon="7.93778"><ele></ele><time>2025-8-20T14:37:47Z</time></trkpt>
<trkpt lat="46.15951" lon="7.93774"><ele></ele><time>2025-8-20T14:37:50Z</time></trkpt>
<trkpt lat="46.15951" lon="7.93772"><ele></ele><time>2025-8-20T14:37:53Z</time></trkpt>
<trkpt lat="46.1595" lon="7.93768"><ele></ele><time>2025-8-20T14:37:56Z</time></trkpt>
<trkpt lat="46.1595" lon="7.93766"><ele></ele><time>2025-8-20T14:37:59Z</time></trkpt>
<trkpt lat="46.15948" lon="7.9376"><ele></ele><time>2025-8-20T14:38:2Z</time></trkpt>
<trkpt lat="46.15948" lon="7.93758"><ele></ele><time>2025-8-20T14:38:5Z</time></trkpt>
<trkpt lat="46.15948" lon="7.93759"><ele></ele><time>2025-8-20T14:38:8Z</time></trkpt>
<trkpt lat="46.15947" lon="7.9376"><ele></ele><time>2025-8-20T14:38:11Z</time></trkpt>
<trkpt lat="46.15945" lon="7.9376"><ele></ele><time>2025-8-20T14:38:14Z</time></trkpt>
<trkpt lat="46.15943" lon="7.93761"><ele></ele><time>2025-8-20T14:38:17Z</time></trkpt>
<trkpt lat="46.15943" lon="7.93762"><ele></ele><time>2025-8-20T14:38:20Z</time></trkpt>
<trkpt lat="46.1594" lon="7.93763"><ele></ele><time>2025-8-20T14:38:23Z</time></trkpt>
<trkpt lat="46.15939" lon="7.93763"><ele></ele><time>2025-8-20T14:38:26Z</time></trkpt>
<trkpt lat="46.15939" lon="7.93762"><ele></ele><time>2025-8-20T14:38:29Z</time></trkpt>
<trkpt lat="46.15938" lon="7.9376"><ele></ele><time>2025-8-20T14:38:32Z</time></trkpt>
<trkpt lat="46.15937" lon="7.93758"><ele></ele><time>2025-8-20T14:38:35Z</time></trkpt>
<trkpt lat="46.15936" lon="7.93755"><ele></ele><time>2025-8-20T14:38:38Z</time></trkpt>
<trkpt lat="46.15934" lon="7.93752"><ele></ele><time>2025-8-20T14:38:41Z</time></trkpt>
<trkpt lat="46.15934" lon="7.9375"><ele></ele><time>2025-8-20T14:38:44Z</time></trkpt>
<trkpt lat="46.15933" lon="7.93749"><ele></ele><time>2025-8-20T14:38:47Z</time></trkpt>
<trkpt lat="46.1593" lon="7.9375"><ele></ele><time>2025-8-20T14:38:50Z</time></trkpt>
<trkpt lat="46.15928" lon="7.93752"><ele></ele><time>2025-8-20T14:38:53Z</time></trkpt>
<trkpt lat="46.15926" lon="7.93756"><ele></ele><time>2025-8-20T14:38:56Z</time></trkpt>
<trkpt lat="46.15926" lon="7.93758"><ele></ele><time>2025-8-20T14:38:59Z</time></trkpt>
<trkpt lat="46.15925" lon="7.93757"><ele></ele><time>2025-8-20T14:39:2Z</time></trkpt>
<trkpt lat="46.15923" lon="7.93759"><ele></ele><time>2025-8-20T14:39:5Z</time></trkpt>
<trkpt lat="46.15921" lon="7.93762"><ele></ele><time>2025-8-20T14:39:8Z</time></trkpt>
<trkpt lat="46.1592" lon="7.93763"><ele></ele><time>2025-8-20T14:39:11Z</time></trkpt>
<trkpt lat="46.1592" lon="7.93764"><ele></ele><time>2025-8-20T14:39:14Z</time></trkpt>
<trkpt lat="46.15918" lon="7.93769"><ele></ele><time>2025-8-20T14:39:17Z</time></trkpt>
<trkpt lat="46.15918" lon="7.9377"><ele></ele><time>2025-8-20T14:39:20Z</time></trkpt>
<trkpt lat="46.15916" lon="7.93776"><ele></ele><time>2025-8-20T14:39:23Z</time></trkpt>
<trkpt lat="46.15916" lon="7.9378"><ele></ele><time>2025-8-20T14:39:26Z</time></trkpt>
<trkpt lat="46.15915" lon="7.93782"><ele></ele><time>2025-8-20T14:39:29Z</time></trkpt>
<trkpt lat="46.15913" lon="7.9379"><ele></ele><time>2025-8-20T14:39:32Z</time></trkpt>
<trkpt lat="46.15913" lon="7.93795"><ele></ele><time>2025-8-20T14:39:35Z</time></trkpt>
<trkpt lat="46.15912" lon="7.93799"><ele></ele><time>2025-8-20T14:39:38Z</time></trkpt>
<trkpt lat="46.15909" lon="7.93808"><ele></ele><time>2025-8-20T14:39:41Z</time></trkpt>
<trkpt lat="46.15909" lon="7.93809"><ele></ele><time>2025-8-20T14:39:44Z</time></trkpt>
<trkpt lat="46.15908" lon="7.93812"><ele></ele><time>2025-8-20T14:39:47Z</time></trkpt>
<trkpt lat="46.15907" lon="7.93812"><ele></ele><time>2025-8-20T14:39:50Z</time></trkpt>
<trkpt lat="46.15906" lon="7.93815"><ele></ele><time>2025-8-20T14:39:53Z</time></trkpt>
<trkpt lat="46.15905" lon="7.93816"><ele></ele><time>2025-8-20T14:39:56Z</time></trkpt>
<trkpt lat="46.15904" lon="7.93817"><ele></ele><time>2025-8-20T14:39:59Z</time></trkpt>
<trkpt lat="46.159" lon="7.93824"><ele></ele><time>2025-8-20T14:40:2Z</time></trkpt>
<trkpt lat="46.15897" lon="7.9383"><ele></ele><time>2025-8-20T14:40:5Z</time></trkpt>
<trkpt lat="46.15895" lon="7.93833"><ele></ele><time>2025-8-20T14:40:8Z</time></trkpt>
<trkpt lat="46.15894" lon="7.93838"><ele></ele><time>2025-8-20T14:40:11Z</time></trkpt>
<trkpt lat="46.15891" lon="7.93847"><ele></ele><time>2025-8-20T14:40:14Z</time></trkpt>
<trkpt lat="46.1589" lon="7.93848"><ele></ele><time>2025-8-20T14:40:17Z</time></trkpt>
<trkpt lat="46.15888" lon="7.93851"><ele></ele><time>2025-8-20T14:40:20Z</time></trkpt>
<trkpt lat="46.15888" lon="7.93853"><ele></ele><time>2025-8-20T14:40:23Z</time></trkpt>
<trkpt lat="46.15888" lon="7.93858"><ele></ele><time>2025-8-20T14:40:26Z</time></trkpt>
<trkpt lat="46.15887" lon="7.93861"><ele></ele><time>2025-8-20T14:40:29Z</time></trkpt>
<trkpt lat="46.15887" lon="7.93863"><ele></ele><time>2025-8-20T14:40:32Z</time></trkpt>
<trkpt lat="46.15886" lon="7.93868"><ele></ele><time>2025-8-20T14:40:35Z</time></trkpt>
<trkpt lat="46.15885" lon="7.93874"><ele></ele><time>2025-8-20T14:40:38Z</time></trkpt>
<trkpt lat="46.15884" lon="7.93881"><ele></ele><time>2025-8-20T14:40:41Z</time></trkpt>
<trkpt lat="46.15883" lon="7.93882"><ele></ele><time>2025-8-20T14:40:44Z</time></trkpt>
<trkpt lat="46.15883" lon="7.93883"><ele></ele><time>2025-8-20T14:40:47Z</time></trkpt>
<trkpt lat="46.15881" lon="7.93885"><ele></ele><time>2025-8-20T14:40:50Z</time></trkpt>
<trkpt lat="46.15881" lon="7.93886"><ele></ele><time>2025-8-20T14:40:53Z</time></trkpt>
<trkpt lat="46.15879" lon="7.93887"><ele></ele><time>2025-8-20T14:40:56Z</time></trkpt>
<trkpt lat="46.15877" lon="7.93888"><ele></ele><time>2025-8-20T14:40:59Z</time></trkpt>
<trkpt lat="46.15878" lon="7.93889"><ele></ele><time>2025-8-20T14:41:2Z</time></trkpt>
<trkpt lat="46.15876" lon="7.93893"><ele></ele><time>2025-8-20T14:41:5Z</time></trkpt>
<trkpt lat="46.15875" lon="7.93895"><ele></ele><time>2025-8-20T14:41:8Z</time></trkpt>
<trkpt lat="46.15873" lon="7.93897"><ele></ele><time>2025-8-20T14:41:11Z</time></trkpt>
<trkpt lat="46.15873" lon="7.93899"><ele></ele><time>2025-8-20T14:41:14Z</time></trkpt>
<trkpt lat="46.15871" lon="7.93903"><ele></ele><time>2025-8-20T14:41:17Z</time></trkpt>
<trkpt lat="46.15871" lon="7.93903"><ele></ele><time>2025-8-20T14:41:20Z</time></trkpt>
<trkpt lat="46.15869" lon="7.93903"><ele></ele><time>2025-8-20T14:41:23Z</time></trkpt>
<trkpt lat="46.15869" lon="7.93903"><ele></ele><time>2025-8-20T14:41:26Z</time></trkpt>
<trkpt lat="46.15868" lon="7.93902"><ele></ele><time>2025-8-20T14:41:29Z</time></trkpt>
<trkpt lat="46.15867" lon="7.93903"><ele></ele><time>2025-8-20T14:41:32Z</time></trkpt>
<trkpt lat="46.15866" lon="7.93903"><ele></ele><time>2025-8-20T14:41:35Z</time></trkpt>
<trkpt lat="46.15864" lon="7.93904"><ele></ele><time>2025-8-20T14:41:38Z</time></trkpt>
<trkpt lat="46.15864" lon="7.93904"><ele></ele><time>2025-8-20T14:41:41Z</time></trkpt>
<trkpt lat="46.15864" lon="7.93905"><ele></ele><time>2025-8-20T14:41:44Z</time></trkpt>
<trkpt lat="46.15863" lon="7.93906"><ele></ele><time>2025-8-20T14:41:47Z</time></trkpt>
<trkpt lat="46.15862" lon="7.93908"><ele></ele><time>2025-8-20T14:41:50Z</time></trkpt>
<trkpt lat="46.15861" lon="7.93912"><ele></ele><time>2025-8-20T14:41:53Z</time></trkpt>
<trkpt lat="46.15861" lon="7.93914"><ele></ele><time>2025-8-20T14:41:56Z</time></trkpt>
<trkpt lat="46.1586" lon="7.93917"><ele></ele><time>2025-8-20T14:41:59Z</time></trkpt>
<trkpt lat="46.15858" lon="7.93921"><ele></ele><time>2025-8-20T14:42:2Z</time></trkpt>
<trkpt lat="46.15858" lon="7.93922"><ele></ele><time>2025-8-20T14:42:5Z</time></trkpt>
<trkpt lat="46.15857" lon="7.93928"><ele></ele><time>2025-8-20T14:42:8Z</time></trkpt>
<trkpt lat="46.15857" lon="7.93933"><ele></ele><time>2025-8-20T14:42:11Z</time></trkpt>
<trkpt lat="46.15857" lon="7.93939"><ele></ele><time>2025-8-20T14:42:14Z</time></trkpt>
<trkpt lat="46.15856" lon="7.93942"><ele></ele><time>2025-8-20T14:42:17Z</time></trkpt>
<trkpt lat="46.15855" lon="7.93946"><ele></ele><time>2025-8-20T14:42:20Z</time></trkpt>
<trkpt lat="46.15853" lon="7.93951"><ele></ele><time>2025-8-20T14:42:23Z</time></trkpt>
<trkpt lat="46.1585" lon="7.93954"><ele></ele><time>2025-8-20T14:42:26Z</time></trkpt>
<trkpt lat="46.15845" lon="7.93959"><ele></ele><time>2025-8-20T14:42:29Z</time></trkpt>
<trkpt lat="46.15844" lon="7.93961"><ele></ele><time>2025-8-20T14:42:32Z</time></trkpt>
<trkpt lat="46.15841" lon="7.93964"><ele></ele><time>2025-8-20T14:42:35Z</time></trkpt>
<trkpt lat="46.15839" lon="7.93963"><ele></ele><time>2025-8-20T14:42:38Z</time></trkpt>
<trkpt lat="46.15838" lon="7.93963"><ele></ele><time>2025-8-20T14:42:41Z</time></trkpt>
<trkpt lat="46.15834" lon="7.93967"><ele></ele><time>2025-8-20T14:42:44Z</time></trkpt>
<trkpt lat="46.15834" lon="7.93968"><ele></ele><time>2025-8-20T14:42:47Z</time></trkpt>
<trkpt lat="46.15829" lon="7.93971"><ele></ele><time>2025-8-20T14:42:50Z</time></trkpt>
<trkpt lat="46.15821" lon="7.93977"><ele></ele><time>2025-8-20T14:42:53Z</time></trkpt>
<trkpt lat="46.15817" lon="7.93982"><ele></ele><time>2025-8-20T14:42:56Z</time></trkpt>
<trkpt lat="46.15815" lon="7.93985"><ele></ele><time>2025-8-20T14:42:59Z</time></trkpt>
<trkpt lat="46.15811" lon="7.9399"><ele></ele><time>2025-8-20T14:43:2Z</time></trkpt>
<trkpt lat="46.15809" lon="7.93993"><ele></ele><time>2025-8-20T14:43:5Z</time></trkpt>
<trkpt lat="46.15806" lon="7.93998"><ele></ele><time>2025-8-20T14:43:8Z</time></trkpt>
<trkpt lat="46.15804" lon="7.94"><ele></ele><time>2025-8-20T14:43:11Z</time></trkpt>
<trkpt lat="46.15801" lon="7.94"><ele></ele><time>2025-8-20T14:43:14Z</time></trkpt>
<trkpt lat="46.15798" lon="7.94005"><ele></ele><time>2025-8-20T14:43:17Z</time></trkpt>
<trkpt lat="46.15796" lon="7.94012"><ele></ele><time>2025-8-20T14:43:20Z</time></trkpt>
<trkpt lat="46.15796" lon="7.94015"><ele></ele><time>2025-8-20T14:43:23Z</time></trkpt>
<trkpt lat="46.15796" lon="7.94015"><ele></ele><time>2025-8-20T14:43:26Z</time></trkpt>
<trkpt lat="46.15796" lon="7.94013"><ele></ele><time>2025-8-20T14:43:29Z</time></trkpt>
<trkpt lat="46.15796" lon="7.94013"><ele></ele><time>2025-8-20T14:43:32Z</time></trkpt>
<trkpt lat="46.15796" lon="7.94013"><ele></ele><time>2025-8-20T14:43:35Z</time></trkpt>
<trkpt lat="46.15796" lon="7.94013"><ele></ele><time>2025-8-20T14:43:38Z</time></trkpt>
<trkpt lat="46.15796" lon="7.94013"><ele></ele><time>2025-8-20T14:43:41Z</time></trkpt>
<trkpt lat="46.15797" lon="7.94013"><ele></ele><time>2025-8-20T14:43:44Z</time></trkpt>
<trkpt lat="46.15797" lon="7.94015"><ele></ele><time>2025-8-20T14:43:47Z</time></trkpt>
<trkpt lat="46.15796" lon="7.94017"><ele></ele><time>2025-8-20T14:43:50Z</time></trkpt>
<trkpt lat="46.15797" lon="7.94017"><ele></ele><time>2025-8-20T14:43:53Z</time></trkpt>
<trkpt lat="46.15794" lon="7.94022"><ele></ele><time>2025-8-20T14:43:56Z</time></trkpt>
<trkpt lat="46.15791" lon="7.94029"><ele></ele><time>2025-8-20T14:43:59Z</time></trkpt>
<trkpt lat="46.15788" lon="7.94034"><ele></ele><time>2025-8-20T14:44:2Z</time></trkpt>
<trkpt lat="46.15786" lon="7.94036"><ele></ele><time>2025-8-20T14:44:5Z</time></trkpt>
<trkpt lat="46.15777" lon="7.94037"><ele></ele><time>2025-8-20T14:44:8Z</time></trkpt>
<trkpt lat="46.15768" lon="7.94035"><ele></ele><time>2025-8-20T14:44:11Z</time></trkpt>
<trkpt lat="46.15764" lon="7.94031"><ele></ele><time>2025-8-20T14:44:14Z</time></trkpt>
<trkpt lat="46.15761" lon="7.9403"><ele></ele><time>2025-8-20T14:44:17Z</time></trkpt>
<trkpt lat="46.1576" lon="7.94028"><ele></ele><time>2025-8-20T14:44:20Z</time></trkpt>
<trkpt lat="46.15759" lon="7.94027"><ele></ele><time>2025-8-20T14:44:23Z</time></trkpt>
<trkpt lat="46.15758" lon="7.94024"><ele></ele><time>2025-8-20T14:44:26Z</time></trkpt>
<trkpt lat="46.15757" lon="7.94023"><ele></ele><time>2025-8-20T14:44:29Z</time></trkpt>
<trkpt lat="46.15755" lon="7.94022"><ele></ele><time>2025-8-20T14:44:32Z</time></trkpt>
<trkpt lat="46.15754" lon="7.9402"><ele></ele><time>2025-8-20T14:44:35Z</time></trkpt>
<trkpt lat="46.15754" lon="7.94018"><ele></ele><time>2025-8-20T14:44:38Z</time></trkpt>
<trkpt lat="46.15752" lon="7.94015"><ele></ele><time>2025-8-20T14:44:41Z</time></trkpt>
<trkpt lat="46.15752" lon="7.94014"><ele></ele><time>2025-8-20T14:44:44Z</time></trkpt>
<trkpt lat="46.15748" lon="7.9401"><ele></ele><time>2025-8-20T14:44:47Z</time></trkpt>
<trkpt lat="46.15743" lon="7.93997"><ele></ele><time>2025-8-20T14:44:50Z</time></trkpt>
<trkpt lat="46.15739" lon="7.93988"><ele></ele><time>2025-8-20T14:44:53Z</time></trkpt>
<trkpt lat="46.15736" lon="7.93984"><ele></ele><time>2025-8-20T14:44:56Z</time></trkpt>
<trkpt lat="46.15731" lon="7.93978"><ele></ele><time>2025-8-20T14:44:59Z</time></trkpt>
<trkpt lat="46.15727" lon="7.93976"><ele></ele><time>2025-8-20T14:45:2Z</time></trkpt>
<trkpt lat="46.15726" lon="7.93975"><ele></ele><time>2025-8-20T14:45:5Z</time></trkpt>
<trkpt lat="46.15723" lon="7.93972"><ele></ele><time>2025-8-20T14:45:8Z</time></trkpt>
<trkpt lat="46.1572" lon="7.93971"><ele></ele><time>2025-8-20T14:45:11Z</time></trkpt>
<trkpt lat="46.15715" lon="7.93967"><ele></ele><time>2025-8-20T14:45:14Z</time></trkpt>
<trkpt lat="46.15712" lon="7.93962"><ele></ele><time>2025-8-20T14:45:17Z</time></trkpt>
<trkpt lat="46.15704" lon="7.93948"><ele></ele><time>2025-8-20T14:45:20Z</time></trkpt>
<trkpt lat="46.15701" lon="7.93942"><ele></ele><time>2025-8-20T14:45:23Z</time></trkpt>
<trkpt lat="46.15699" lon="7.93943"><ele></ele><time>2025-8-20T14:45:26Z</time></trkpt>
<trkpt lat="46.15697" lon="7.93942"><ele></ele><time>2025-8-20T14:45:29Z</time></trkpt>
<trkpt lat="46.15692" lon="7.93944"><ele></ele><time>2025-8-20T14:45:32Z</time></trkpt>
<trkpt lat="46.15689" lon="7.93943"><ele></ele><time>2025-8-20T14:45:35Z</time></trkpt>
<trkpt lat="46.15687" lon="7.93942"><ele></ele><time>2025-8-20T14:45:38Z</time></trkpt>
<trkpt lat="46.15683" lon="7.93941"><ele></ele><time>2025-8-20T14:45:41Z</time></trkpt>
<trkpt lat="46.15683" lon="7.9394"><ele></ele><time>2025-8-20T14:45:44Z</time></trkpt>
<trkpt lat="46.15682" lon="7.93941"><ele></ele><time>2025-8-20T14:45:47Z</time></trkpt>
<trkpt lat="46.15682" lon="7.93941"><ele></ele><time>2025-8-20T14:45:50Z</time></trkpt>
<trkpt lat="46.1568" lon="7.93939"><ele></ele><time>2025-8-20T14:45:53Z</time></trkpt>
<trkpt lat="46.15676" lon="7.93934"><ele></ele><time>2025-8-20T14:45:56Z</time></trkpt>
<trkpt lat="46.15673" lon="7.93932"><ele></ele><time>2025-8-20T14:45:59Z</time></trkpt>
<trkpt lat="46.15673" lon="7.93931"><ele></ele><time>2025-8-20T14:46:2Z</time></trkpt>
<trkpt lat="46.15672" lon="7.93929"><ele></ele><time>2025-8-20T14:46:5Z</time></trkpt>
<trkpt lat="46.15671" lon="7.93927"><ele></ele><time>2025-8-20T14:46:8Z</time></trkpt>
<trkpt lat="46.15668" lon="7.93924"><ele></ele><time>2025-8-20T14:46:11Z</time></trkpt>
<trkpt lat="46.15667" lon="7.93921"><ele></ele><time>2025-8-20T14:46:14Z</time></trkpt>
<trkpt lat="46.15666" lon="7.93919"><ele></ele><time>2025-8-20T14:46:17Z</time></trkpt>
<trkpt lat="46.15665" lon="7.93917"><ele></ele><time>2025-8-20T14:46:20Z</time></trkpt>
<trkpt lat="46.15662" lon="7.93916"><ele></ele><time>2025-8-20T14:46:23Z</time></trkpt>
<trkpt lat="46.15661" lon="7.93916"><ele></ele><time>2025-8-20T14:46:26Z</time></trkpt>
<trkpt lat="46.15661" lon="7.93913"><ele></ele><time>2025-8-20T14:46:29Z</time></trkpt>
<trkpt lat="46.15661" lon="7.93912"><ele></ele><time>2025-8-20T14:46:32Z</time></trkpt>
<trkpt lat="46.15662" lon="7.9391"><ele></ele><time>2025-8-20T14:46:35Z</time></trkpt>
<trkpt lat="46.15662" lon="7.93908"><ele></ele><time>2025-8-20T14:46:38Z</time></trkpt>
<trkpt lat="46.15661" lon="7.93907"><ele></ele><time>2025-8-20T14:46:41Z</time></trkpt>
<trkpt lat="46.15659" lon="7.93905"><ele></ele><time>2025-8-20T14:46:44Z</time></trkpt>
<trkpt lat="46.1566" lon="7.93903"><ele></ele><time>2025-8-20T14:46:47Z</time></trkpt>
<trkpt lat="46.1566" lon="7.93901"><ele></ele><time>2025-8-20T14:46:50Z</time></trkpt>
<trkpt lat="46.15659" lon="7.93899"><ele></ele><time>2025-8-20T14:46:53Z</time></trkpt>
<trkpt lat="46.15658" lon="7.93897"><ele></ele><time>2025-8-20T14:46:56Z</time></trkpt>
<trkpt lat="46.15655" lon="7.93895"><ele></ele><time>2025-8-20T14:46:59Z</time></trkpt>
<trkpt lat="46.15651" lon="7.93895"><ele></ele><time>2025-8-20T14:47:2Z</time></trkpt>
<trkpt lat="46.15651" lon="7.93895"><ele></ele><time>2025-8-20T14:47:5Z</time></trkpt>
<trkpt lat="46.15648" lon="7.93895"><ele></ele><time>2025-8-20T14:47:8Z</time></trkpt>
<trkpt lat="46.15643" lon="7.93897"><ele></ele><time>2025-8-20T14:47:11Z</time></trkpt>
<trkpt lat="46.15643" lon="7.93897"><ele></ele><time>2025-8-20T14:47:14Z</time></trkpt>
<trkpt lat="46.1564" lon="7.939"><ele></ele><time>2025-8-20T14:47:17Z</time></trkpt>
<trkpt lat="46.15639" lon="7.93901"><ele></ele><time>2025-8-20T14:47:20Z</time></trkpt>
<trkpt lat="46.15638" lon="7.93903"><ele></ele><time>2025-8-20T14:47:23Z</time></trkpt>
<trkpt lat="46.15636" lon="7.93904"><ele></ele><time>2025-8-20T14:47:26Z</time></trkpt>
<trkpt lat="46.15624" lon="7.93904"><ele></ele><time>2025-8-20T14:47:29Z</time></trkpt>
<trkpt lat="46.1562" lon="7.939"><ele></ele><time>2025-8-20T14:47:32Z</time></trkpt>
<trkpt lat="46.15617" lon="7.93896"><ele></ele><time>2025-8-20T14:47:35Z</time></trkpt>
<trkpt lat="46.15612" lon="7.93889"><ele></ele><time>2025-8-20T14:47:38Z</time></trkpt>
<trkpt lat="46.15607" lon="7.93887"><ele></ele><time>2025-8-20T14:47:41Z</time></trkpt>
<trkpt lat="46.15606" lon="7.93887"><ele></ele><time>2025-8-20T14:47:44Z</time></trkpt>
<trkpt lat="46.15606" lon="7.93885"><ele></ele><time>2025-8-20T14:47:47Z</time></trkpt>
<trkpt lat="46.15605" lon="7.93884"><ele></ele><time>2025-8-20T14:47:50Z</time></trkpt>
<trkpt lat="46.15603" lon="7.93881"><ele></ele><time>2025-8-20T14:47:53Z</time></trkpt>
<trkpt lat="46.15602" lon="7.93881"><ele></ele><time>2025-8-20T14:47:56Z</time></trkpt>
<trkpt lat="46.15599" lon="7.93879"><ele></ele><time>2025-8-20T14:47:59Z</time></trkpt>
<trkpt lat="46.15597" lon="7.93879"><ele></ele><time>2025-8-20T14:48:2Z</time></trkpt>
<trkpt lat="46.15596" lon="7.9388"><ele></ele><time>2025-8-20T14:48:5Z</time></trkpt>
<trkpt lat="46.15594" lon="7.93882"><ele></ele><time>2025-8-20T14:48:8Z</time></trkpt>
<trkpt lat="46.15594" lon="7.93882"><ele></ele><time>2025-8-20T14:48:11Z</time></trkpt>
<trkpt lat="46.15591" lon="7.93886"><ele></ele><time>2025-8-20T14:48:14Z</time></trkpt>
<trkpt lat="46.15587" lon="7.93885"><ele></ele><time>2025-8-20T14:48:17Z</time></trkpt>
<trkpt lat="46.1558" lon="7.93884"><ele></ele><time>2025-8-20T14:48:20Z</time></trkpt>
<trkpt lat="46.15577" lon="7.93881"><ele></ele><time>2025-8-20T14:48:23Z</time></trkpt>
<trkpt lat="46.15576" lon="7.9388"><ele></ele><time>2025-8-20T14:48:26Z</time></trkpt>
<trkpt lat="46.15575" lon="7.9388"><ele></ele><time>2025-8-20T14:48:29Z</time></trkpt>
<trkpt lat="46.15574" lon="7.9388"><ele></ele><time>2025-8-20T14:48:32Z</time></trkpt>
<trkpt lat="46.1557" lon="7.9388"><ele></ele><time>2025-8-20T14:48:35Z</time></trkpt>
<trkpt lat="46.15568" lon="7.9388"><ele></ele><time>2025-8-20T14:48:38Z</time></trkpt>
<trkpt lat="46.15566" lon="7.93881"><ele></ele><time>2025-8-20T14:48:41Z</time></trkpt>
<trkpt lat="46.15565" lon="7.93883"><ele></ele><time>2025-8-20T14:48:44Z</time></trkpt>
<trkpt lat="46.15564" lon="7.93884"><ele></ele><time>2025-8-20T14:48:47Z</time></trkpt>
<trkpt lat="46.15562" lon="7.93885"><ele></ele><time>2025-8-20T14:48:50Z</time></trkpt>
<trkpt lat="46.1556" lon="7.93884"><ele></ele><time>2025-8-20T14:48:53Z</time></trkpt>
<trkpt lat="46.15559" lon="7.93884"><ele></ele><time>2025-8-20T14:48:56Z</time></trkpt>
<trkpt lat="46.15556" lon="7.93885"><ele></ele><time>2025-8-20T14:48:59Z</time></trkpt>
<trkpt lat="46.15556" lon="7.93886"><ele></ele><time>2025-8-20T14:49:2Z</time></trkpt>
<trkpt lat="46.15554" lon="7.93887"><ele></ele><time>2025-8-20T14:49:5Z</time></trkpt>
<trkpt lat="46.15548" lon="7.93889"><ele></ele><time>2025-8-20T14:49:8Z</time></trkpt>
<trkpt lat="46.15547" lon="7.9389"><ele></ele><time>2025-8-20T14:49:11Z</time></trkpt>
<trkpt lat="46.15542" lon="7.93893"><ele></ele><time>2025-8-20T14:49:14Z</time></trkpt>
<trkpt lat="46.15541" lon="7.93894"><ele></ele><time>2025-8-20T14:49:17Z</time></trkpt>
<trkpt lat="46.15537" lon="7.93893"><ele></ele><time>2025-8-20T14:49:20Z</time></trkpt>
<trkpt lat="46.15533" lon="7.93888"><ele></ele><time>2025-8-20T14:49:23Z</time></trkpt>
<trkpt lat="46.15532" lon="7.93882"><ele></ele><time>2025-8-20T14:49:26Z</time></trkpt>
<trkpt lat="46.15529" lon="7.93877"><ele></ele><time>2025-8-20T14:49:29Z</time></trkpt>
<trkpt lat="46.15527" lon="7.93874"><ele></ele><time>2025-8-20T14:49:32Z</time></trkpt>
<trkpt lat="46.15523" lon="7.9387"><ele></ele><time>2025-8-20T14:49:35Z</time></trkpt>
<trkpt lat="46.15522" lon="7.93868"><ele></ele><time>2025-8-20T14:49:38Z</time></trkpt>
<trkpt lat="46.15521" lon="7.93868"><ele></ele><time>2025-8-20T14:49:41Z</time></trkpt>
<trkpt lat="46.1552" lon="7.93867"><ele></ele><time>2025-8-20T14:49:44Z</time></trkpt>
<trkpt lat="46.1552" lon="7.93866"><ele></ele><time>2025-8-20T14:49:47Z</time></trkpt>
<trkpt lat="46.15521" lon="7.93862"><ele></ele><time>2025-8-20T14:49:50Z</time></trkpt>
<trkpt lat="46.15521" lon="7.93861"><ele></ele><time>2025-8-20T14:49:53Z</time></trkpt>
<trkpt lat="46.15522" lon="7.93859"><ele></ele><time>2025-8-20T14:49:56Z</time></trkpt>
<trkpt lat="46.15523" lon="7.93858"><ele></ele><time>2025-8-20T14:49:59Z</time></trkpt>
<trkpt lat="46.15525" lon="7.93858"><ele></ele><time>2025-8-20T14:50:2Z</time></trkpt>
<trkpt lat="46.15528" lon="7.93857"><ele></ele><time>2025-8-20T14:50:5Z</time></trkpt>
<trkpt lat="46.15528" lon="7.93857"><ele></ele><time>2025-8-20T14:50:8Z</time></trkpt>
<trkpt lat="46.15528" lon="7.93857"><ele></ele><time>2025-8-20T14:50:11Z</time></trkpt>
<trkpt lat="46.1553" lon="7.93856"><ele></ele><time>2025-8-20T14:50:14Z</time></trkpt>
<trkpt lat="46.1553" lon="7.93853"><ele></ele><time>2025-8-20T14:50:17Z</time></trkpt>
<trkpt lat="46.1553" lon="7.93852"><ele></ele><time>2025-8-20T14:50:20Z</time></trkpt>
<trkpt lat="46.1553" lon="7.9385"><ele></ele><time>2025-8-20T14:50:23Z</time></trkpt>
<trkpt lat="46.15529" lon="7.93849"><ele></ele><time>2025-8-20T14:50:26Z</time></trkpt>
<trkpt lat="46.15529" lon="7.93849"><ele></ele><time>2025-8-20T14:50:29Z</time></trkpt>
<trkpt lat="46.15528" lon="7.93848"><ele></ele><time>2025-8-20T14:50:32Z</time></trkpt>
<trkpt lat="46.15527" lon="7.93847"><ele></ele><time>2025-8-20T14:50:35Z</time></trkpt>
<trkpt lat="46.15526" lon="7.93846"><ele></ele><time>2025-8-20T14:50:38Z</time></trkpt>
<trkpt lat="46.15525" lon="7.93846"><ele></ele><time>2025-8-20T14:50:41Z</time></trkpt>
<trkpt lat="46.15525" lon="7.93846"><ele></ele><time>2025-8-20T14:50:44Z</time></trkpt>
<trkpt lat="46.15525" lon="7.93846"><ele></ele><time>2025-8-20T14:50:47Z</time></trkpt>
<trkpt lat="46.15525" lon="7.93846"><ele></ele><time>2025-8-20T14:50:50Z</time></trkpt>
<trkpt lat="46.15525" lon="7.93846"><ele></ele><time>2025-8-20T14:50:53Z</time></trkpt>
<trkpt lat="46.15525" lon="7.93846"><ele></ele><time>2025-8-20T14:50:56Z</time></trkpt>
<trkpt lat="46.15525" lon="7.93846"><ele></ele><time>2025-8-20T14:50:59Z</time></trkpt>
<trkpt lat="46.15526" lon="7.93846"><ele></ele><time>2025-8-20T14:51:2Z</time></trkpt>
<trkpt lat="46.15519" lon="7.93849"><ele></ele><time>2025-8-20T14:51:5Z</time></trkpt>
<trkpt lat="46.15508" lon="7.93853"><ele></ele><time>2025-8-20T14:51:8Z</time></trkpt>
<trkpt lat="46.15504" lon="7.93856"><ele></ele><time>2025-8-20T14:51:11Z</time></trkpt>
<trkpt lat="46.15499" lon="7.93857"><ele></ele><time>2025-8-20T14:51:14Z</time></trkpt>
<trkpt lat="46.15494" lon="7.9386"><ele></ele><time>2025-8-20T14:51:17Z</time></trkpt>
<trkpt lat="46.15483" lon="7.93866"><ele></ele><time>2025-8-20T14:51:20Z</time></trkpt>
<trkpt lat="46.15472" lon="7.93863"><ele></ele><time>2025-8-20T14:51:23Z</time></trkpt>
<trkpt lat="46.15467" lon="7.93861"><ele></ele><time>2025-8-20T14:51:26Z</time></trkpt>
<trkpt lat="46.15461" lon="7.93858"><ele></ele><time>2025-8-20T14:51:29Z</time></trkpt>
<trkpt lat="46.15449" lon="7.93848"><ele></ele><time>2025-8-20T14:51:32Z</time></trkpt>
<trkpt lat="46.15445" lon="7.93841"><ele></ele><time>2025-8-20T14:51:35Z</time></trkpt>
<trkpt lat="46.15441" lon="7.93836"><ele></ele><time>2025-8-20T14:51:38Z</time></trkpt>
<trkpt lat="46.15434" lon="7.93825"><ele></ele><time>2025-8-20T14:51:41Z</time></trkpt>
<trkpt lat="46.15431" lon="7.93821"><ele></ele><time>2025-8-20T14:51:44Z</time></trkpt>
<trkpt lat="46.15423" lon="7.9382"><ele></ele><time>2025-8-20T14:51:47Z</time></trkpt>
<trkpt lat="46.15419" lon="7.93824"><ele></ele><time>2025-8-20T14:51:50Z</time></trkpt>
<trkpt lat="46.15411" lon="7.9384"><ele></ele><time>2025-8-20T14:51:53Z</time></trkpt>
<trkpt lat="46.15407" lon="7.93847"><ele></ele><time>2025-8-20T14:51:56Z</time></trkpt>
<trkpt lat="46.15401" lon="7.93855"><ele></ele><time>2025-8-20T14:51:59Z</time></trkpt>
<trkpt lat="46.15394" lon="7.93855"><ele></ele><time>2025-8-20T14:52:2Z</time></trkpt>
<trkpt lat="46.15389" lon="7.93853"><ele></ele><time>2025-8-20T14:52:5Z</time></trkpt>
<trkpt lat="46.15386" lon="7.93847"><ele></ele><time>2025-8-20T14:52:8Z</time></trkpt>
<trkpt lat="46.15383" lon="7.93838"><ele></ele><time>2025-8-20T14:52:11Z</time></trkpt>
<trkpt lat="46.1538" lon="7.9383"><ele></ele><time>2025-8-20T14:52:14Z</time></trkpt>
<trkpt lat="46.15378" lon="7.93821"><ele></ele><time>2025-8-20T14:52:17Z</time></trkpt>
<trkpt lat="46.15374" lon="7.93799"><ele></ele><time>2025-8-20T14:52:20Z</time></trkpt>
<trkpt lat="46.15369" lon="7.93779"><ele></ele><time>2025-8-20T14:52:23Z</time></trkpt>
<trkpt lat="46.15364" lon="7.93772"><ele></ele><time>2025-8-20T14:52:26Z</time></trkpt>
<trkpt lat="46.15358" lon="7.93769"><ele></ele><time>2025-8-20T14:52:29Z</time></trkpt>
<trkpt lat="46.15348" lon="7.93764"><ele></ele><time>2025-8-20T14:52:32Z</time></trkpt>
<trkpt lat="46.15338" lon="7.93761"><ele></ele><time>2025-8-20T14:52:35Z</time></trkpt>
<trkpt lat="46.15335" lon="7.9376"><ele></ele><time>2025-8-20T14:52:38Z</time></trkpt>
<trkpt lat="46.15327" lon="7.93756"><ele></ele><time>2025-8-20T14:52:41Z</time></trkpt>
<trkpt lat="46.1532" lon="7.93755"><ele></ele><time>2025-8-20T14:52:44Z</time></trkpt>
<trkpt lat="46.15316" lon="7.93755"><ele></ele><time>2025-8-20T14:52:47Z</time></trkpt>
<trkpt lat="46.15303" lon="7.93751"><ele></ele><time>2025-8-20T14:52:50Z</time></trkpt>
<trkpt lat="46.15297" lon="7.93749"><ele></ele><time>2025-8-20T14:52:53Z</time></trkpt>
<trkpt lat="46.1529" lon="7.93747"><ele></ele><time>2025-8-20T14:52:56Z</time></trkpt>
<trkpt lat="46.15277" lon="7.93743"><ele></ele><time>2025-8-20T14:52:59Z</time></trkpt>
<trkpt lat="46.15268" lon="7.93742"><ele></ele><time>2025-8-20T14:53:2Z</time></trkpt>
<trkpt lat="46.15259" lon="7.93739"><ele></ele><time>2025-8-20T14:53:5Z</time></trkpt>
<trkpt lat="46.1524" lon="7.93735"><ele></ele><time>2025-8-20T14:53:8Z</time></trkpt>
<trkpt lat="46.1523" lon="7.93738"><ele></ele><time>2025-8-20T14:53:11Z</time></trkpt>
<trkpt lat="46.1522" lon="7.93742"><ele></ele><time>2025-8-20T14:53:14Z</time></trkpt>
<trkpt lat="46.15209" lon="7.93745"><ele></ele><time>2025-8-20T14:53:17Z</time></trkpt>
<trkpt lat="46.15199" lon="7.93749"><ele></ele><time>2025-8-20T14:53:20Z</time></trkpt>
<trkpt lat="46.15189" lon="7.93754"><ele></ele><time>2025-8-20T14:53:23Z</time></trkpt>
<trkpt lat="46.15179" lon="7.93758"><ele></ele><time>2025-8-20T14:53:26Z</time></trkpt>
<trkpt lat="46.1517" lon="7.93761"><ele></ele><time>2025-8-20T14:53:29Z</time></trkpt>
<trkpt lat="46.15161" lon="7.93761"><ele></ele><time>2025-8-20T14:53:32Z</time></trkpt>
<trkpt lat="46.15156" lon="7.93751"><ele></ele><time>2025-8-20T14:53:35Z</time></trkpt>
<trkpt lat="46.15158" lon="7.93746"><ele></ele><time>2025-8-20T14:53:38Z</time></trkpt>
<trkpt lat="46.15167" lon="7.93738"><ele></ele><time>2025-8-20T14:53:41Z</time></trkpt>
<trkpt lat="46.15173" lon="7.9373"><ele></ele><time>2025-8-20T14:53:44Z</time></trkpt>
<trkpt lat="46.15185" lon="7.93716"><ele></ele><time>2025-8-20T14:53:47Z</time></trkpt>
<trkpt lat="46.152" lon="7.93706"><ele></ele><time>2025-8-20T14:53:50Z</time></trkpt>
<trkpt lat="46.1522" lon="7.93695"><ele></ele><time>2025-8-20T14:53:53Z</time></trkpt>
<trkpt lat="46.1523" lon="7.9369"><ele></ele><time>2025-8-20T14:53:56Z</time></trkpt>
<trkpt lat="46.15239" lon="7.93687"><ele></ele><time>2025-8-20T14:53:59Z</time></trkpt>
<trkpt lat="46.15247" lon="7.93688"><ele></ele><time>2025-8-20T14:54:2Z</time></trkpt>
<trkpt lat="46.15255" lon="7.93687"><ele></ele><time>2025-8-20T14:54:5Z</time></trkpt>
<trkpt lat="46.15258" lon="7.93681"><ele></ele><time>2025-8-20T14:54:8Z</time></trkpt>
<trkpt lat="46.15258" lon="7.93675"><ele></ele><time>2025-8-20T14:54:11Z</time></trkpt>
<trkpt lat="46.15255" lon="7.93674"><ele></ele><time>2025-8-20T14:54:14Z</time></trkpt>
<trkpt lat="46.15251" lon="7.93676"><ele></ele><time>2025-8-20T14:54:17Z</time></trkpt>
<trkpt lat="46.15245" lon="7.93677"><ele></ele><time>2025-8-20T14:54:20Z</time></trkpt>
<trkpt lat="46.1523" lon="7.9368"><ele></ele><time>2025-8-20T14:54:23Z</time></trkpt>
<trkpt lat="46.15221" lon="7.93679"><ele></ele><time>2025-8-20T14:54:26Z</time></trkpt>
<trkpt lat="46.15212" lon="7.93676"><ele></ele><time>2025-8-20T14:54:29Z</time></trkpt>
<trkpt lat="46.15203" lon="7.93676"><ele></ele><time>2025-8-20T14:54:32Z</time></trkpt>
<trkpt lat="46.15194" lon="7.93677"><ele></ele><time>2025-8-20T14:54:35Z</time></trkpt>
<trkpt lat="46.15183" lon="7.93679"><ele></ele><time>2025-8-20T14:54:38Z</time></trkpt>
<trkpt lat="46.15172" lon="7.93683"><ele></ele><time>2025-8-20T14:54:41Z</time></trkpt>
<trkpt lat="46.15161" lon="7.93687"><ele></ele><time>2025-8-20T14:54:44Z</time></trkpt>
<trkpt lat="46.15149" lon="7.93691"><ele></ele><time>2025-8-20T14:54:47Z</time></trkpt>
<trkpt lat="46.15137" lon="7.93693"><ele></ele><time>2025-8-20T14:54:50Z</time></trkpt>
<trkpt lat="46.15124" lon="7.93695"><ele></ele><time>2025-8-20T14:54:53Z</time></trkpt>
<trkpt lat="46.15112" lon="7.93697"><ele></ele><time>2025-8-20T14:54:56Z</time></trkpt>
<trkpt lat="46.15099" lon="7.93698"><ele></ele><time>2025-8-20T14:54:59Z</time></trkpt>
<trkpt lat="46.15085" lon="7.93698"><ele></ele><time>2025-8-20T14:55:2Z</time></trkpt>
<trkpt lat="46.15072" lon="7.93698"><ele></ele><time>2025-8-20T14:55:5Z</time></trkpt>
<trkpt lat="46.15059" lon="7.93699"><ele></ele><time>2025-8-20T14:55:8Z</time></trkpt>
<trkpt lat="46.15047" lon="7.93701"><ele></ele><time>2025-8-20T14:55:11Z</time></trkpt>
<trkpt lat="46.15025" lon="7.93696"><ele></ele><time>2025-8-20T14:55:14Z</time></trkpt>
<trkpt lat="46.15015" lon="7.93692"><ele></ele><time>2025-8-20T14:55:17Z</time></trkpt>
<trkpt lat="46.15006" lon="7.93689"><ele></ele><time>2025-8-20T14:55:20Z</time></trkpt>
<trkpt lat="46.14989" lon="7.93688"><ele></ele><time>2025-8-20T14:55:23Z</time></trkpt>
<trkpt lat="46.1498" lon="7.93692"><ele></ele><time>2025-8-20T14:55:26Z</time></trkpt>
<trkpt lat="46.14969" lon="7.93696"><ele></ele><time>2025-8-20T14:55:29Z</time></trkpt>
<trkpt lat="46.14958" lon="7.93697"><ele></ele><time>2025-8-20T14:55:32Z</time></trkpt>
<trkpt lat="46.14948" lon="7.93695"><ele></ele><time>2025-8-20T14:55:35Z</time></trkpt>
<trkpt lat="46.14938" lon="7.93692"><ele></ele><time>2025-8-20T14:55:38Z</time></trkpt>
<trkpt lat="46.14928" lon="7.93688"><ele></ele><time>2025-8-20T14:55:41Z</time></trkpt>
<trkpt lat="46.14918" lon="7.93679"><ele></ele><time>2025-8-20T14:55:44Z</time></trkpt>
<trkpt lat="46.14908" lon="7.93672"><ele></ele><time>2025-8-20T14:55:47Z</time></trkpt>
<trkpt lat="46.14898" lon="7.93662"><ele></ele><time>2025-8-20T14:55:50Z</time></trkpt>
<trkpt lat="46.1489" lon="7.9365"><ele></ele><time>2025-8-20T14:55:53Z</time></trkpt>
<trkpt lat="46.14882" lon="7.93639"><ele></ele><time>2025-8-20T14:55:56Z</time></trkpt>
<trkpt lat="46.14869" lon="7.93624"><ele></ele><time>2025-8-20T14:55:59Z</time></trkpt>
<trkpt lat="46.14863" lon="7.93618"><ele></ele><time>2025-8-20T14:56:2Z</time></trkpt>
<trkpt lat="46.14856" lon="7.93614"><ele></ele><time>2025-8-20T14:56:5Z</time></trkpt>
<trkpt lat="46.14837" lon="7.93617"><ele></ele><time>2025-8-20T14:56:8Z</time></trkpt>
<trkpt lat="46.14817" lon="7.93624"><ele></ele><time>2025-8-20T14:56:11Z</time></trkpt>
<trkpt lat="46.14809" lon="7.93624"><ele></ele><time>2025-8-20T14:56:14Z</time></trkpt>
<trkpt lat="46.14805" lon="7.93618"><ele></ele><time>2025-8-20T14:56:17Z</time></trkpt>
<trkpt lat="46.14805" lon="7.9361"><ele></ele><time>2025-8-20T14:56:20Z</time></trkpt>
<trkpt lat="46.14814" lon="7.93601"><ele></ele><time>2025-8-20T14:56:23Z</time></trkpt>
<trkpt lat="46.14824" lon="7.93591"><ele></ele><time>2025-8-20T14:56:26Z</time></trkpt>
<trkpt lat="46.14829" lon="7.93584"><ele></ele><time>2025-8-20T14:56:29Z</time></trkpt>
<trkpt lat="46.14832" lon="7.93577"><ele></ele><time>2025-8-20T14:56:32Z</time></trkpt>
<trkpt lat="46.14835" lon="7.9357"><ele></ele><time>2025-8-20T14:56:35Z</time></trkpt>
<trkpt lat="46.14837" lon="7.93564"><ele></ele><time>2025-8-20T14:56:38Z</time></trkpt>
<trkpt lat="46.14838" lon="7.93559"><ele></ele><time>2025-8-20T14:56:41Z</time></trkpt>
<trkpt lat="46.14842" lon="7.93546"><ele></ele><time>2025-8-20T14:56:44Z</time></trkpt>
<trkpt lat="46.14844" lon="7.93543"><ele></ele><time>2025-8-20T14:56:47Z</time></trkpt>
<trkpt lat="46.1485" lon="7.93536"><ele></ele><time>2025-8-20T14:56:50Z</time></trkpt>
<trkpt lat="46.14854" lon="7.93532"><ele></ele><time>2025-8-20T14:56:53Z</time></trkpt>
<trkpt lat="46.14858" lon="7.93529"><ele></ele><time>2025-8-20T14:56:56Z</time></trkpt>
<trkpt lat="46.14869" lon="7.93522"><ele></ele><time>2025-8-20T14:56:59Z</time></trkpt>
<trkpt lat="46.14876" lon="7.93517"><ele></ele><time>2025-8-20T14:57:2Z</time></trkpt>
<trkpt lat="46.14883" lon="7.93513"><ele></ele><time>2025-8-20T14:57:5Z</time></trkpt>
<trkpt lat="46.14897" lon="7.93506"><ele></ele><time>2025-8-20T14:57:8Z</time></trkpt>
<trkpt lat="46.14905" lon="7.93504"><ele></ele><time>2025-8-20T14:57:11Z</time></trkpt>
<trkpt lat="46.14913" lon="7.93504"><ele></ele><time>2025-8-20T14:57:14Z</time></trkpt>
<trkpt lat="46.1493" lon="7.93508"><ele></ele><time>2025-8-20T14:57:17Z</time></trkpt>
<trkpt lat="46.14945" lon="7.93513"><ele></ele><time>2025-8-20T14:57:20Z</time></trkpt>
<trkpt lat="46.14958" lon="7.93526"><ele></ele><time>2025-8-20T14:57:23Z</time></trkpt>
<trkpt lat="46.14971" lon="7.93544"><ele></ele><time>2025-8-20T14:57:26Z</time></trkpt>
<trkpt lat="46.14978" lon="7.93551"><ele></ele><time>2025-8-20T14:57:29Z</time></trkpt>
<trkpt lat="46.14987" lon="7.93555"><ele></ele><time>2025-8-20T14:57:32Z</time></trkpt>
<trkpt lat="46.14996" lon="7.93558"><ele></ele><time>2025-8-20T14:57:35Z</time></trkpt>
<trkpt lat="46.15015" lon="7.93564"><ele></ele><time>2025-8-20T14:57:38Z</time></trkpt>
<trkpt lat="46.15036" lon="7.93571"><ele></ele><time>2025-8-20T14:57:41Z</time></trkpt>
<trkpt lat="46.15059" lon="7.93577"><ele></ele><time>2025-8-20T14:57:44Z</time></trkpt>
<trkpt lat="46.15071" lon="7.93577"><ele></ele><time>2025-8-20T14:57:47Z</time></trkpt>
<trkpt lat="46.15083" lon="7.93575"><ele></ele><time>2025-8-20T14:57:50Z</time></trkpt>
<trkpt lat="46.15094" lon="7.9357"><ele></ele><time>2025-8-20T14:57:53Z</time></trkpt>
<trkpt lat="46.15102" lon="7.93563"><ele></ele><time>2025-8-20T14:57:56Z</time></trkpt>
<trkpt lat="46.15109" lon="7.93557"><ele></ele><time>2025-8-20T14:57:59Z</time></trkpt>
<trkpt lat="46.15123" lon="7.9355"><ele></ele><time>2025-8-20T14:58:2Z</time></trkpt>
<trkpt lat="46.15131" lon="7.93551"><ele></ele><time>2025-8-20T14:58:5Z</time></trkpt>
<trkpt lat="46.1514" lon="7.93554"><ele></ele><time>2025-8-20T14:58:8Z</time></trkpt>
<trkpt lat="46.1515" lon="7.93554"><ele></ele><time>2025-8-20T14:58:11Z</time></trkpt>
<trkpt lat="46.15158" lon="7.9355"><ele></ele><time>2025-8-20T14:58:14Z</time></trkpt>
<trkpt lat="46.15166" lon="7.93541"><ele></ele><time>2025-8-20T14:58:17Z</time></trkpt>
<trkpt lat="46.15174" lon="7.9353"><ele></ele><time>2025-8-20T14:58:20Z</time></trkpt>
<trkpt lat="46.15183" lon="7.93518"><ele></ele><time>2025-8-20T14:58:23Z</time></trkpt>
<trkpt lat="46.15191" lon="7.93506"><ele></ele><time>2025-8-20T14:58:26Z</time></trkpt>
<trkpt lat="46.15199" lon="7.93493"><ele></ele><time>2025-8-20T14:58:29Z</time></trkpt>
<trkpt lat="46.15207" lon="7.9348"><ele></ele><time>2025-8-20T14:58:32Z</time></trkpt>
<trkpt lat="46.15215" lon="7.93466"><ele></ele><time>2025-8-20T14:58:35Z</time></trkpt>
<trkpt lat="46.15223" lon="7.93455"><ele></ele><time>2025-8-20T14:58:38Z</time></trkpt>
<trkpt lat="46.15231" lon="7.93444"><ele></ele><time>2025-8-20T14:58:41Z</time></trkpt>
<trkpt lat="46.15238" lon="7.93433"><ele></ele><time>2025-8-20T14:58:44Z</time></trkpt>
<trkpt lat="46.15251" lon="7.93418"><ele></ele><time>2025-8-20T14:58:47Z</time></trkpt>
<trkpt lat="46.15266" lon="7.93418"><ele></ele><time>2025-8-20T14:58:50Z</time></trkpt>
<trkpt lat="46.15277" lon="7.93412"><ele></ele><time>2025-8-20T14:58:53Z</time></trkpt>
<trkpt lat="46.15278" lon="7.93404"><ele></ele><time>2025-8-20T14:58:56Z</time></trkpt>
<trkpt lat="46.15274" lon="7.934"><ele></ele><time>2025-8-20T14:58:59Z</time></trkpt>
<trkpt lat="46.15269" lon="7.93399"><ele></ele><time>2025-8-20T14:59:2Z</time></trkpt>
<trkpt lat="46.15264" lon="7.93402"><ele></ele><time>2025-8-20T14:59:5Z</time></trkpt>
<trkpt lat="46.15252" lon="7.93411"><ele></ele><time>2025-8-20T14:59:8Z</time></trkpt>
<trkpt lat="46.15237" lon="7.93421"><ele></ele><time>2025-8-20T14:59:11Z</time></trkpt>
<trkpt lat="46.15218" lon="7.9343"><ele></ele><time>2025-8-20T14:59:14Z</time></trkpt>
<trkpt lat="46.15208" lon="7.93432"><ele></ele><time>2025-8-20T14:59:17Z</time></trkpt>
<trkpt lat="46.15197" lon="7.93433"><ele></ele><time>2025-8-20T14:59:20Z</time></trkpt>
<trkpt lat="46.15188" lon="7.9343"><ele></ele><time>2025-8-20T14:59:23Z</time></trkpt>
<trkpt lat="46.15182" lon="7.93424"><ele></ele><time>2025-8-20T14:59:26Z</time></trkpt>
<trkpt lat="46.15174" lon="7.93416"><ele></ele><time>2025-8-20T14:59:29Z</time></trkpt>
<trkpt lat="46.15161" lon="7.93403"><ele></ele><time>2025-8-20T14:59:32Z</time></trkpt>
<trkpt lat="46.15154" lon="7.934"><ele></ele><time>2025-8-20T14:59:35Z</time></trkpt>
<trkpt lat="46.15144" lon="7.93397"><ele></ele><time>2025-8-20T14:59:38Z</time></trkpt>
<trkpt lat="46.15134" lon="7.93394"><ele></ele><time>2025-8-20T14:59:41Z</time></trkpt>
<trkpt lat="46.15124" lon="7.93389"><ele></ele><time>2025-8-20T14:59:44Z</time></trkpt>
<trkpt lat="46.15112" lon="7.93384"><ele></ele><time>2025-8-20T14:59:47Z</time></trkpt>
<trkpt lat="46.15092" lon="7.93373"><ele></ele><time>2025-8-20T14:59:50Z</time></trkpt>
<trkpt lat="46.15082" lon="7.93366"><ele></ele><time>2025-8-20T14:59:53Z</time></trkpt>
<trkpt lat="46.15068" lon="7.93347"><ele></ele><time>2025-8-20T14:59:56Z</time></trkpt>
<trkpt lat="46.15062" lon="7.93337"><ele></ele><time>2025-8-20T14:59:59Z</time></trkpt>
<trkpt lat="46.15055" lon="7.9333"><ele></ele><time>2025-8-20T15:0:2Z</time></trkpt>
<trkpt lat="46.15048" lon="7.93325"><ele></ele><time>2025-8-20T15:0:5Z</time></trkpt>
<trkpt lat="46.1504" lon="7.93321"><ele></ele><time>2025-8-20T15:0:8Z</time></trkpt>
<trkpt lat="46.15032" lon="7.93316"><ele></ele><time>2025-8-20T15:0:11Z</time></trkpt>
<trkpt lat="46.15024" lon="7.9331"><ele></ele><time>2025-8-20T15:0:14Z</time></trkpt>
<trkpt lat="46.15015" lon="7.93303"><ele></ele><time>2025-8-20T15:0:17Z</time></trkpt>
<trkpt lat="46.15005" lon="7.93295"><ele></ele><time>2025-8-20T15:0:20Z</time></trkpt>
<trkpt lat="46.14995" lon="7.93286"><ele></ele><time>2025-8-20T15:0:23Z</time></trkpt>
<trkpt lat="46.14985" lon="7.9328"><ele></ele><time>2025-8-20T15:0:26Z</time></trkpt>
<trkpt lat="46.14974" lon="7.93273"><ele></ele><time>2025-8-20T15:0:29Z</time></trkpt>
<trkpt lat="46.14963" lon="7.93267"><ele></ele><time>2025-8-20T15:0:32Z</time></trkpt>
<trkpt lat="46.14953" lon="7.9326"><ele></ele><time>2025-8-20T15:0:35Z</time></trkpt>
<trkpt lat="46.14945" lon="7.93253"><ele></ele><time>2025-8-20T15:0:38Z</time></trkpt>
<trkpt lat="46.14929" lon="7.93245"><ele></ele><time>2025-8-20T15:0:41Z</time></trkpt>
<trkpt lat="46.14919" lon="7.93244"><ele></ele><time>2025-8-20T15:0:44Z</time></trkpt>
<trkpt lat="46.14898" lon="7.9324"><ele></ele><time>2025-8-20T15:0:47Z</time></trkpt>
<trkpt lat="46.14878" lon="7.93234"><ele></ele><time>2025-8-20T15:0:50Z</time></trkpt>
<trkpt lat="46.14869" lon="7.93234"><ele></ele><time>2025-8-20T15:0:53Z</time></trkpt>
<trkpt lat="46.1486" lon="7.93237"><ele></ele><time>2025-8-20T15:0:56Z</time></trkpt>
<trkpt lat="46.14853" lon="7.93241"><ele></ele><time>2025-8-20T15:0:59Z</time></trkpt>
<trkpt lat="46.14843" lon="7.93246"><ele></ele><time>2025-8-20T15:1:2Z</time></trkpt>
<trkpt lat="46.14834" lon="7.9325"><ele></ele><time>2025-8-20T15:1:5Z</time></trkpt>
<trkpt lat="46.14824" lon="7.93254"><ele></ele><time>2025-8-20T15:1:8Z</time></trkpt>
<trkpt lat="46.14814" lon="7.93261"><ele></ele><time>2025-8-20T15:1:11Z</time></trkpt>
<trkpt lat="46.14804" lon="7.93269"><ele></ele><time>2025-8-20T15:1:14Z</time></trkpt>
<trkpt lat="46.14792" lon="7.93274"><ele></ele><time>2025-8-20T15:1:17Z</time></trkpt>
<trkpt lat="46.1478" lon="7.93279"><ele></ele><time>2025-8-20T15:1:20Z</time></trkpt>
<trkpt lat="46.14768" lon="7.93281"><ele></ele><time>2025-8-20T15:1:23Z</time></trkpt>
<trkpt lat="46.14756" lon="7.93283"><ele></ele><time>2025-8-20T15:1:26Z</time></trkpt>
<trkpt lat="46.14743" lon="7.93285"><ele></ele><time>2025-8-20T15:1:29Z</time></trkpt>
<trkpt lat="46.1473" lon="7.93288"><ele></ele><time>2025-8-20T15:1:32Z</time></trkpt>
<trkpt lat="46.14718" lon="7.93288"><ele></ele><time>2025-8-20T15:1:35Z</time></trkpt>
<trkpt lat="46.14707" lon="7.93287"><ele></ele><time>2025-8-20T15:1:38Z</time></trkpt>
<trkpt lat="46.14696" lon="7.93284"><ele></ele><time>2025-8-20T15:1:41Z</time></trkpt>
<trkpt lat="46.14685" lon="7.93284"><ele></ele><time>2025-8-20T15:1:44Z</time></trkpt>
<trkpt lat="46.14676" lon="7.93286"><ele></ele><time>2025-8-20T15:1:47Z</time></trkpt>
<trkpt lat="46.14667" lon="7.9329"><ele></ele><time>2025-8-20T15:1:50Z</time></trkpt>
<trkpt lat="46.1466" lon="7.93294"><ele></ele><time>2025-8-20T15:1:53Z</time></trkpt>
<trkpt lat="46.14653" lon="7.93297"><ele></ele><time>2025-8-20T15:1:56Z</time></trkpt>
<trkpt lat="46.14638" lon="7.93301"><ele></ele><time>2025-8-20T15:1:59Z</time></trkpt>
<trkpt lat="46.14631" lon="7.93302"><ele></ele><time>2025-8-20T15:2:2Z</time></trkpt>
<trkpt lat="46.14624" lon="7.93302"><ele></ele><time>2025-8-20T15:2:5Z</time></trkpt>
<trkpt lat="46.14617" lon="7.93301"><ele></ele><time>2025-8-20T15:2:8Z</time></trkpt>
<trkpt lat="46.14611" lon="7.933"><ele></ele><time>2025-8-20T15:2:11Z</time></trkpt>
<trkpt lat="46.14604" lon="7.93299"><ele></ele><time>2025-8-20T15:2:14Z</time></trkpt>
<trkpt lat="46.14597" lon="7.93298"><ele></ele><time>2025-8-20T15:2:17Z</time></trkpt>
<trkpt lat="46.14581" lon="7.93295"><ele></ele><time>2025-8-20T15:2:20Z</time></trkpt>
<trkpt lat="46.14572" lon="7.93291"><ele></ele><time>2025-8-20T15:2:23Z</time></trkpt>
<trkpt lat="46.14563" lon="7.93287"><ele></ele><time>2025-8-20T15:2:26Z</time></trkpt>
<trkpt lat="46.14554" lon="7.93281"><ele></ele><time>2025-8-20T15:2:29Z</time></trkpt>
<trkpt lat="46.14533" lon="7.93273"><ele></ele><time>2025-8-20T15:2:32Z</time></trkpt>
<trkpt lat="46.14522" lon="7.9327"><ele></ele><time>2025-8-20T15:2:35Z</time></trkpt>
<trkpt lat="46.14511" lon="7.9327"><ele></ele><time>2025-8-20T15:2:38Z</time></trkpt>
<trkpt lat="46.14499" lon="7.93266"><ele></ele><time>2025-8-20T15:2:41Z</time></trkpt>
<trkpt lat="46.14487" lon="7.93262"><ele></ele><time>2025-8-20T15:2:44Z</time></trkpt>
<trkpt lat="46.14476" lon="7.93257"><ele></ele><time>2025-8-20T15:2:47Z</time></trkpt>
<trkpt lat="46.14465" lon="7.93249"><ele></ele><time>2025-8-20T15:2:50Z</time></trkpt>
<trkpt lat="46.14452" lon="7.93244"><ele></ele><time>2025-8-20T15:2:53Z</time></trkpt>
<trkpt lat="46.1444" lon="7.93241"><ele></ele><time>2025-8-20T15:2:56Z</time></trkpt>
<trkpt lat="46.14428" lon="7.9324"><ele></ele><time>2025-8-20T15:2:59Z</time></trkpt>
<trkpt lat="46.14416" lon="7.93238"><ele></ele><time>2025-8-20T15:3:2Z</time></trkpt>
<trkpt lat="46.14403" lon="7.93234"><ele></ele><time>2025-8-20T15:3:5Z</time></trkpt>
<trkpt lat="46.14379" lon="7.93224"><ele></ele><time>2025-8-20T15:3:8Z</time></trkpt>
<trkpt lat="46.14368" lon="7.93218"><ele></ele><time>2025-8-20T15:3:11Z</time></trkpt>
<trkpt lat="46.14357" lon="7.93214"><ele></ele><time>2025-8-20T15:3:14Z</time></trkpt>
<trkpt lat="46.14346" lon="7.93212"><ele></ele><time>2025-8-20T15:3:17Z</time></trkpt>
<trkpt lat="46.14337" lon="7.93213"><ele></ele><time>2025-8-20T15:3:20Z</time></trkpt>
<trkpt lat="46.14329" lon="7.93216"><ele></ele><time>2025-8-20T15:3:23Z</time></trkpt>
<trkpt lat="46.14322" lon="7.93216"><ele></ele><time>2025-8-20T15:3:26Z</time></trkpt>
<trkpt lat="46.14318" lon="7.93212"><ele></ele><time>2025-8-20T15:3:29Z</time></trkpt>
<trkpt lat="46.14317" lon="7.93206"><ele></ele><time>2025-8-20T15:3:32Z</time></trkpt>
<trkpt lat="46.14322" lon="7.93198"><ele></ele><time>2025-8-20T15:3:35Z</time></trkpt>
<trkpt lat="46.14327" lon="7.93198"><ele></ele><time>2025-8-20T15:3:38Z</time></trkpt>
<trkpt lat="46.14339" lon="7.93195"><ele></ele><time>2025-8-20T15:3:41Z</time></trkpt>
<trkpt lat="46.14354" lon="7.93197"><ele></ele><time>2025-8-20T15:3:44Z</time></trkpt>
<trkpt lat="46.14362" lon="7.93199"><ele></ele><time>2025-8-20T15:3:47Z</time></trkpt>
<trkpt lat="46.1437" lon="7.93201"><ele></ele><time>2025-8-20T15:3:50Z</time></trkpt>
<trkpt lat="46.1438" lon="7.932"><ele></ele><time>2025-8-20T15:3:53Z</time></trkpt>
<trkpt lat="46.1439" lon="7.93199"><ele></ele><time>2025-8-20T15:3:56Z</time></trkpt>
<trkpt lat="46.14399" lon="7.93197"><ele></ele><time>2025-8-20T15:3:59Z</time></trkpt>
<trkpt lat="46.1441" lon="7.93194"><ele></ele><time>2025-8-20T15:4:2Z</time></trkpt>
<trkpt lat="46.14421" lon="7.9319"><ele></ele><time>2025-8-20T15:4:5Z</time></trkpt>
<trkpt lat="46.14432" lon="7.93187"><ele></ele><time>2025-8-20T15:4:8Z</time></trkpt>
<trkpt lat="46.14443" lon="7.93182"><ele></ele><time>2025-8-20T15:4:11Z</time></trkpt>
<trkpt lat="46.14466" lon="7.9317"><ele></ele><time>2025-8-20T15:4:14Z</time></trkpt>
<trkpt lat="46.14477" lon="7.93162"><ele></ele><time>2025-8-20T15:4:17Z</time></trkpt>
<trkpt lat="46.14486" lon="7.93151"><ele></ele><time>2025-8-20T15:4:20Z</time></trkpt>
<trkpt lat="46.14496" lon="7.93141"><ele></ele><time>2025-8-20T15:4:23Z</time></trkpt>
<trkpt lat="46.14505" lon="7.9313"><ele></ele><time>2025-8-20T15:4:26Z</time></trkpt>
<trkpt lat="46.14514" lon="7.93118"><ele></ele><time>2025-8-20T15:4:29Z</time></trkpt>
<trkpt lat="46.14525" lon="7.9311"><ele></ele><time>2025-8-20T15:4:32Z</time></trkpt>
<trkpt lat="46.14537" lon="7.93101"><ele></ele><time>2025-8-20T15:4:35Z</time></trkpt>
<trkpt lat="46.14548" lon="7.93095"><ele></ele><time>2025-8-20T15:4:38Z</time></trkpt>
<trkpt lat="46.14559" lon="7.93089"><ele></ele><time>2025-8-20T15:4:41Z</time></trkpt>
<trkpt lat="46.1457" lon="7.93084"><ele></ele><time>2025-8-20T15:4:44Z</time></trkpt>
<trkpt lat="46.14581" lon="7.93081"><ele></ele><time>2025-8-20T15:4:47Z</time></trkpt>
<trkpt lat="46.14591" lon="7.9308"><ele></ele><time>2025-8-20T15:4:50Z</time></trkpt>
<trkpt lat="46.14601" lon="7.9308"><ele></ele><time>2025-8-20T15:4:53Z</time></trkpt>
<trkpt lat="46.14622" lon="7.93083"><ele></ele><time>2025-8-20T15:4:56Z</time></trkpt>
<trkpt lat="46.14633" lon="7.93089"><ele></ele><time>2025-8-20T15:4:59Z</time></trkpt>
<trkpt lat="46.14643" lon="7.93093"><ele></ele><time>2025-8-20T15:5:2Z</time></trkpt>
<trkpt lat="46.14667" lon="7.93097"><ele></ele><time>2025-8-20T15:5:5Z</time></trkpt>
<trkpt lat="46.14678" lon="7.93094"><ele></ele><time>2025-8-20T15:5:8Z</time></trkpt>
<trkpt lat="46.1469" lon="7.93091"><ele></ele><time>2025-8-20T15:5:11Z</time></trkpt>
<trkpt lat="46.14702" lon="7.93088"><ele></ele><time>2025-8-20T15:5:14Z</time></trkpt>
<trkpt lat="46.14723" lon="7.93084"><ele></ele><time>2025-8-20T15:5:17Z</time></trkpt>
<trkpt lat="46.14734" lon="7.93081"><ele></ele><time>2025-8-20T15:5:20Z</time></trkpt>
<trkpt lat="46.14744" lon="7.93079"><ele></ele><time>2025-8-20T15:5:23Z</time></trkpt>
<trkpt lat="46.14754" lon="7.93077"><ele></ele><time>2025-8-20T15:5:26Z</time></trkpt>
<trkpt lat="46.14768" lon="7.93075"><ele></ele><time>2025-8-20T15:5:29Z</time></trkpt>
<trkpt lat="46.14773" lon="7.93075"><ele></ele><time>2025-8-20T15:5:32Z</time></trkpt>
<trkpt lat="46.14779" lon="7.93071"><ele></ele><time>2025-8-20T15:5:35Z</time></trkpt>
<trkpt lat="46.14793" lon="7.93066"><ele></ele><time>2025-8-20T15:5:38Z</time></trkpt>
<trkpt lat="46.14808" lon="7.93067"><ele></ele><time>2025-8-20T15:5:41Z</time></trkpt>
<trkpt lat="46.14816" lon="7.93066"><ele></ele><time>2025-8-20T15:5:44Z</time></trkpt>
<trkpt lat="46.14825" lon="7.93062"><ele></ele><time>2025-8-20T15:5:47Z</time></trkpt>
<trkpt lat="46.14835" lon="7.93057"><ele></ele><time>2025-8-20T15:5:50Z</time></trkpt>
<trkpt lat="46.14844" lon="7.93053"><ele></ele><time>2025-8-20T15:5:53Z</time></trkpt>
<trkpt lat="46.14852" lon="7.93047"><ele></ele><time>2025-8-20T15:5:56Z</time></trkpt>
<trkpt lat="46.14859" lon="7.93041"><ele></ele><time>2025-8-20T15:5:59Z</time></trkpt>
<trkpt lat="46.14867" lon="7.93034"><ele></ele><time>2025-8-20T15:6:2Z</time></trkpt>
<trkpt lat="46.14875" lon="7.93031"><ele></ele><time>2025-8-20T15:6:5Z</time></trkpt>
<trkpt lat="46.14884" lon="7.93028"><ele></ele><time>2025-8-20T15:6:8Z</time></trkpt>
<trkpt lat="46.14904" lon="7.93023"><ele></ele><time>2025-8-20T15:6:11Z</time></trkpt>
<trkpt lat="46.14914" lon="7.93023"><ele></ele><time>2025-8-20T15:6:14Z</time></trkpt>
<trkpt lat="46.14926" lon="7.93021"><ele></ele><time>2025-8-20T15:6:17Z</time></trkpt>
<trkpt lat="46.14938" lon="7.93019"><ele></ele><time>2025-8-20T15:6:20Z</time></trkpt>
<trkpt lat="46.1495" lon="7.93015"><ele></ele><time>2025-8-20T15:6:23Z</time></trkpt>
<trkpt lat="46.14962" lon="7.93011"><ele></ele><time>2025-8-20T15:6:26Z</time></trkpt>
<trkpt lat="46.14975" lon="7.93005"><ele></ele><time>2025-8-20T15:6:29Z</time></trkpt>
<trkpt lat="46.14988" lon="7.92999"><ele></ele><time>2025-8-20T15:6:32Z</time></trkpt>
<trkpt lat="46.15001" lon="7.92993"><ele></ele><time>2025-8-20T15:6:35Z</time></trkpt>
<trkpt lat="46.15014" lon="7.92988"><ele></ele><time>2025-8-20T15:6:38Z</time></trkpt>
<trkpt lat="46.15027" lon="7.92984"><ele></ele><time>2025-8-20T15:6:41Z</time></trkpt>
<trkpt lat="46.15038" lon="7.92981"><ele></ele><time>2025-8-20T15:6:44Z</time></trkpt>
<trkpt lat="46.15049" lon="7.92976"><ele></ele><time>2025-8-20T15:6:47Z</time></trkpt>
<trkpt lat="46.15058" lon="7.92971"><ele></ele><time>2025-8-20T15:6:50Z</time></trkpt>
<trkpt lat="46.15067" lon="7.92966"><ele></ele><time>2025-8-20T15:6:53Z</time></trkpt>
<trkpt lat="46.15076" lon="7.92962"><ele></ele><time>2025-8-20T15:6:56Z</time></trkpt>
<trkpt lat="46.15084" lon="7.9296"><ele></ele><time>2025-8-20T15:6:59Z</time></trkpt>
<trkpt lat="46.15092" lon="7.92958"><ele></ele><time>2025-8-20T15:7:2Z</time></trkpt>
<trkpt lat="46.15101" lon="7.92956"><ele></ele><time>2025-8-20T15:7:5Z</time></trkpt>
<trkpt lat="46.15118" lon="7.92955"><ele></ele><time>2025-8-20T15:7:8Z</time></trkpt>
<trkpt lat="46.15128" lon="7.92954"><ele></ele><time>2025-8-20T15:7:11Z</time></trkpt>
<trkpt lat="46.15138" lon="7.92954"><ele></ele><time>2025-8-20T15:7:14Z</time></trkpt>
<trkpt lat="46.15148" lon="7.92955"><ele></ele><time>2025-8-20T15:7:17Z</time></trkpt>
<trkpt lat="46.15158" lon="7.92955"><ele></ele><time>2025-8-20T15:7:20Z</time></trkpt>
<trkpt lat="46.15169" lon="7.92957"><ele></ele><time>2025-8-20T15:7:23Z</time></trkpt>
<trkpt lat="46.15179" lon="7.92959"><ele></ele><time>2025-8-20T15:7:26Z</time></trkpt>
<trkpt lat="46.1519" lon="7.92961"><ele></ele><time>2025-8-20T15:7:29Z</time></trkpt>
<trkpt lat="46.15199" lon="7.92965"><ele></ele><time>2025-8-20T15:7:32Z</time></trkpt>
<trkpt lat="46.1521" lon="7.92968"><ele></ele><time>2025-8-20T15:7:35Z</time></trkpt>
<trkpt lat="46.1522" lon="7.92972"><ele></ele><time>2025-8-20T15:7:38Z</time></trkpt>
<trkpt lat="46.1523" lon="7.92976"><ele></ele><time>2025-8-20T15:7:41Z</time></trkpt>
<trkpt lat="46.15241" lon="7.92981"><ele></ele><time>2025-8-20T15:7:44Z</time></trkpt>
<trkpt lat="46.15252" lon="7.92986"><ele></ele><time>2025-8-20T15:7:47Z</time></trkpt>
<trkpt lat="46.15263" lon="7.9299"><ele></ele><time>2025-8-20T15:7:50Z</time></trkpt>
<trkpt lat="46.15273" lon="7.92995"><ele></ele><time>2025-8-20T15:7:53Z</time></trkpt>
<trkpt lat="46.15284" lon="7.93001"><ele></ele><time>2025-8-20T15:7:56Z</time></trkpt>
<trkpt lat="46.15295" lon="7.93005"><ele></ele><time>2025-8-20T15:7:59Z</time></trkpt>
<trkpt lat="46.15307" lon="7.9301"><ele></ele><time>2025-8-20T15:8:2Z</time></trkpt>
<trkpt lat="46.15319" lon="7.93013"><ele></ele><time>2025-8-20T15:8:5Z</time></trkpt>
<trkpt lat="46.1533" lon="7.93014"><ele></ele><time>2025-8-20T15:8:8Z</time></trkpt>
<trkpt lat="46.15342" lon="7.93014"><ele></ele><time>2025-8-20T15:8:11Z</time></trkpt>
<trkpt lat="46.15353" lon="7.93015"><ele></ele><time>2025-8-20T15:8:14Z</time></trkpt>
<trkpt lat="46.15363" lon="7.93019"><ele></ele><time>2025-8-20T15:8:17Z</time></trkpt>
<trkpt lat="46.15372" lon="7.93025"><ele></ele><time>2025-8-20T15:8:20Z</time></trkpt>
<trkpt lat="46.15382" lon="7.93028"><ele></ele><time>2025-8-20T15:8:23Z</time></trkpt>
<trkpt lat="46.15393" lon="7.93025"><ele></ele><time>2025-8-20T15:8:26Z</time></trkpt>
<trkpt lat="46.15403" lon="7.93021"><ele></ele><time>2025-8-20T15:8:29Z</time></trkpt>
<trkpt lat="46.15414" lon="7.93019"><ele></ele><time>2025-8-20T15:8:32Z</time></trkpt>
<trkpt lat="46.15437" lon="7.93008"><ele></ele><time>2025-8-20T15:8:35Z</time></trkpt>
<trkpt lat="46.15449" lon="7.93003"><ele></ele><time>2025-8-20T15:8:38Z</time></trkpt>
<trkpt lat="46.15461" lon="7.93001"><ele></ele><time>2025-8-20T15:8:41Z</time></trkpt>
<trkpt lat="46.15473" lon="7.92997"><ele></ele><time>2025-8-20T15:8:44Z</time></trkpt>
<trkpt lat="46.15483" lon="7.92995"><ele></ele><time>2025-8-20T15:8:47Z</time></trkpt>
<trkpt lat="46.15492" lon="7.92996"><ele></ele><time>2025-8-20T15:8:50Z</time></trkpt>
<trkpt lat="46.15502" lon="7.92997"><ele></ele><time>2025-8-20T15:8:53Z</time></trkpt>
<trkpt lat="46.15511" lon="7.92999"><ele></ele><time>2025-8-20T15:8:56Z</time></trkpt>
<trkpt lat="46.1552" lon="7.93001"><ele></ele><time>2025-8-20T15:8:59Z</time></trkpt>
<trkpt lat="46.1553" lon="7.93003"><ele></ele><time>2025-8-20T15:9:2Z</time></trkpt>
<trkpt lat="46.15537" lon="7.93007"><ele></ele><time>2025-8-20T15:9:5Z</time></trkpt>
<trkpt lat="46.15551" lon="7.93014"><ele></ele><time>2025-8-20T15:9:8Z</time></trkpt>
<trkpt lat="46.15563" lon="7.93013"><ele></ele><time>2025-8-20T15:9:11Z</time></trkpt>
<trkpt lat="46.15566" lon="7.93009"><ele></ele><time>2025-8-20T15:9:14Z</time></trkpt>
<trkpt lat="46.15568" lon="7.93004"><ele></ele><time>2025-8-20T15:9:17Z</time></trkpt>
<trkpt lat="46.15569" lon="7.92995"><ele></ele><time>2025-8-20T15:9:20Z</time></trkpt>
<trkpt lat="46.15566" lon="7.9299"><ele></ele><time>2025-8-20T15:9:23Z</time></trkpt>
<trkpt lat="46.15564" lon="7.92989"><ele></ele><time>2025-8-20T15:9:26Z</time></trkpt>
<trkpt lat="46.15561" lon="7.92988"><ele></ele><time>2025-8-20T15:9:29Z</time></trkpt>
<trkpt lat="46.15562" lon="7.92987"><ele></ele><time>2025-8-20T15:9:32Z</time></trkpt>
<trkpt lat="46.15563" lon="7.92986"><ele></ele><time>2025-8-20T15:9:35Z</time></trkpt>
<trkpt lat="46.15566" lon="7.92986"><ele></ele><time>2025-8-20T15:9:38Z</time></trkpt>
<trkpt lat="46.15567" lon="7.92985"><ele></ele><time>2025-8-20T15:9:41Z</time></trkpt>
<trkpt lat="46.15567" lon="7.92985"><ele></ele><time>2025-8-20T15:9:44Z</time></trkpt>
<trkpt lat="46.15567" lon="7.92985"><ele></ele><time>2025-8-20T15:9:47Z</time></trkpt>
<trkpt lat="46.15568" lon="7.92986"><ele></ele><time>2025-8-20T15:9:50Z</time></trkpt>
<trkpt lat="46.15566" lon="7.92985"><ele></ele><time>2025-8-20T15:9:53Z</time></trkpt>
<trkpt lat="46.15565" lon="7.92985"><ele></ele><time>2025-8-20T15:9:56Z</time></trkpt>
<trkpt lat="46.15559" lon="7.92984"><ele></ele><time>2025-8-20T15:9:59Z</time></trkpt>
<trkpt lat="46.15551" lon="7.92983"><ele></ele><time>2025-8-20T15:10:2Z</time></trkpt>
<trkpt lat="46.15541" lon="7.92982"><ele></ele><time>2025-8-20T15:10:5Z</time></trkpt>
<trkpt lat="46.15528" lon="7.9298"><ele></ele><time>2025-8-20T15:10:8Z</time></trkpt>
<trkpt lat="46.15522" lon="7.92977"><ele></ele><time>2025-8-20T15:10:11Z</time></trkpt>
<trkpt lat="46.15505" lon="7.92967"><ele></ele><time>2025-8-20T15:10:14Z</time></trkpt>
<trkpt lat="46.15482" lon="7.92962"><ele></ele><time>2025-8-20T15:10:17Z</time></trkpt>
<trkpt lat="46.15471" lon="7.92961"><ele></ele><time>2025-8-20T15:10:20Z</time></trkpt>
<trkpt lat="46.15451" lon="7.92958"><ele></ele><time>2025-8-20T15:10:23Z</time></trkpt>
<trkpt lat="46.15446" lon="7.92957"><ele></ele><time>2025-8-20T15:10:26Z</time></trkpt>
<trkpt lat="46.15435" lon="7.92954"><ele></ele><time>2025-8-20T15:10:29Z</time></trkpt>
<trkpt lat="46.15419" lon="7.92949"><ele></ele><time>2025-8-20T15:10:32Z</time></trkpt>
<trkpt lat="46.1541" lon="7.92947"><ele></ele><time>2025-8-20T15:10:35Z</time></trkpt>
<trkpt lat="46.15392" lon="7.92943"><ele></ele><time>2025-8-20T15:10:38Z</time></trkpt>
<trkpt lat="46.15388" lon="7.9294"><ele></ele><time>2025-8-20T15:10:41Z</time></trkpt>
<trkpt lat="46.15383" lon="7.92937"><ele></ele><time>2025-8-20T15:10:44Z</time></trkpt>
<trkpt lat="46.15379" lon="7.92928"><ele></ele><time>2025-8-20T15:10:47Z</time></trkpt>
<trkpt lat="46.15376" lon="7.92923"><ele></ele><time>2025-8-20T15:10:50Z</time></trkpt>
<trkpt lat="46.15372" lon="7.92916"><ele></ele><time>2025-8-20T15:10:53Z</time></trkpt>
<trkpt lat="46.15374" lon="7.92913"><ele></ele><time>2025-8-20T15:10:56Z</time></trkpt>
<trkpt lat="46.15373" lon="7.92912"><ele></ele><time>2025-8-20T15:10:59Z</time></trkpt>
<trkpt lat="46.15371" lon="7.92909"><ele></ele><time>2025-8-20T15:11:2Z</time></trkpt>
<trkpt lat="46.15369" lon="7.92907"><ele></ele><time>2025-8-20T15:11:5Z</time></trkpt>
<trkpt lat="46.15363" lon="7.92901"><ele></ele><time>2025-8-20T15:11:8Z</time></trkpt>
<trkpt lat="46.15359" lon="7.92896"><ele></ele><time>2025-8-20T15:11:11Z</time></trkpt>
<trkpt lat="46.15359" lon="7.92895"><ele></ele><time>2025-8-20T15:11:14Z</time></trkpt>
<trkpt lat="46.15359" lon="7.92895"><ele></ele><time>2025-8-20T15:11:17Z</time></trkpt>
<trkpt lat="46.15359" lon="7.92895"><ele></ele><time>2025-8-20T15:11:20Z</time></trkpt>
<trkpt lat="46.15359" lon="7.92895"><ele></ele><time>2025-8-20T15:11:23Z</time></trkpt>
<trkpt lat="46.15359" lon="7.92895"><ele></ele><time>2025-8-20T15:11:26Z</time></trkpt>
<trkpt lat="46.15359" lon="7.92895"><ele></ele><time>2025-8-20T15:11:29Z</time></trkpt>
<trkpt lat="46.1536" lon="7.92896"><ele></ele><time>2025-8-20T15:11:32Z</time></trkpt>
<trkpt lat="46.15361" lon="7.92897"><ele></ele><time>2025-8-20T15:11:35Z</time></trkpt>
<trkpt lat="46.15361" lon="7.92897"><ele></ele><time>2025-8-20T15:11:38Z</time></trkpt>
<trkpt lat="46.15361" lon="7.92897"><ele></ele><time>2025-8-20T15:11:41Z</time></trkpt>
<trkpt lat="46.15361" lon="7.92897"><ele></ele><time>2025-8-20T15:11:44Z</time></trkpt>
<trkpt lat="46.15361" lon="7.92897"><ele></ele><time>2025-8-20T15:11:47Z</time></trkpt>
<trkpt lat="46.15361" lon="7.92897"><ele></ele><time>2025-8-20T15:11:50Z</time></trkpt>
<trkpt lat="46.15361" lon="7.92897"><ele></ele><time>2025-8-20T15:11:53Z</time></trkpt>
<trkpt lat="46.15359" lon="7.92898"><ele></ele><time>2025-8-20T15:11:56Z</time></trkpt>
<trkpt lat="46.15358" lon="7.92899"><ele></ele><time>2025-8-20T15:11:59Z</time></trkpt>
<trkpt lat="46.15356" lon="7.929"><ele></ele><time>2025-8-20T15:12:2Z</time></trkpt>
<trkpt lat="46.15357" lon="7.92901"><ele></ele><time>2025-8-20T15:12:5Z</time></trkpt>
<trkpt lat="46.15357" lon="7.92902"><ele></ele><time>2025-8-20T15:12:8Z</time></trkpt>
<trkpt lat="46.15357" lon="7.92902"><ele></ele><time>2025-8-20T15:12:11Z</time></trkpt>
<trkpt lat="46.15359" lon="7.92901"><ele></ele><time>2025-8-20T15:12:14Z</time></trkpt>
<trkpt lat="46.15359" lon="7.92901"><ele></ele><time>2025-8-20T15:12:17Z</time></trkpt>
<trkpt lat="46.15359" lon="7.92901"><ele></ele><time>2025-8-20T15:12:20Z</time></trkpt>
<trkpt lat="46.15359" lon="7.92901"><ele></ele><time>2025-8-20T15:12:23Z</time></trkpt>
<trkpt lat="46.15359" lon="7.929"><ele></ele><time>2025-8-20T15:12:26Z</time></trkpt>
<trkpt lat="46.15355" lon="7.92899"><ele></ele><time>2025-8-20T15:12:29Z</time></trkpt>
<trkpt lat="46.15352" lon="7.92898"><ele></ele><time>2025-8-20T15:12:32Z</time></trkpt>
<trkpt lat="46.15343" lon="7.92897"><ele></ele><time>2025-8-20T15:12:35Z</time></trkpt>
<trkpt lat="46.15342" lon="7.92894"><ele></ele><time>2025-8-20T15:12:38Z</time></trkpt>
<trkpt lat="46.15343" lon="7.92895"><ele></ele><time>2025-8-20T15:12:41Z</time></trkpt>
<trkpt lat="46.15341" lon="7.92896"><ele></ele><time>2025-8-20T15:12:44Z</time></trkpt>
<trkpt lat="46.15334" lon="7.92897"><ele></ele><time>2025-8-20T15:12:47Z</time></trkpt>
<trkpt lat="46.1533" lon="7.92897"><ele></ele><time>2025-8-20T15:12:50Z</time></trkpt>
<trkpt lat="46.15324" lon="7.92896"><ele></ele><time>2025-8-20T15:12:53Z</time></trkpt>
<trkpt lat="46.15319" lon="7.92894"><ele></ele><time>2025-8-20T15:12:56Z</time></trkpt>
<trkpt lat="46.15313" lon="7.92891"><ele></ele><time>2025-8-20T15:12:59Z</time></trkpt>
<trkpt lat="46.15298" lon="7.92886"><ele></ele><time>2025-8-20T15:13:2Z</time></trkpt>
<trkpt lat="46.15283" lon="7.9288"><ele></ele><time>2025-8-20T15:13:5Z</time></trkpt>
<trkpt lat="46.15274" lon="7.92878"><ele></ele><time>2025-8-20T15:13:8Z</time></trkpt>
<trkpt lat="46.15266" lon="7.92878"><ele></ele><time>2025-8-20T15:13:11Z</time></trkpt>
<trkpt lat="46.1525" lon="7.9288"><ele></ele><time>2025-8-20T15:13:14Z</time></trkpt>
<trkpt lat="46.15242" lon="7.92872"><ele></ele><time>2025-8-20T15:13:17Z</time></trkpt>
<trkpt lat="46.15246" lon="7.92865"><ele></ele><time>2025-8-20T15:13:20Z</time></trkpt>
<trkpt lat="46.15256" lon="7.92865"><ele></ele><time>2025-8-20T15:13:23Z</time></trkpt>
<trkpt lat="46.15261" lon="7.92865"><ele></ele><time>2025-8-20T15:13:26Z</time></trkpt>
<trkpt lat="46.15267" lon="7.92866"><ele></ele><time>2025-8-20T15:13:29Z</time></trkpt>
<trkpt lat="46.15278" lon="7.92867"><ele></ele><time>2025-8-20T15:13:32Z</time></trkpt>
<trkpt lat="46.1529" lon="7.92868"><ele></ele><time>2025-8-20T15:13:35Z</time></trkpt>
<trkpt lat="46.15301" lon="7.9287"><ele></ele><time>2025-8-20T15:13:38Z</time></trkpt>
<trkpt lat="46.15306" lon="7.9287"><ele></ele><time>2025-8-20T15:13:41Z</time></trkpt>
<trkpt lat="46.1531" lon="7.92869"><ele></ele><time>2025-8-20T15:13:44Z</time></trkpt>
<trkpt lat="46.15314" lon="7.92868"><ele></ele><time>2025-8-20T15:13:47Z</time></trkpt>
<trkpt lat="46.15322" lon="7.92864"><ele></ele><time>2025-8-20T15:13:50Z</time></trkpt>
<trkpt lat="46.15325" lon="7.9286"><ele></ele><time>2025-8-20T15:13:53Z</time></trkpt>
<trkpt lat="46.15327" lon="7.92855"><ele></ele><time>2025-8-20T15:13:56Z</time></trkpt>
<trkpt lat="46.15329" lon="7.9284"><ele></ele><time>2025-8-20T15:13:59Z</time></trkpt>
<trkpt lat="46.15326" lon="7.92838"><ele></ele><time>2025-8-20T15:14:2Z</time></trkpt>
<trkpt lat="46.15319" lon="7.92839"><ele></ele><time>2025-8-20T15:14:5Z</time></trkpt>
<trkpt lat="46.15312" lon="7.92841"><ele></ele><time>2025-8-20T15:14:8Z</time></trkpt>
<trkpt lat="46.15309" lon="7.9284"><ele></ele><time>2025-8-20T15:14:11Z</time></trkpt>
<trkpt lat="46.15307" lon="7.92843"><ele></ele><time>2025-8-20T15:14:14Z</time></trkpt>
<trkpt lat="46.15308" lon="7.92845"><ele></ele><time>2025-8-20T15:14:17Z</time></trkpt>
<trkpt lat="46.15305" lon="7.92847"><ele></ele><time>2025-8-20T15:14:20Z</time></trkpt>
<trkpt lat="46.15304" lon="7.92846"><ele></ele><time>2025-8-20T15:14:23Z</time></trkpt>
<trkpt lat="46.15305" lon="7.92846"><ele></ele><time>2025-8-20T15:14:26Z</time></trkpt>
<trkpt lat="46.15305" lon="7.92846"><ele></ele><time>2025-8-20T15:14:29Z</time></trkpt>
</trkseg></trk></gpx>